<?xml version="1.0" encoding="UTF-8" standalone="no" ?>
<gpx xmlns="http://www.topografix.com/GPX/1/1" xmlns:xsi="http://www.w3.org/2001/XMLSchema-instance" xsi:schemaLocation="http://www.topografix.com/GPX/1/1 http://www.topografix.com/GPX/1/1/gpx.xsd" version="1.1" creator="VisuGPX - https://www.visugpx.com">
  <metadata>
    <name>Caen-Cabourg-Orne</name>
    <desc><![CDATA[pat-potes]]></desc>
  </metadata>
  <trk>
    <name><![CDATA[20150801_Redoute_51]]></name>
    <trkseg>
      <trkpt lat="49.18859" lon="-0.22435">
        <ele>-23.9</ele>
        <time>2015-08-01T08:53:52Z</time>
      </trkpt>
      <trkpt lat="49.18859" lon="-0.22435">
        <ele>-23.9</ele>
        <time>2015-08-01T08:53:53Z</time>
      </trkpt>
      <trkpt lat="49.18874" lon="-0.2243">
        <ele>-20.53</ele>
        <time>2015-08-01T08:54:08Z</time>
      </trkpt>
      <trkpt lat="49.18874" lon="-0.22431">
        <ele>-16.21</ele>
        <time>2015-08-01T08:54:11Z</time>
      </trkpt>
      <trkpt lat="49.18875" lon="-0.22432">
        <ele>-12.84</ele>
        <time>2015-08-01T08:54:14Z</time>
      </trkpt>
      <trkpt lat="49.18873" lon="-0.22433">
        <ele>-9.48</ele>
        <time>2015-08-01T08:54:18Z</time>
      </trkpt>
      <trkpt lat="49.1887" lon="-0.22432">
        <ele>-6.11</ele>
        <time>2015-08-01T08:54:23Z</time>
      </trkpt>
      <trkpt lat="49.18868" lon="-0.22431">
        <ele>-2.75</ele>
        <time>2015-08-01T08:54:28Z</time>
      </trkpt>
      <trkpt lat="49.18867" lon="-0.2243">
        <ele>0.62</ele>
        <time>2015-08-01T08:54:33Z</time>
      </trkpt>
      <trkpt lat="49.18866" lon="-0.22431">
        <ele>4.46</ele>
        <time>2015-08-01T08:54:39Z</time>
      </trkpt>
      <trkpt lat="49.18866" lon="-0.22431">
        <ele>6.39</ele>
        <time>2015-08-01T08:54:43Z</time>
      </trkpt>
      <trkpt lat="49.18868" lon="-0.22433">
        <ele>9.75</ele>
        <time>2015-08-01T08:54:48Z</time>
      </trkpt>
      <trkpt lat="49.18868" lon="-0.22435">
        <ele>13.12</ele>
        <time>2015-08-01T08:54:56Z</time>
      </trkpt>
      <trkpt lat="49.18869" lon="-0.22435">
        <ele>16</ele>
        <time>2015-08-01T08:55:08Z</time>
      </trkpt>
      <trkpt lat="49.1887" lon="-0.22435">
        <ele>19.84</ele>
        <time>2015-08-01T08:55:27Z</time>
      </trkpt>
      <trkpt lat="49.18869" lon="-0.22434">
        <ele>18.88</ele>
        <time>2015-08-01T08:55:51Z</time>
      </trkpt>
      <trkpt lat="49.18869" lon="-0.22434">
        <ele>18.4</ele>
        <time>2015-08-01T08:56:28Z</time>
      </trkpt>
      <trkpt lat="49.18871" lon="-0.22434">
        <ele>18.4</ele>
        <time>2015-08-01T08:57:05Z</time>
      </trkpt>
      <trkpt lat="49.18873" lon="-0.22434">
        <ele>18.88</ele>
        <time>2015-08-01T08:57:44Z</time>
      </trkpt>
      <trkpt lat="49.1887" lon="-0.22433">
        <ele>19.36</ele>
        <time>2015-08-01T08:58:04Z</time>
      </trkpt>
      <trkpt lat="49.18869" lon="-0.22409">
        <ele>19.36</ele>
        <time>2015-08-01T08:58:15Z</time>
      </trkpt>
      <trkpt lat="49.18871" lon="-0.22407">
        <ele>19.36</ele>
        <time>2015-08-01T08:58:16Z</time>
      </trkpt>
      <trkpt lat="49.18885" lon="-0.2239">
        <ele>18.88</ele>
        <time>2015-08-01T08:58:21Z</time>
      </trkpt>
      <trkpt lat="49.18908" lon="-0.22377">
        <ele>19.36</ele>
        <time>2015-08-01T08:58:31Z</time>
      </trkpt>
      <trkpt lat="49.18909" lon="-0.22378">
        <ele>23.69</ele>
        <time>2015-08-01T08:58:39Z</time>
      </trkpt>
      <trkpt lat="49.18909" lon="-0.22378">
        <ele>18.4</ele>
        <time>2015-08-01T08:58:40Z</time>
      </trkpt>
      <trkpt lat="49.18909" lon="-0.22378">
        <ele>18.4</ele>
        <time>2015-08-01T08:58:41Z</time>
      </trkpt>
      <trkpt lat="49.1891" lon="-0.22378">
        <ele>15.04</ele>
        <time>2015-08-01T08:58:43Z</time>
      </trkpt>
      <trkpt lat="49.1891" lon="-0.22378">
        <ele>19.36</ele>
        <time>2015-08-01T08:58:44Z</time>
      </trkpt>
      <trkpt lat="49.18916" lon="-0.22373">
        <ele>18.88</ele>
        <time>2015-08-01T08:58:56Z</time>
      </trkpt>
      <trkpt lat="49.18919" lon="-0.22371">
        <ele>18.88</ele>
        <time>2015-08-01T08:58:57Z</time>
      </trkpt>
      <trkpt lat="49.18975" lon="-0.22355">
        <ele>18.88</ele>
        <time>2015-08-01T08:59:11Z</time>
      </trkpt>
      <trkpt lat="49.19029" lon="-0.22331">
        <ele>18.4</ele>
        <time>2015-08-01T08:59:25Z</time>
      </trkpt>
      <trkpt lat="49.19051" lon="-0.22271">
        <ele>17.44</ele>
        <time>2015-08-01T08:59:37Z</time>
      </trkpt>
      <trkpt lat="49.19072" lon="-0.22213">
        <ele>17.44</ele>
        <time>2015-08-01T08:59:47Z</time>
      </trkpt>
      <trkpt lat="49.19098" lon="-0.22165">
        <ele>17.44</ele>
        <time>2015-08-01T08:59:56Z</time>
      </trkpt>
      <trkpt lat="49.19102" lon="-0.22161">
        <ele>17.44</ele>
        <time>2015-08-01T08:59:57Z</time>
      </trkpt>
      <trkpt lat="49.19109" lon="-0.2215">
        <ele>17.44</ele>
        <time>2015-08-01T08:59:59Z</time>
      </trkpt>
      <trkpt lat="49.19117" lon="-0.22132">
        <ele>17.44</ele>
        <time>2015-08-01T09:00:02Z</time>
      </trkpt>
      <trkpt lat="49.19144" lon="-0.22034">
        <ele>18.4</ele>
        <time>2015-08-01T09:00:16Z</time>
      </trkpt>
      <trkpt lat="49.19145" lon="-0.22027">
        <ele>17.92</ele>
        <time>2015-08-01T09:00:17Z</time>
      </trkpt>
      <trkpt lat="49.19147" lon="-0.2202">
        <ele>17.92</ele>
        <time>2015-08-01T09:00:18Z</time>
      </trkpt>
      <trkpt lat="49.19183" lon="-0.2189">
        <ele>19.36</ele>
        <time>2015-08-01T09:00:36Z</time>
      </trkpt>
      <trkpt lat="49.19218" lon="-0.21797">
        <ele>21.77</ele>
        <time>2015-08-01T09:00:52Z</time>
      </trkpt>
      <trkpt lat="49.19248" lon="-0.21715">
        <ele>23.69</ele>
        <time>2015-08-01T09:01:07Z</time>
      </trkpt>
      <trkpt lat="49.19269" lon="-0.21658">
        <ele>23.69</ele>
        <time>2015-08-01T09:01:17Z</time>
      </trkpt>
      <trkpt lat="49.19272" lon="-0.21652">
        <ele>24.17</ele>
        <time>2015-08-01T09:01:18Z</time>
      </trkpt>
      <trkpt lat="49.19274" lon="-0.21646">
        <ele>24.17</ele>
        <time>2015-08-01T09:01:19Z</time>
      </trkpt>
      <trkpt lat="49.193" lon="-0.21557">
        <ele>25.13</ele>
        <time>2015-08-01T09:01:33Z</time>
      </trkpt>
      <trkpt lat="49.1931" lon="-0.21433">
        <ele>26.09</ele>
        <time>2015-08-01T09:01:51Z</time>
      </trkpt>
      <trkpt lat="49.19314" lon="-0.21405">
        <ele>26.09</ele>
        <time>2015-08-01T09:01:55Z</time>
      </trkpt>
      <trkpt lat="49.19315" lon="-0.21399">
        <ele>26.57</ele>
        <time>2015-08-01T09:01:56Z</time>
      </trkpt>
      <trkpt lat="49.19327" lon="-0.21348">
        <ele>28.02</ele>
        <time>2015-08-01T09:02:04Z</time>
      </trkpt>
      <trkpt lat="49.19329" lon="-0.21342">
        <ele>27.53</ele>
        <time>2015-08-01T09:02:05Z</time>
      </trkpt>
      <trkpt lat="49.19331" lon="-0.21337">
        <ele>27.53</ele>
        <time>2015-08-01T09:02:06Z</time>
      </trkpt>
      <trkpt lat="49.19355" lon="-0.21265">
        <ele>28.5</ele>
        <time>2015-08-01T09:02:21Z</time>
      </trkpt>
      <trkpt lat="49.19379" lon="-0.2124">
        <ele>29.94</ele>
        <time>2015-08-01T09:02:33Z</time>
      </trkpt>
      <trkpt lat="49.19382" lon="-0.21236">
        <ele>30.42</ele>
        <time>2015-08-01T09:02:35Z</time>
      </trkpt>
      <trkpt lat="49.19383" lon="-0.21234">
        <ele>30.42</ele>
        <time>2015-08-01T09:02:36Z</time>
      </trkpt>
      <trkpt lat="49.19385" lon="-0.21232">
        <ele>30.9</ele>
        <time>2015-08-01T09:02:37Z</time>
      </trkpt>
      <trkpt lat="49.19388" lon="-0.21228">
        <ele>30.9</ele>
        <time>2015-08-01T09:02:40Z</time>
      </trkpt>
      <trkpt lat="49.1939" lon="-0.21226">
        <ele>30.9</ele>
        <time>2015-08-01T09:02:41Z</time>
      </trkpt>
      <trkpt lat="49.1941" lon="-0.2121">
        <ele>32.82</ele>
        <time>2015-08-01T09:02:51Z</time>
      </trkpt>
      <trkpt lat="49.19418" lon="-0.21203">
        <ele>33.3</ele>
        <time>2015-08-01T09:02:56Z</time>
      </trkpt>
      <trkpt lat="49.1942" lon="-0.212">
        <ele>34.26</ele>
        <time>2015-08-01T09:02:59Z</time>
      </trkpt>
      <trkpt lat="49.19422" lon="-0.21199">
        <ele>34.26</ele>
        <time>2015-08-01T09:03:00Z</time>
      </trkpt>
      <trkpt lat="49.19423" lon="-0.21198">
        <ele>34.74</ele>
        <time>2015-08-01T09:03:01Z</time>
      </trkpt>
      <trkpt lat="49.19424" lon="-0.21197">
        <ele>34.74</ele>
        <time>2015-08-01T09:03:02Z</time>
      </trkpt>
      <trkpt lat="49.19426" lon="-0.21195">
        <ele>35.23</ele>
        <time>2015-08-01T09:03:03Z</time>
      </trkpt>
      <trkpt lat="49.19437" lon="-0.21187">
        <ele>36.19</ele>
        <time>2015-08-01T09:03:11Z</time>
      </trkpt>
      <trkpt lat="49.19449" lon="-0.21178">
        <ele>38.11</ele>
        <time>2015-08-01T09:03:22Z</time>
      </trkpt>
      <trkpt lat="49.19459" lon="-0.21172">
        <ele>39.55</ele>
        <time>2015-08-01T09:03:32Z</time>
      </trkpt>
      <trkpt lat="49.19469" lon="-0.21161">
        <ele>40.99</ele>
        <time>2015-08-01T09:03:43Z</time>
      </trkpt>
      <trkpt lat="49.19482" lon="-0.21153">
        <ele>42.44</ele>
        <time>2015-08-01T09:03:55Z</time>
      </trkpt>
      <trkpt lat="49.19498" lon="-0.21146">
        <ele>43.88</ele>
        <time>2015-08-01T09:04:06Z</time>
      </trkpt>
      <trkpt lat="49.19509" lon="-0.21134">
        <ele>45.32</ele>
        <time>2015-08-01T09:04:19Z</time>
      </trkpt>
      <trkpt lat="49.1951" lon="-0.21134">
        <ele>44.84</ele>
        <time>2015-08-01T09:04:43Z</time>
      </trkpt>
      <trkpt lat="49.19512" lon="-0.21137">
        <ele>44.84</ele>
        <time>2015-08-01T09:05:18Z</time>
      </trkpt>
      <trkpt lat="49.19512" lon="-0.21137">
        <ele>45.8</ele>
        <time>2015-08-01T09:05:38Z</time>
      </trkpt>
      <trkpt lat="49.19514" lon="-0.21139">
        <ele>45.8</ele>
        <time>2015-08-01T09:05:46Z</time>
      </trkpt>
      <trkpt lat="49.19524" lon="-0.21144">
        <ele>47.72</ele>
        <time>2015-08-01T09:05:56Z</time>
      </trkpt>
      <trkpt lat="49.19542" lon="-0.21164">
        <ele>49.65</ele>
        <time>2015-08-01T09:06:11Z</time>
      </trkpt>
      <trkpt lat="49.19546" lon="-0.21168">
        <ele>50.13</ele>
        <time>2015-08-01T09:06:13Z</time>
      </trkpt>
      <trkpt lat="49.19547" lon="-0.2117">
        <ele>49.65</ele>
        <time>2015-08-01T09:06:14Z</time>
      </trkpt>
      <trkpt lat="49.1956" lon="-0.2119">
        <ele>50.61</ele>
        <time>2015-08-01T09:06:26Z</time>
      </trkpt>
      <trkpt lat="49.19562" lon="-0.21192">
        <ele>51.09</ele>
        <time>2015-08-01T09:06:27Z</time>
      </trkpt>
      <trkpt lat="49.19573" lon="-0.21208">
        <ele>51.57</ele>
        <time>2015-08-01T09:06:39Z</time>
      </trkpt>
      <trkpt lat="49.19575" lon="-0.2121">
        <ele>52.05</ele>
        <time>2015-08-01T09:06:57Z</time>
      </trkpt>
      <trkpt lat="49.19584" lon="-0.21214">
        <ele>52.05</ele>
        <time>2015-08-01T09:07:15Z</time>
      </trkpt>
      <trkpt lat="49.19587" lon="-0.21217">
        <ele>52.05</ele>
        <time>2015-08-01T09:07:33Z</time>
      </trkpt>
      <trkpt lat="49.19599" lon="-0.21235">
        <ele>54.45</ele>
        <time>2015-08-01T09:07:43Z</time>
      </trkpt>
      <trkpt lat="49.19603" lon="-0.2124">
        <ele>53.97</ele>
        <time>2015-08-01T09:07:45Z</time>
      </trkpt>
      <trkpt lat="49.19605" lon="-0.21244">
        <ele>53.97</ele>
        <time>2015-08-01T09:07:46Z</time>
      </trkpt>
      <trkpt lat="49.19608" lon="-0.21248">
        <ele>53.97</ele>
        <time>2015-08-01T09:07:47Z</time>
      </trkpt>
      <trkpt lat="49.1961" lon="-0.21251">
        <ele>54.45</ele>
        <time>2015-08-01T09:07:48Z</time>
      </trkpt>
      <trkpt lat="49.19613" lon="-0.21255">
        <ele>53.49</ele>
        <time>2015-08-01T09:08:02Z</time>
      </trkpt>
      <trkpt lat="49.19617" lon="-0.21261">
        <ele>53.97</ele>
        <time>2015-08-01T09:08:18Z</time>
      </trkpt>
      <trkpt lat="49.1962" lon="-0.21263">
        <ele>53.97</ele>
        <time>2015-08-01T09:08:20Z</time>
      </trkpt>
      <trkpt lat="49.19631" lon="-0.21267">
        <ele>55.41</ele>
        <time>2015-08-01T09:08:34Z</time>
      </trkpt>
      <trkpt lat="49.19631" lon="-0.21267">
        <ele>55.41</ele>
        <time>2015-08-01T09:08:46Z</time>
      </trkpt>
      <trkpt lat="49.19631" lon="-0.21267">
        <ele>58.78</ele>
        <time>2015-08-01T09:08:53Z</time>
      </trkpt>
      <trkpt lat="49.19631" lon="-0.21267">
        <ele>53.01</ele>
        <time>2015-08-01T09:08:54Z</time>
      </trkpt>
      <trkpt lat="49.19631" lon="-0.21267">
        <ele>58.78</ele>
        <time>2015-08-01T09:08:55Z</time>
      </trkpt>
      <trkpt lat="49.19631" lon="-0.21267">
        <ele>52.53</ele>
        <time>2015-08-01T09:08:56Z</time>
      </trkpt>
      <trkpt lat="49.19631" lon="-0.21267">
        <ele>55.89</ele>
        <time>2015-08-01T09:09:00Z</time>
      </trkpt>
      <trkpt lat="49.19628" lon="-0.21266">
        <ele>54.45</ele>
        <time>2015-08-01T09:09:18Z</time>
      </trkpt>
      <trkpt lat="49.19622" lon="-0.21259">
        <ele>53.49</ele>
        <time>2015-08-01T09:09:30Z</time>
      </trkpt>
      <trkpt lat="49.19621" lon="-0.21253">
        <ele>53.01</ele>
        <time>2015-08-01T09:09:37Z</time>
      </trkpt>
      <trkpt lat="49.1961" lon="-0.21235">
        <ele>51.57</ele>
        <time>2015-08-01T09:09:50Z</time>
      </trkpt>
      <trkpt lat="49.19604" lon="-0.21224">
        <ele>51.09</ele>
        <time>2015-08-01T09:10:01Z</time>
      </trkpt>
      <trkpt lat="49.19597" lon="-0.21217">
        <ele>50.61</ele>
        <time>2015-08-01T09:10:17Z</time>
      </trkpt>
      <trkpt lat="49.19593" lon="-0.21211">
        <ele>50.61</ele>
        <time>2015-08-01T09:10:28Z</time>
      </trkpt>
      <trkpt lat="49.19575" lon="-0.212">
        <ele>49.16</ele>
        <time>2015-08-01T09:10:38Z</time>
      </trkpt>
      <trkpt lat="49.19553" lon="-0.21178">
        <ele>48.2</ele>
        <time>2015-08-01T09:10:46Z</time>
      </trkpt>
      <trkpt lat="49.1955" lon="-0.21174">
        <ele>48.2</ele>
        <time>2015-08-01T09:10:47Z</time>
      </trkpt>
      <trkpt lat="49.19547" lon="-0.21169">
        <ele>47.72</ele>
        <time>2015-08-01T09:10:48Z</time>
      </trkpt>
      <trkpt lat="49.19544" lon="-0.21164">
        <ele>47.72</ele>
        <time>2015-08-01T09:10:49Z</time>
      </trkpt>
      <trkpt lat="49.19539" lon="-0.2116">
        <ele>47.24</ele>
        <time>2015-08-01T09:10:50Z</time>
      </trkpt>
      <trkpt lat="49.19536" lon="-0.21156">
        <ele>46.76</ele>
        <time>2015-08-01T09:10:51Z</time>
      </trkpt>
      <trkpt lat="49.19532" lon="-0.21152">
        <ele>46.76</ele>
        <time>2015-08-01T09:10:52Z</time>
      </trkpt>
      <trkpt lat="49.19529" lon="-0.2115">
        <ele>46.28</ele>
        <time>2015-08-01T09:10:53Z</time>
      </trkpt>
      <trkpt lat="49.19526" lon="-0.21147">
        <ele>45.8</ele>
        <time>2015-08-01T09:10:54Z</time>
      </trkpt>
      <trkpt lat="49.19524" lon="-0.21145">
        <ele>45.32</ele>
        <time>2015-08-01T09:10:55Z</time>
      </trkpt>
      <trkpt lat="49.19522" lon="-0.21142">
        <ele>44.84</ele>
        <time>2015-08-01T09:10:56Z</time>
      </trkpt>
      <trkpt lat="49.19522" lon="-0.21139">
        <ele>44.84</ele>
        <time>2015-08-01T09:10:57Z</time>
      </trkpt>
      <trkpt lat="49.19522" lon="-0.21136">
        <ele>44.84</ele>
        <time>2015-08-01T09:10:58Z</time>
      </trkpt>
      <trkpt lat="49.19526" lon="-0.21126">
        <ele>45.32</ele>
        <time>2015-08-01T09:11:02Z</time>
      </trkpt>
      <trkpt lat="49.19535" lon="-0.21114">
        <ele>46.28</ele>
        <time>2015-08-01T09:11:07Z</time>
      </trkpt>
      <trkpt lat="49.19541" lon="-0.21107">
        <ele>46.28</ele>
        <time>2015-08-01T09:11:11Z</time>
      </trkpt>
      <trkpt lat="49.19546" lon="-0.21092">
        <ele>47.24</ele>
        <time>2015-08-01T09:11:17Z</time>
      </trkpt>
      <trkpt lat="49.19556" lon="-0.21071">
        <ele>47.72</ele>
        <time>2015-08-01T09:11:30Z</time>
      </trkpt>
      <trkpt lat="49.19561" lon="-0.21064">
        <ele>48.68</ele>
        <time>2015-08-01T09:11:35Z</time>
      </trkpt>
      <trkpt lat="49.1956" lon="-0.21051">
        <ele>47.72</ele>
        <time>2015-08-01T09:11:43Z</time>
      </trkpt>
      <trkpt lat="49.19567" lon="-0.21037">
        <ele>48.68</ele>
        <time>2015-08-01T09:11:52Z</time>
      </trkpt>
      <trkpt lat="49.1958" lon="-0.21021">
        <ele>49.65</ele>
        <time>2015-08-01T09:12:03Z</time>
      </trkpt>
      <trkpt lat="49.19581" lon="-0.21019">
        <ele>49.65</ele>
        <time>2015-08-01T09:12:04Z</time>
      </trkpt>
      <trkpt lat="49.19585" lon="-0.21014">
        <ele>50.13</ele>
        <time>2015-08-01T09:12:07Z</time>
      </trkpt>
      <trkpt lat="49.19589" lon="-0.21003">
        <ele>50.61</ele>
        <time>2015-08-01T09:12:12Z</time>
      </trkpt>
      <trkpt lat="49.19591" lon="-0.20999">
        <ele>50.13</ele>
        <time>2015-08-01T09:12:14Z</time>
      </trkpt>
      <trkpt lat="49.19595" lon="-0.20998">
        <ele>50.61</ele>
        <time>2015-08-01T09:12:19Z</time>
      </trkpt>
      <trkpt lat="49.19601" lon="-0.20999">
        <ele>51.57</ele>
        <time>2015-08-01T09:12:22Z</time>
      </trkpt>
      <trkpt lat="49.19615" lon="-0.2101">
        <ele>53.01</ele>
        <time>2015-08-01T09:12:34Z</time>
      </trkpt>
      <trkpt lat="49.19626" lon="-0.21022">
        <ele>53.97</ele>
        <time>2015-08-01T09:12:45Z</time>
      </trkpt>
      <trkpt lat="49.1963" lon="-0.2103">
        <ele>54.45</ele>
        <time>2015-08-01T09:12:55Z</time>
      </trkpt>
      <trkpt lat="49.19637" lon="-0.21037">
        <ele>55.41</ele>
        <time>2015-08-01T09:13:00Z</time>
      </trkpt>
      <trkpt lat="49.19642" lon="-0.21043">
        <ele>56.37</ele>
        <time>2015-08-01T09:13:09Z</time>
      </trkpt>
      <trkpt lat="49.19643" lon="-0.21046">
        <ele>57.34</ele>
        <time>2015-08-01T09:13:11Z</time>
      </trkpt>
      <trkpt lat="49.19649" lon="-0.21049">
        <ele>57.82</ele>
        <time>2015-08-01T09:13:14Z</time>
      </trkpt>
      <trkpt lat="49.19668" lon="-0.21068">
        <ele>60.22</ele>
        <time>2015-08-01T09:13:26Z</time>
      </trkpt>
      <trkpt lat="49.19677" lon="-0.21075">
        <ele>61.66</ele>
        <time>2015-08-01T09:13:34Z</time>
      </trkpt>
      <trkpt lat="49.1968" lon="-0.21076">
        <ele>62.14</ele>
        <time>2015-08-01T09:13:36Z</time>
      </trkpt>
      <trkpt lat="49.19692" lon="-0.21085">
        <ele>64.07</ele>
        <time>2015-08-01T09:13:47Z</time>
      </trkpt>
      <trkpt lat="49.19697" lon="-0.21088">
        <ele>64.07</ele>
        <time>2015-08-01T09:13:50Z</time>
      </trkpt>
      <trkpt lat="49.19716" lon="-0.21104">
        <ele>65.03</ele>
        <time>2015-08-01T09:14:01Z</time>
      </trkpt>
      <trkpt lat="49.19728" lon="-0.21113">
        <ele>66.47</ele>
        <time>2015-08-01T09:14:13Z</time>
      </trkpt>
      <trkpt lat="49.19744" lon="-0.21126">
        <ele>67.43</ele>
        <time>2015-08-01T09:14:26Z</time>
      </trkpt>
      <trkpt lat="49.19746" lon="-0.21132">
        <ele>66.95</ele>
        <time>2015-08-01T09:14:39Z</time>
      </trkpt>
      <trkpt lat="49.19747" lon="-0.21137">
        <ele>66.95</ele>
        <time>2015-08-01T09:15:10Z</time>
      </trkpt>
      <trkpt lat="49.19749" lon="-0.21138">
        <ele>67.43</ele>
        <time>2015-08-01T09:15:13Z</time>
      </trkpt>
      <trkpt lat="49.19762" lon="-0.21146">
        <ele>67.91</ele>
        <time>2015-08-01T09:15:20Z</time>
      </trkpt>
      <trkpt lat="49.19768" lon="-0.21153">
        <ele>67.91</ele>
        <time>2015-08-01T09:15:24Z</time>
      </trkpt>
      <trkpt lat="49.19795" lon="-0.21177">
        <ele>68.39</ele>
        <time>2015-08-01T09:15:36Z</time>
      </trkpt>
      <trkpt lat="49.19808" lon="-0.21188">
        <ele>67.91</ele>
        <time>2015-08-01T09:15:40Z</time>
      </trkpt>
      <trkpt lat="49.19834" lon="-0.2121">
        <ele>68.39</ele>
        <time>2015-08-01T09:15:52Z</time>
      </trkpt>
      <trkpt lat="49.19846" lon="-0.21219">
        <ele>67.91</ele>
        <time>2015-08-01T09:15:56Z</time>
      </trkpt>
      <trkpt lat="49.19874" lon="-0.21245">
        <ele>67.91</ele>
        <time>2015-08-01T09:16:06Z</time>
      </trkpt>
      <trkpt lat="49.19891" lon="-0.21261">
        <ele>67.43</ele>
        <time>2015-08-01T09:16:11Z</time>
      </trkpt>
      <trkpt lat="49.19919" lon="-0.21286">
        <ele>67.43</ele>
        <time>2015-08-01T09:16:22Z</time>
      </trkpt>
      <trkpt lat="49.19923" lon="-0.21293">
        <ele>66.95</ele>
        <time>2015-08-01T09:16:25Z</time>
      </trkpt>
      <trkpt lat="49.19918" lon="-0.21319">
        <ele>66.47</ele>
        <time>2015-08-01T09:16:31Z</time>
      </trkpt>
      <trkpt lat="49.19937" lon="-0.2135">
        <ele>66.47</ele>
        <time>2015-08-01T09:16:41Z</time>
      </trkpt>
      <trkpt lat="49.19956" lon="-0.21369">
        <ele>66.47</ele>
        <time>2015-08-01T09:16:50Z</time>
      </trkpt>
      <trkpt lat="49.19982" lon="-0.21393">
        <ele>67.43</ele>
        <time>2015-08-01T09:17:03Z</time>
      </trkpt>
      <trkpt lat="49.20015" lon="-0.2142">
        <ele>67.91</ele>
        <time>2015-08-01T09:17:16Z</time>
      </trkpt>
      <trkpt lat="49.20039" lon="-0.21442">
        <ele>68.39</ele>
        <time>2015-08-01T09:17:26Z</time>
      </trkpt>
      <trkpt lat="49.20072" lon="-0.21473">
        <ele>68.87</ele>
        <time>2015-08-01T09:17:37Z</time>
      </trkpt>
      <trkpt lat="49.20084" lon="-0.21485">
        <ele>68.39</ele>
        <time>2015-08-01T09:17:41Z</time>
      </trkpt>
      <trkpt lat="49.20104" lon="-0.21499">
        <ele>68.39</ele>
        <time>2015-08-01T09:17:47Z</time>
      </trkpt>
      <trkpt lat="49.20109" lon="-0.21503">
        <ele>69.35</ele>
        <time>2015-08-01T09:17:49Z</time>
      </trkpt>
      <trkpt lat="49.20121" lon="-0.21513">
        <ele>68.87</ele>
        <time>2015-08-01T09:17:54Z</time>
      </trkpt>
      <trkpt lat="49.20164" lon="-0.21551">
        <ele>69.35</ele>
        <time>2015-08-01T09:18:05Z</time>
      </trkpt>
      <trkpt lat="49.20201" lon="-0.21585">
        <ele>68.39</ele>
        <time>2015-08-01T09:18:15Z</time>
      </trkpt>
      <trkpt lat="49.20246" lon="-0.21623">
        <ele>68.87</ele>
        <time>2015-08-01T09:18:27Z</time>
      </trkpt>
      <trkpt lat="49.20264" lon="-0.2164">
        <ele>68.87</ele>
        <time>2015-08-01T09:18:36Z</time>
      </trkpt>
      <trkpt lat="49.20265" lon="-0.21642">
        <ele>68.87</ele>
        <time>2015-08-01T09:18:37Z</time>
      </trkpt>
      <trkpt lat="49.20266" lon="-0.21645">
        <ele>68.39</ele>
        <time>2015-08-01T09:18:38Z</time>
      </trkpt>
      <trkpt lat="49.20265" lon="-0.21648">
        <ele>68.87</ele>
        <time>2015-08-01T09:18:39Z</time>
      </trkpt>
      <trkpt lat="49.20264" lon="-0.21652">
        <ele>68.87</ele>
        <time>2015-08-01T09:18:40Z</time>
      </trkpt>
      <trkpt lat="49.20264" lon="-0.21656">
        <ele>68.87</ele>
        <time>2015-08-01T09:18:41Z</time>
      </trkpt>
      <trkpt lat="49.20263" lon="-0.21661">
        <ele>68.87</ele>
        <time>2015-08-01T09:18:42Z</time>
      </trkpt>
      <trkpt lat="49.20263" lon="-0.21666">
        <ele>68.39</ele>
        <time>2015-08-01T09:18:43Z</time>
      </trkpt>
      <trkpt lat="49.20261" lon="-0.21671">
        <ele>68.87</ele>
        <time>2015-08-01T09:18:44Z</time>
      </trkpt>
      <trkpt lat="49.20244" lon="-0.21743">
        <ele>68.87</ele>
        <time>2015-08-01T09:18:57Z</time>
      </trkpt>
      <trkpt lat="49.20232" lon="-0.21789">
        <ele>68.39</ele>
        <time>2015-08-01T09:19:04Z</time>
      </trkpt>
      <trkpt lat="49.2023" lon="-0.21796">
        <ele>68.87</ele>
        <time>2015-08-01T09:19:05Z</time>
      </trkpt>
      <trkpt lat="49.20228" lon="-0.21803">
        <ele>68.39</ele>
        <time>2015-08-01T09:19:06Z</time>
      </trkpt>
      <trkpt lat="49.20226" lon="-0.21809">
        <ele>68.39</ele>
        <time>2015-08-01T09:19:07Z</time>
      </trkpt>
      <trkpt lat="49.20223" lon="-0.21816">
        <ele>68.39</ele>
        <time>2015-08-01T09:19:08Z</time>
      </trkpt>
      <trkpt lat="49.20222" lon="-0.21823">
        <ele>68.39</ele>
        <time>2015-08-01T09:19:09Z</time>
      </trkpt>
      <trkpt lat="49.2022" lon="-0.21831">
        <ele>67.91</ele>
        <time>2015-08-01T09:19:10Z</time>
      </trkpt>
      <trkpt lat="49.20218" lon="-0.21838">
        <ele>67.43</ele>
        <time>2015-08-01T09:19:11Z</time>
      </trkpt>
      <trkpt lat="49.20215" lon="-0.21845">
        <ele>67.91</ele>
        <time>2015-08-01T09:19:12Z</time>
      </trkpt>
      <trkpt lat="49.20213" lon="-0.21853">
        <ele>67.43</ele>
        <time>2015-08-01T09:19:13Z</time>
      </trkpt>
      <trkpt lat="49.20211" lon="-0.21859">
        <ele>67.91</ele>
        <time>2015-08-01T09:19:14Z</time>
      </trkpt>
      <trkpt lat="49.202" lon="-0.21898">
        <ele>66.95</ele>
        <time>2015-08-01T09:19:21Z</time>
      </trkpt>
      <trkpt lat="49.20196" lon="-0.2191">
        <ele>66.47</ele>
        <time>2015-08-01T09:19:23Z</time>
      </trkpt>
      <trkpt lat="49.20195" lon="-0.21916">
        <ele>66.47</ele>
        <time>2015-08-01T09:19:24Z</time>
      </trkpt>
      <trkpt lat="49.20193" lon="-0.21921">
        <ele>66.95</ele>
        <time>2015-08-01T09:19:25Z</time>
      </trkpt>
      <trkpt lat="49.20192" lon="-0.21927">
        <ele>66.47</ele>
        <time>2015-08-01T09:19:26Z</time>
      </trkpt>
      <trkpt lat="49.2019" lon="-0.21934">
        <ele>65.99</ele>
        <time>2015-08-01T09:19:27Z</time>
      </trkpt>
      <trkpt lat="49.20184" lon="-0.21955">
        <ele>64.55</ele>
        <time>2015-08-01T09:19:32Z</time>
      </trkpt>
      <trkpt lat="49.20189" lon="-0.21966">
        <ele>64.07</ele>
        <time>2015-08-01T09:19:36Z</time>
      </trkpt>
      <trkpt lat="49.20203" lon="-0.21969">
        <ele>63.1</ele>
        <time>2015-08-01T09:19:40Z</time>
      </trkpt>
      <trkpt lat="49.20226" lon="-0.21977">
        <ele>63.1</ele>
        <time>2015-08-01T09:19:47Z</time>
      </trkpt>
      <trkpt lat="49.2023" lon="-0.21976">
        <ele>63.58</ele>
        <time>2015-08-01T09:19:48Z</time>
      </trkpt>
      <trkpt lat="49.20232" lon="-0.21975">
        <ele>63.1</ele>
        <time>2015-08-01T09:19:49Z</time>
      </trkpt>
      <trkpt lat="49.20235" lon="-0.21974">
        <ele>63.1</ele>
        <time>2015-08-01T09:19:50Z</time>
      </trkpt>
      <trkpt lat="49.20237" lon="-0.21974">
        <ele>63.1</ele>
        <time>2015-08-01T09:19:51Z</time>
      </trkpt>
      <trkpt lat="49.20253" lon="-0.21978">
        <ele>63.1</ele>
        <time>2015-08-01T09:19:56Z</time>
      </trkpt>
      <trkpt lat="49.2028" lon="-0.21989">
        <ele>65.03</ele>
        <time>2015-08-01T09:20:03Z</time>
      </trkpt>
      <trkpt lat="49.20317" lon="-0.22004">
        <ele>65.99</ele>
        <time>2015-08-01T09:20:15Z</time>
      </trkpt>
      <trkpt lat="49.20347" lon="-0.22016">
        <ele>65.99</ele>
        <time>2015-08-01T09:20:25Z</time>
      </trkpt>
      <trkpt lat="49.20385" lon="-0.22027">
        <ele>65.99</ele>
        <time>2015-08-01T09:20:38Z</time>
      </trkpt>
      <trkpt lat="49.20389" lon="-0.2203">
        <ele>66.47</ele>
        <time>2015-08-01T09:20:41Z</time>
      </trkpt>
      <trkpt lat="49.204" lon="-0.22031">
        <ele>65.99</ele>
        <time>2015-08-01T09:20:46Z</time>
      </trkpt>
      <trkpt lat="49.20434" lon="-0.22038">
        <ele>65.99</ele>
        <time>2015-08-01T09:20:57Z</time>
      </trkpt>
      <trkpt lat="49.20464" lon="-0.22051">
        <ele>65.99</ele>
        <time>2015-08-01T09:21:07Z</time>
      </trkpt>
      <trkpt lat="49.20469" lon="-0.22053">
        <ele>65.51</ele>
        <time>2015-08-01T09:21:09Z</time>
      </trkpt>
      <trkpt lat="49.20484" lon="-0.22063">
        <ele>65.03</ele>
        <time>2015-08-01T09:21:20Z</time>
      </trkpt>
      <trkpt lat="49.20488" lon="-0.22066">
        <ele>64.07</ele>
        <time>2015-08-01T09:21:22Z</time>
      </trkpt>
      <trkpt lat="49.20527" lon="-0.22075">
        <ele>63.1</ele>
        <time>2015-08-01T09:21:34Z</time>
      </trkpt>
      <trkpt lat="49.2054" lon="-0.22076">
        <ele>62.14</ele>
        <time>2015-08-01T09:21:38Z</time>
      </trkpt>
      <trkpt lat="49.2058" lon="-0.22081">
        <ele>60.22</ele>
        <time>2015-08-01T09:21:48Z</time>
      </trkpt>
      <trkpt lat="49.20583" lon="-0.22081">
        <ele>59.74</ele>
        <time>2015-08-01T09:21:49Z</time>
      </trkpt>
      <trkpt lat="49.20589" lon="-0.22081">
        <ele>58.78</ele>
        <time>2015-08-01T09:21:52Z</time>
      </trkpt>
      <trkpt lat="49.20593" lon="-0.22084">
        <ele>58.78</ele>
        <time>2015-08-01T09:21:54Z</time>
      </trkpt>
      <trkpt lat="49.20605" lon="-0.22098">
        <ele>57.82</ele>
        <time>2015-08-01T09:21:58Z</time>
      </trkpt>
      <trkpt lat="49.20606" lon="-0.22127">
        <ele>57.34</ele>
        <time>2015-08-01T09:22:06Z</time>
      </trkpt>
      <trkpt lat="49.20607" lon="-0.22138">
        <ele>56.86</ele>
        <time>2015-08-01T09:22:10Z</time>
      </trkpt>
      <trkpt lat="49.20611" lon="-0.22148">
        <ele>57.34</ele>
        <time>2015-08-01T09:22:24Z</time>
      </trkpt>
      <trkpt lat="49.2061" lon="-0.22154">
        <ele>56.37</ele>
        <time>2015-08-01T09:22:35Z</time>
      </trkpt>
      <trkpt lat="49.20609" lon="-0.22166">
        <ele>56.37</ele>
        <time>2015-08-01T09:22:46Z</time>
      </trkpt>
      <trkpt lat="49.20609" lon="-0.22166">
        <ele>55.89</ele>
        <time>2015-08-01T09:22:49Z</time>
      </trkpt>
      <trkpt lat="49.20608" lon="-0.22163">
        <ele>55.89</ele>
        <time>2015-08-01T09:22:53Z</time>
      </trkpt>
      <trkpt lat="49.2061" lon="-0.22153">
        <ele>55.89</ele>
        <time>2015-08-01T09:22:58Z</time>
      </trkpt>
      <trkpt lat="49.20615" lon="-0.22157">
        <ele>56.86</ele>
        <time>2015-08-01T09:23:07Z</time>
      </trkpt>
      <trkpt lat="49.20625" lon="-0.22154">
        <ele>58.78</ele>
        <time>2015-08-01T09:23:19Z</time>
      </trkpt>
      <trkpt lat="49.20629" lon="-0.22153">
        <ele>59.26</ele>
        <time>2015-08-01T09:23:23Z</time>
      </trkpt>
      <trkpt lat="49.20635" lon="-0.22133">
        <ele>60.22</ele>
        <time>2015-08-01T09:23:36Z</time>
      </trkpt>
      <trkpt lat="49.20647" lon="-0.22109">
        <ele>62.14</ele>
        <time>2015-08-01T09:23:47Z</time>
      </trkpt>
      <trkpt lat="49.20651" lon="-0.22099">
        <ele>62.62</ele>
        <time>2015-08-01T09:24:01Z</time>
      </trkpt>
      <trkpt lat="49.20655" lon="-0.22068">
        <ele>63.1</ele>
        <time>2015-08-01T09:24:11Z</time>
      </trkpt>
      <trkpt lat="49.20665" lon="-0.22005">
        <ele>64.55</ele>
        <time>2015-08-01T09:24:26Z</time>
      </trkpt>
      <trkpt lat="49.20673" lon="-0.21946">
        <ele>65.99</ele>
        <time>2015-08-01T09:24:39Z</time>
      </trkpt>
      <trkpt lat="49.20681" lon="-0.21888">
        <ele>66.47</ele>
        <time>2015-08-01T09:24:50Z</time>
      </trkpt>
      <trkpt lat="49.20705" lon="-0.21804">
        <ele>67.43</ele>
        <time>2015-08-01T09:25:06Z</time>
      </trkpt>
      <trkpt lat="49.20723" lon="-0.2174">
        <ele>66.95</ele>
        <time>2015-08-01T09:25:18Z</time>
      </trkpt>
      <trkpt lat="49.20741" lon="-0.21684">
        <ele>67.43</ele>
        <time>2015-08-01T09:25:27Z</time>
      </trkpt>
      <trkpt lat="49.20767" lon="-0.21601">
        <ele>67.43</ele>
        <time>2015-08-01T09:25:42Z</time>
      </trkpt>
      <trkpt lat="49.20771" lon="-0.21588">
        <ele>67.43</ele>
        <time>2015-08-01T09:25:54Z</time>
      </trkpt>
      <trkpt lat="49.20772" lon="-0.21579">
        <ele>67.43</ele>
        <time>2015-08-01T09:26:01Z</time>
      </trkpt>
      <trkpt lat="49.20776" lon="-0.21573">
        <ele>67.43</ele>
        <time>2015-08-01T09:26:11Z</time>
      </trkpt>
      <trkpt lat="49.20791" lon="-0.21524">
        <ele>66.95</ele>
        <time>2015-08-01T09:26:22Z</time>
      </trkpt>
      <trkpt lat="49.20795" lon="-0.21488">
        <ele>66.95</ele>
        <time>2015-08-01T09:26:30Z</time>
      </trkpt>
      <trkpt lat="49.20793" lon="-0.21476">
        <ele>67.43</ele>
        <time>2015-08-01T09:26:33Z</time>
      </trkpt>
      <trkpt lat="49.20804" lon="-0.21441">
        <ele>66.95</ele>
        <time>2015-08-01T09:26:42Z</time>
      </trkpt>
      <trkpt lat="49.20826" lon="-0.2141">
        <ele>66.47</ele>
        <time>2015-08-01T09:26:50Z</time>
      </trkpt>
      <trkpt lat="49.20828" lon="-0.21409">
        <ele>66.95</ele>
        <time>2015-08-01T09:26:51Z</time>
      </trkpt>
      <trkpt lat="49.20831" lon="-0.21409">
        <ele>66.95</ele>
        <time>2015-08-01T09:26:52Z</time>
      </trkpt>
      <trkpt lat="49.20833" lon="-0.2141">
        <ele>66.47</ele>
        <time>2015-08-01T09:26:53Z</time>
      </trkpt>
      <trkpt lat="49.20835" lon="-0.21411">
        <ele>66.95</ele>
        <time>2015-08-01T09:26:54Z</time>
      </trkpt>
      <trkpt lat="49.20865" lon="-0.21419">
        <ele>66.47</ele>
        <time>2015-08-01T09:27:05Z</time>
      </trkpt>
      <trkpt lat="49.20898" lon="-0.21426">
        <ele>65.03</ele>
        <time>2015-08-01T09:27:15Z</time>
      </trkpt>
      <trkpt lat="49.20936" lon="-0.21433">
        <ele>65.03</ele>
        <time>2015-08-01T09:27:25Z</time>
      </trkpt>
      <trkpt lat="49.20978" lon="-0.21442">
        <ele>64.07</ele>
        <time>2015-08-01T09:27:37Z</time>
      </trkpt>
      <trkpt lat="49.21004" lon="-0.21445">
        <ele>62.62</ele>
        <time>2015-08-01T09:27:44Z</time>
      </trkpt>
      <trkpt lat="49.21039" lon="-0.21458">
        <ele>61.66</ele>
        <time>2015-08-01T09:27:52Z</time>
      </trkpt>
      <trkpt lat="49.21061" lon="-0.21467">
        <ele>60.7</ele>
        <time>2015-08-01T09:28:02Z</time>
      </trkpt>
      <trkpt lat="49.21072" lon="-0.21477">
        <ele>60.22</ele>
        <time>2015-08-01T09:28:09Z</time>
      </trkpt>
      <trkpt lat="49.21074" lon="-0.21477">
        <ele>60.22</ele>
        <time>2015-08-01T09:28:10Z</time>
      </trkpt>
      <trkpt lat="49.21077" lon="-0.21477">
        <ele>60.22</ele>
        <time>2015-08-01T09:28:11Z</time>
      </trkpt>
      <trkpt lat="49.2108" lon="-0.21478">
        <ele>60.7</ele>
        <time>2015-08-01T09:28:12Z</time>
      </trkpt>
      <trkpt lat="49.21083" lon="-0.21479">
        <ele>60.7</ele>
        <time>2015-08-01T09:28:13Z</time>
      </trkpt>
      <trkpt lat="49.21085" lon="-0.2148">
        <ele>60.7</ele>
        <time>2015-08-01T09:28:14Z</time>
      </trkpt>
      <trkpt lat="49.21087" lon="-0.2148">
        <ele>60.7</ele>
        <time>2015-08-01T09:28:15Z</time>
      </trkpt>
      <trkpt lat="49.21123" lon="-0.21495">
        <ele>61.18</ele>
        <time>2015-08-01T09:28:28Z</time>
      </trkpt>
      <trkpt lat="49.21151" lon="-0.21509">
        <ele>62.14</ele>
        <time>2015-08-01T09:28:40Z</time>
      </trkpt>
      <trkpt lat="49.21166" lon="-0.21519">
        <ele>62.14</ele>
        <time>2015-08-01T09:28:48Z</time>
      </trkpt>
      <trkpt lat="49.21168" lon="-0.21521">
        <ele>62.14</ele>
        <time>2015-08-01T09:28:49Z</time>
      </trkpt>
      <trkpt lat="49.21195" lon="-0.21529">
        <ele>62.62</ele>
        <time>2015-08-01T09:29:03Z</time>
      </trkpt>
      <trkpt lat="49.21197" lon="-0.21532">
        <ele>63.1</ele>
        <time>2015-08-01T09:29:15Z</time>
      </trkpt>
      <trkpt lat="49.21199" lon="-0.21533">
        <ele>62.62</ele>
        <time>2015-08-01T09:29:39Z</time>
      </trkpt>
      <trkpt lat="49.21199" lon="-0.21536">
        <ele>63.1</ele>
        <time>2015-08-01T09:29:40Z</time>
      </trkpt>
      <trkpt lat="49.21199" lon="-0.2154">
        <ele>63.1</ele>
        <time>2015-08-01T09:29:41Z</time>
      </trkpt>
      <trkpt lat="49.21199" lon="-0.21544">
        <ele>63.1</ele>
        <time>2015-08-01T09:29:42Z</time>
      </trkpt>
      <trkpt lat="49.21198" lon="-0.21549">
        <ele>63.1</ele>
        <time>2015-08-01T09:29:43Z</time>
      </trkpt>
      <trkpt lat="49.21197" lon="-0.21599">
        <ele>64.07</ele>
        <time>2015-08-01T09:29:54Z</time>
      </trkpt>
      <trkpt lat="49.21196" lon="-0.21609">
        <ele>64.07</ele>
        <time>2015-08-01T09:29:57Z</time>
      </trkpt>
      <trkpt lat="49.21197" lon="-0.21613">
        <ele>64.55</ele>
        <time>2015-08-01T09:29:58Z</time>
      </trkpt>
      <trkpt lat="49.21197" lon="-0.21616">
        <ele>64.07</ele>
        <time>2015-08-01T09:29:59Z</time>
      </trkpt>
      <trkpt lat="49.21197" lon="-0.21619">
        <ele>64.55</ele>
        <time>2015-08-01T09:30:00Z</time>
      </trkpt>
      <trkpt lat="49.21198" lon="-0.21621">
        <ele>64.07</ele>
        <time>2015-08-01T09:30:01Z</time>
      </trkpt>
      <trkpt lat="49.21199" lon="-0.21623">
        <ele>65.03</ele>
        <time>2015-08-01T09:30:02Z</time>
      </trkpt>
      <trkpt lat="49.212" lon="-0.21623">
        <ele>64.55</ele>
        <time>2015-08-01T09:30:03Z</time>
      </trkpt>
      <trkpt lat="49.21203" lon="-0.21623">
        <ele>64.55</ele>
        <time>2015-08-01T09:30:04Z</time>
      </trkpt>
      <trkpt lat="49.21206" lon="-0.21624">
        <ele>64.55</ele>
        <time>2015-08-01T09:30:05Z</time>
      </trkpt>
      <trkpt lat="49.21209" lon="-0.21624">
        <ele>64.55</ele>
        <time>2015-08-01T09:30:06Z</time>
      </trkpt>
      <trkpt lat="49.21247" lon="-0.21629">
        <ele>64.55</ele>
        <time>2015-08-01T09:30:17Z</time>
      </trkpt>
      <trkpt lat="49.21291" lon="-0.21639">
        <ele>65.03</ele>
        <time>2015-08-01T09:30:27Z</time>
      </trkpt>
      <trkpt lat="49.2137" lon="-0.21649">
        <ele>65.03</ele>
        <time>2015-08-01T09:30:44Z</time>
      </trkpt>
      <trkpt lat="49.21457" lon="-0.2166">
        <ele>64.55</ele>
        <time>2015-08-01T09:31:03Z</time>
      </trkpt>
      <trkpt lat="49.21474" lon="-0.21663">
        <ele>65.03</ele>
        <time>2015-08-01T09:31:07Z</time>
      </trkpt>
      <trkpt lat="49.21515" lon="-0.21669">
        <ele>64.55</ele>
        <time>2015-08-01T09:31:16Z</time>
      </trkpt>
      <trkpt lat="49.21582" lon="-0.2168">
        <ele>64.55</ele>
        <time>2015-08-01T09:31:30Z</time>
      </trkpt>
      <trkpt lat="49.21642" lon="-0.21693">
        <ele>64.55</ele>
        <time>2015-08-01T09:31:42Z</time>
      </trkpt>
      <trkpt lat="49.21647" lon="-0.21694">
        <ele>64.55</ele>
        <time>2015-08-01T09:31:43Z</time>
      </trkpt>
      <trkpt lat="49.21651" lon="-0.21696">
        <ele>64.07</ele>
        <time>2015-08-01T09:31:44Z</time>
      </trkpt>
      <trkpt lat="49.2171" lon="-0.21706">
        <ele>64.55</ele>
        <time>2015-08-01T09:31:55Z</time>
      </trkpt>
      <trkpt lat="49.21737" lon="-0.2171">
        <ele>63.58</ele>
        <time>2015-08-01T09:32:00Z</time>
      </trkpt>
      <trkpt lat="49.21805" lon="-0.21723">
        <ele>64.07</ele>
        <time>2015-08-01T09:32:13Z</time>
      </trkpt>
      <trkpt lat="49.2181" lon="-0.21723">
        <ele>63.1</ele>
        <time>2015-08-01T09:32:14Z</time>
      </trkpt>
      <trkpt lat="49.21814" lon="-0.2172">
        <ele>63.58</ele>
        <time>2015-08-01T09:32:15Z</time>
      </trkpt>
      <trkpt lat="49.21816" lon="-0.21714">
        <ele>62.62</ele>
        <time>2015-08-01T09:32:16Z</time>
      </trkpt>
      <trkpt lat="49.21818" lon="-0.21706">
        <ele>62.62</ele>
        <time>2015-08-01T09:32:17Z</time>
      </trkpt>
      <trkpt lat="49.21818" lon="-0.217">
        <ele>62.62</ele>
        <time>2015-08-01T09:32:18Z</time>
      </trkpt>
      <trkpt lat="49.21817" lon="-0.21693">
        <ele>62.62</ele>
        <time>2015-08-01T09:32:19Z</time>
      </trkpt>
      <trkpt lat="49.21797" lon="-0.21597">
        <ele>61.18</ele>
        <time>2015-08-01T09:32:31Z</time>
      </trkpt>
      <trkpt lat="49.21783" lon="-0.2152">
        <ele>59.74</ele>
        <time>2015-08-01T09:32:40Z</time>
      </trkpt>
      <trkpt lat="49.21771" lon="-0.21396">
        <ele>58.3</ele>
        <time>2015-08-01T09:32:53Z</time>
      </trkpt>
      <trkpt lat="49.21771" lon="-0.21329">
        <ele>57.34</ele>
        <time>2015-08-01T09:33:00Z</time>
      </trkpt>
      <trkpt lat="49.21775" lon="-0.21273">
        <ele>55.89</ele>
        <time>2015-08-01T09:33:06Z</time>
      </trkpt>
      <trkpt lat="49.21777" lon="-0.21265">
        <ele>56.37</ele>
        <time>2015-08-01T09:33:07Z</time>
      </trkpt>
      <trkpt lat="49.21798" lon="-0.21159">
        <ele>54.93</ele>
        <time>2015-08-01T09:33:19Z</time>
      </trkpt>
      <trkpt lat="49.21823" lon="-0.21007">
        <ele>52.53</ele>
        <time>2015-08-01T09:33:33Z</time>
      </trkpt>
      <trkpt lat="49.2185" lon="-0.20843">
        <ele>49.65</ele>
        <time>2015-08-01T09:33:48Z</time>
      </trkpt>
      <trkpt lat="49.2187" lon="-0.20723">
        <ele>48.68</ele>
        <time>2015-08-01T09:33:59Z</time>
      </trkpt>
      <trkpt lat="49.21871" lon="-0.20712">
        <ele>49.16</ele>
        <time>2015-08-01T09:34:00Z</time>
      </trkpt>
      <trkpt lat="49.21904" lon="-0.20518">
        <ele>46.76</ele>
        <time>2015-08-01T09:34:18Z</time>
      </trkpt>
      <trkpt lat="49.21928" lon="-0.20367">
        <ele>44.84</ele>
        <time>2015-08-01T09:34:32Z</time>
      </trkpt>
      <trkpt lat="49.21929" lon="-0.20356">
        <ele>44.84</ele>
        <time>2015-08-01T09:34:33Z</time>
      </trkpt>
      <trkpt lat="49.2193" lon="-0.20346">
        <ele>44.36</ele>
        <time>2015-08-01T09:34:34Z</time>
      </trkpt>
      <trkpt lat="49.21958" lon="-0.20213">
        <ele>42.44</ele>
        <time>2015-08-01T09:34:47Z</time>
      </trkpt>
      <trkpt lat="49.21978" lon="-0.20153">
        <ele>42.44</ele>
        <time>2015-08-01T09:34:54Z</time>
      </trkpt>
      <trkpt lat="49.22022" lon="-0.20037">
        <ele>40.51</ele>
        <time>2015-08-01T09:35:08Z</time>
      </trkpt>
      <trkpt lat="49.22025" lon="-0.20028">
        <ele>40.51</ele>
        <time>2015-08-01T09:35:09Z</time>
      </trkpt>
      <trkpt lat="49.2203" lon="-0.20011">
        <ele>39.07</ele>
        <time>2015-08-01T09:35:11Z</time>
      </trkpt>
      <trkpt lat="49.22033" lon="-0.20002">
        <ele>39.55</ele>
        <time>2015-08-01T09:35:12Z</time>
      </trkpt>
      <trkpt lat="49.22056" lon="-0.19892">
        <ele>37.15</ele>
        <time>2015-08-01T09:35:23Z</time>
      </trkpt>
      <trkpt lat="49.22069" lon="-0.19787">
        <ele>36.19</ele>
        <time>2015-08-01T09:35:34Z</time>
      </trkpt>
      <trkpt lat="49.22073" lon="-0.1977">
        <ele>35.71</ele>
        <time>2015-08-01T09:35:36Z</time>
      </trkpt>
      <trkpt lat="49.22074" lon="-0.19761">
        <ele>36.19</ele>
        <time>2015-08-01T09:35:37Z</time>
      </trkpt>
      <trkpt lat="49.22086" lon="-0.19664">
        <ele>33.3</ele>
        <time>2015-08-01T09:35:49Z</time>
      </trkpt>
      <trkpt lat="49.22085" lon="-0.19661">
        <ele>32.82</ele>
        <time>2015-08-01T09:35:50Z</time>
      </trkpt>
      <trkpt lat="49.22084" lon="-0.19657">
        <ele>33.3</ele>
        <time>2015-08-01T09:35:51Z</time>
      </trkpt>
      <trkpt lat="49.22081" lon="-0.19653">
        <ele>32.82</ele>
        <time>2015-08-01T09:35:52Z</time>
      </trkpt>
      <trkpt lat="49.22078" lon="-0.1965">
        <ele>33.3</ele>
        <time>2015-08-01T09:35:53Z</time>
      </trkpt>
      <trkpt lat="49.22076" lon="-0.19648">
        <ele>32.82</ele>
        <time>2015-08-01T09:35:54Z</time>
      </trkpt>
      <trkpt lat="49.22064" lon="-0.19635">
        <ele>32.82</ele>
        <time>2015-08-01T09:35:58Z</time>
      </trkpt>
      <trkpt lat="49.22044" lon="-0.19618">
        <ele>31.86</ele>
        <time>2015-08-01T09:36:03Z</time>
      </trkpt>
      <trkpt lat="49.22039" lon="-0.19614">
        <ele>31.86</ele>
        <time>2015-08-01T09:36:04Z</time>
      </trkpt>
      <trkpt lat="49.22023" lon="-0.19599">
        <ele>30.9</ele>
        <time>2015-08-01T09:36:08Z</time>
      </trkpt>
      <trkpt lat="49.22018" lon="-0.19596">
        <ele>30.9</ele>
        <time>2015-08-01T09:36:09Z</time>
      </trkpt>
      <trkpt lat="49.22013" lon="-0.19592">
        <ele>30.9</ele>
        <time>2015-08-01T09:36:10Z</time>
      </trkpt>
      <trkpt lat="49.22009" lon="-0.19588">
        <ele>29.94</ele>
        <time>2015-08-01T09:36:11Z</time>
      </trkpt>
      <trkpt lat="49.22005" lon="-0.19583">
        <ele>29.94</ele>
        <time>2015-08-01T09:36:12Z</time>
      </trkpt>
      <trkpt lat="49.22001" lon="-0.1958">
        <ele>29.94</ele>
        <time>2015-08-01T09:36:13Z</time>
      </trkpt>
      <trkpt lat="49.21988" lon="-0.19568">
        <ele>28.02</ele>
        <time>2015-08-01T09:36:16Z</time>
      </trkpt>
      <trkpt lat="49.21946" lon="-0.19529">
        <ele>24.65</ele>
        <time>2015-08-01T09:36:24Z</time>
      </trkpt>
      <trkpt lat="49.21912" lon="-0.19499">
        <ele>22.73</ele>
        <time>2015-08-01T09:36:30Z</time>
      </trkpt>
      <trkpt lat="49.21909" lon="-0.19494">
        <ele>23.21</ele>
        <time>2015-08-01T09:36:31Z</time>
      </trkpt>
      <trkpt lat="49.21908" lon="-0.19488">
        <ele>22.73</ele>
        <time>2015-08-01T09:36:32Z</time>
      </trkpt>
      <trkpt lat="49.21905" lon="-0.19464">
        <ele>23.69</ele>
        <time>2015-08-01T09:36:37Z</time>
      </trkpt>
      <trkpt lat="49.21906" lon="-0.19461">
        <ele>23.21</ele>
        <time>2015-08-01T09:36:38Z</time>
      </trkpt>
      <trkpt lat="49.21906" lon="-0.19458">
        <ele>23.69</ele>
        <time>2015-08-01T09:36:39Z</time>
      </trkpt>
      <trkpt lat="49.21907" lon="-0.19455">
        <ele>23.69</ele>
        <time>2015-08-01T09:36:40Z</time>
      </trkpt>
      <trkpt lat="49.21907" lon="-0.19453">
        <ele>24.17</ele>
        <time>2015-08-01T09:36:41Z</time>
      </trkpt>
      <trkpt lat="49.21909" lon="-0.19428">
        <ele>25.61</ele>
        <time>2015-08-01T09:36:50Z</time>
      </trkpt>
      <trkpt lat="49.21909" lon="-0.19417">
        <ele>27.05</ele>
        <time>2015-08-01T09:36:54Z</time>
      </trkpt>
      <trkpt lat="49.21908" lon="-0.19402">
        <ele>28.02</ele>
        <time>2015-08-01T09:37:01Z</time>
      </trkpt>
      <trkpt lat="49.21898" lon="-0.19375">
        <ele>30.9</ele>
        <time>2015-08-01T09:37:14Z</time>
      </trkpt>
      <trkpt lat="49.21885" lon="-0.19348">
        <ele>31.38</ele>
        <time>2015-08-01T09:37:26Z</time>
      </trkpt>
      <trkpt lat="49.21871" lon="-0.19322">
        <ele>31.86</ele>
        <time>2015-08-01T09:37:38Z</time>
      </trkpt>
      <trkpt lat="49.21855" lon="-0.193">
        <ele>31.86</ele>
        <time>2015-08-01T09:37:50Z</time>
      </trkpt>
      <trkpt lat="49.21836" lon="-0.19279">
        <ele>32.34</ele>
        <time>2015-08-01T09:37:59Z</time>
      </trkpt>
      <trkpt lat="49.21824" lon="-0.19259">
        <ele>32.34</ele>
        <time>2015-08-01T09:38:06Z</time>
      </trkpt>
      <trkpt lat="49.21823" lon="-0.19255">
        <ele>31.86</ele>
        <time>2015-08-01T09:38:07Z</time>
      </trkpt>
      <trkpt lat="49.21823" lon="-0.19251">
        <ele>32.34</ele>
        <time>2015-08-01T09:38:08Z</time>
      </trkpt>
      <trkpt lat="49.21823" lon="-0.19242">
        <ele>32.34</ele>
        <time>2015-08-01T09:38:10Z</time>
      </trkpt>
      <trkpt lat="49.2182" lon="-0.19202">
        <ele>31.86</ele>
        <time>2015-08-01T09:38:20Z</time>
      </trkpt>
      <trkpt lat="49.21818" lon="-0.19185">
        <ele>31.38</ele>
        <time>2015-08-01T09:38:24Z</time>
      </trkpt>
      <trkpt lat="49.21845" lon="-0.19135">
        <ele>30.9</ele>
        <time>2015-08-01T09:38:34Z</time>
      </trkpt>
      <trkpt lat="49.2185" lon="-0.19129">
        <ele>30.9</ele>
        <time>2015-08-01T09:38:35Z</time>
      </trkpt>
      <trkpt lat="49.21869" lon="-0.19098">
        <ele>30.9</ele>
        <time>2015-08-01T09:38:40Z</time>
      </trkpt>
      <trkpt lat="49.21873" lon="-0.19092">
        <ele>31.38</ele>
        <time>2015-08-01T09:38:41Z</time>
      </trkpt>
      <trkpt lat="49.21875" lon="-0.19086">
        <ele>30.9</ele>
        <time>2015-08-01T09:38:42Z</time>
      </trkpt>
      <trkpt lat="49.21877" lon="-0.19081">
        <ele>30.9</ele>
        <time>2015-08-01T09:38:43Z</time>
      </trkpt>
      <trkpt lat="49.21879" lon="-0.19076">
        <ele>30.9</ele>
        <time>2015-08-01T09:38:44Z</time>
      </trkpt>
      <trkpt lat="49.21881" lon="-0.19071">
        <ele>30.9</ele>
        <time>2015-08-01T09:38:45Z</time>
      </trkpt>
      <trkpt lat="49.21884" lon="-0.19065">
        <ele>30.9</ele>
        <time>2015-08-01T09:38:46Z</time>
      </trkpt>
      <trkpt lat="49.21887" lon="-0.1906">
        <ele>30.9</ele>
        <time>2015-08-01T09:38:47Z</time>
      </trkpt>
      <trkpt lat="49.21889" lon="-0.19055">
        <ele>31.38</ele>
        <time>2015-08-01T09:38:48Z</time>
      </trkpt>
      <trkpt lat="49.21891" lon="-0.1905">
        <ele>30.9</ele>
        <time>2015-08-01T09:38:49Z</time>
      </trkpt>
      <trkpt lat="49.21917" lon="-0.18996">
        <ele>31.38</ele>
        <time>2015-08-01T09:39:00Z</time>
      </trkpt>
      <trkpt lat="49.21921" lon="-0.18994">
        <ele>31.38</ele>
        <time>2015-08-01T09:39:01Z</time>
      </trkpt>
      <trkpt lat="49.21924" lon="-0.18993">
        <ele>30.9</ele>
        <time>2015-08-01T09:39:02Z</time>
      </trkpt>
      <trkpt lat="49.21928" lon="-0.18994">
        <ele>31.38</ele>
        <time>2015-08-01T09:39:03Z</time>
      </trkpt>
      <trkpt lat="49.21932" lon="-0.18994">
        <ele>31.38</ele>
        <time>2015-08-01T09:39:04Z</time>
      </trkpt>
      <trkpt lat="49.21936" lon="-0.18994">
        <ele>31.38</ele>
        <time>2015-08-01T09:39:05Z</time>
      </trkpt>
      <trkpt lat="49.21986" lon="-0.18992">
        <ele>31.38</ele>
        <time>2015-08-01T09:39:19Z</time>
      </trkpt>
      <trkpt lat="49.22012" lon="-0.18962">
        <ele>29.94</ele>
        <time>2015-08-01T09:39:28Z</time>
      </trkpt>
      <trkpt lat="49.2204" lon="-0.18934">
        <ele>29.46</ele>
        <time>2015-08-01T09:39:37Z</time>
      </trkpt>
      <trkpt lat="49.22048" lon="-0.18925">
        <ele>28.98</ele>
        <time>2015-08-01T09:39:39Z</time>
      </trkpt>
      <trkpt lat="49.2206" lon="-0.18917">
        <ele>28.98</ele>
        <time>2015-08-01T09:39:41Z</time>
      </trkpt>
      <trkpt lat="49.22065" lon="-0.18913">
        <ele>28.5</ele>
        <time>2015-08-01T09:39:42Z</time>
      </trkpt>
      <trkpt lat="49.22111" lon="-0.18869">
        <ele>27.05</ele>
        <time>2015-08-01T09:39:51Z</time>
      </trkpt>
      <trkpt lat="49.22123" lon="-0.18858">
        <ele>26.57</ele>
        <time>2015-08-01T09:39:53Z</time>
      </trkpt>
      <trkpt lat="49.22128" lon="-0.18853">
        <ele>26.57</ele>
        <time>2015-08-01T09:39:54Z</time>
      </trkpt>
      <trkpt lat="49.22133" lon="-0.18847">
        <ele>26.09</ele>
        <time>2015-08-01T09:39:55Z</time>
      </trkpt>
      <trkpt lat="49.22138" lon="-0.18842">
        <ele>26.09</ele>
        <time>2015-08-01T09:39:56Z</time>
      </trkpt>
      <trkpt lat="49.22143" lon="-0.18837">
        <ele>26.57</ele>
        <time>2015-08-01T09:39:57Z</time>
      </trkpt>
      <trkpt lat="49.22183" lon="-0.18793">
        <ele>24.65</ele>
        <time>2015-08-01T09:40:06Z</time>
      </trkpt>
      <trkpt lat="49.22187" lon="-0.18788">
        <ele>24.17</ele>
        <time>2015-08-01T09:40:07Z</time>
      </trkpt>
      <trkpt lat="49.22191" lon="-0.18782">
        <ele>24.17</ele>
        <time>2015-08-01T09:40:08Z</time>
      </trkpt>
      <trkpt lat="49.22196" lon="-0.18776">
        <ele>23.69</ele>
        <time>2015-08-01T09:40:09Z</time>
      </trkpt>
      <trkpt lat="49.222" lon="-0.1877">
        <ele>23.69</ele>
        <time>2015-08-01T09:40:10Z</time>
      </trkpt>
      <trkpt lat="49.22221" lon="-0.18724">
        <ele>21.77</ele>
        <time>2015-08-01T09:40:17Z</time>
      </trkpt>
      <trkpt lat="49.22225" lon="-0.18711">
        <ele>21.29</ele>
        <time>2015-08-01T09:40:19Z</time>
      </trkpt>
      <trkpt lat="49.22227" lon="-0.18705">
        <ele>20.81</ele>
        <time>2015-08-01T09:40:20Z</time>
      </trkpt>
      <trkpt lat="49.22229" lon="-0.18699">
        <ele>21.29</ele>
        <time>2015-08-01T09:40:21Z</time>
      </trkpt>
      <trkpt lat="49.22232" lon="-0.18694">
        <ele>20.81</ele>
        <time>2015-08-01T09:40:22Z</time>
      </trkpt>
      <trkpt lat="49.22233" lon="-0.18688">
        <ele>20.32</ele>
        <time>2015-08-01T09:40:23Z</time>
      </trkpt>
      <trkpt lat="49.22233" lon="-0.18682">
        <ele>20.32</ele>
        <time>2015-08-01T09:40:24Z</time>
      </trkpt>
      <trkpt lat="49.22234" lon="-0.18676">
        <ele>20.81</ele>
        <time>2015-08-01T09:40:25Z</time>
      </trkpt>
      <trkpt lat="49.22234" lon="-0.18671">
        <ele>20.32</ele>
        <time>2015-08-01T09:40:26Z</time>
      </trkpt>
      <trkpt lat="49.22234" lon="-0.18667">
        <ele>20.81</ele>
        <time>2015-08-01T09:40:27Z</time>
      </trkpt>
      <trkpt lat="49.22229" lon="-0.18619">
        <ele>20.32</ele>
        <time>2015-08-01T09:40:40Z</time>
      </trkpt>
      <trkpt lat="49.22232" lon="-0.18615">
        <ele>20.81</ele>
        <time>2015-08-01T09:40:48Z</time>
      </trkpt>
      <trkpt lat="49.22232" lon="-0.18617">
        <ele>20.81</ele>
        <time>2015-08-01T09:40:49Z</time>
      </trkpt>
      <trkpt lat="49.22238" lon="-0.18656">
        <ele>20.81</ele>
        <time>2015-08-01T09:40:59Z</time>
      </trkpt>
      <trkpt lat="49.22241" lon="-0.18672">
        <ele>20.32</ele>
        <time>2015-08-01T09:41:03Z</time>
      </trkpt>
      <trkpt lat="49.22244" lon="-0.18673">
        <ele>20.32</ele>
        <time>2015-08-01T09:41:06Z</time>
      </trkpt>
      <trkpt lat="49.22246" lon="-0.18673">
        <ele>19.84</ele>
        <time>2015-08-01T09:41:07Z</time>
      </trkpt>
      <trkpt lat="49.22248" lon="-0.18673">
        <ele>19.84</ele>
        <time>2015-08-01T09:41:08Z</time>
      </trkpt>
      <trkpt lat="49.2225" lon="-0.18673">
        <ele>19.84</ele>
        <time>2015-08-01T09:41:09Z</time>
      </trkpt>
      <trkpt lat="49.22251" lon="-0.18672">
        <ele>19.36</ele>
        <time>2015-08-01T09:41:10Z</time>
      </trkpt>
      <trkpt lat="49.22253" lon="-0.1867">
        <ele>19.36</ele>
        <time>2015-08-01T09:41:11Z</time>
      </trkpt>
      <trkpt lat="49.22261" lon="-0.18669">
        <ele>19.36</ele>
        <time>2015-08-01T09:41:20Z</time>
      </trkpt>
      <trkpt lat="49.22267" lon="-0.18669">
        <ele>18.4</ele>
        <time>2015-08-01T09:41:31Z</time>
      </trkpt>
      <trkpt lat="49.22268" lon="-0.18671">
        <ele>18.4</ele>
        <time>2015-08-01T09:42:06Z</time>
      </trkpt>
      <trkpt lat="49.22269" lon="-0.1867">
        <ele>18.4</ele>
        <time>2015-08-01T09:42:25Z</time>
      </trkpt>
      <trkpt lat="49.2227" lon="-0.1867">
        <ele>17.44</ele>
        <time>2015-08-01T09:42:47Z</time>
      </trkpt>
      <trkpt lat="49.22275" lon="-0.18667">
        <ele>16.96</ele>
        <time>2015-08-01T09:43:05Z</time>
      </trkpt>
      <trkpt lat="49.22288" lon="-0.18663">
        <ele>16</ele>
        <time>2015-08-01T09:43:15Z</time>
      </trkpt>
      <trkpt lat="49.22296" lon="-0.18659">
        <ele>15.52</ele>
        <time>2015-08-01T09:43:27Z</time>
      </trkpt>
      <trkpt lat="49.22316" lon="-0.18653">
        <ele>15.04</ele>
        <time>2015-08-01T09:43:38Z</time>
      </trkpt>
      <trkpt lat="49.22341" lon="-0.18651">
        <ele>13.6</ele>
        <time>2015-08-01T09:43:48Z</time>
      </trkpt>
      <trkpt lat="49.22347" lon="-0.18649">
        <ele>13.6</ele>
        <time>2015-08-01T09:44:16Z</time>
      </trkpt>
      <trkpt lat="49.22357" lon="-0.18649">
        <ele>13.6</ele>
        <time>2015-08-01T09:44:29Z</time>
      </trkpt>
      <trkpt lat="49.22368" lon="-0.18647">
        <ele>12.63</ele>
        <time>2015-08-01T09:44:52Z</time>
      </trkpt>
      <trkpt lat="49.2237" lon="-0.18646">
        <ele>12.15</ele>
        <time>2015-08-01T09:44:53Z</time>
      </trkpt>
      <trkpt lat="49.22373" lon="-0.18646">
        <ele>12.15</ele>
        <time>2015-08-01T09:44:54Z</time>
      </trkpt>
      <trkpt lat="49.22375" lon="-0.18646">
        <ele>11.67</ele>
        <time>2015-08-01T09:44:55Z</time>
      </trkpt>
      <trkpt lat="49.22377" lon="-0.18646">
        <ele>11.67</ele>
        <time>2015-08-01T09:44:56Z</time>
      </trkpt>
      <trkpt lat="49.2238" lon="-0.18646">
        <ele>11.67</ele>
        <time>2015-08-01T09:44:57Z</time>
      </trkpt>
      <trkpt lat="49.22421" lon="-0.18643">
        <ele>9.75</ele>
        <time>2015-08-01T09:45:10Z</time>
      </trkpt>
      <trkpt lat="49.22455" lon="-0.18627">
        <ele>8.79</ele>
        <time>2015-08-01T09:45:20Z</time>
      </trkpt>
      <trkpt lat="49.22487" lon="-0.18619">
        <ele>7.83</ele>
        <time>2015-08-01T09:45:32Z</time>
      </trkpt>
      <trkpt lat="49.2249" lon="-0.18618">
        <ele>8.31</ele>
        <time>2015-08-01T09:45:38Z</time>
      </trkpt>
      <trkpt lat="49.22499" lon="-0.18617">
        <ele>7.35</ele>
        <time>2015-08-01T09:45:51Z</time>
      </trkpt>
      <trkpt lat="49.22499" lon="-0.18617">
        <ele>7.83</ele>
        <time>2015-08-01T09:45:53Z</time>
      </trkpt>
      <trkpt lat="49.22501" lon="-0.18617">
        <ele>7.35</ele>
        <time>2015-08-01T09:45:54Z</time>
      </trkpt>
      <trkpt lat="49.22504" lon="-0.18617">
        <ele>7.83</ele>
        <time>2015-08-01T09:45:55Z</time>
      </trkpt>
      <trkpt lat="49.22506" lon="-0.18616">
        <ele>7.35</ele>
        <time>2015-08-01T09:45:56Z</time>
      </trkpt>
      <trkpt lat="49.22509" lon="-0.18616">
        <ele>7.35</ele>
        <time>2015-08-01T09:45:57Z</time>
      </trkpt>
      <trkpt lat="49.22511" lon="-0.18615">
        <ele>7.35</ele>
        <time>2015-08-01T09:45:58Z</time>
      </trkpt>
      <trkpt lat="49.22513" lon="-0.18615">
        <ele>7.83</ele>
        <time>2015-08-01T09:45:59Z</time>
      </trkpt>
      <trkpt lat="49.22515" lon="-0.18615">
        <ele>7.35</ele>
        <time>2015-08-01T09:46:00Z</time>
      </trkpt>
      <trkpt lat="49.22517" lon="-0.18614">
        <ele>6.87</ele>
        <time>2015-08-01T09:46:01Z</time>
      </trkpt>
      <trkpt lat="49.22519" lon="-0.18614">
        <ele>7.35</ele>
        <time>2015-08-01T09:46:02Z</time>
      </trkpt>
      <trkpt lat="49.22521" lon="-0.18613">
        <ele>6.87</ele>
        <time>2015-08-01T09:46:03Z</time>
      </trkpt>
      <trkpt lat="49.22523" lon="-0.18612">
        <ele>7.35</ele>
        <time>2015-08-01T09:46:04Z</time>
      </trkpt>
      <trkpt lat="49.22526" lon="-0.18612">
        <ele>6.39</ele>
        <time>2015-08-01T09:46:05Z</time>
      </trkpt>
      <trkpt lat="49.22543" lon="-0.1861">
        <ele>6.87</ele>
        <time>2015-08-01T09:46:17Z</time>
      </trkpt>
      <trkpt lat="49.22547" lon="-0.18608">
        <ele>6.87</ele>
        <time>2015-08-01T09:46:26Z</time>
      </trkpt>
      <trkpt lat="49.22549" lon="-0.18609">
        <ele>6.87</ele>
        <time>2015-08-01T09:46:27Z</time>
      </trkpt>
      <trkpt lat="49.2256" lon="-0.18608">
        <ele>6.39</ele>
        <time>2015-08-01T09:46:41Z</time>
      </trkpt>
      <trkpt lat="49.22561" lon="-0.18608">
        <ele>6.39</ele>
        <time>2015-08-01T09:46:49Z</time>
      </trkpt>
      <trkpt lat="49.22562" lon="-0.18608">
        <ele>5.91</ele>
        <time>2015-08-01T09:46:50Z</time>
      </trkpt>
      <trkpt lat="49.22563" lon="-0.18609">
        <ele>6.39</ele>
        <time>2015-08-01T09:46:51Z</time>
      </trkpt>
      <trkpt lat="49.22565" lon="-0.18609">
        <ele>5.91</ele>
        <time>2015-08-01T09:46:52Z</time>
      </trkpt>
      <trkpt lat="49.22566" lon="-0.18609">
        <ele>6.39</ele>
        <time>2015-08-01T09:46:53Z</time>
      </trkpt>
      <trkpt lat="49.22568" lon="-0.18609">
        <ele>6.39</ele>
        <time>2015-08-01T09:46:54Z</time>
      </trkpt>
      <trkpt lat="49.2257" lon="-0.18607">
        <ele>6.39</ele>
        <time>2015-08-01T09:46:55Z</time>
      </trkpt>
      <trkpt lat="49.22598" lon="-0.18593">
        <ele>6.39</ele>
        <time>2015-08-01T09:47:09Z</time>
      </trkpt>
      <trkpt lat="49.22597" lon="-0.18591">
        <ele>6.39</ele>
        <time>2015-08-01T09:47:10Z</time>
      </trkpt>
      <trkpt lat="49.22596" lon="-0.18588">
        <ele>5.91</ele>
        <time>2015-08-01T09:47:11Z</time>
      </trkpt>
      <trkpt lat="49.22595" lon="-0.18585">
        <ele>6.39</ele>
        <time>2015-08-01T09:47:12Z</time>
      </trkpt>
      <trkpt lat="49.22594" lon="-0.18581">
        <ele>6.39</ele>
        <time>2015-08-01T09:47:13Z</time>
      </trkpt>
      <trkpt lat="49.22593" lon="-0.18578">
        <ele>6.39</ele>
        <time>2015-08-01T09:47:14Z</time>
      </trkpt>
      <trkpt lat="49.22588" lon="-0.18564">
        <ele>6.39</ele>
        <time>2015-08-01T09:47:24Z</time>
      </trkpt>
      <trkpt lat="49.22589" lon="-0.18564">
        <ele>6.87</ele>
        <time>2015-08-01T09:47:34Z</time>
      </trkpt>
      <trkpt lat="49.22589" lon="-0.18564">
        <ele>7.35</ele>
        <time>2015-08-01T09:47:39Z</time>
      </trkpt>
      <trkpt lat="49.2259" lon="-0.18562">
        <ele>6.87</ele>
        <time>2015-08-01T09:47:52Z</time>
      </trkpt>
      <trkpt lat="49.2259" lon="-0.18559">
        <ele>7.35</ele>
        <time>2015-08-01T09:47:53Z</time>
      </trkpt>
      <trkpt lat="49.22591" lon="-0.18557">
        <ele>7.35</ele>
        <time>2015-08-01T09:47:54Z</time>
      </trkpt>
      <trkpt lat="49.22592" lon="-0.18555">
        <ele>6.87</ele>
        <time>2015-08-01T09:47:55Z</time>
      </trkpt>
      <trkpt lat="49.22592" lon="-0.18552">
        <ele>6.87</ele>
        <time>2015-08-01T09:47:56Z</time>
      </trkpt>
      <trkpt lat="49.22593" lon="-0.1855">
        <ele>6.87</ele>
        <time>2015-08-01T09:47:57Z</time>
      </trkpt>
      <trkpt lat="49.22594" lon="-0.18547">
        <ele>6.87</ele>
        <time>2015-08-01T09:47:58Z</time>
      </trkpt>
      <trkpt lat="49.22596" lon="-0.18545">
        <ele>6.87</ele>
        <time>2015-08-01T09:47:59Z</time>
      </trkpt>
      <trkpt lat="49.22598" lon="-0.18543">
        <ele>6.87</ele>
        <time>2015-08-01T09:48:00Z</time>
      </trkpt>
      <trkpt lat="49.226" lon="-0.18541">
        <ele>6.39</ele>
        <time>2015-08-01T09:48:01Z</time>
      </trkpt>
      <trkpt lat="49.22602" lon="-0.1854">
        <ele>6.87</ele>
        <time>2015-08-01T09:48:02Z</time>
      </trkpt>
      <trkpt lat="49.22603" lon="-0.18538">
        <ele>6.87</ele>
        <time>2015-08-01T09:48:03Z</time>
      </trkpt>
      <trkpt lat="49.22605" lon="-0.18535">
        <ele>6.87</ele>
        <time>2015-08-01T09:48:04Z</time>
      </trkpt>
      <trkpt lat="49.22617" lon="-0.18495">
        <ele>5.91</ele>
        <time>2015-08-01T09:48:15Z</time>
      </trkpt>
      <trkpt lat="49.22621" lon="-0.18464">
        <ele>5.91</ele>
        <time>2015-08-01T09:48:25Z</time>
      </trkpt>
      <trkpt lat="49.22625" lon="-0.18432">
        <ele>5.42</ele>
        <time>2015-08-01T09:48:36Z</time>
      </trkpt>
      <trkpt lat="49.22629" lon="-0.18421">
        <ele>5.91</ele>
        <time>2015-08-01T09:48:46Z</time>
      </trkpt>
      <trkpt lat="49.22628" lon="-0.18418">
        <ele>5.42</ele>
        <time>2015-08-01T09:49:09Z</time>
      </trkpt>
      <trkpt lat="49.22628" lon="-0.18417">
        <ele>5.91</ele>
        <time>2015-08-01T09:49:21Z</time>
      </trkpt>
      <trkpt lat="49.2263" lon="-0.18393">
        <ele>7.35</ele>
        <time>2015-08-01T09:49:28Z</time>
      </trkpt>
      <trkpt lat="49.2263" lon="-0.18378">
        <ele>7.35</ele>
        <time>2015-08-01T09:49:34Z</time>
      </trkpt>
      <trkpt lat="49.22635" lon="-0.18354">
        <ele>6.39</ele>
        <time>2015-08-01T09:49:40Z</time>
      </trkpt>
      <trkpt lat="49.22637" lon="-0.18346">
        <ele>5.91</ele>
        <time>2015-08-01T09:49:42Z</time>
      </trkpt>
      <trkpt lat="49.2264" lon="-0.1832">
        <ele>6.39</ele>
        <time>2015-08-01T09:49:49Z</time>
      </trkpt>
      <trkpt lat="49.22651" lon="-0.18264">
        <ele>5.91</ele>
        <time>2015-08-01T09:50:04Z</time>
      </trkpt>
      <trkpt lat="49.22656" lon="-0.18216">
        <ele>5.42</ele>
        <time>2015-08-01T09:50:15Z</time>
      </trkpt>
      <trkpt lat="49.22653" lon="-0.18177">
        <ele>5.91</ele>
        <time>2015-08-01T09:50:27Z</time>
      </trkpt>
      <trkpt lat="49.22647" lon="-0.18123">
        <ele>5.42</ele>
        <time>2015-08-01T09:50:40Z</time>
      </trkpt>
      <trkpt lat="49.22642" lon="-0.18079">
        <ele>4.94</ele>
        <time>2015-08-01T09:50:52Z</time>
      </trkpt>
      <trkpt lat="49.22642" lon="-0.18073">
        <ele>5.42</ele>
        <time>2015-08-01T09:50:54Z</time>
      </trkpt>
      <trkpt lat="49.22639" lon="-0.18043">
        <ele>5.42</ele>
        <time>2015-08-01T09:51:06Z</time>
      </trkpt>
      <trkpt lat="49.22638" lon="-0.18039">
        <ele>5.42</ele>
        <time>2015-08-01T09:51:36Z</time>
      </trkpt>
      <trkpt lat="49.22634" lon="-0.18008">
        <ele>5.42</ele>
        <time>2015-08-01T09:51:46Z</time>
      </trkpt>
      <trkpt lat="49.22623" lon="-0.17951">
        <ele>5.42</ele>
        <time>2015-08-01T09:51:59Z</time>
      </trkpt>
      <trkpt lat="49.22615" lon="-0.17884">
        <ele>5.42</ele>
        <time>2015-08-01T09:52:15Z</time>
      </trkpt>
      <trkpt lat="49.22629" lon="-0.17851">
        <ele>5.42</ele>
        <time>2015-08-01T09:52:26Z</time>
      </trkpt>
      <trkpt lat="49.2268" lon="-0.17811">
        <ele>4.46</ele>
        <time>2015-08-01T09:52:41Z</time>
      </trkpt>
      <trkpt lat="49.22719" lon="-0.17749">
        <ele>5.42</ele>
        <time>2015-08-01T09:52:53Z</time>
      </trkpt>
      <trkpt lat="49.22723" lon="-0.17745">
        <ele>5.42</ele>
        <time>2015-08-01T09:52:54Z</time>
      </trkpt>
      <trkpt lat="49.22727" lon="-0.17742">
        <ele>5.42</ele>
        <time>2015-08-01T09:52:55Z</time>
      </trkpt>
      <trkpt lat="49.22731" lon="-0.17738">
        <ele>4.94</ele>
        <time>2015-08-01T09:52:56Z</time>
      </trkpt>
      <trkpt lat="49.22735" lon="-0.17735">
        <ele>5.42</ele>
        <time>2015-08-01T09:52:57Z</time>
      </trkpt>
      <trkpt lat="49.22757" lon="-0.17719">
        <ele>4.94</ele>
        <time>2015-08-01T09:53:02Z</time>
      </trkpt>
      <trkpt lat="49.22762" lon="-0.17717">
        <ele>4.94</ele>
        <time>2015-08-01T09:53:03Z</time>
      </trkpt>
      <trkpt lat="49.22794" lon="-0.17702">
        <ele>4.94</ele>
        <time>2015-08-01T09:53:11Z</time>
      </trkpt>
      <trkpt lat="49.22832" lon="-0.17693">
        <ele>4.46</ele>
        <time>2015-08-01T09:53:20Z</time>
      </trkpt>
      <trkpt lat="49.22837" lon="-0.17691">
        <ele>4.46</ele>
        <time>2015-08-01T09:53:21Z</time>
      </trkpt>
      <trkpt lat="49.2284" lon="-0.17687">
        <ele>4.46</ele>
        <time>2015-08-01T09:53:22Z</time>
      </trkpt>
      <trkpt lat="49.22843" lon="-0.17682">
        <ele>3.98</ele>
        <time>2015-08-01T09:53:23Z</time>
      </trkpt>
      <trkpt lat="49.22846" lon="-0.17675">
        <ele>3.98</ele>
        <time>2015-08-01T09:53:24Z</time>
      </trkpt>
      <trkpt lat="49.22848" lon="-0.17668">
        <ele>4.94</ele>
        <time>2015-08-01T09:53:25Z</time>
      </trkpt>
      <trkpt lat="49.22849" lon="-0.17661">
        <ele>4.46</ele>
        <time>2015-08-01T09:53:26Z</time>
      </trkpt>
      <trkpt lat="49.2285" lon="-0.17654">
        <ele>4.46</ele>
        <time>2015-08-01T09:53:27Z</time>
      </trkpt>
      <trkpt lat="49.2285" lon="-0.17647">
        <ele>4.94</ele>
        <time>2015-08-01T09:53:28Z</time>
      </trkpt>
      <trkpt lat="49.22849" lon="-0.17598">
        <ele>4.94</ele>
        <time>2015-08-01T09:53:35Z</time>
      </trkpt>
      <trkpt lat="49.22849" lon="-0.17591">
        <ele>4.94</ele>
        <time>2015-08-01T09:53:36Z</time>
      </trkpt>
      <trkpt lat="49.22844" lon="-0.17518">
        <ele>4.46</ele>
        <time>2015-08-01T09:53:46Z</time>
      </trkpt>
      <trkpt lat="49.22843" lon="-0.17512">
        <ele>4.94</ele>
        <time>2015-08-01T09:53:47Z</time>
      </trkpt>
      <trkpt lat="49.22835" lon="-0.17484">
        <ele>3.98</ele>
        <time>2015-08-01T09:53:51Z</time>
      </trkpt>
      <trkpt lat="49.22801" lon="-0.17394">
        <ele>4.94</ele>
        <time>2015-08-01T09:54:04Z</time>
      </trkpt>
      <trkpt lat="49.22766" lon="-0.17279">
        <ele>3.98</ele>
        <time>2015-08-01T09:54:20Z</time>
      </trkpt>
      <trkpt lat="49.22737" lon="-0.17177">
        <ele>3.98</ele>
        <time>2015-08-01T09:54:33Z</time>
      </trkpt>
      <trkpt lat="49.22735" lon="-0.17169">
        <ele>4.94</ele>
        <time>2015-08-01T09:54:34Z</time>
      </trkpt>
      <trkpt lat="49.227" lon="-0.17048">
        <ele>4.46</ele>
        <time>2015-08-01T09:54:50Z</time>
      </trkpt>
      <trkpt lat="49.22676" lon="-0.16961">
        <ele>4.46</ele>
        <time>2015-08-01T09:55:01Z</time>
      </trkpt>
      <trkpt lat="49.22674" lon="-0.16954">
        <ele>4.46</ele>
        <time>2015-08-01T09:55:02Z</time>
      </trkpt>
      <trkpt lat="49.22672" lon="-0.16946">
        <ele>4.46</ele>
        <time>2015-08-01T09:55:03Z</time>
      </trkpt>
      <trkpt lat="49.22643" lon="-0.16849">
        <ele>4.46</ele>
        <time>2015-08-01T09:55:17Z</time>
      </trkpt>
      <trkpt lat="49.22633" lon="-0.16812">
        <ele>4.46</ele>
        <time>2015-08-01T09:55:23Z</time>
      </trkpt>
      <trkpt lat="49.22633" lon="-0.16805">
        <ele>3.98</ele>
        <time>2015-08-01T09:55:24Z</time>
      </trkpt>
      <trkpt lat="49.22634" lon="-0.168">
        <ele>3.98</ele>
        <time>2015-08-01T09:55:25Z</time>
      </trkpt>
      <trkpt lat="49.22637" lon="-0.16796">
        <ele>4.46</ele>
        <time>2015-08-01T09:55:26Z</time>
      </trkpt>
      <trkpt lat="49.2264" lon="-0.16792">
        <ele>3.98</ele>
        <time>2015-08-01T09:55:27Z</time>
      </trkpt>
      <trkpt lat="49.2267" lon="-0.16763">
        <ele>3.5</ele>
        <time>2015-08-01T09:55:38Z</time>
      </trkpt>
      <trkpt lat="49.22694" lon="-0.16732">
        <ele>3.98</ele>
        <time>2015-08-01T09:55:48Z</time>
      </trkpt>
      <trkpt lat="49.22701" lon="-0.16726">
        <ele>3.98</ele>
        <time>2015-08-01T09:55:50Z</time>
      </trkpt>
      <trkpt lat="49.22705" lon="-0.16723">
        <ele>4.46</ele>
        <time>2015-08-01T09:55:51Z</time>
      </trkpt>
      <trkpt lat="49.22709" lon="-0.16719">
        <ele>3.98</ele>
        <time>2015-08-01T09:55:52Z</time>
      </trkpt>
      <trkpt lat="49.22714" lon="-0.16716">
        <ele>4.46</ele>
        <time>2015-08-01T09:55:53Z</time>
      </trkpt>
      <trkpt lat="49.22718" lon="-0.16712">
        <ele>3.98</ele>
        <time>2015-08-01T09:55:54Z</time>
      </trkpt>
      <trkpt lat="49.22763" lon="-0.16673">
        <ele>3.5</ele>
        <time>2015-08-01T09:56:05Z</time>
      </trkpt>
      <trkpt lat="49.22794" lon="-0.16643">
        <ele>3.98</ele>
        <time>2015-08-01T09:56:14Z</time>
      </trkpt>
      <trkpt lat="49.22813" lon="-0.16627">
        <ele>3.98</ele>
        <time>2015-08-01T09:56:18Z</time>
      </trkpt>
      <trkpt lat="49.22818" lon="-0.16623">
        <ele>3.98</ele>
        <time>2015-08-01T09:56:19Z</time>
      </trkpt>
      <trkpt lat="49.22822" lon="-0.16619">
        <ele>3.98</ele>
        <time>2015-08-01T09:56:20Z</time>
      </trkpt>
      <trkpt lat="49.22845" lon="-0.166">
        <ele>3.98</ele>
        <time>2015-08-01T09:56:25Z</time>
      </trkpt>
      <trkpt lat="49.2285" lon="-0.16596">
        <ele>3.98</ele>
        <time>2015-08-01T09:56:26Z</time>
      </trkpt>
      <trkpt lat="49.22854" lon="-0.16592">
        <ele>3.98</ele>
        <time>2015-08-01T09:56:27Z</time>
      </trkpt>
      <trkpt lat="49.22858" lon="-0.16589">
        <ele>3.5</ele>
        <time>2015-08-01T09:56:28Z</time>
      </trkpt>
      <trkpt lat="49.22863" lon="-0.16586">
        <ele>3.5</ele>
        <time>2015-08-01T09:56:29Z</time>
      </trkpt>
      <trkpt lat="49.22867" lon="-0.16583">
        <ele>3.5</ele>
        <time>2015-08-01T09:56:30Z</time>
      </trkpt>
      <trkpt lat="49.22872" lon="-0.1658">
        <ele>3.5</ele>
        <time>2015-08-01T09:56:31Z</time>
      </trkpt>
      <trkpt lat="49.22876" lon="-0.16574">
        <ele>3.5</ele>
        <time>2015-08-01T09:56:32Z</time>
      </trkpt>
      <trkpt lat="49.22886" lon="-0.16566">
        <ele>3.5</ele>
        <time>2015-08-01T09:56:34Z</time>
      </trkpt>
      <trkpt lat="49.22891" lon="-0.16562">
        <ele>3.5</ele>
        <time>2015-08-01T09:56:35Z</time>
      </trkpt>
      <trkpt lat="49.22909" lon="-0.16546">
        <ele>3.02</ele>
        <time>2015-08-01T09:56:39Z</time>
      </trkpt>
      <trkpt lat="49.2296" lon="-0.16502">
        <ele>3.5</ele>
        <time>2015-08-01T09:56:50Z</time>
      </trkpt>
      <trkpt lat="49.22977" lon="-0.16487">
        <ele>3.5</ele>
        <time>2015-08-01T09:56:54Z</time>
      </trkpt>
      <trkpt lat="49.2303" lon="-0.16435">
        <ele>3.5</ele>
        <time>2015-08-01T09:57:08Z</time>
      </trkpt>
      <trkpt lat="49.23079" lon="-0.16397">
        <ele>3.02</ele>
        <time>2015-08-01T09:57:21Z</time>
      </trkpt>
      <trkpt lat="49.23132" lon="-0.16351">
        <ele>3.02</ele>
        <time>2015-08-01T09:57:36Z</time>
      </trkpt>
      <trkpt lat="49.23178" lon="-0.16312">
        <ele>2.06</ele>
        <time>2015-08-01T09:57:49Z</time>
      </trkpt>
      <trkpt lat="49.23204" lon="-0.16289">
        <ele>2.54</ele>
        <time>2015-08-01T09:57:57Z</time>
      </trkpt>
      <trkpt lat="49.23208" lon="-0.16286">
        <ele>2.54</ele>
        <time>2015-08-01T09:57:58Z</time>
      </trkpt>
      <trkpt lat="49.23225" lon="-0.1627">
        <ele>3.02</ele>
        <time>2015-08-01T09:58:03Z</time>
      </trkpt>
      <trkpt lat="49.23229" lon="-0.16267">
        <ele>3.5</ele>
        <time>2015-08-01T09:58:04Z</time>
      </trkpt>
      <trkpt lat="49.23236" lon="-0.1626">
        <ele>3.02</ele>
        <time>2015-08-01T09:58:06Z</time>
      </trkpt>
      <trkpt lat="49.23292" lon="-0.16211">
        <ele>2.54</ele>
        <time>2015-08-01T09:58:21Z</time>
      </trkpt>
      <trkpt lat="49.23351" lon="-0.16156">
        <ele>2.54</ele>
        <time>2015-08-01T09:58:36Z</time>
      </trkpt>
      <trkpt lat="49.23363" lon="-0.16144">
        <ele>2.06</ele>
        <time>2015-08-01T09:58:39Z</time>
      </trkpt>
      <trkpt lat="49.23367" lon="-0.16141">
        <ele>2.54</ele>
        <time>2015-08-01T09:58:40Z</time>
      </trkpt>
      <trkpt lat="49.23383" lon="-0.16127">
        <ele>2.54</ele>
        <time>2015-08-01T09:58:44Z</time>
      </trkpt>
      <trkpt lat="49.23387" lon="-0.16123">
        <ele>2.54</ele>
        <time>2015-08-01T09:58:45Z</time>
      </trkpt>
      <trkpt lat="49.23433" lon="-0.16082">
        <ele>2.06</ele>
        <time>2015-08-01T09:58:57Z</time>
      </trkpt>
      <trkpt lat="49.23441" lon="-0.16075">
        <ele>2.54</ele>
        <time>2015-08-01T09:58:59Z</time>
      </trkpt>
      <trkpt lat="49.23444" lon="-0.16071">
        <ele>2.54</ele>
        <time>2015-08-01T09:59:00Z</time>
      </trkpt>
      <trkpt lat="49.2347" lon="-0.1605">
        <ele>3.02</ele>
        <time>2015-08-01T09:59:07Z</time>
      </trkpt>
      <trkpt lat="49.2352" lon="-0.16005">
        <ele>2.06</ele>
        <time>2015-08-01T09:59:20Z</time>
      </trkpt>
      <trkpt lat="49.23524" lon="-0.16001">
        <ele>2.54</ele>
        <time>2015-08-01T09:59:21Z</time>
      </trkpt>
      <trkpt lat="49.23559" lon="-0.15969">
        <ele>2.06</ele>
        <time>2015-08-01T09:59:30Z</time>
      </trkpt>
      <trkpt lat="49.23563" lon="-0.15966">
        <ele>2.06</ele>
        <time>2015-08-01T09:59:31Z</time>
      </trkpt>
      <trkpt lat="49.23621" lon="-0.15912">
        <ele>2.06</ele>
        <time>2015-08-01T09:59:46Z</time>
      </trkpt>
      <trkpt lat="49.23644" lon="-0.15892">
        <ele>2.06</ele>
        <time>2015-08-01T09:59:52Z</time>
      </trkpt>
      <trkpt lat="49.23648" lon="-0.15889">
        <ele>2.06</ele>
        <time>2015-08-01T09:59:53Z</time>
      </trkpt>
      <trkpt lat="49.23695" lon="-0.15847">
        <ele>2.06</ele>
        <time>2015-08-01T10:00:07Z</time>
      </trkpt>
      <trkpt lat="49.23708" lon="-0.15835">
        <ele>2.54</ele>
        <time>2015-08-01T10:00:13Z</time>
      </trkpt>
      <trkpt lat="49.23727" lon="-0.15817">
        <ele>2.54</ele>
        <time>2015-08-01T10:00:20Z</time>
      </trkpt>
      <trkpt lat="49.23729" lon="-0.15815">
        <ele>3.02</ele>
        <time>2015-08-01T10:00:21Z</time>
      </trkpt>
      <trkpt lat="49.23742" lon="-0.15799">
        <ele>2.54</ele>
        <time>2015-08-01T10:00:26Z</time>
      </trkpt>
      <trkpt lat="49.23743" lon="-0.15794">
        <ele>3.02</ele>
        <time>2015-08-01T10:00:27Z</time>
      </trkpt>
      <trkpt lat="49.23743" lon="-0.15789">
        <ele>2.54</ele>
        <time>2015-08-01T10:00:28Z</time>
      </trkpt>
      <trkpt lat="49.23725" lon="-0.15734">
        <ele>2.54</ele>
        <time>2015-08-01T10:00:39Z</time>
      </trkpt>
      <trkpt lat="49.23722" lon="-0.15729">
        <ele>2.54</ele>
        <time>2015-08-01T10:00:40Z</time>
      </trkpt>
      <trkpt lat="49.2372" lon="-0.15723">
        <ele>2.54</ele>
        <time>2015-08-01T10:00:41Z</time>
      </trkpt>
      <trkpt lat="49.23719" lon="-0.15718">
        <ele>2.54</ele>
        <time>2015-08-01T10:00:42Z</time>
      </trkpt>
      <trkpt lat="49.23718" lon="-0.15712">
        <ele>2.54</ele>
        <time>2015-08-01T10:00:43Z</time>
      </trkpt>
      <trkpt lat="49.23701" lon="-0.15656">
        <ele>2.06</ele>
        <time>2015-08-01T10:00:53Z</time>
      </trkpt>
      <trkpt lat="49.23672" lon="-0.15584">
        <ele>2.54</ele>
        <time>2015-08-01T10:01:05Z</time>
      </trkpt>
      <trkpt lat="49.23636" lon="-0.15484">
        <ele>2.06</ele>
        <time>2015-08-01T10:01:20Z</time>
      </trkpt>
      <trkpt lat="49.23609" lon="-0.15412">
        <ele>2.54</ele>
        <time>2015-08-01T10:01:34Z</time>
      </trkpt>
      <trkpt lat="49.23596" lon="-0.15349">
        <ele>3.98</ele>
        <time>2015-08-01T10:01:46Z</time>
      </trkpt>
      <trkpt lat="49.23575" lon="-0.15296">
        <ele>7.35</ele>
        <time>2015-08-01T10:01:58Z</time>
      </trkpt>
      <trkpt lat="49.23561" lon="-0.15281">
        <ele>9.75</ele>
        <time>2015-08-01T10:02:08Z</time>
      </trkpt>
      <trkpt lat="49.2356" lon="-0.15279">
        <ele>9.27</ele>
        <time>2015-08-01T10:02:24Z</time>
      </trkpt>
      <trkpt lat="49.23556" lon="-0.15276">
        <ele>10.23</ele>
        <time>2015-08-01T10:02:31Z</time>
      </trkpt>
      <trkpt lat="49.23549" lon="-0.15269">
        <ele>12.15</ele>
        <time>2015-08-01T10:02:37Z</time>
      </trkpt>
      <trkpt lat="49.23548" lon="-0.15267">
        <ele>12.15</ele>
        <time>2015-08-01T10:02:38Z</time>
      </trkpt>
      <trkpt lat="49.23547" lon="-0.15266">
        <ele>12.15</ele>
        <time>2015-08-01T10:02:39Z</time>
      </trkpt>
      <trkpt lat="49.23538" lon="-0.15257">
        <ele>13.6</ele>
        <time>2015-08-01T10:02:47Z</time>
      </trkpt>
      <trkpt lat="49.23537" lon="-0.15255">
        <ele>13.6</ele>
        <time>2015-08-01T10:02:48Z</time>
      </trkpt>
      <trkpt lat="49.23535" lon="-0.15253">
        <ele>14.08</ele>
        <time>2015-08-01T10:02:49Z</time>
      </trkpt>
      <trkpt lat="49.23531" lon="-0.1524">
        <ele>16</ele>
        <time>2015-08-01T10:02:59Z</time>
      </trkpt>
      <trkpt lat="49.23529" lon="-0.15225">
        <ele>16.48</ele>
        <time>2015-08-01T10:03:09Z</time>
      </trkpt>
      <trkpt lat="49.23522" lon="-0.15198">
        <ele>16.96</ele>
        <time>2015-08-01T10:03:23Z</time>
      </trkpt>
      <trkpt lat="49.23521" lon="-0.1519">
        <ele>16.48</ele>
        <time>2015-08-01T10:03:26Z</time>
      </trkpt>
      <trkpt lat="49.23521" lon="-0.15186">
        <ele>16.48</ele>
        <time>2015-08-01T10:03:27Z</time>
      </trkpt>
      <trkpt lat="49.23522" lon="-0.15183">
        <ele>16.48</ele>
        <time>2015-08-01T10:03:28Z</time>
      </trkpt>
      <trkpt lat="49.23522" lon="-0.15179">
        <ele>16.48</ele>
        <time>2015-08-01T10:03:29Z</time>
      </trkpt>
      <trkpt lat="49.23521" lon="-0.15176">
        <ele>16.48</ele>
        <time>2015-08-01T10:03:30Z</time>
      </trkpt>
      <trkpt lat="49.23522" lon="-0.15171">
        <ele>16.48</ele>
        <time>2015-08-01T10:03:31Z</time>
      </trkpt>
      <trkpt lat="49.23522" lon="-0.15166">
        <ele>16.48</ele>
        <time>2015-08-01T10:03:32Z</time>
      </trkpt>
      <trkpt lat="49.23521" lon="-0.1516">
        <ele>15.52</ele>
        <time>2015-08-01T10:03:33Z</time>
      </trkpt>
      <trkpt lat="49.23521" lon="-0.15154">
        <ele>15.52</ele>
        <time>2015-08-01T10:03:34Z</time>
      </trkpt>
      <trkpt lat="49.23509" lon="-0.15092">
        <ele>14.08</ele>
        <time>2015-08-01T10:03:45Z</time>
      </trkpt>
      <trkpt lat="49.23495" lon="-0.15007">
        <ele>11.19</ele>
        <time>2015-08-01T10:03:57Z</time>
      </trkpt>
      <trkpt lat="49.23489" lon="-0.14925">
        <ele>8.31</ele>
        <time>2015-08-01T10:04:07Z</time>
      </trkpt>
      <trkpt lat="49.23491" lon="-0.14921">
        <ele>8.79</ele>
        <time>2015-08-01T10:04:08Z</time>
      </trkpt>
      <trkpt lat="49.23494" lon="-0.14919">
        <ele>8.79</ele>
        <time>2015-08-01T10:04:09Z</time>
      </trkpt>
      <trkpt lat="49.23541" lon="-0.14897">
        <ele>8.79</ele>
        <time>2015-08-01T10:04:23Z</time>
      </trkpt>
      <trkpt lat="49.23614" lon="-0.14882">
        <ele>7.83</ele>
        <time>2015-08-01T10:04:39Z</time>
      </trkpt>
      <trkpt lat="49.23666" lon="-0.14882">
        <ele>7.35</ele>
        <time>2015-08-01T10:04:50Z</time>
      </trkpt>
      <trkpt lat="49.23712" lon="-0.14866">
        <ele>5.42</ele>
        <time>2015-08-01T10:05:01Z</time>
      </trkpt>
      <trkpt lat="49.23713" lon="-0.14862">
        <ele>4.94</ele>
        <time>2015-08-01T10:05:02Z</time>
      </trkpt>
      <trkpt lat="49.23713" lon="-0.14857">
        <ele>4.46</ele>
        <time>2015-08-01T10:05:03Z</time>
      </trkpt>
      <trkpt lat="49.23706" lon="-0.14781">
        <ele>3.98</ele>
        <time>2015-08-01T10:05:15Z</time>
      </trkpt>
      <trkpt lat="49.23705" lon="-0.14775">
        <ele>3.5</ele>
        <time>2015-08-01T10:05:16Z</time>
      </trkpt>
      <trkpt lat="49.237" lon="-0.14711">
        <ele>3.5</ele>
        <time>2015-08-01T10:05:25Z</time>
      </trkpt>
      <trkpt lat="49.237" lon="-0.14704">
        <ele>3.5</ele>
        <time>2015-08-01T10:05:26Z</time>
      </trkpt>
      <trkpt lat="49.237" lon="-0.14697">
        <ele>3.02</ele>
        <time>2015-08-01T10:05:27Z</time>
      </trkpt>
      <trkpt lat="49.23701" lon="-0.14669">
        <ele>3.02</ele>
        <time>2015-08-01T10:05:31Z</time>
      </trkpt>
      <trkpt lat="49.23693" lon="-0.14607">
        <ele>3.02</ele>
        <time>2015-08-01T10:05:41Z</time>
      </trkpt>
      <trkpt lat="49.23692" lon="-0.146">
        <ele>2.54</ele>
        <time>2015-08-01T10:05:42Z</time>
      </trkpt>
      <trkpt lat="49.23684" lon="-0.14516">
        <ele>3.02</ele>
        <time>2015-08-01T10:05:56Z</time>
      </trkpt>
      <trkpt lat="49.23683" lon="-0.145">
        <ele>3.5</ele>
        <time>2015-08-01T10:06:01Z</time>
      </trkpt>
      <trkpt lat="49.23684" lon="-0.14497">
        <ele>3.5</ele>
        <time>2015-08-01T10:06:02Z</time>
      </trkpt>
      <trkpt lat="49.23685" lon="-0.14496">
        <ele>3.02</ele>
        <time>2015-08-01T10:06:03Z</time>
      </trkpt>
      <trkpt lat="49.23728" lon="-0.14464">
        <ele>3.5</ele>
        <time>2015-08-01T10:06:14Z</time>
      </trkpt>
      <trkpt lat="49.23782" lon="-0.14411">
        <ele>3.02</ele>
        <time>2015-08-01T10:06:27Z</time>
      </trkpt>
      <trkpt lat="49.23786" lon="-0.14405">
        <ele>3.02</ele>
        <time>2015-08-01T10:06:28Z</time>
      </trkpt>
      <trkpt lat="49.2379" lon="-0.14398">
        <ele>2.54</ele>
        <time>2015-08-01T10:06:29Z</time>
      </trkpt>
      <trkpt lat="49.23792" lon="-0.1439">
        <ele>3.02</ele>
        <time>2015-08-01T10:06:30Z</time>
      </trkpt>
      <trkpt lat="49.23794" lon="-0.14382">
        <ele>2.54</ele>
        <time>2015-08-01T10:06:31Z</time>
      </trkpt>
      <trkpt lat="49.23795" lon="-0.14374">
        <ele>3.5</ele>
        <time>2015-08-01T10:06:32Z</time>
      </trkpt>
      <trkpt lat="49.23795" lon="-0.14366">
        <ele>3.02</ele>
        <time>2015-08-01T10:06:33Z</time>
      </trkpt>
      <trkpt lat="49.23799" lon="-0.14303">
        <ele>3.02</ele>
        <time>2015-08-01T10:06:41Z</time>
      </trkpt>
      <trkpt lat="49.238" lon="-0.14296">
        <ele>3.02</ele>
        <time>2015-08-01T10:06:42Z</time>
      </trkpt>
      <trkpt lat="49.23805" lon="-0.14263">
        <ele>3.02</ele>
        <time>2015-08-01T10:06:46Z</time>
      </trkpt>
      <trkpt lat="49.23805" lon="-0.14255">
        <ele>3.02</ele>
        <time>2015-08-01T10:06:47Z</time>
      </trkpt>
      <trkpt lat="49.23805" lon="-0.14247">
        <ele>3.02</ele>
        <time>2015-08-01T10:06:48Z</time>
      </trkpt>
      <trkpt lat="49.23803" lon="-0.1424">
        <ele>2.54</ele>
        <time>2015-08-01T10:06:49Z</time>
      </trkpt>
      <trkpt lat="49.238" lon="-0.14233">
        <ele>3.02</ele>
        <time>2015-08-01T10:06:50Z</time>
      </trkpt>
      <trkpt lat="49.23797" lon="-0.14227">
        <ele>2.54</ele>
        <time>2015-08-01T10:06:51Z</time>
      </trkpt>
      <trkpt lat="49.23793" lon="-0.1422">
        <ele>3.02</ele>
        <time>2015-08-01T10:06:52Z</time>
      </trkpt>
      <trkpt lat="49.23789" lon="-0.14214">
        <ele>3.02</ele>
        <time>2015-08-01T10:06:53Z</time>
      </trkpt>
      <trkpt lat="49.23786" lon="-0.14207">
        <ele>3.02</ele>
        <time>2015-08-01T10:06:54Z</time>
      </trkpt>
      <trkpt lat="49.23783" lon="-0.14201">
        <ele>3.02</ele>
        <time>2015-08-01T10:06:55Z</time>
      </trkpt>
      <trkpt lat="49.23777" lon="-0.14187">
        <ele>2.54</ele>
        <time>2015-08-01T10:06:57Z</time>
      </trkpt>
      <trkpt lat="49.23773" lon="-0.14182">
        <ele>3.02</ele>
        <time>2015-08-01T10:06:58Z</time>
      </trkpt>
      <trkpt lat="49.23721" lon="-0.14119">
        <ele>3.02</ele>
        <time>2015-08-01T10:07:11Z</time>
      </trkpt>
      <trkpt lat="49.2367" lon="-0.14057">
        <ele>3.02</ele>
        <time>2015-08-01T10:07:24Z</time>
      </trkpt>
      <trkpt lat="49.23663" lon="-0.14046">
        <ele>3.02</ele>
        <time>2015-08-01T10:07:26Z</time>
      </trkpt>
      <trkpt lat="49.2363" lon="-0.1399">
        <ele>3.02</ele>
        <time>2015-08-01T10:07:35Z</time>
      </trkpt>
      <trkpt lat="49.23628" lon="-0.13982">
        <ele>3.02</ele>
        <time>2015-08-01T10:07:36Z</time>
      </trkpt>
      <trkpt lat="49.23627" lon="-0.13975">
        <ele>3.02</ele>
        <time>2015-08-01T10:07:37Z</time>
      </trkpt>
      <trkpt lat="49.23626" lon="-0.13967">
        <ele>2.54</ele>
        <time>2015-08-01T10:07:38Z</time>
      </trkpt>
      <trkpt lat="49.23625" lon="-0.13959">
        <ele>3.02</ele>
        <time>2015-08-01T10:07:39Z</time>
      </trkpt>
      <trkpt lat="49.23619" lon="-0.13916">
        <ele>2.54</ele>
        <time>2015-08-01T10:07:45Z</time>
      </trkpt>
      <trkpt lat="49.23616" lon="-0.13909">
        <ele>3.02</ele>
        <time>2015-08-01T10:07:46Z</time>
      </trkpt>
      <trkpt lat="49.23614" lon="-0.13902">
        <ele>3.02</ele>
        <time>2015-08-01T10:07:47Z</time>
      </trkpt>
      <trkpt lat="49.23594" lon="-0.13838">
        <ele>3.02</ele>
        <time>2015-08-01T10:07:56Z</time>
      </trkpt>
      <trkpt lat="49.23591" lon="-0.13822">
        <ele>3.02</ele>
        <time>2015-08-01T10:07:58Z</time>
      </trkpt>
      <trkpt lat="49.2359" lon="-0.13815">
        <ele>2.54</ele>
        <time>2015-08-01T10:07:59Z</time>
      </trkpt>
      <trkpt lat="49.23588" lon="-0.13808">
        <ele>3.02</ele>
        <time>2015-08-01T10:08:00Z</time>
      </trkpt>
      <trkpt lat="49.23585" lon="-0.13792">
        <ele>3.02</ele>
        <time>2015-08-01T10:08:02Z</time>
      </trkpt>
      <trkpt lat="49.23579" lon="-0.13751">
        <ele>3.02</ele>
        <time>2015-08-01T10:08:07Z</time>
      </trkpt>
      <trkpt lat="49.23575" lon="-0.13702">
        <ele>3.02</ele>
        <time>2015-08-01T10:08:13Z</time>
      </trkpt>
      <trkpt lat="49.23574" lon="-0.13695">
        <ele>3.5</ele>
        <time>2015-08-01T10:08:14Z</time>
      </trkpt>
      <trkpt lat="49.23572" lon="-0.13679">
        <ele>3.02</ele>
        <time>2015-08-01T10:08:16Z</time>
      </trkpt>
      <trkpt lat="49.23571" lon="-0.1367">
        <ele>3.02</ele>
        <time>2015-08-01T10:08:17Z</time>
      </trkpt>
      <trkpt lat="49.23569" lon="-0.13662">
        <ele>3.02</ele>
        <time>2015-08-01T10:08:18Z</time>
      </trkpt>
      <trkpt lat="49.23567" lon="-0.13645">
        <ele>3.02</ele>
        <time>2015-08-01T10:08:20Z</time>
      </trkpt>
      <trkpt lat="49.23567" lon="-0.13637">
        <ele>3.5</ele>
        <time>2015-08-01T10:08:21Z</time>
      </trkpt>
      <trkpt lat="49.2357" lon="-0.1363">
        <ele>3.5</ele>
        <time>2015-08-01T10:08:22Z</time>
      </trkpt>
      <trkpt lat="49.23573" lon="-0.13623">
        <ele>3.02</ele>
        <time>2015-08-01T10:08:23Z</time>
      </trkpt>
      <trkpt lat="49.23576" lon="-0.13618">
        <ele>3.5</ele>
        <time>2015-08-01T10:08:24Z</time>
      </trkpt>
      <trkpt lat="49.23579" lon="-0.13613">
        <ele>3.5</ele>
        <time>2015-08-01T10:08:25Z</time>
      </trkpt>
      <trkpt lat="49.23582" lon="-0.13606">
        <ele>3.5</ele>
        <time>2015-08-01T10:08:26Z</time>
      </trkpt>
      <trkpt lat="49.23584" lon="-0.13599">
        <ele>3.02</ele>
        <time>2015-08-01T10:08:27Z</time>
      </trkpt>
      <trkpt lat="49.23586" lon="-0.13592">
        <ele>3.5</ele>
        <time>2015-08-01T10:08:28Z</time>
      </trkpt>
      <trkpt lat="49.23588" lon="-0.13584">
        <ele>3.5</ele>
        <time>2015-08-01T10:08:29Z</time>
      </trkpt>
      <trkpt lat="49.23597" lon="-0.13553">
        <ele>2.54</ele>
        <time>2015-08-01T10:08:33Z</time>
      </trkpt>
      <trkpt lat="49.23599" lon="-0.13545">
        <ele>3.02</ele>
        <time>2015-08-01T10:08:34Z</time>
      </trkpt>
      <trkpt lat="49.23602" lon="-0.13539">
        <ele>2.54</ele>
        <time>2015-08-01T10:08:35Z</time>
      </trkpt>
      <trkpt lat="49.23606" lon="-0.13534">
        <ele>3.02</ele>
        <time>2015-08-01T10:08:36Z</time>
      </trkpt>
      <trkpt lat="49.2361" lon="-0.13529">
        <ele>3.02</ele>
        <time>2015-08-01T10:08:37Z</time>
      </trkpt>
      <trkpt lat="49.23613" lon="-0.13524">
        <ele>3.02</ele>
        <time>2015-08-01T10:08:38Z</time>
      </trkpt>
      <trkpt lat="49.23617" lon="-0.13518">
        <ele>2.54</ele>
        <time>2015-08-01T10:08:39Z</time>
      </trkpt>
      <trkpt lat="49.23621" lon="-0.13513">
        <ele>3.02</ele>
        <time>2015-08-01T10:08:40Z</time>
      </trkpt>
      <trkpt lat="49.23626" lon="-0.1351">
        <ele>3.5</ele>
        <time>2015-08-01T10:08:41Z</time>
      </trkpt>
      <trkpt lat="49.23631" lon="-0.13507">
        <ele>3.02</ele>
        <time>2015-08-01T10:08:42Z</time>
      </trkpt>
      <trkpt lat="49.23636" lon="-0.13506">
        <ele>3.02</ele>
        <time>2015-08-01T10:08:43Z</time>
      </trkpt>
      <trkpt lat="49.23642" lon="-0.13505">
        <ele>3.5</ele>
        <time>2015-08-01T10:08:44Z</time>
      </trkpt>
      <trkpt lat="49.23648" lon="-0.13505">
        <ele>3.02</ele>
        <time>2015-08-01T10:08:45Z</time>
      </trkpt>
      <trkpt lat="49.23654" lon="-0.13506">
        <ele>3.02</ele>
        <time>2015-08-01T10:08:46Z</time>
      </trkpt>
      <trkpt lat="49.23666" lon="-0.13508">
        <ele>3.02</ele>
        <time>2015-08-01T10:08:48Z</time>
      </trkpt>
      <trkpt lat="49.23671" lon="-0.1351">
        <ele>3.02</ele>
        <time>2015-08-01T10:08:49Z</time>
      </trkpt>
      <trkpt lat="49.23702" lon="-0.1352">
        <ele>3.02</ele>
        <time>2015-08-01T10:08:55Z</time>
      </trkpt>
      <trkpt lat="49.23713" lon="-0.13527">
        <ele>3.02</ele>
        <time>2015-08-01T10:08:57Z</time>
      </trkpt>
      <trkpt lat="49.23717" lon="-0.13532">
        <ele>3.02</ele>
        <time>2015-08-01T10:08:58Z</time>
      </trkpt>
      <trkpt lat="49.23722" lon="-0.13537">
        <ele>3.02</ele>
        <time>2015-08-01T10:08:59Z</time>
      </trkpt>
      <trkpt lat="49.23726" lon="-0.13543">
        <ele>3.02</ele>
        <time>2015-08-01T10:09:00Z</time>
      </trkpt>
      <trkpt lat="49.23729" lon="-0.13548">
        <ele>3.5</ele>
        <time>2015-08-01T10:09:01Z</time>
      </trkpt>
      <trkpt lat="49.23741" lon="-0.13565">
        <ele>3.5</ele>
        <time>2015-08-01T10:09:04Z</time>
      </trkpt>
      <trkpt lat="49.23746" lon="-0.1357">
        <ele>3.02</ele>
        <time>2015-08-01T10:09:05Z</time>
      </trkpt>
      <trkpt lat="49.23751" lon="-0.13573">
        <ele>3.02</ele>
        <time>2015-08-01T10:09:06Z</time>
      </trkpt>
      <trkpt lat="49.23756" lon="-0.13577">
        <ele>3.02</ele>
        <time>2015-08-01T10:09:07Z</time>
      </trkpt>
      <trkpt lat="49.23761" lon="-0.13578">
        <ele>3.02</ele>
        <time>2015-08-01T10:09:08Z</time>
      </trkpt>
      <trkpt lat="49.23767" lon="-0.1358">
        <ele>3.5</ele>
        <time>2015-08-01T10:09:09Z</time>
      </trkpt>
      <trkpt lat="49.23773" lon="-0.13581">
        <ele>3.5</ele>
        <time>2015-08-01T10:09:10Z</time>
      </trkpt>
      <trkpt lat="49.23778" lon="-0.13583">
        <ele>3.02</ele>
        <time>2015-08-01T10:09:11Z</time>
      </trkpt>
      <trkpt lat="49.23784" lon="-0.13586">
        <ele>3.5</ele>
        <time>2015-08-01T10:09:12Z</time>
      </trkpt>
      <trkpt lat="49.23788" lon="-0.13589">
        <ele>3.02</ele>
        <time>2015-08-01T10:09:13Z</time>
      </trkpt>
      <trkpt lat="49.23792" lon="-0.13594">
        <ele>2.54</ele>
        <time>2015-08-01T10:09:14Z</time>
      </trkpt>
      <trkpt lat="49.23856" lon="-0.13668">
        <ele>2.54</ele>
        <time>2015-08-01T10:09:28Z</time>
      </trkpt>
      <trkpt lat="49.23862" lon="-0.13681">
        <ele>2.54</ele>
        <time>2015-08-01T10:09:30Z</time>
      </trkpt>
      <trkpt lat="49.23876" lon="-0.1371">
        <ele>2.54</ele>
        <time>2015-08-01T10:09:34Z</time>
      </trkpt>
      <trkpt lat="49.23881" lon="-0.13713">
        <ele>3.02</ele>
        <time>2015-08-01T10:09:35Z</time>
      </trkpt>
      <trkpt lat="49.23886" lon="-0.13713">
        <ele>2.54</ele>
        <time>2015-08-01T10:09:36Z</time>
      </trkpt>
      <trkpt lat="49.23891" lon="-0.1371">
        <ele>2.54</ele>
        <time>2015-08-01T10:09:37Z</time>
      </trkpt>
      <trkpt lat="49.23896" lon="-0.13707">
        <ele>3.02</ele>
        <time>2015-08-01T10:09:38Z</time>
      </trkpt>
      <trkpt lat="49.23902" lon="-0.13705">
        <ele>2.54</ele>
        <time>2015-08-01T10:09:39Z</time>
      </trkpt>
      <trkpt lat="49.23912" lon="-0.13699">
        <ele>3.02</ele>
        <time>2015-08-01T10:09:41Z</time>
      </trkpt>
      <trkpt lat="49.23917" lon="-0.13697">
        <ele>2.54</ele>
        <time>2015-08-01T10:09:42Z</time>
      </trkpt>
      <trkpt lat="49.23922" lon="-0.13697">
        <ele>2.54</ele>
        <time>2015-08-01T10:09:43Z</time>
      </trkpt>
      <trkpt lat="49.23928" lon="-0.13699">
        <ele>3.02</ele>
        <time>2015-08-01T10:09:44Z</time>
      </trkpt>
      <trkpt lat="49.23933" lon="-0.13701">
        <ele>2.54</ele>
        <time>2015-08-01T10:09:45Z</time>
      </trkpt>
      <trkpt lat="49.23938" lon="-0.13704">
        <ele>3.02</ele>
        <time>2015-08-01T10:09:46Z</time>
      </trkpt>
      <trkpt lat="49.23942" lon="-0.13709">
        <ele>2.54</ele>
        <time>2015-08-01T10:09:47Z</time>
      </trkpt>
      <trkpt lat="49.23946" lon="-0.13714">
        <ele>2.54</ele>
        <time>2015-08-01T10:09:48Z</time>
      </trkpt>
      <trkpt lat="49.23961" lon="-0.13738">
        <ele>2.54</ele>
        <time>2015-08-01T10:09:52Z</time>
      </trkpt>
      <trkpt lat="49.23974" lon="-0.13755">
        <ele>3.02</ele>
        <time>2015-08-01T10:09:55Z</time>
      </trkpt>
      <trkpt lat="49.23979" lon="-0.13759">
        <ele>3.02</ele>
        <time>2015-08-01T10:09:56Z</time>
      </trkpt>
      <trkpt lat="49.23984" lon="-0.1376">
        <ele>2.06</ele>
        <time>2015-08-01T10:09:57Z</time>
      </trkpt>
      <trkpt lat="49.23989" lon="-0.13759">
        <ele>2.54</ele>
        <time>2015-08-01T10:09:58Z</time>
      </trkpt>
      <trkpt lat="49.23994" lon="-0.13756">
        <ele>2.54</ele>
        <time>2015-08-01T10:09:59Z</time>
      </trkpt>
      <trkpt lat="49.23999" lon="-0.13753">
        <ele>2.54</ele>
        <time>2015-08-01T10:10:00Z</time>
      </trkpt>
      <trkpt lat="49.24043" lon="-0.13723">
        <ele>2.54</ele>
        <time>2015-08-01T10:10:09Z</time>
      </trkpt>
      <trkpt lat="49.24073" lon="-0.13688">
        <ele>2.54</ele>
        <time>2015-08-01T10:10:16Z</time>
      </trkpt>
      <trkpt lat="49.24076" lon="-0.13681">
        <ele>2.54</ele>
        <time>2015-08-01T10:10:17Z</time>
      </trkpt>
      <trkpt lat="49.24078" lon="-0.13673">
        <ele>3.02</ele>
        <time>2015-08-01T10:10:18Z</time>
      </trkpt>
      <trkpt lat="49.24079" lon="-0.13665">
        <ele>2.54</ele>
        <time>2015-08-01T10:10:19Z</time>
      </trkpt>
      <trkpt lat="49.24078" lon="-0.13657">
        <ele>2.54</ele>
        <time>2015-08-01T10:10:20Z</time>
      </trkpt>
      <trkpt lat="49.24076" lon="-0.13649">
        <ele>2.54</ele>
        <time>2015-08-01T10:10:21Z</time>
      </trkpt>
      <trkpt lat="49.24072" lon="-0.13643">
        <ele>3.02</ele>
        <time>2015-08-01T10:10:22Z</time>
      </trkpt>
      <trkpt lat="49.24068" lon="-0.13638">
        <ele>3.02</ele>
        <time>2015-08-01T10:10:23Z</time>
      </trkpt>
      <trkpt lat="49.24063" lon="-0.13632">
        <ele>2.54</ele>
        <time>2015-08-01T10:10:24Z</time>
      </trkpt>
      <trkpt lat="49.24054" lon="-0.13622">
        <ele>3.02</ele>
        <time>2015-08-01T10:10:26Z</time>
      </trkpt>
      <trkpt lat="49.2405" lon="-0.13616">
        <ele>2.54</ele>
        <time>2015-08-01T10:10:27Z</time>
      </trkpt>
      <trkpt lat="49.24047" lon="-0.13608">
        <ele>2.54</ele>
        <time>2015-08-01T10:10:28Z</time>
      </trkpt>
      <trkpt lat="49.24045" lon="-0.136">
        <ele>2.54</ele>
        <time>2015-08-01T10:10:29Z</time>
      </trkpt>
      <trkpt lat="49.24043" lon="-0.13592">
        <ele>3.02</ele>
        <time>2015-08-01T10:10:30Z</time>
      </trkpt>
      <trkpt lat="49.24041" lon="-0.13584">
        <ele>3.02</ele>
        <time>2015-08-01T10:10:31Z</time>
      </trkpt>
      <trkpt lat="49.2404" lon="-0.13575">
        <ele>3.02</ele>
        <time>2015-08-01T10:10:32Z</time>
      </trkpt>
      <trkpt lat="49.2404" lon="-0.13567">
        <ele>3.02</ele>
        <time>2015-08-01T10:10:33Z</time>
      </trkpt>
      <trkpt lat="49.2404" lon="-0.13558">
        <ele>3.02</ele>
        <time>2015-08-01T10:10:34Z</time>
      </trkpt>
      <trkpt lat="49.24042" lon="-0.1355">
        <ele>3.02</ele>
        <time>2015-08-01T10:10:35Z</time>
      </trkpt>
      <trkpt lat="49.24045" lon="-0.13544">
        <ele>3.02</ele>
        <time>2015-08-01T10:10:36Z</time>
      </trkpt>
      <trkpt lat="49.2405" lon="-0.13539">
        <ele>3.02</ele>
        <time>2015-08-01T10:10:37Z</time>
      </trkpt>
      <trkpt lat="49.24056" lon="-0.13537">
        <ele>3.02</ele>
        <time>2015-08-01T10:10:38Z</time>
      </trkpt>
      <trkpt lat="49.24061" lon="-0.13535">
        <ele>3.02</ele>
        <time>2015-08-01T10:10:39Z</time>
      </trkpt>
      <trkpt lat="49.24083" lon="-0.13526">
        <ele>2.54</ele>
        <time>2015-08-01T10:10:43Z</time>
      </trkpt>
      <trkpt lat="49.24092" lon="-0.13521">
        <ele>2.54</ele>
        <time>2015-08-01T10:10:45Z</time>
      </trkpt>
      <trkpt lat="49.24107" lon="-0.13511">
        <ele>3.02</ele>
        <time>2015-08-01T10:10:48Z</time>
      </trkpt>
      <trkpt lat="49.24162" lon="-0.135">
        <ele>2.54</ele>
        <time>2015-08-01T10:10:58Z</time>
      </trkpt>
      <trkpt lat="49.2425" lon="-0.13496">
        <ele>2.54</ele>
        <time>2015-08-01T10:11:14Z</time>
      </trkpt>
      <trkpt lat="49.24255" lon="-0.13495">
        <ele>2.06</ele>
        <time>2015-08-01T10:11:15Z</time>
      </trkpt>
      <trkpt lat="49.24259" lon="-0.13494">
        <ele>2.54</ele>
        <time>2015-08-01T10:11:16Z</time>
      </trkpt>
      <trkpt lat="49.24263" lon="-0.13492">
        <ele>2.06</ele>
        <time>2015-08-01T10:11:17Z</time>
      </trkpt>
      <trkpt lat="49.24266" lon="-0.1349">
        <ele>2.54</ele>
        <time>2015-08-01T10:11:18Z</time>
      </trkpt>
      <trkpt lat="49.24268" lon="-0.13487">
        <ele>2.54</ele>
        <time>2015-08-01T10:11:19Z</time>
      </trkpt>
      <trkpt lat="49.2427" lon="-0.13483">
        <ele>2.06</ele>
        <time>2015-08-01T10:11:20Z</time>
      </trkpt>
      <trkpt lat="49.24271" lon="-0.13479">
        <ele>2.54</ele>
        <time>2015-08-01T10:11:21Z</time>
      </trkpt>
      <trkpt lat="49.24272" lon="-0.13474">
        <ele>2.54</ele>
        <time>2015-08-01T10:11:22Z</time>
      </trkpt>
      <trkpt lat="49.24271" lon="-0.13468">
        <ele>2.54</ele>
        <time>2015-08-01T10:11:23Z</time>
      </trkpt>
      <trkpt lat="49.24271" lon="-0.13462">
        <ele>2.06</ele>
        <time>2015-08-01T10:11:24Z</time>
      </trkpt>
      <trkpt lat="49.24271" lon="-0.13456">
        <ele>2.06</ele>
        <time>2015-08-01T10:11:25Z</time>
      </trkpt>
      <trkpt lat="49.2427" lon="-0.13443">
        <ele>2.54</ele>
        <time>2015-08-01T10:11:27Z</time>
      </trkpt>
      <trkpt lat="49.24271" lon="-0.13437">
        <ele>2.54</ele>
        <time>2015-08-01T10:11:28Z</time>
      </trkpt>
      <trkpt lat="49.24272" lon="-0.1343">
        <ele>3.02</ele>
        <time>2015-08-01T10:11:29Z</time>
      </trkpt>
      <trkpt lat="49.24273" lon="-0.13424">
        <ele>2.54</ele>
        <time>2015-08-01T10:11:30Z</time>
      </trkpt>
      <trkpt lat="49.24276" lon="-0.13419">
        <ele>2.06</ele>
        <time>2015-08-01T10:11:31Z</time>
      </trkpt>
      <trkpt lat="49.24279" lon="-0.13414">
        <ele>2.06</ele>
        <time>2015-08-01T10:11:32Z</time>
      </trkpt>
      <trkpt lat="49.24283" lon="-0.1341">
        <ele>2.06</ele>
        <time>2015-08-01T10:11:33Z</time>
      </trkpt>
      <trkpt lat="49.24286" lon="-0.13406">
        <ele>2.54</ele>
        <time>2015-08-01T10:11:34Z</time>
      </trkpt>
      <trkpt lat="49.2429" lon="-0.13402">
        <ele>2.54</ele>
        <time>2015-08-01T10:11:35Z</time>
      </trkpt>
      <trkpt lat="49.24299" lon="-0.13389">
        <ele>2.54</ele>
        <time>2015-08-01T10:11:38Z</time>
      </trkpt>
      <trkpt lat="49.2431" lon="-0.13359">
        <ele>2.54</ele>
        <time>2015-08-01T10:11:43Z</time>
      </trkpt>
      <trkpt lat="49.24313" lon="-0.13354">
        <ele>2.54</ele>
        <time>2015-08-01T10:11:44Z</time>
      </trkpt>
      <trkpt lat="49.24317" lon="-0.13349">
        <ele>2.06</ele>
        <time>2015-08-01T10:11:45Z</time>
      </trkpt>
      <trkpt lat="49.24321" lon="-0.13345">
        <ele>3.02</ele>
        <time>2015-08-01T10:11:46Z</time>
      </trkpt>
      <trkpt lat="49.24325" lon="-0.13343">
        <ele>2.54</ele>
        <time>2015-08-01T10:11:47Z</time>
      </trkpt>
      <trkpt lat="49.2433" lon="-0.13341">
        <ele>2.06</ele>
        <time>2015-08-01T10:11:48Z</time>
      </trkpt>
      <trkpt lat="49.24335" lon="-0.1334">
        <ele>2.54</ele>
        <time>2015-08-01T10:11:49Z</time>
      </trkpt>
      <trkpt lat="49.24339" lon="-0.13339">
        <ele>2.54</ele>
        <time>2015-08-01T10:11:50Z</time>
      </trkpt>
      <trkpt lat="49.24358" lon="-0.13337">
        <ele>2.06</ele>
        <time>2015-08-01T10:11:54Z</time>
      </trkpt>
      <trkpt lat="49.24402" lon="-0.13333">
        <ele>2.54</ele>
        <time>2015-08-01T10:12:03Z</time>
      </trkpt>
      <trkpt lat="49.24412" lon="-0.1333">
        <ele>2.54</ele>
        <time>2015-08-01T10:12:05Z</time>
      </trkpt>
      <trkpt lat="49.24417" lon="-0.13326">
        <ele>2.54</ele>
        <time>2015-08-01T10:12:06Z</time>
      </trkpt>
      <trkpt lat="49.2442" lon="-0.13321">
        <ele>2.06</ele>
        <time>2015-08-01T10:12:07Z</time>
      </trkpt>
      <trkpt lat="49.24423" lon="-0.13315">
        <ele>2.54</ele>
        <time>2015-08-01T10:12:08Z</time>
      </trkpt>
      <trkpt lat="49.24426" lon="-0.13308">
        <ele>2.06</ele>
        <time>2015-08-01T10:12:09Z</time>
      </trkpt>
      <trkpt lat="49.24431" lon="-0.13296">
        <ele>2.54</ele>
        <time>2015-08-01T10:12:11Z</time>
      </trkpt>
      <trkpt lat="49.24434" lon="-0.13291">
        <ele>2.54</ele>
        <time>2015-08-01T10:12:12Z</time>
      </trkpt>
      <trkpt lat="49.24438" lon="-0.13286">
        <ele>2.54</ele>
        <time>2015-08-01T10:12:13Z</time>
      </trkpt>
      <trkpt lat="49.24451" lon="-0.13274">
        <ele>2.54</ele>
        <time>2015-08-01T10:12:16Z</time>
      </trkpt>
      <trkpt lat="49.24518" lon="-0.13251">
        <ele>3.5</ele>
        <time>2015-08-01T10:12:30Z</time>
      </trkpt>
      <trkpt lat="49.24536" lon="-0.13251">
        <ele>3.02</ele>
        <time>2015-08-01T10:12:34Z</time>
      </trkpt>
      <trkpt lat="49.24541" lon="-0.1325">
        <ele>3.02</ele>
        <time>2015-08-01T10:12:35Z</time>
      </trkpt>
      <trkpt lat="49.24546" lon="-0.1325">
        <ele>3.5</ele>
        <time>2015-08-01T10:12:36Z</time>
      </trkpt>
      <trkpt lat="49.24551" lon="-0.13249">
        <ele>3.02</ele>
        <time>2015-08-01T10:12:37Z</time>
      </trkpt>
      <trkpt lat="49.24555" lon="-0.13248">
        <ele>2.54</ele>
        <time>2015-08-01T10:12:38Z</time>
      </trkpt>
      <trkpt lat="49.24593" lon="-0.13235">
        <ele>3.02</ele>
        <time>2015-08-01T10:12:46Z</time>
      </trkpt>
      <trkpt lat="49.24602" lon="-0.13228">
        <ele>2.54</ele>
        <time>2015-08-01T10:12:48Z</time>
      </trkpt>
      <trkpt lat="49.24638" lon="-0.13191">
        <ele>3.02</ele>
        <time>2015-08-01T10:12:57Z</time>
      </trkpt>
      <trkpt lat="49.24643" lon="-0.13189">
        <ele>2.54</ele>
        <time>2015-08-01T10:12:58Z</time>
      </trkpt>
      <trkpt lat="49.24648" lon="-0.13188">
        <ele>2.54</ele>
        <time>2015-08-01T10:12:59Z</time>
      </trkpt>
      <trkpt lat="49.24654" lon="-0.13188">
        <ele>2.54</ele>
        <time>2015-08-01T10:13:00Z</time>
      </trkpt>
      <trkpt lat="49.2466" lon="-0.1319">
        <ele>2.54</ele>
        <time>2015-08-01T10:13:01Z</time>
      </trkpt>
      <trkpt lat="49.24665" lon="-0.13193">
        <ele>2.54</ele>
        <time>2015-08-01T10:13:02Z</time>
      </trkpt>
      <trkpt lat="49.24669" lon="-0.13197">
        <ele>3.02</ele>
        <time>2015-08-01T10:13:03Z</time>
      </trkpt>
      <trkpt lat="49.24674" lon="-0.13202">
        <ele>2.54</ele>
        <time>2015-08-01T10:13:04Z</time>
      </trkpt>
      <trkpt lat="49.24678" lon="-0.13207">
        <ele>2.54</ele>
        <time>2015-08-01T10:13:05Z</time>
      </trkpt>
      <trkpt lat="49.24681" lon="-0.13213">
        <ele>2.54</ele>
        <time>2015-08-01T10:13:06Z</time>
      </trkpt>
      <trkpt lat="49.24685" lon="-0.13219">
        <ele>3.5</ele>
        <time>2015-08-01T10:13:07Z</time>
      </trkpt>
      <trkpt lat="49.24688" lon="-0.13225">
        <ele>3.02</ele>
        <time>2015-08-01T10:13:08Z</time>
      </trkpt>
      <trkpt lat="49.24691" lon="-0.13231">
        <ele>2.54</ele>
        <time>2015-08-01T10:13:09Z</time>
      </trkpt>
      <trkpt lat="49.24716" lon="-0.13278">
        <ele>2.06</ele>
        <time>2015-08-01T10:13:17Z</time>
      </trkpt>
      <trkpt lat="49.24719" lon="-0.13283">
        <ele>2.54</ele>
        <time>2015-08-01T10:13:18Z</time>
      </trkpt>
      <trkpt lat="49.24765" lon="-0.13364">
        <ele>2.54</ele>
        <time>2015-08-01T10:13:32Z</time>
      </trkpt>
      <trkpt lat="49.24781" lon="-0.13395">
        <ele>2.54</ele>
        <time>2015-08-01T10:13:37Z</time>
      </trkpt>
      <trkpt lat="49.24833" lon="-0.13493">
        <ele>2.54</ele>
        <time>2015-08-01T10:13:53Z</time>
      </trkpt>
      <trkpt lat="49.24837" lon="-0.13499">
        <ele>3.02</ele>
        <time>2015-08-01T10:13:54Z</time>
      </trkpt>
      <trkpt lat="49.2488" lon="-0.13579">
        <ele>2.54</ele>
        <time>2015-08-01T10:14:07Z</time>
      </trkpt>
      <trkpt lat="49.24884" lon="-0.13584">
        <ele>2.54</ele>
        <time>2015-08-01T10:14:08Z</time>
      </trkpt>
      <trkpt lat="49.24888" lon="-0.13589">
        <ele>3.02</ele>
        <time>2015-08-01T10:14:09Z</time>
      </trkpt>
      <trkpt lat="49.24891" lon="-0.13592">
        <ele>2.54</ele>
        <time>2015-08-01T10:14:10Z</time>
      </trkpt>
      <trkpt lat="49.24895" lon="-0.13595">
        <ele>3.02</ele>
        <time>2015-08-01T10:14:11Z</time>
      </trkpt>
      <trkpt lat="49.24899" lon="-0.13598">
        <ele>2.54</ele>
        <time>2015-08-01T10:14:12Z</time>
      </trkpt>
      <trkpt lat="49.24902" lon="-0.136">
        <ele>2.54</ele>
        <time>2015-08-01T10:14:13Z</time>
      </trkpt>
      <trkpt lat="49.24904" lon="-0.13603">
        <ele>2.06</ele>
        <time>2015-08-01T10:14:14Z</time>
      </trkpt>
      <trkpt lat="49.24904" lon="-0.13607">
        <ele>2.06</ele>
        <time>2015-08-01T10:14:15Z</time>
      </trkpt>
      <trkpt lat="49.24895" lon="-0.1362">
        <ele>2.54</ele>
        <time>2015-08-01T10:14:22Z</time>
      </trkpt>
      <trkpt lat="49.24884" lon="-0.13625">
        <ele>2.54</ele>
        <time>2015-08-01T10:14:25Z</time>
      </trkpt>
      <trkpt lat="49.2488" lon="-0.13628">
        <ele>2.06</ele>
        <time>2015-08-01T10:14:26Z</time>
      </trkpt>
      <trkpt lat="49.24878" lon="-0.13632">
        <ele>2.54</ele>
        <time>2015-08-01T10:14:27Z</time>
      </trkpt>
      <trkpt lat="49.24876" lon="-0.13638">
        <ele>2.54</ele>
        <time>2015-08-01T10:14:28Z</time>
      </trkpt>
      <trkpt lat="49.24875" lon="-0.13643">
        <ele>2.54</ele>
        <time>2015-08-01T10:14:29Z</time>
      </trkpt>
      <trkpt lat="49.24874" lon="-0.13649">
        <ele>2.06</ele>
        <time>2015-08-01T10:14:30Z</time>
      </trkpt>
      <trkpt lat="49.24872" lon="-0.13655">
        <ele>2.54</ele>
        <time>2015-08-01T10:14:31Z</time>
      </trkpt>
      <trkpt lat="49.24871" lon="-0.13661">
        <ele>2.06</ele>
        <time>2015-08-01T10:14:32Z</time>
      </trkpt>
      <trkpt lat="49.2487" lon="-0.13668">
        <ele>2.54</ele>
        <time>2015-08-01T10:14:33Z</time>
      </trkpt>
      <trkpt lat="49.2487" lon="-0.13674">
        <ele>2.54</ele>
        <time>2015-08-01T10:14:34Z</time>
      </trkpt>
      <trkpt lat="49.2487" lon="-0.1368">
        <ele>2.54</ele>
        <time>2015-08-01T10:14:35Z</time>
      </trkpt>
      <trkpt lat="49.24871" lon="-0.13694">
        <ele>2.06</ele>
        <time>2015-08-01T10:14:37Z</time>
      </trkpt>
      <trkpt lat="49.24872" lon="-0.13701">
        <ele>2.06</ele>
        <time>2015-08-01T10:14:38Z</time>
      </trkpt>
      <trkpt lat="49.24881" lon="-0.13802">
        <ele>2.54</ele>
        <time>2015-08-01T10:14:54Z</time>
      </trkpt>
      <trkpt lat="49.24885" lon="-0.13857">
        <ele>2.06</ele>
        <time>2015-08-01T10:15:03Z</time>
      </trkpt>
      <trkpt lat="49.24886" lon="-0.13863">
        <ele>2.06</ele>
        <time>2015-08-01T10:15:04Z</time>
      </trkpt>
      <trkpt lat="49.2489" lon="-0.13875">
        <ele>2.54</ele>
        <time>2015-08-01T10:15:06Z</time>
      </trkpt>
      <trkpt lat="49.24892" lon="-0.1388">
        <ele>2.54</ele>
        <time>2015-08-01T10:15:07Z</time>
      </trkpt>
      <trkpt lat="49.24895" lon="-0.13884">
        <ele>2.54</ele>
        <time>2015-08-01T10:15:08Z</time>
      </trkpt>
      <trkpt lat="49.24899" lon="-0.13888">
        <ele>3.02</ele>
        <time>2015-08-01T10:15:09Z</time>
      </trkpt>
      <trkpt lat="49.24902" lon="-0.13893">
        <ele>2.54</ele>
        <time>2015-08-01T10:15:10Z</time>
      </trkpt>
      <trkpt lat="49.24904" lon="-0.13898">
        <ele>2.54</ele>
        <time>2015-08-01T10:15:11Z</time>
      </trkpt>
      <trkpt lat="49.24906" lon="-0.13904">
        <ele>2.54</ele>
        <time>2015-08-01T10:15:12Z</time>
      </trkpt>
      <trkpt lat="49.24908" lon="-0.1391">
        <ele>2.54</ele>
        <time>2015-08-01T10:15:13Z</time>
      </trkpt>
      <trkpt lat="49.24909" lon="-0.13916">
        <ele>2.54</ele>
        <time>2015-08-01T10:15:14Z</time>
      </trkpt>
      <trkpt lat="49.24911" lon="-0.13923">
        <ele>2.06</ele>
        <time>2015-08-01T10:15:15Z</time>
      </trkpt>
      <trkpt lat="49.24912" lon="-0.1393">
        <ele>2.06</ele>
        <time>2015-08-01T10:15:16Z</time>
      </trkpt>
      <trkpt lat="49.24913" lon="-0.13936">
        <ele>2.54</ele>
        <time>2015-08-01T10:15:17Z</time>
      </trkpt>
      <trkpt lat="49.24914" lon="-0.13943">
        <ele>2.54</ele>
        <time>2015-08-01T10:15:18Z</time>
      </trkpt>
      <trkpt lat="49.24933" lon="-0.1403">
        <ele>2.54</ele>
        <time>2015-08-01T10:15:32Z</time>
      </trkpt>
      <trkpt lat="49.24936" lon="-0.14035">
        <ele>3.02</ele>
        <time>2015-08-01T10:15:33Z</time>
      </trkpt>
      <trkpt lat="49.24939" lon="-0.14039">
        <ele>2.06</ele>
        <time>2015-08-01T10:15:34Z</time>
      </trkpt>
      <trkpt lat="49.24954" lon="-0.14055">
        <ele>2.54</ele>
        <time>2015-08-01T10:15:38Z</time>
      </trkpt>
      <trkpt lat="49.24957" lon="-0.14059">
        <ele>2.06</ele>
        <time>2015-08-01T10:15:39Z</time>
      </trkpt>
      <trkpt lat="49.2496" lon="-0.14064">
        <ele>2.54</ele>
        <time>2015-08-01T10:15:40Z</time>
      </trkpt>
      <trkpt lat="49.24963" lon="-0.1407">
        <ele>2.54</ele>
        <time>2015-08-01T10:15:41Z</time>
      </trkpt>
      <trkpt lat="49.24965" lon="-0.14075">
        <ele>2.54</ele>
        <time>2015-08-01T10:15:42Z</time>
      </trkpt>
      <trkpt lat="49.24967" lon="-0.14081">
        <ele>2.54</ele>
        <time>2015-08-01T10:15:43Z</time>
      </trkpt>
      <trkpt lat="49.24969" lon="-0.14087">
        <ele>2.06</ele>
        <time>2015-08-01T10:15:44Z</time>
      </trkpt>
      <trkpt lat="49.24973" lon="-0.14112">
        <ele>2.54</ele>
        <time>2015-08-01T10:15:48Z</time>
      </trkpt>
      <trkpt lat="49.24975" lon="-0.14118">
        <ele>2.06</ele>
        <time>2015-08-01T10:15:49Z</time>
      </trkpt>
      <trkpt lat="49.24975" lon="-0.14124">
        <ele>2.06</ele>
        <time>2015-08-01T10:15:50Z</time>
      </trkpt>
      <trkpt lat="49.24976" lon="-0.14131">
        <ele>2.06</ele>
        <time>2015-08-01T10:15:51Z</time>
      </trkpt>
      <trkpt lat="49.24977" lon="-0.14137">
        <ele>2.06</ele>
        <time>2015-08-01T10:15:52Z</time>
      </trkpt>
      <trkpt lat="49.24977" lon="-0.1415">
        <ele>2.06</ele>
        <time>2015-08-01T10:15:54Z</time>
      </trkpt>
      <trkpt lat="49.24977" lon="-0.14156">
        <ele>2.06</ele>
        <time>2015-08-01T10:15:55Z</time>
      </trkpt>
      <trkpt lat="49.2498" lon="-0.14212">
        <ele>2.06</ele>
        <time>2015-08-01T10:16:04Z</time>
      </trkpt>
      <trkpt lat="49.2498" lon="-0.14218">
        <ele>2.06</ele>
        <time>2015-08-01T10:16:05Z</time>
      </trkpt>
      <trkpt lat="49.24989" lon="-0.14268">
        <ele>2.06</ele>
        <time>2015-08-01T10:16:13Z</time>
      </trkpt>
      <trkpt lat="49.25006" lon="-0.14357">
        <ele>2.54</ele>
        <time>2015-08-01T10:16:28Z</time>
      </trkpt>
      <trkpt lat="49.25013" lon="-0.14401">
        <ele>2.54</ele>
        <time>2015-08-01T10:16:35Z</time>
      </trkpt>
      <trkpt lat="49.2503" lon="-0.14466">
        <ele>2.54</ele>
        <time>2015-08-01T10:16:47Z</time>
      </trkpt>
      <trkpt lat="49.25052" lon="-0.14551">
        <ele>2.54</ele>
        <time>2015-08-01T10:17:02Z</time>
      </trkpt>
      <trkpt lat="49.25054" lon="-0.14557">
        <ele>3.02</ele>
        <time>2015-08-01T10:17:03Z</time>
      </trkpt>
      <trkpt lat="49.25064" lon="-0.14591">
        <ele>2.06</ele>
        <time>2015-08-01T10:17:09Z</time>
      </trkpt>
      <trkpt lat="49.25095" lon="-0.14636">
        <ele>2.54</ele>
        <time>2015-08-01T10:17:21Z</time>
      </trkpt>
      <trkpt lat="49.2513" lon="-0.14633">
        <ele>2.06</ele>
        <time>2015-08-01T10:17:32Z</time>
      </trkpt>
      <trkpt lat="49.25176" lon="-0.14627">
        <ele>2.06</ele>
        <time>2015-08-01T10:17:47Z</time>
      </trkpt>
      <trkpt lat="49.25225" lon="-0.14649">
        <ele>2.54</ele>
        <time>2015-08-01T10:18:01Z</time>
      </trkpt>
      <trkpt lat="49.25283" lon="-0.14673">
        <ele>2.54</ele>
        <time>2015-08-01T10:18:17Z</time>
      </trkpt>
      <trkpt lat="49.25294" lon="-0.14674">
        <ele>2.54</ele>
        <time>2015-08-01T10:18:20Z</time>
      </trkpt>
      <trkpt lat="49.25298" lon="-0.14673">
        <ele>2.54</ele>
        <time>2015-08-01T10:18:21Z</time>
      </trkpt>
      <trkpt lat="49.25358" lon="-0.1466">
        <ele>2.06</ele>
        <time>2015-08-01T10:18:36Z</time>
      </trkpt>
      <trkpt lat="49.25426" lon="-0.14638">
        <ele>2.54</ele>
        <time>2015-08-01T10:18:53Z</time>
      </trkpt>
      <trkpt lat="49.25495" lon="-0.14632">
        <ele>2.54</ele>
        <time>2015-08-01T10:19:10Z</time>
      </trkpt>
      <trkpt lat="49.25523" lon="-0.14639">
        <ele>2.54</ele>
        <time>2015-08-01T10:19:22Z</time>
      </trkpt>
      <trkpt lat="49.25524" lon="-0.14638">
        <ele>2.54</ele>
        <time>2015-08-01T10:19:23Z</time>
      </trkpt>
      <trkpt lat="49.25526" lon="-0.14635">
        <ele>2.54</ele>
        <time>2015-08-01T10:19:30Z</time>
      </trkpt>
      <trkpt lat="49.25526" lon="-0.14631">
        <ele>3.02</ele>
        <time>2015-08-01T10:19:31Z</time>
      </trkpt>
      <trkpt lat="49.25526" lon="-0.14627">
        <ele>3.02</ele>
        <time>2015-08-01T10:19:32Z</time>
      </trkpt>
      <trkpt lat="49.25527" lon="-0.14622">
        <ele>3.5</ele>
        <time>2015-08-01T10:19:33Z</time>
      </trkpt>
      <trkpt lat="49.25528" lon="-0.14616">
        <ele>3.02</ele>
        <time>2015-08-01T10:19:34Z</time>
      </trkpt>
      <trkpt lat="49.25528" lon="-0.1461">
        <ele>3.5</ele>
        <time>2015-08-01T10:19:35Z</time>
      </trkpt>
      <trkpt lat="49.2554" lon="-0.14478">
        <ele>2.54</ele>
        <time>2015-08-01T10:19:53Z</time>
      </trkpt>
      <trkpt lat="49.25548" lon="-0.1432">
        <ele>2.54</ele>
        <time>2015-08-01T10:20:13Z</time>
      </trkpt>
      <trkpt lat="49.25551" lon="-0.14276">
        <ele>3.02</ele>
        <time>2015-08-01T10:20:24Z</time>
      </trkpt>
      <trkpt lat="49.25551" lon="-0.14276">
        <ele>3.02</ele>
        <time>2015-08-01T10:20:26Z</time>
      </trkpt>
      <trkpt lat="49.25552" lon="-0.14274">
        <ele>2.54</ele>
        <time>2015-08-01T10:20:27Z</time>
      </trkpt>
      <trkpt lat="49.25554" lon="-0.14274">
        <ele>3.02</ele>
        <time>2015-08-01T10:20:28Z</time>
      </trkpt>
      <trkpt lat="49.25555" lon="-0.14275">
        <ele>3.5</ele>
        <time>2015-08-01T10:20:29Z</time>
      </trkpt>
      <trkpt lat="49.25557" lon="-0.14275">
        <ele>3.02</ele>
        <time>2015-08-01T10:20:30Z</time>
      </trkpt>
      <trkpt lat="49.25585" lon="-0.14276">
        <ele>2.54</ele>
        <time>2015-08-01T10:20:38Z</time>
      </trkpt>
      <trkpt lat="49.25589" lon="-0.14276">
        <ele>2.54</ele>
        <time>2015-08-01T10:20:39Z</time>
      </trkpt>
      <trkpt lat="49.25594" lon="-0.14278">
        <ele>2.54</ele>
        <time>2015-08-01T10:20:40Z</time>
      </trkpt>
      <trkpt lat="49.25598" lon="-0.1428">
        <ele>2.06</ele>
        <time>2015-08-01T10:20:41Z</time>
      </trkpt>
      <trkpt lat="49.25602" lon="-0.14284">
        <ele>2.54</ele>
        <time>2015-08-01T10:20:42Z</time>
      </trkpt>
      <trkpt lat="49.25606" lon="-0.14288">
        <ele>2.06</ele>
        <time>2015-08-01T10:20:43Z</time>
      </trkpt>
      <trkpt lat="49.25613" lon="-0.14296">
        <ele>2.06</ele>
        <time>2015-08-01T10:20:45Z</time>
      </trkpt>
      <trkpt lat="49.25618" lon="-0.14298">
        <ele>2.54</ele>
        <time>2015-08-01T10:20:46Z</time>
      </trkpt>
      <trkpt lat="49.25622" lon="-0.143">
        <ele>2.54</ele>
        <time>2015-08-01T10:20:47Z</time>
      </trkpt>
      <trkpt lat="49.25627" lon="-0.143">
        <ele>2.54</ele>
        <time>2015-08-01T10:20:48Z</time>
      </trkpt>
      <trkpt lat="49.25631" lon="-0.143">
        <ele>2.54</ele>
        <time>2015-08-01T10:20:49Z</time>
      </trkpt>
      <trkpt lat="49.25636" lon="-0.143">
        <ele>2.54</ele>
        <time>2015-08-01T10:20:50Z</time>
      </trkpt>
      <trkpt lat="49.25681" lon="-0.14291">
        <ele>2.54</ele>
        <time>2015-08-01T10:21:00Z</time>
      </trkpt>
      <trkpt lat="49.25699" lon="-0.14291">
        <ele>2.54</ele>
        <time>2015-08-01T10:21:04Z</time>
      </trkpt>
      <trkpt lat="49.25752" lon="-0.14295">
        <ele>2.54</ele>
        <time>2015-08-01T10:21:15Z</time>
      </trkpt>
      <trkpt lat="49.25756" lon="-0.14294">
        <ele>2.54</ele>
        <time>2015-08-01T10:21:16Z</time>
      </trkpt>
      <trkpt lat="49.2576" lon="-0.14291">
        <ele>2.54</ele>
        <time>2015-08-01T10:21:17Z</time>
      </trkpt>
      <trkpt lat="49.25764" lon="-0.14287">
        <ele>2.06</ele>
        <time>2015-08-01T10:21:18Z</time>
      </trkpt>
      <trkpt lat="49.25768" lon="-0.14283">
        <ele>2.54</ele>
        <time>2015-08-01T10:21:19Z</time>
      </trkpt>
      <trkpt lat="49.25772" lon="-0.14277">
        <ele>2.06</ele>
        <time>2015-08-01T10:21:20Z</time>
      </trkpt>
      <trkpt lat="49.25778" lon="-0.14267">
        <ele>2.54</ele>
        <time>2015-08-01T10:21:22Z</time>
      </trkpt>
      <trkpt lat="49.25781" lon="-0.14261">
        <ele>2.06</ele>
        <time>2015-08-01T10:21:23Z</time>
      </trkpt>
      <trkpt lat="49.25796" lon="-0.14226">
        <ele>2.54</ele>
        <time>2015-08-01T10:21:29Z</time>
      </trkpt>
      <trkpt lat="49.25807" lon="-0.14192">
        <ele>2.54</ele>
        <time>2015-08-01T10:21:35Z</time>
      </trkpt>
      <trkpt lat="49.25813" lon="-0.14182">
        <ele>2.54</ele>
        <time>2015-08-01T10:21:37Z</time>
      </trkpt>
      <trkpt lat="49.25816" lon="-0.14178">
        <ele>2.54</ele>
        <time>2015-08-01T10:21:38Z</time>
      </trkpt>
      <trkpt lat="49.2582" lon="-0.14175">
        <ele>2.54</ele>
        <time>2015-08-01T10:21:39Z</time>
      </trkpt>
      <trkpt lat="49.25824" lon="-0.14173">
        <ele>2.54</ele>
        <time>2015-08-01T10:21:40Z</time>
      </trkpt>
      <trkpt lat="49.25829" lon="-0.14171">
        <ele>3.02</ele>
        <time>2015-08-01T10:21:41Z</time>
      </trkpt>
      <trkpt lat="49.25834" lon="-0.1417">
        <ele>2.54</ele>
        <time>2015-08-01T10:21:42Z</time>
      </trkpt>
      <trkpt lat="49.25847" lon="-0.14165">
        <ele>2.54</ele>
        <time>2015-08-01T10:21:45Z</time>
      </trkpt>
      <trkpt lat="49.25897" lon="-0.14149">
        <ele>2.54</ele>
        <time>2015-08-01T10:21:56Z</time>
      </trkpt>
      <trkpt lat="49.25901" lon="-0.14145">
        <ele>2.54</ele>
        <time>2015-08-01T10:21:57Z</time>
      </trkpt>
      <trkpt lat="49.25904" lon="-0.1414">
        <ele>3.02</ele>
        <time>2015-08-01T10:21:58Z</time>
      </trkpt>
      <trkpt lat="49.25908" lon="-0.14135">
        <ele>2.54</ele>
        <time>2015-08-01T10:21:59Z</time>
      </trkpt>
      <trkpt lat="49.25911" lon="-0.1413">
        <ele>2.54</ele>
        <time>2015-08-01T10:22:00Z</time>
      </trkpt>
      <trkpt lat="49.25914" lon="-0.14124">
        <ele>2.06</ele>
        <time>2015-08-01T10:22:01Z</time>
      </trkpt>
      <trkpt lat="49.25921" lon="-0.14113">
        <ele>3.02</ele>
        <time>2015-08-01T10:22:03Z</time>
      </trkpt>
      <trkpt lat="49.25925" lon="-0.14109">
        <ele>2.54</ele>
        <time>2015-08-01T10:22:04Z</time>
      </trkpt>
      <trkpt lat="49.2593" lon="-0.14105">
        <ele>3.02</ele>
        <time>2015-08-01T10:22:05Z</time>
      </trkpt>
      <trkpt lat="49.25934" lon="-0.14103">
        <ele>2.54</ele>
        <time>2015-08-01T10:22:06Z</time>
      </trkpt>
      <trkpt lat="49.25939" lon="-0.14101">
        <ele>2.54</ele>
        <time>2015-08-01T10:22:07Z</time>
      </trkpt>
      <trkpt lat="49.25944" lon="-0.141">
        <ele>2.54</ele>
        <time>2015-08-01T10:22:08Z</time>
      </trkpt>
      <trkpt lat="49.25962" lon="-0.14093">
        <ele>3.02</ele>
        <time>2015-08-01T10:22:12Z</time>
      </trkpt>
      <trkpt lat="49.25966" lon="-0.14091">
        <ele>3.02</ele>
        <time>2015-08-01T10:22:13Z</time>
      </trkpt>
      <trkpt lat="49.25999" lon="-0.1408">
        <ele>2.54</ele>
        <time>2015-08-01T10:22:20Z</time>
      </trkpt>
      <trkpt lat="49.26004" lon="-0.14077">
        <ele>2.54</ele>
        <time>2015-08-01T10:22:21Z</time>
      </trkpt>
      <trkpt lat="49.26009" lon="-0.14074">
        <ele>3.02</ele>
        <time>2015-08-01T10:22:22Z</time>
      </trkpt>
      <trkpt lat="49.26013" lon="-0.14069">
        <ele>2.54</ele>
        <time>2015-08-01T10:22:23Z</time>
      </trkpt>
      <trkpt lat="49.26016" lon="-0.14063">
        <ele>2.54</ele>
        <time>2015-08-01T10:22:24Z</time>
      </trkpt>
      <trkpt lat="49.26019" lon="-0.14056">
        <ele>2.54</ele>
        <time>2015-08-01T10:22:25Z</time>
      </trkpt>
      <trkpt lat="49.26021" lon="-0.1405">
        <ele>2.54</ele>
        <time>2015-08-01T10:22:26Z</time>
      </trkpt>
      <trkpt lat="49.26027" lon="-0.14037">
        <ele>2.54</ele>
        <time>2015-08-01T10:22:28Z</time>
      </trkpt>
      <trkpt lat="49.2604" lon="-0.14014">
        <ele>3.02</ele>
        <time>2015-08-01T10:22:32Z</time>
      </trkpt>
      <trkpt lat="49.26043" lon="-0.14008">
        <ele>2.06</ele>
        <time>2015-08-01T10:22:33Z</time>
      </trkpt>
      <trkpt lat="49.26058" lon="-0.13987">
        <ele>2.54</ele>
        <time>2015-08-01T10:22:38Z</time>
      </trkpt>
      <trkpt lat="49.26061" lon="-0.13987">
        <ele>2.54</ele>
        <time>2015-08-01T10:22:39Z</time>
      </trkpt>
      <trkpt lat="49.26065" lon="-0.13987">
        <ele>2.06</ele>
        <time>2015-08-01T10:22:40Z</time>
      </trkpt>
      <trkpt lat="49.26069" lon="-0.13988">
        <ele>3.02</ele>
        <time>2015-08-01T10:22:41Z</time>
      </trkpt>
      <trkpt lat="49.26073" lon="-0.1399">
        <ele>2.54</ele>
        <time>2015-08-01T10:22:42Z</time>
      </trkpt>
      <trkpt lat="49.26077" lon="-0.13993">
        <ele>2.54</ele>
        <time>2015-08-01T10:22:43Z</time>
      </trkpt>
      <trkpt lat="49.2608" lon="-0.13997">
        <ele>3.02</ele>
        <time>2015-08-01T10:22:44Z</time>
      </trkpt>
      <trkpt lat="49.26084" lon="-0.14001">
        <ele>2.54</ele>
        <time>2015-08-01T10:22:45Z</time>
      </trkpt>
      <trkpt lat="49.26088" lon="-0.14005">
        <ele>3.02</ele>
        <time>2015-08-01T10:22:46Z</time>
      </trkpt>
      <trkpt lat="49.26092" lon="-0.14008">
        <ele>2.54</ele>
        <time>2015-08-01T10:22:47Z</time>
      </trkpt>
      <trkpt lat="49.26096" lon="-0.14011">
        <ele>2.06</ele>
        <time>2015-08-01T10:22:48Z</time>
      </trkpt>
      <trkpt lat="49.261" lon="-0.14012">
        <ele>2.06</ele>
        <time>2015-08-01T10:22:49Z</time>
      </trkpt>
      <trkpt lat="49.26105" lon="-0.14013">
        <ele>2.06</ele>
        <time>2015-08-01T10:22:50Z</time>
      </trkpt>
      <trkpt lat="49.26109" lon="-0.14012">
        <ele>2.54</ele>
        <time>2015-08-01T10:22:51Z</time>
      </trkpt>
      <trkpt lat="49.26114" lon="-0.14012">
        <ele>2.54</ele>
        <time>2015-08-01T10:22:52Z</time>
      </trkpt>
      <trkpt lat="49.26157" lon="-0.13995">
        <ele>2.06</ele>
        <time>2015-08-01T10:23:05Z</time>
      </trkpt>
      <trkpt lat="49.26194" lon="-0.13963">
        <ele>2.06</ele>
        <time>2015-08-01T10:23:19Z</time>
      </trkpt>
      <trkpt lat="49.26237" lon="-0.13954">
        <ele>2.54</ele>
        <time>2015-08-01T10:23:33Z</time>
      </trkpt>
      <trkpt lat="49.26247" lon="-0.1395">
        <ele>2.06</ele>
        <time>2015-08-01T10:23:44Z</time>
      </trkpt>
      <trkpt lat="49.2625" lon="-0.13951">
        <ele>2.06</ele>
        <time>2015-08-01T10:23:55Z</time>
      </trkpt>
      <trkpt lat="49.2625" lon="-0.13951">
        <ele>1.58</ele>
        <time>2015-08-01T10:24:27Z</time>
      </trkpt>
      <trkpt lat="49.2625" lon="-0.13951">
        <ele>5.42</ele>
        <time>2015-08-01T10:24:34Z</time>
      </trkpt>
      <trkpt lat="49.2625" lon="-0.13951">
        <ele>2.06</ele>
        <time>2015-08-01T10:24:35Z</time>
      </trkpt>
      <trkpt lat="49.2625" lon="-0.13951">
        <ele>-2.75</ele>
        <time>2015-08-01T10:24:49Z</time>
      </trkpt>
      <trkpt lat="49.2625" lon="-0.13951">
        <ele>5.42</ele>
        <time>2015-08-01T10:24:50Z</time>
      </trkpt>
      <trkpt lat="49.2625" lon="-0.13951">
        <ele>2.06</ele>
        <time>2015-08-01T10:24:51Z</time>
      </trkpt>
      <trkpt lat="49.2625" lon="-0.13952">
        <ele>2.54</ele>
        <time>2015-08-01T10:25:27Z</time>
      </trkpt>
      <trkpt lat="49.26249" lon="-0.13951">
        <ele>2.06</ele>
        <time>2015-08-01T10:26:03Z</time>
      </trkpt>
      <trkpt lat="49.2625" lon="-0.13952">
        <ele>2.06</ele>
        <time>2015-08-01T10:26:40Z</time>
      </trkpt>
      <trkpt lat="49.26249" lon="-0.13952">
        <ele>2.54</ele>
        <time>2015-08-01T10:27:15Z</time>
      </trkpt>
      <trkpt lat="49.26249" lon="-0.13952">
        <ele>2.54</ele>
        <time>2015-08-01T10:27:47Z</time>
      </trkpt>
      <trkpt lat="49.2625" lon="-0.13952">
        <ele>2.54</ele>
        <time>2015-08-01T10:28:22Z</time>
      </trkpt>
      <trkpt lat="49.2625" lon="-0.13952">
        <ele>2.54</ele>
        <time>2015-08-01T10:28:54Z</time>
      </trkpt>
      <trkpt lat="49.26251" lon="-0.13952">
        <ele>2.06</ele>
        <time>2015-08-01T10:29:31Z</time>
      </trkpt>
      <trkpt lat="49.26251" lon="-0.13952">
        <ele>2.54</ele>
        <time>2015-08-01T10:30:09Z</time>
      </trkpt>
      <trkpt lat="49.26251" lon="-0.13952">
        <ele>2.06</ele>
        <time>2015-08-01T10:30:43Z</time>
      </trkpt>
      <trkpt lat="49.26251" lon="-0.13952">
        <ele>1.58</ele>
        <time>2015-08-01T10:31:20Z</time>
      </trkpt>
      <trkpt lat="49.26251" lon="-0.13952">
        <ele>2.06</ele>
        <time>2015-08-01T10:31:55Z</time>
      </trkpt>
      <trkpt lat="49.26251" lon="-0.13952">
        <ele>2.06</ele>
        <time>2015-08-01T10:32:36Z</time>
      </trkpt>
      <trkpt lat="49.26251" lon="-0.13952">
        <ele>2.06</ele>
        <time>2015-08-01T10:33:19Z</time>
      </trkpt>
      <trkpt lat="49.2625" lon="-0.13952">
        <ele>2.06</ele>
        <time>2015-08-01T10:33:59Z</time>
      </trkpt>
      <trkpt lat="49.2625" lon="-0.13952">
        <ele>2.06</ele>
        <time>2015-08-01T10:34:28Z</time>
      </trkpt>
      <trkpt lat="49.26249" lon="-0.13952">
        <ele>2.06</ele>
        <time>2015-08-01T10:34:34Z</time>
      </trkpt>
      <trkpt lat="49.26249" lon="-0.1395">
        <ele>2.54</ele>
        <time>2015-08-01T10:34:45Z</time>
      </trkpt>
      <trkpt lat="49.26249" lon="-0.1395">
        <ele>2.54</ele>
        <time>2015-08-01T10:34:47Z</time>
      </trkpt>
      <trkpt lat="49.2625" lon="-0.13948">
        <ele>2.54</ele>
        <time>2015-08-01T10:34:48Z</time>
      </trkpt>
      <trkpt lat="49.26251" lon="-0.13946">
        <ele>2.06</ele>
        <time>2015-08-01T10:34:49Z</time>
      </trkpt>
      <trkpt lat="49.26267" lon="-0.13897">
        <ele>1.58</ele>
        <time>2015-08-01T10:35:04Z</time>
      </trkpt>
      <trkpt lat="49.2627" lon="-0.13889">
        <ele>2.06</ele>
        <time>2015-08-01T10:35:07Z</time>
      </trkpt>
      <trkpt lat="49.2627" lon="-0.13886">
        <ele>2.54</ele>
        <time>2015-08-01T10:35:08Z</time>
      </trkpt>
      <trkpt lat="49.26269" lon="-0.13885">
        <ele>2.54</ele>
        <time>2015-08-01T10:35:09Z</time>
      </trkpt>
      <trkpt lat="49.26268" lon="-0.13883">
        <ele>2.06</ele>
        <time>2015-08-01T10:35:10Z</time>
      </trkpt>
      <trkpt lat="49.26268" lon="-0.13881">
        <ele>2.54</ele>
        <time>2015-08-01T10:35:11Z</time>
      </trkpt>
      <trkpt lat="49.26267" lon="-0.1388">
        <ele>2.06</ele>
        <time>2015-08-01T10:35:21Z</time>
      </trkpt>
      <trkpt lat="49.26267" lon="-0.1388">
        <ele>1.58</ele>
        <time>2015-08-01T10:35:48Z</time>
      </trkpt>
      <trkpt lat="49.26267" lon="-0.1388">
        <ele>2.06</ele>
        <time>2015-08-01T10:36:00Z</time>
      </trkpt>
      <trkpt lat="49.26267" lon="-0.1388">
        <ele>2.06</ele>
        <time>2015-08-01T10:36:16Z</time>
      </trkpt>
      <trkpt lat="49.26253" lon="-0.13867">
        <ele>2.06</ele>
        <time>2015-08-01T10:36:27Z</time>
      </trkpt>
      <trkpt lat="49.26222" lon="-0.1385">
        <ele>2.06</ele>
        <time>2015-08-01T10:36:41Z</time>
      </trkpt>
      <trkpt lat="49.26217" lon="-0.13843">
        <ele>1.58</ele>
        <time>2015-08-01T10:36:52Z</time>
      </trkpt>
      <trkpt lat="49.26211" lon="-0.13834">
        <ele>2.06</ele>
        <time>2015-08-01T10:37:07Z</time>
      </trkpt>
      <trkpt lat="49.26203" lon="-0.13821">
        <ele>2.54</ele>
        <time>2015-08-01T10:37:19Z</time>
      </trkpt>
      <trkpt lat="49.262" lon="-0.1381">
        <ele>3.02</ele>
        <time>2015-08-01T10:37:32Z</time>
      </trkpt>
      <trkpt lat="49.262" lon="-0.1381">
        <ele>2.54</ele>
        <time>2015-08-01T10:37:46Z</time>
      </trkpt>
      <trkpt lat="49.262" lon="-0.1381">
        <ele>2.54</ele>
        <time>2015-08-01T10:37:53Z</time>
      </trkpt>
      <trkpt lat="49.26199" lon="-0.13808">
        <ele>3.02</ele>
        <time>2015-08-01T10:37:54Z</time>
      </trkpt>
      <trkpt lat="49.26199" lon="-0.13805">
        <ele>3.02</ele>
        <time>2015-08-01T10:37:55Z</time>
      </trkpt>
      <trkpt lat="49.26198" lon="-0.13802">
        <ele>2.54</ele>
        <time>2015-08-01T10:37:56Z</time>
      </trkpt>
      <trkpt lat="49.26198" lon="-0.13798">
        <ele>3.02</ele>
        <time>2015-08-01T10:37:57Z</time>
      </trkpt>
      <trkpt lat="49.26197" lon="-0.13795">
        <ele>2.54</ele>
        <time>2015-08-01T10:37:58Z</time>
      </trkpt>
      <trkpt lat="49.26196" lon="-0.13792">
        <ele>3.02</ele>
        <time>2015-08-01T10:37:59Z</time>
      </trkpt>
      <trkpt lat="49.26195" lon="-0.13789">
        <ele>2.54</ele>
        <time>2015-08-01T10:38:00Z</time>
      </trkpt>
      <trkpt lat="49.26194" lon="-0.13786">
        <ele>2.54</ele>
        <time>2015-08-01T10:38:01Z</time>
      </trkpt>
      <trkpt lat="49.26193" lon="-0.13784">
        <ele>3.02</ele>
        <time>2015-08-01T10:38:02Z</time>
      </trkpt>
      <trkpt lat="49.26179" lon="-0.13751">
        <ele>3.02</ele>
        <time>2015-08-01T10:38:15Z</time>
      </trkpt>
      <trkpt lat="49.26174" lon="-0.13741">
        <ele>3.5</ele>
        <time>2015-08-01T10:38:19Z</time>
      </trkpt>
      <trkpt lat="49.26173" lon="-0.13739">
        <ele>2.54</ele>
        <time>2015-08-01T10:38:20Z</time>
      </trkpt>
      <trkpt lat="49.26172" lon="-0.13736">
        <ele>3.02</ele>
        <time>2015-08-01T10:38:21Z</time>
      </trkpt>
      <trkpt lat="49.26163" lon="-0.13702">
        <ele>2.54</ele>
        <time>2015-08-01T10:38:34Z</time>
      </trkpt>
      <trkpt lat="49.26162" lon="-0.13693">
        <ele>2.54</ele>
        <time>2015-08-01T10:38:54Z</time>
      </trkpt>
      <trkpt lat="49.26163" lon="-0.1369">
        <ele>2.54</ele>
        <time>2015-08-01T10:39:07Z</time>
      </trkpt>
      <trkpt lat="49.26163" lon="-0.13687">
        <ele>2.54</ele>
        <time>2015-08-01T10:39:13Z</time>
      </trkpt>
      <trkpt lat="49.26164" lon="-0.13679">
        <ele>2.54</ele>
        <time>2015-08-01T10:39:18Z</time>
      </trkpt>
      <trkpt lat="49.26165" lon="-0.13676">
        <ele>2.54</ele>
        <time>2015-08-01T10:39:19Z</time>
      </trkpt>
      <trkpt lat="49.26165" lon="-0.13673">
        <ele>2.54</ele>
        <time>2015-08-01T10:39:20Z</time>
      </trkpt>
      <trkpt lat="49.26166" lon="-0.13668">
        <ele>2.54</ele>
        <time>2015-08-01T10:39:21Z</time>
      </trkpt>
      <trkpt lat="49.26166" lon="-0.13664">
        <ele>3.02</ele>
        <time>2015-08-01T10:39:22Z</time>
      </trkpt>
      <trkpt lat="49.26171" lon="-0.13615">
        <ele>2.06</ele>
        <time>2015-08-01T10:39:35Z</time>
      </trkpt>
      <trkpt lat="49.26179" lon="-0.13576">
        <ele>2.54</ele>
        <time>2015-08-01T10:39:47Z</time>
      </trkpt>
      <trkpt lat="49.2618" lon="-0.1357">
        <ele>2.54</ele>
        <time>2015-08-01T10:39:49Z</time>
      </trkpt>
      <trkpt lat="49.26181" lon="-0.13567">
        <ele>2.54</ele>
        <time>2015-08-01T10:39:50Z</time>
      </trkpt>
      <trkpt lat="49.26181" lon="-0.13565">
        <ele>2.54</ele>
        <time>2015-08-01T10:39:51Z</time>
      </trkpt>
      <trkpt lat="49.26184" lon="-0.13539">
        <ele>2.54</ele>
        <time>2015-08-01T10:40:01Z</time>
      </trkpt>
      <trkpt lat="49.2618" lon="-0.13499">
        <ele>3.02</ele>
        <time>2015-08-01T10:40:15Z</time>
      </trkpt>
      <trkpt lat="49.26164" lon="-0.13467">
        <ele>2.54</ele>
        <time>2015-08-01T10:40:28Z</time>
      </trkpt>
      <trkpt lat="49.26162" lon="-0.13466">
        <ele>2.54</ele>
        <time>2015-08-01T10:40:40Z</time>
      </trkpt>
      <trkpt lat="49.26162" lon="-0.13466">
        <ele>1.58</ele>
        <time>2015-08-01T10:40:50Z</time>
      </trkpt>
      <trkpt lat="49.26162" lon="-0.13467">
        <ele>1.58</ele>
        <time>2015-08-01T10:41:36Z</time>
      </trkpt>
      <trkpt lat="49.26161" lon="-0.13465">
        <ele>1.58</ele>
        <time>2015-08-01T10:42:22Z</time>
      </trkpt>
      <trkpt lat="49.26157" lon="-0.13458">
        <ele>2.06</ele>
        <time>2015-08-01T10:42:35Z</time>
      </trkpt>
      <trkpt lat="49.2615" lon="-0.1344">
        <ele>2.06</ele>
        <time>2015-08-01T10:42:44Z</time>
      </trkpt>
      <trkpt lat="49.2615" lon="-0.13438">
        <ele>2.54</ele>
        <time>2015-08-01T10:42:45Z</time>
      </trkpt>
      <trkpt lat="49.2615" lon="-0.13435">
        <ele>2.54</ele>
        <time>2015-08-01T10:42:46Z</time>
      </trkpt>
      <trkpt lat="49.26151" lon="-0.13432">
        <ele>2.54</ele>
        <time>2015-08-01T10:42:47Z</time>
      </trkpt>
      <trkpt lat="49.26152" lon="-0.13428">
        <ele>2.54</ele>
        <time>2015-08-01T10:42:48Z</time>
      </trkpt>
      <trkpt lat="49.26152" lon="-0.13425">
        <ele>2.54</ele>
        <time>2015-08-01T10:42:49Z</time>
      </trkpt>
      <trkpt lat="49.26152" lon="-0.13422">
        <ele>2.54</ele>
        <time>2015-08-01T10:42:50Z</time>
      </trkpt>
      <trkpt lat="49.26152" lon="-0.13419">
        <ele>2.54</ele>
        <time>2015-08-01T10:42:51Z</time>
      </trkpt>
      <trkpt lat="49.26152" lon="-0.13416">
        <ele>2.54</ele>
        <time>2015-08-01T10:42:52Z</time>
      </trkpt>
      <trkpt lat="49.26156" lon="-0.13375">
        <ele>3.02</ele>
        <time>2015-08-01T10:43:04Z</time>
      </trkpt>
      <trkpt lat="49.26163" lon="-0.13341">
        <ele>3.02</ele>
        <time>2015-08-01T10:43:16Z</time>
      </trkpt>
      <trkpt lat="49.26165" lon="-0.13329">
        <ele>3.02</ele>
        <time>2015-08-01T10:43:38Z</time>
      </trkpt>
      <trkpt lat="49.26176" lon="-0.13244">
        <ele>3.02</ele>
        <time>2015-08-01T10:43:55Z</time>
      </trkpt>
      <trkpt lat="49.26179" lon="-0.13196">
        <ele>2.54</ele>
        <time>2015-08-01T10:44:04Z</time>
      </trkpt>
      <trkpt lat="49.26181" lon="-0.13193">
        <ele>3.02</ele>
        <time>2015-08-01T10:44:05Z</time>
      </trkpt>
      <trkpt lat="49.26184" lon="-0.13191">
        <ele>3.02</ele>
        <time>2015-08-01T10:44:06Z</time>
      </trkpt>
      <trkpt lat="49.26187" lon="-0.13191">
        <ele>3.5</ele>
        <time>2015-08-01T10:44:07Z</time>
      </trkpt>
      <trkpt lat="49.2619" lon="-0.13192">
        <ele>2.54</ele>
        <time>2015-08-01T10:44:08Z</time>
      </trkpt>
      <trkpt lat="49.26193" lon="-0.13193">
        <ele>2.54</ele>
        <time>2015-08-01T10:44:09Z</time>
      </trkpt>
      <trkpt lat="49.26197" lon="-0.13193">
        <ele>2.54</ele>
        <time>2015-08-01T10:44:10Z</time>
      </trkpt>
      <trkpt lat="49.262" lon="-0.13193">
        <ele>3.02</ele>
        <time>2015-08-01T10:44:11Z</time>
      </trkpt>
      <trkpt lat="49.26242" lon="-0.13201">
        <ele>3.02</ele>
        <time>2015-08-01T10:44:22Z</time>
      </trkpt>
      <trkpt lat="49.26302" lon="-0.13204">
        <ele>3.02</ele>
        <time>2015-08-01T10:44:38Z</time>
      </trkpt>
      <trkpt lat="49.26345" lon="-0.13216">
        <ele>2.54</ele>
        <time>2015-08-01T10:44:48Z</time>
      </trkpt>
      <trkpt lat="49.26413" lon="-0.13227">
        <ele>3.02</ele>
        <time>2015-08-01T10:45:04Z</time>
      </trkpt>
      <trkpt lat="49.26475" lon="-0.13252">
        <ele>2.54</ele>
        <time>2015-08-01T10:45:20Z</time>
      </trkpt>
      <trkpt lat="49.26501" lon="-0.13271">
        <ele>3.02</ele>
        <time>2015-08-01T10:45:27Z</time>
      </trkpt>
      <trkpt lat="49.26505" lon="-0.13274">
        <ele>2.54</ele>
        <time>2015-08-01T10:45:28Z</time>
      </trkpt>
      <trkpt lat="49.26561" lon="-0.13314">
        <ele>3.02</ele>
        <time>2015-08-01T10:45:43Z</time>
      </trkpt>
      <trkpt lat="49.26618" lon="-0.13382">
        <ele>2.54</ele>
        <time>2015-08-01T10:46:00Z</time>
      </trkpt>
      <trkpt lat="49.26663" lon="-0.13442">
        <ele>3.02</ele>
        <time>2015-08-01T10:46:14Z</time>
      </trkpt>
      <trkpt lat="49.26715" lon="-0.13511">
        <ele>2.54</ele>
        <time>2015-08-01T10:46:31Z</time>
      </trkpt>
      <trkpt lat="49.26718" lon="-0.13514">
        <ele>2.54</ele>
        <time>2015-08-01T10:46:32Z</time>
      </trkpt>
      <trkpt lat="49.26764" lon="-0.13523">
        <ele>2.54</ele>
        <time>2015-08-01T10:46:44Z</time>
      </trkpt>
      <trkpt lat="49.26768" lon="-0.13523">
        <ele>2.54</ele>
        <time>2015-08-01T10:46:45Z</time>
      </trkpt>
      <trkpt lat="49.26772" lon="-0.13524">
        <ele>2.54</ele>
        <time>2015-08-01T10:46:46Z</time>
      </trkpt>
      <trkpt lat="49.26776" lon="-0.13525">
        <ele>2.54</ele>
        <time>2015-08-01T10:46:47Z</time>
      </trkpt>
      <trkpt lat="49.26779" lon="-0.13527">
        <ele>2.54</ele>
        <time>2015-08-01T10:46:48Z</time>
      </trkpt>
      <trkpt lat="49.26783" lon="-0.1353">
        <ele>2.54</ele>
        <time>2015-08-01T10:46:49Z</time>
      </trkpt>
      <trkpt lat="49.26786" lon="-0.13533">
        <ele>2.54</ele>
        <time>2015-08-01T10:46:50Z</time>
      </trkpt>
      <trkpt lat="49.26789" lon="-0.13537">
        <ele>2.06</ele>
        <time>2015-08-01T10:46:51Z</time>
      </trkpt>
      <trkpt lat="49.2682" lon="-0.13574">
        <ele>2.54</ele>
        <time>2015-08-01T10:47:03Z</time>
      </trkpt>
      <trkpt lat="49.26825" lon="-0.13579">
        <ele>2.06</ele>
        <time>2015-08-01T10:47:06Z</time>
      </trkpt>
      <trkpt lat="49.2685" lon="-0.13577">
        <ele>2.54</ele>
        <time>2015-08-01T10:47:16Z</time>
      </trkpt>
      <trkpt lat="49.26852" lon="-0.1358">
        <ele>2.06</ele>
        <time>2015-08-01T10:47:17Z</time>
      </trkpt>
      <trkpt lat="49.26884" lon="-0.13634">
        <ele>2.54</ele>
        <time>2015-08-01T10:47:31Z</time>
      </trkpt>
      <trkpt lat="49.26888" lon="-0.13635">
        <ele>2.54</ele>
        <time>2015-08-01T10:47:32Z</time>
      </trkpt>
      <trkpt lat="49.26892" lon="-0.13635">
        <ele>2.54</ele>
        <time>2015-08-01T10:47:33Z</time>
      </trkpt>
      <trkpt lat="49.26947" lon="-0.13614">
        <ele>2.54</ele>
        <time>2015-08-01T10:47:48Z</time>
      </trkpt>
      <trkpt lat="49.26951" lon="-0.13612">
        <ele>3.02</ele>
        <time>2015-08-01T10:47:49Z</time>
      </trkpt>
      <trkpt lat="49.26955" lon="-0.13611">
        <ele>3.02</ele>
        <time>2015-08-01T10:47:50Z</time>
      </trkpt>
      <trkpt lat="49.27005" lon="-0.13593">
        <ele>3.02</ele>
        <time>2015-08-01T10:48:03Z</time>
      </trkpt>
      <trkpt lat="49.27009" lon="-0.13591">
        <ele>2.54</ele>
        <time>2015-08-01T10:48:04Z</time>
      </trkpt>
      <trkpt lat="49.27013" lon="-0.1359">
        <ele>3.02</ele>
        <time>2015-08-01T10:48:05Z</time>
      </trkpt>
      <trkpt lat="49.27051" lon="-0.13579">
        <ele>3.02</ele>
        <time>2015-08-01T10:48:14Z</time>
      </trkpt>
      <trkpt lat="49.2706" lon="-0.13581">
        <ele>3.02</ele>
        <time>2015-08-01T10:48:16Z</time>
      </trkpt>
      <trkpt lat="49.27064" lon="-0.13582">
        <ele>3.02</ele>
        <time>2015-08-01T10:48:17Z</time>
      </trkpt>
      <trkpt lat="49.27125" lon="-0.13595">
        <ele>3.02</ele>
        <time>2015-08-01T10:48:32Z</time>
      </trkpt>
      <trkpt lat="49.27146" lon="-0.13594">
        <ele>3.02</ele>
        <time>2015-08-01T10:48:37Z</time>
      </trkpt>
      <trkpt lat="49.2715" lon="-0.13592">
        <ele>2.54</ele>
        <time>2015-08-01T10:48:38Z</time>
      </trkpt>
      <trkpt lat="49.27159" lon="-0.13587">
        <ele>2.54</ele>
        <time>2015-08-01T10:48:40Z</time>
      </trkpt>
      <trkpt lat="49.27217" lon="-0.13541">
        <ele>2.54</ele>
        <time>2015-08-01T10:48:55Z</time>
      </trkpt>
      <trkpt lat="49.27221" lon="-0.13539">
        <ele>2.54</ele>
        <time>2015-08-01T10:48:56Z</time>
      </trkpt>
      <trkpt lat="49.27225" lon="-0.13538">
        <ele>2.54</ele>
        <time>2015-08-01T10:48:57Z</time>
      </trkpt>
      <trkpt lat="49.27229" lon="-0.13536">
        <ele>2.54</ele>
        <time>2015-08-01T10:48:58Z</time>
      </trkpt>
      <trkpt lat="49.27294" lon="-0.13518">
        <ele>2.06</ele>
        <time>2015-08-01T10:49:14Z</time>
      </trkpt>
      <trkpt lat="49.27303" lon="-0.13516">
        <ele>2.54</ele>
        <time>2015-08-01T10:49:16Z</time>
      </trkpt>
      <trkpt lat="49.27307" lon="-0.13516">
        <ele>2.06</ele>
        <time>2015-08-01T10:49:17Z</time>
      </trkpt>
      <trkpt lat="49.27381" lon="-0.1353">
        <ele>2.54</ele>
        <time>2015-08-01T10:49:35Z</time>
      </trkpt>
      <trkpt lat="49.27389" lon="-0.13533">
        <ele>3.02</ele>
        <time>2015-08-01T10:49:37Z</time>
      </trkpt>
      <trkpt lat="49.27393" lon="-0.13534">
        <ele>2.06</ele>
        <time>2015-08-01T10:49:38Z</time>
      </trkpt>
      <trkpt lat="49.27398" lon="-0.13535">
        <ele>2.54</ele>
        <time>2015-08-01T10:49:39Z</time>
      </trkpt>
      <trkpt lat="49.27463" lon="-0.1353">
        <ele>2.54</ele>
        <time>2015-08-01T10:49:55Z</time>
      </trkpt>
      <trkpt lat="49.27511" lon="-0.13518">
        <ele>2.54</ele>
        <time>2015-08-01T10:50:07Z</time>
      </trkpt>
      <trkpt lat="49.27523" lon="-0.13511">
        <ele>2.06</ele>
        <time>2015-08-01T10:50:10Z</time>
      </trkpt>
      <trkpt lat="49.27564" lon="-0.13464">
        <ele>3.02</ele>
        <time>2015-08-01T10:50:24Z</time>
      </trkpt>
      <trkpt lat="49.27585" lon="-0.13451">
        <ele>3.02</ele>
        <time>2015-08-01T10:50:30Z</time>
      </trkpt>
      <trkpt lat="49.27589" lon="-0.13449">
        <ele>2.54</ele>
        <time>2015-08-01T10:50:31Z</time>
      </trkpt>
      <trkpt lat="49.27593" lon="-0.13449">
        <ele>3.02</ele>
        <time>2015-08-01T10:50:32Z</time>
      </trkpt>
      <trkpt lat="49.27632" lon="-0.13455">
        <ele>2.54</ele>
        <time>2015-08-01T10:50:45Z</time>
      </trkpt>
      <trkpt lat="49.27634" lon="-0.13453">
        <ele>2.54</ele>
        <time>2015-08-01T10:50:49Z</time>
      </trkpt>
      <trkpt lat="49.27636" lon="-0.13452">
        <ele>2.54</ele>
        <time>2015-08-01T10:50:50Z</time>
      </trkpt>
      <trkpt lat="49.27638" lon="-0.1345">
        <ele>2.54</ele>
        <time>2015-08-01T10:50:51Z</time>
      </trkpt>
      <trkpt lat="49.2764" lon="-0.13449">
        <ele>2.54</ele>
        <time>2015-08-01T10:50:52Z</time>
      </trkpt>
      <trkpt lat="49.27642" lon="-0.13449">
        <ele>2.54</ele>
        <time>2015-08-01T10:50:53Z</time>
      </trkpt>
      <trkpt lat="49.27644" lon="-0.1345">
        <ele>3.02</ele>
        <time>2015-08-01T10:50:54Z</time>
      </trkpt>
      <trkpt lat="49.27646" lon="-0.13451">
        <ele>2.54</ele>
        <time>2015-08-01T10:50:55Z</time>
      </trkpt>
      <trkpt lat="49.27666" lon="-0.13473">
        <ele>2.54</ele>
        <time>2015-08-01T10:51:07Z</time>
      </trkpt>
      <trkpt lat="49.277" lon="-0.13492">
        <ele>3.02</ele>
        <time>2015-08-01T10:51:19Z</time>
      </trkpt>
      <trkpt lat="49.27732" lon="-0.13518">
        <ele>3.02</ele>
        <time>2015-08-01T10:51:32Z</time>
      </trkpt>
      <trkpt lat="49.27762" lon="-0.13549">
        <ele>3.02</ele>
        <time>2015-08-01T10:51:42Z</time>
      </trkpt>
      <trkpt lat="49.2779" lon="-0.13571">
        <ele>3.02</ele>
        <time>2015-08-01T10:51:50Z</time>
      </trkpt>
      <trkpt lat="49.27794" lon="-0.13572">
        <ele>3.02</ele>
        <time>2015-08-01T10:51:51Z</time>
      </trkpt>
      <trkpt lat="49.27802" lon="-0.13574">
        <ele>3.5</ele>
        <time>2015-08-01T10:51:53Z</time>
      </trkpt>
      <trkpt lat="49.27806" lon="-0.13576">
        <ele>3.02</ele>
        <time>2015-08-01T10:51:54Z</time>
      </trkpt>
      <trkpt lat="49.27813" lon="-0.13583">
        <ele>3.02</ele>
        <time>2015-08-01T10:51:56Z</time>
      </trkpt>
      <trkpt lat="49.27816" lon="-0.13587">
        <ele>3.5</ele>
        <time>2015-08-01T10:51:57Z</time>
      </trkpt>
      <trkpt lat="49.27819" lon="-0.13592">
        <ele>3.5</ele>
        <time>2015-08-01T10:51:58Z</time>
      </trkpt>
      <trkpt lat="49.27829" lon="-0.13605">
        <ele>3.02</ele>
        <time>2015-08-01T10:52:01Z</time>
      </trkpt>
      <trkpt lat="49.27837" lon="-0.13612">
        <ele>2.54</ele>
        <time>2015-08-01T10:52:03Z</time>
      </trkpt>
      <trkpt lat="49.27854" lon="-0.13624">
        <ele>3.02</ele>
        <time>2015-08-01T10:52:07Z</time>
      </trkpt>
      <trkpt lat="49.27857" lon="-0.13629">
        <ele>3.02</ele>
        <time>2015-08-01T10:52:08Z</time>
      </trkpt>
      <trkpt lat="49.2786" lon="-0.13635">
        <ele>3.02</ele>
        <time>2015-08-01T10:52:09Z</time>
      </trkpt>
      <trkpt lat="49.27862" lon="-0.13642">
        <ele>3.02</ele>
        <time>2015-08-01T10:52:10Z</time>
      </trkpt>
      <trkpt lat="49.27863" lon="-0.13649">
        <ele>3.02</ele>
        <time>2015-08-01T10:52:11Z</time>
      </trkpt>
      <trkpt lat="49.27864" lon="-0.13656">
        <ele>3.02</ele>
        <time>2015-08-01T10:52:12Z</time>
      </trkpt>
      <trkpt lat="49.27868" lon="-0.13676">
        <ele>3.5</ele>
        <time>2015-08-01T10:52:15Z</time>
      </trkpt>
      <trkpt lat="49.27873" lon="-0.13687">
        <ele>3.02</ele>
        <time>2015-08-01T10:52:17Z</time>
      </trkpt>
      <trkpt lat="49.27878" lon="-0.13698">
        <ele>3.5</ele>
        <time>2015-08-01T10:52:19Z</time>
      </trkpt>
      <trkpt lat="49.27895" lon="-0.13735">
        <ele>3.02</ele>
        <time>2015-08-01T10:52:25Z</time>
      </trkpt>
      <trkpt lat="49.27898" lon="-0.1374">
        <ele>3.5</ele>
        <time>2015-08-01T10:52:26Z</time>
      </trkpt>
      <trkpt lat="49.27902" lon="-0.13744">
        <ele>3.02</ele>
        <time>2015-08-01T10:52:27Z</time>
      </trkpt>
      <trkpt lat="49.27906" lon="-0.13748">
        <ele>3.02</ele>
        <time>2015-08-01T10:52:28Z</time>
      </trkpt>
      <trkpt lat="49.27909" lon="-0.13751">
        <ele>2.54</ele>
        <time>2015-08-01T10:52:29Z</time>
      </trkpt>
      <trkpt lat="49.27913" lon="-0.13753">
        <ele>2.54</ele>
        <time>2015-08-01T10:52:30Z</time>
      </trkpt>
      <trkpt lat="49.27916" lon="-0.13753">
        <ele>3.02</ele>
        <time>2015-08-01T10:52:31Z</time>
      </trkpt>
      <trkpt lat="49.2792" lon="-0.13753">
        <ele>3.02</ele>
        <time>2015-08-01T10:52:32Z</time>
      </trkpt>
      <trkpt lat="49.27935" lon="-0.13761">
        <ele>3.5</ele>
        <time>2015-08-01T10:52:36Z</time>
      </trkpt>
      <trkpt lat="49.27938" lon="-0.13766">
        <ele>3.02</ele>
        <time>2015-08-01T10:52:37Z</time>
      </trkpt>
      <trkpt lat="49.27942" lon="-0.13772">
        <ele>3.02</ele>
        <time>2015-08-01T10:52:38Z</time>
      </trkpt>
      <trkpt lat="49.27945" lon="-0.13778">
        <ele>3.02</ele>
        <time>2015-08-01T10:52:39Z</time>
      </trkpt>
      <trkpt lat="49.27946" lon="-0.13784">
        <ele>3.5</ele>
        <time>2015-08-01T10:52:40Z</time>
      </trkpt>
      <trkpt lat="49.27947" lon="-0.1379">
        <ele>3.02</ele>
        <time>2015-08-01T10:52:41Z</time>
      </trkpt>
      <trkpt lat="49.27947" lon="-0.13797">
        <ele>3.02</ele>
        <time>2015-08-01T10:52:42Z</time>
      </trkpt>
      <trkpt lat="49.27948" lon="-0.13804">
        <ele>3.02</ele>
        <time>2015-08-01T10:52:43Z</time>
      </trkpt>
      <trkpt lat="49.2795" lon="-0.1381">
        <ele>3.5</ele>
        <time>2015-08-01T10:52:44Z</time>
      </trkpt>
      <trkpt lat="49.27952" lon="-0.13815">
        <ele>3.02</ele>
        <time>2015-08-01T10:52:45Z</time>
      </trkpt>
      <trkpt lat="49.27955" lon="-0.13818">
        <ele>3.02</ele>
        <time>2015-08-01T10:52:46Z</time>
      </trkpt>
      <trkpt lat="49.27958" lon="-0.13818">
        <ele>3.02</ele>
        <time>2015-08-01T10:52:47Z</time>
      </trkpt>
      <trkpt lat="49.27961" lon="-0.13817">
        <ele>3.02</ele>
        <time>2015-08-01T10:52:48Z</time>
      </trkpt>
      <trkpt lat="49.27965" lon="-0.13815">
        <ele>3.02</ele>
        <time>2015-08-01T10:52:49Z</time>
      </trkpt>
      <trkpt lat="49.2797" lon="-0.13813">
        <ele>3.02</ele>
        <time>2015-08-01T10:52:50Z</time>
      </trkpt>
      <trkpt lat="49.27988" lon="-0.13807">
        <ele>3.02</ele>
        <time>2015-08-01T10:52:54Z</time>
      </trkpt>
      <trkpt lat="49.27992" lon="-0.13807">
        <ele>3.5</ele>
        <time>2015-08-01T10:52:55Z</time>
      </trkpt>
      <trkpt lat="49.27997" lon="-0.13807">
        <ele>3.02</ele>
        <time>2015-08-01T10:52:56Z</time>
      </trkpt>
      <trkpt lat="49.28002" lon="-0.13808">
        <ele>2.54</ele>
        <time>2015-08-01T10:52:57Z</time>
      </trkpt>
      <trkpt lat="49.28007" lon="-0.1381">
        <ele>3.02</ele>
        <time>2015-08-01T10:52:58Z</time>
      </trkpt>
      <trkpt lat="49.28012" lon="-0.13812">
        <ele>2.54</ele>
        <time>2015-08-01T10:52:59Z</time>
      </trkpt>
      <trkpt lat="49.28017" lon="-0.13812">
        <ele>2.54</ele>
        <time>2015-08-01T10:53:00Z</time>
      </trkpt>
      <trkpt lat="49.28026" lon="-0.13813">
        <ele>2.54</ele>
        <time>2015-08-01T10:53:02Z</time>
      </trkpt>
      <trkpt lat="49.2808" lon="-0.13807">
        <ele>3.02</ele>
        <time>2015-08-01T10:53:15Z</time>
      </trkpt>
      <trkpt lat="49.2809" lon="-0.13806">
        <ele>2.54</ele>
        <time>2015-08-01T10:53:17Z</time>
      </trkpt>
      <trkpt lat="49.28095" lon="-0.13806">
        <ele>2.54</ele>
        <time>2015-08-01T10:53:18Z</time>
      </trkpt>
      <trkpt lat="49.28099" lon="-0.13806">
        <ele>2.54</ele>
        <time>2015-08-01T10:53:19Z</time>
      </trkpt>
      <trkpt lat="49.2818" lon="-0.13803">
        <ele>3.5</ele>
        <time>2015-08-01T10:53:36Z</time>
      </trkpt>
      <trkpt lat="49.28233" lon="-0.13813">
        <ele>3.02</ele>
        <time>2015-08-01T10:53:50Z</time>
      </trkpt>
      <trkpt lat="49.28264" lon="-0.13824">
        <ele>3.02</ele>
        <time>2015-08-01T10:54:01Z</time>
      </trkpt>
      <trkpt lat="49.28264" lon="-0.13824">
        <ele>3.5</ele>
        <time>2015-08-01T10:54:23Z</time>
      </trkpt>
      <trkpt lat="49.28279" lon="-0.13836">
        <ele>3.5</ele>
        <time>2015-08-01T10:54:35Z</time>
      </trkpt>
      <trkpt lat="49.28325" lon="-0.13876">
        <ele>2.54</ele>
        <time>2015-08-01T10:54:49Z</time>
      </trkpt>
      <trkpt lat="49.28354" lon="-0.13899">
        <ele>3.02</ele>
        <time>2015-08-01T10:54:57Z</time>
      </trkpt>
      <trkpt lat="49.28421" lon="-0.13941">
        <ele>2.54</ele>
        <time>2015-08-01T10:55:12Z</time>
      </trkpt>
      <trkpt lat="49.28488" lon="-0.13948">
        <ele>3.5</ele>
        <time>2015-08-01T10:55:26Z</time>
      </trkpt>
      <trkpt lat="49.2854" lon="-0.13946">
        <ele>2.54</ele>
        <time>2015-08-01T10:55:39Z</time>
      </trkpt>
      <trkpt lat="49.28564" lon="-0.13941">
        <ele>2.54</ele>
        <time>2015-08-01T10:55:49Z</time>
      </trkpt>
      <trkpt lat="49.28584" lon="-0.13938">
        <ele>3.02</ele>
        <time>2015-08-01T10:55:54Z</time>
      </trkpt>
      <trkpt lat="49.28588" lon="-0.13937">
        <ele>3.5</ele>
        <time>2015-08-01T10:55:55Z</time>
      </trkpt>
      <trkpt lat="49.28605" lon="-0.13935">
        <ele>3.02</ele>
        <time>2015-08-01T10:55:59Z</time>
      </trkpt>
      <trkpt lat="49.28609" lon="-0.13934">
        <ele>3.5</ele>
        <time>2015-08-01T10:56:00Z</time>
      </trkpt>
      <trkpt lat="49.28652" lon="-0.13934">
        <ele>3.5</ele>
        <time>2015-08-01T10:56:10Z</time>
      </trkpt>
      <trkpt lat="49.28657" lon="-0.13932">
        <ele>3.5</ele>
        <time>2015-08-01T10:56:11Z</time>
      </trkpt>
      <trkpt lat="49.28661" lon="-0.13932">
        <ele>3.5</ele>
        <time>2015-08-01T10:56:12Z</time>
      </trkpt>
      <trkpt lat="49.28666" lon="-0.13932">
        <ele>3.5</ele>
        <time>2015-08-01T10:56:13Z</time>
      </trkpt>
      <trkpt lat="49.2867" lon="-0.13932">
        <ele>3.02</ele>
        <time>2015-08-01T10:56:14Z</time>
      </trkpt>
      <trkpt lat="49.28691" lon="-0.13933">
        <ele>3.5</ele>
        <time>2015-08-01T10:56:19Z</time>
      </trkpt>
      <trkpt lat="49.28765" lon="-0.1393">
        <ele>3.5</ele>
        <time>2015-08-01T10:56:34Z</time>
      </trkpt>
      <trkpt lat="49.2881" lon="-0.13929">
        <ele>3.5</ele>
        <time>2015-08-01T10:56:44Z</time>
      </trkpt>
      <trkpt lat="49.28815" lon="-0.13927">
        <ele>3.5</ele>
        <time>2015-08-01T10:56:45Z</time>
      </trkpt>
      <trkpt lat="49.2882" lon="-0.13926">
        <ele>3.5</ele>
        <time>2015-08-01T10:56:46Z</time>
      </trkpt>
      <trkpt lat="49.28824" lon="-0.13925">
        <ele>3.5</ele>
        <time>2015-08-01T10:56:47Z</time>
      </trkpt>
      <trkpt lat="49.28829" lon="-0.13924">
        <ele>3.5</ele>
        <time>2015-08-01T10:56:48Z</time>
      </trkpt>
      <trkpt lat="49.28891" lon="-0.13919">
        <ele>6.39</ele>
        <time>2015-08-01T10:57:02Z</time>
      </trkpt>
      <trkpt lat="49.28937" lon="-0.13918">
        <ele>7.83</ele>
        <time>2015-08-01T10:57:15Z</time>
      </trkpt>
      <trkpt lat="49.28956" lon="-0.13911">
        <ele>7.83</ele>
        <time>2015-08-01T10:57:21Z</time>
      </trkpt>
      <trkpt lat="49.28958" lon="-0.13912">
        <ele>6.87</ele>
        <time>2015-08-01T10:57:22Z</time>
      </trkpt>
      <trkpt lat="49.2896" lon="-0.13914">
        <ele>7.35</ele>
        <time>2015-08-01T10:57:23Z</time>
      </trkpt>
      <trkpt lat="49.28962" lon="-0.13917">
        <ele>7.35</ele>
        <time>2015-08-01T10:57:24Z</time>
      </trkpt>
      <trkpt lat="49.28963" lon="-0.1392">
        <ele>6.87</ele>
        <time>2015-08-01T10:57:25Z</time>
      </trkpt>
      <trkpt lat="49.28964" lon="-0.13923">
        <ele>7.35</ele>
        <time>2015-08-01T10:57:26Z</time>
      </trkpt>
      <trkpt lat="49.28964" lon="-0.13925">
        <ele>6.87</ele>
        <time>2015-08-01T10:57:27Z</time>
      </trkpt>
      <trkpt lat="49.28964" lon="-0.13936">
        <ele>6.39</ele>
        <time>2015-08-01T10:57:33Z</time>
      </trkpt>
      <trkpt lat="49.28963" lon="-0.13938">
        <ele>6.39</ele>
        <time>2015-08-01T10:57:34Z</time>
      </trkpt>
      <trkpt lat="49.28963" lon="-0.1394">
        <ele>6.39</ele>
        <time>2015-08-01T10:57:50Z</time>
      </trkpt>
      <trkpt lat="49.28962" lon="-0.1394">
        <ele>6.87</ele>
        <time>2015-08-01T10:58:23Z</time>
      </trkpt>
      <trkpt lat="49.28962" lon="-0.13941">
        <ele>6.87</ele>
        <time>2015-08-01T10:58:42Z</time>
      </trkpt>
      <trkpt lat="49.28962" lon="-0.13941">
        <ele>6.87</ele>
        <time>2015-08-01T10:59:09Z</time>
      </trkpt>
      <trkpt lat="49.28964" lon="-0.13943">
        <ele>6.87</ele>
        <time>2015-08-01T10:59:23Z</time>
      </trkpt>
      <trkpt lat="49.28964" lon="-0.13943">
        <ele>3.5</ele>
        <time>2015-08-01T10:59:32Z</time>
      </trkpt>
      <trkpt lat="49.28964" lon="-0.13943">
        <ele>6.87</ele>
        <time>2015-08-01T10:59:33Z</time>
      </trkpt>
      <trkpt lat="49.28964" lon="-0.13942">
        <ele>6.39</ele>
        <time>2015-08-01T10:59:38Z</time>
      </trkpt>
      <trkpt lat="49.28967" lon="-0.13941">
        <ele>6.87</ele>
        <time>2015-08-01T10:59:40Z</time>
      </trkpt>
      <trkpt lat="49.28968" lon="-0.13938">
        <ele>6.87</ele>
        <time>2015-08-01T10:59:41Z</time>
      </trkpt>
      <trkpt lat="49.28969" lon="-0.13935">
        <ele>6.87</ele>
        <time>2015-08-01T10:59:42Z</time>
      </trkpt>
      <trkpt lat="49.2897" lon="-0.13932">
        <ele>6.39</ele>
        <time>2015-08-01T10:59:43Z</time>
      </trkpt>
      <trkpt lat="49.2897" lon="-0.13929">
        <ele>6.39</ele>
        <time>2015-08-01T10:59:44Z</time>
      </trkpt>
      <trkpt lat="49.28971" lon="-0.13926">
        <ele>6.39</ele>
        <time>2015-08-01T10:59:45Z</time>
      </trkpt>
      <trkpt lat="49.28971" lon="-0.13924">
        <ele>5.91</ele>
        <time>2015-08-01T10:59:46Z</time>
      </trkpt>
      <trkpt lat="49.28971" lon="-0.13921">
        <ele>6.39</ele>
        <time>2015-08-01T10:59:47Z</time>
      </trkpt>
      <trkpt lat="49.28971" lon="-0.13918">
        <ele>5.91</ele>
        <time>2015-08-01T10:59:48Z</time>
      </trkpt>
      <trkpt lat="49.28975" lon="-0.13875">
        <ele>6.39</ele>
        <time>2015-08-01T11:00:00Z</time>
      </trkpt>
      <trkpt lat="49.28981" lon="-0.13833">
        <ele>5.91</ele>
        <time>2015-08-01T11:00:15Z</time>
      </trkpt>
      <trkpt lat="49.2898" lon="-0.13835">
        <ele>5.91</ele>
        <time>2015-08-01T11:00:27Z</time>
      </trkpt>
      <trkpt lat="49.2898" lon="-0.13836">
        <ele>5.91</ele>
        <time>2015-08-01T11:00:42Z</time>
      </trkpt>
      <trkpt lat="49.2898" lon="-0.13836">
        <ele>5.91</ele>
        <time>2015-08-01T11:00:59Z</time>
      </trkpt>
      <trkpt lat="49.2898" lon="-0.13836">
        <ele>6.39</ele>
        <time>2015-08-01T11:59:43Z</time>
      </trkpt>
      <trkpt lat="49.28981" lon="-0.13836">
        <ele>3.02</ele>
        <time>2015-08-01T11:59:44Z</time>
      </trkpt>
      <trkpt lat="49.28983" lon="-0.13836">
        <ele>5.91</ele>
        <time>2015-08-01T11:59:58Z</time>
      </trkpt>
      <trkpt lat="49.28983" lon="-0.13836">
        <ele>8.79</ele>
        <time>2015-08-01T12:00:25Z</time>
      </trkpt>
      <trkpt lat="49.28983" lon="-0.13836">
        <ele>9.27</ele>
        <time>2015-08-01T12:00:34Z</time>
      </trkpt>
      <trkpt lat="49.28983" lon="-0.13836">
        <ele>9.27</ele>
        <time>2015-08-01T12:00:37Z</time>
      </trkpt>
      <trkpt lat="49.28981" lon="-0.13842">
        <ele>9.27</ele>
        <time>2015-08-01T12:00:41Z</time>
      </trkpt>
      <trkpt lat="49.28974" lon="-0.13865">
        <ele>9.75</ele>
        <time>2015-08-01T12:00:49Z</time>
      </trkpt>
      <trkpt lat="49.28968" lon="-0.13885">
        <ele>9.75</ele>
        <time>2015-08-01T12:00:53Z</time>
      </trkpt>
      <trkpt lat="49.28965" lon="-0.1389">
        <ele>10.23</ele>
        <time>2015-08-01T12:00:54Z</time>
      </trkpt>
      <trkpt lat="49.28954" lon="-0.13913">
        <ele>11.19</ele>
        <time>2015-08-01T12:01:01Z</time>
      </trkpt>
      <trkpt lat="49.28956" lon="-0.13915">
        <ele>10.71</ele>
        <time>2015-08-01T12:01:02Z</time>
      </trkpt>
      <trkpt lat="49.28961" lon="-0.13921">
        <ele>10.71</ele>
        <time>2015-08-01T12:01:05Z</time>
      </trkpt>
      <trkpt lat="49.28962" lon="-0.13924">
        <ele>10.71</ele>
        <time>2015-08-01T12:01:06Z</time>
      </trkpt>
      <trkpt lat="49.28961" lon="-0.13929">
        <ele>10.23</ele>
        <time>2015-08-01T12:01:07Z</time>
      </trkpt>
      <trkpt lat="49.28959" lon="-0.13933">
        <ele>10.23</ele>
        <time>2015-08-01T12:01:08Z</time>
      </trkpt>
      <trkpt lat="49.28956" lon="-0.13936">
        <ele>10.71</ele>
        <time>2015-08-01T12:01:09Z</time>
      </trkpt>
      <trkpt lat="49.28953" lon="-0.13937">
        <ele>10.71</ele>
        <time>2015-08-01T12:01:10Z</time>
      </trkpt>
      <trkpt lat="49.2895" lon="-0.13937">
        <ele>10.71</ele>
        <time>2015-08-01T12:01:11Z</time>
      </trkpt>
      <trkpt lat="49.28918" lon="-0.13934">
        <ele>10.23</ele>
        <time>2015-08-01T12:01:23Z</time>
      </trkpt>
      <trkpt lat="49.28885" lon="-0.13937">
        <ele>9.75</ele>
        <time>2015-08-01T12:01:37Z</time>
      </trkpt>
      <trkpt lat="49.28845" lon="-0.13936">
        <ele>7.83</ele>
        <time>2015-08-01T12:01:50Z</time>
      </trkpt>
      <trkpt lat="49.28815" lon="-0.13938">
        <ele>6.87</ele>
        <time>2015-08-01T12:02:02Z</time>
      </trkpt>
      <trkpt lat="49.28772" lon="-0.13939">
        <ele>6.87</ele>
        <time>2015-08-01T12:02:15Z</time>
      </trkpt>
      <trkpt lat="49.28756" lon="-0.1394">
        <ele>7.35</ele>
        <time>2015-08-01T12:02:19Z</time>
      </trkpt>
      <trkpt lat="49.28751" lon="-0.1394">
        <ele>6.87</ele>
        <time>2015-08-01T12:02:20Z</time>
      </trkpt>
      <trkpt lat="49.28701" lon="-0.13943">
        <ele>6.87</ele>
        <time>2015-08-01T12:02:31Z</time>
      </trkpt>
      <trkpt lat="49.28661" lon="-0.13946">
        <ele>6.87</ele>
        <time>2015-08-01T12:02:40Z</time>
      </trkpt>
      <trkpt lat="49.28602" lon="-0.13945">
        <ele>6.87</ele>
        <time>2015-08-01T12:02:53Z</time>
      </trkpt>
      <trkpt lat="49.28552" lon="-0.1395">
        <ele>6.39</ele>
        <time>2015-08-01T12:03:06Z</time>
      </trkpt>
      <trkpt lat="49.28542" lon="-0.1395">
        <ele>6.39</ele>
        <time>2015-08-01T12:03:17Z</time>
      </trkpt>
      <trkpt lat="49.28539" lon="-0.1395">
        <ele>6.39</ele>
        <time>2015-08-01T12:03:18Z</time>
      </trkpt>
      <trkpt lat="49.28535" lon="-0.1395">
        <ele>6.39</ele>
        <time>2015-08-01T12:03:19Z</time>
      </trkpt>
      <trkpt lat="49.28533" lon="-0.1395">
        <ele>6.39</ele>
        <time>2015-08-01T12:03:20Z</time>
      </trkpt>
      <trkpt lat="49.2853" lon="-0.13949">
        <ele>6.87</ele>
        <time>2015-08-01T12:03:21Z</time>
      </trkpt>
      <trkpt lat="49.28528" lon="-0.13949">
        <ele>4.94</ele>
        <time>2015-08-01T12:03:22Z</time>
      </trkpt>
      <trkpt lat="49.28526" lon="-0.13949">
        <ele>6.87</ele>
        <time>2015-08-01T12:03:23Z</time>
      </trkpt>
      <trkpt lat="49.28524" lon="-0.13949">
        <ele>6.39</ele>
        <time>2015-08-01T12:03:24Z</time>
      </trkpt>
      <trkpt lat="49.28477" lon="-0.13956">
        <ele>6.39</ele>
        <time>2015-08-01T12:03:37Z</time>
      </trkpt>
      <trkpt lat="49.28444" lon="-0.13956">
        <ele>6.39</ele>
        <time>2015-08-01T12:03:44Z</time>
      </trkpt>
      <trkpt lat="49.28439" lon="-0.13954">
        <ele>6.39</ele>
        <time>2015-08-01T12:03:45Z</time>
      </trkpt>
      <trkpt lat="49.28416" lon="-0.13946">
        <ele>6.39</ele>
        <time>2015-08-01T12:03:50Z</time>
      </trkpt>
      <trkpt lat="49.28412" lon="-0.13943">
        <ele>5.91</ele>
        <time>2015-08-01T12:03:51Z</time>
      </trkpt>
      <trkpt lat="49.28398" lon="-0.13936">
        <ele>6.87</ele>
        <time>2015-08-01T12:03:54Z</time>
      </trkpt>
      <trkpt lat="49.2833" lon="-0.13887">
        <ele>5.91</ele>
        <time>2015-08-01T12:04:10Z</time>
      </trkpt>
      <trkpt lat="49.28276" lon="-0.13842">
        <ele>6.87</ele>
        <time>2015-08-01T12:04:24Z</time>
      </trkpt>
      <trkpt lat="49.2827" lon="-0.13839">
        <ele>6.87</ele>
        <time>2015-08-01T12:04:28Z</time>
      </trkpt>
      <trkpt lat="49.28266" lon="-0.13839">
        <ele>6.87</ele>
        <time>2015-08-01T12:04:42Z</time>
      </trkpt>
      <trkpt lat="49.2825" lon="-0.13864">
        <ele>6.87</ele>
        <time>2015-08-01T12:04:51Z</time>
      </trkpt>
      <trkpt lat="49.28242" lon="-0.13879">
        <ele>6.87</ele>
        <time>2015-08-01T12:04:54Z</time>
      </trkpt>
      <trkpt lat="49.28236" lon="-0.13891">
        <ele>6.39</ele>
        <time>2015-08-01T12:04:56Z</time>
      </trkpt>
      <trkpt lat="49.28233" lon="-0.13895">
        <ele>6.87</ele>
        <time>2015-08-01T12:04:57Z</time>
      </trkpt>
      <trkpt lat="49.28229" lon="-0.13899">
        <ele>7.35</ele>
        <time>2015-08-01T12:04:58Z</time>
      </trkpt>
      <trkpt lat="49.28174" lon="-0.13943">
        <ele>7.35</ele>
        <time>2015-08-01T12:05:12Z</time>
      </trkpt>
      <trkpt lat="49.28157" lon="-0.13956">
        <ele>7.35</ele>
        <time>2015-08-01T12:05:16Z</time>
      </trkpt>
      <trkpt lat="49.28153" lon="-0.13961">
        <ele>6.87</ele>
        <time>2015-08-01T12:05:17Z</time>
      </trkpt>
      <trkpt lat="49.28121" lon="-0.14016">
        <ele>6.87</ele>
        <time>2015-08-01T12:05:26Z</time>
      </trkpt>
      <trkpt lat="49.28073" lon="-0.14128">
        <ele>7.35</ele>
        <time>2015-08-01T12:05:43Z</time>
      </trkpt>
      <trkpt lat="49.28024" lon="-0.14233">
        <ele>7.35</ele>
        <time>2015-08-01T12:05:59Z</time>
      </trkpt>
      <trkpt lat="49.27968" lon="-0.14318">
        <ele>7.35</ele>
        <time>2015-08-01T12:06:15Z</time>
      </trkpt>
      <trkpt lat="49.27922" lon="-0.14397">
        <ele>6.87</ele>
        <time>2015-08-01T12:06:29Z</time>
      </trkpt>
      <trkpt lat="49.2789" lon="-0.14453">
        <ele>8.31</ele>
        <time>2015-08-01T12:06:42Z</time>
      </trkpt>
      <trkpt lat="49.27879" lon="-0.14467">
        <ele>7.35</ele>
        <time>2015-08-01T12:06:50Z</time>
      </trkpt>
      <trkpt lat="49.27878" lon="-0.14469">
        <ele>7.83</ele>
        <time>2015-08-01T12:06:51Z</time>
      </trkpt>
      <trkpt lat="49.27878" lon="-0.14471">
        <ele>7.83</ele>
        <time>2015-08-01T12:06:52Z</time>
      </trkpt>
      <trkpt lat="49.27878" lon="-0.14474">
        <ele>7.35</ele>
        <time>2015-08-01T12:06:53Z</time>
      </trkpt>
      <trkpt lat="49.27878" lon="-0.14478">
        <ele>7.35</ele>
        <time>2015-08-01T12:06:54Z</time>
      </trkpt>
      <trkpt lat="49.27878" lon="-0.14482">
        <ele>7.35</ele>
        <time>2015-08-01T12:06:55Z</time>
      </trkpt>
      <trkpt lat="49.27877" lon="-0.14487">
        <ele>7.35</ele>
        <time>2015-08-01T12:06:56Z</time>
      </trkpt>
      <trkpt lat="49.27874" lon="-0.14492">
        <ele>7.35</ele>
        <time>2015-08-01T12:06:57Z</time>
      </trkpt>
      <trkpt lat="49.27871" lon="-0.14496">
        <ele>7.35</ele>
        <time>2015-08-01T12:06:58Z</time>
      </trkpt>
      <trkpt lat="49.2782" lon="-0.14574">
        <ele>7.35</ele>
        <time>2015-08-01T12:07:13Z</time>
      </trkpt>
      <trkpt lat="49.27734" lon="-0.14699">
        <ele>7.35</ele>
        <time>2015-08-01T12:07:34Z</time>
      </trkpt>
      <trkpt lat="49.27719" lon="-0.14723">
        <ele>6.87</ele>
        <time>2015-08-01T12:07:38Z</time>
      </trkpt>
      <trkpt lat="49.27716" lon="-0.1473">
        <ele>7.35</ele>
        <time>2015-08-01T12:07:39Z</time>
      </trkpt>
      <trkpt lat="49.27684" lon="-0.14822">
        <ele>6.87</ele>
        <time>2015-08-01T12:07:51Z</time>
      </trkpt>
      <trkpt lat="49.27682" lon="-0.1483">
        <ele>6.87</ele>
        <time>2015-08-01T12:07:52Z</time>
      </trkpt>
      <trkpt lat="49.2768" lon="-0.14838">
        <ele>6.87</ele>
        <time>2015-08-01T12:07:53Z</time>
      </trkpt>
      <trkpt lat="49.27679" lon="-0.14846">
        <ele>6.87</ele>
        <time>2015-08-01T12:07:54Z</time>
      </trkpt>
      <trkpt lat="49.27678" lon="-0.14855">
        <ele>6.87</ele>
        <time>2015-08-01T12:07:55Z</time>
      </trkpt>
      <trkpt lat="49.27677" lon="-0.14863">
        <ele>6.87</ele>
        <time>2015-08-01T12:07:56Z</time>
      </trkpt>
      <trkpt lat="49.27655" lon="-0.14958">
        <ele>6.87</ele>
        <time>2015-08-01T12:08:09Z</time>
      </trkpt>
      <trkpt lat="49.27652" lon="-0.14964">
        <ele>6.87</ele>
        <time>2015-08-01T12:08:10Z</time>
      </trkpt>
      <trkpt lat="49.27598" lon="-0.15032">
        <ele>7.35</ele>
        <time>2015-08-01T12:08:24Z</time>
      </trkpt>
      <trkpt lat="49.27551" lon="-0.15064">
        <ele>6.87</ele>
        <time>2015-08-01T12:08:34Z</time>
      </trkpt>
      <trkpt lat="49.27547" lon="-0.15066">
        <ele>6.87</ele>
        <time>2015-08-01T12:08:35Z</time>
      </trkpt>
      <trkpt lat="49.27517" lon="-0.15081">
        <ele>7.35</ele>
        <time>2015-08-01T12:08:42Z</time>
      </trkpt>
      <trkpt lat="49.27475" lon="-0.15101">
        <ele>6.87</ele>
        <time>2015-08-01T12:08:55Z</time>
      </trkpt>
      <trkpt lat="49.27476" lon="-0.15101">
        <ele>6.39</ele>
        <time>2015-08-01T12:09:08Z</time>
      </trkpt>
      <trkpt lat="49.27478" lon="-0.15101">
        <ele>5.91</ele>
        <time>2015-08-01T12:09:43Z</time>
      </trkpt>
      <trkpt lat="49.27476" lon="-0.15102">
        <ele>7.35</ele>
        <time>2015-08-01T12:10:23Z</time>
      </trkpt>
      <trkpt lat="49.27475" lon="-0.15103">
        <ele>7.35</ele>
        <time>2015-08-01T12:10:24Z</time>
      </trkpt>
      <trkpt lat="49.27469" lon="-0.15106">
        <ele>6.87</ele>
        <time>2015-08-01T12:10:32Z</time>
      </trkpt>
      <trkpt lat="49.27469" lon="-0.15107">
        <ele>6.87</ele>
        <time>2015-08-01T12:10:33Z</time>
      </trkpt>
      <trkpt lat="49.27466" lon="-0.15112">
        <ele>7.35</ele>
        <time>2015-08-01T12:10:37Z</time>
      </trkpt>
      <trkpt lat="49.27465" lon="-0.15112">
        <ele>6.87</ele>
        <time>2015-08-01T12:10:38Z</time>
      </trkpt>
      <trkpt lat="49.27458" lon="-0.15114">
        <ele>6.87</ele>
        <time>2015-08-01T12:10:48Z</time>
      </trkpt>
      <trkpt lat="49.27457" lon="-0.15116">
        <ele>6.87</ele>
        <time>2015-08-01T12:10:49Z</time>
      </trkpt>
      <trkpt lat="49.27457" lon="-0.15119">
        <ele>6.39</ele>
        <time>2015-08-01T12:10:50Z</time>
      </trkpt>
      <trkpt lat="49.27458" lon="-0.15121">
        <ele>6.39</ele>
        <time>2015-08-01T12:10:51Z</time>
      </trkpt>
      <trkpt lat="49.27458" lon="-0.15124">
        <ele>5.91</ele>
        <time>2015-08-01T12:10:52Z</time>
      </trkpt>
      <trkpt lat="49.27458" lon="-0.15127">
        <ele>6.39</ele>
        <time>2015-08-01T12:10:53Z</time>
      </trkpt>
      <trkpt lat="49.27457" lon="-0.15131">
        <ele>5.91</ele>
        <time>2015-08-01T12:10:54Z</time>
      </trkpt>
      <trkpt lat="49.27456" lon="-0.15135">
        <ele>5.91</ele>
        <time>2015-08-01T12:10:55Z</time>
      </trkpt>
      <trkpt lat="49.27455" lon="-0.1514">
        <ele>5.91</ele>
        <time>2015-08-01T12:10:56Z</time>
      </trkpt>
      <trkpt lat="49.27454" lon="-0.15144">
        <ele>6.39</ele>
        <time>2015-08-01T12:10:57Z</time>
      </trkpt>
      <trkpt lat="49.27446" lon="-0.15211">
        <ele>5.91</ele>
        <time>2015-08-01T12:11:09Z</time>
      </trkpt>
      <trkpt lat="49.27444" lon="-0.15246">
        <ele>6.39</ele>
        <time>2015-08-01T12:11:15Z</time>
      </trkpt>
      <trkpt lat="49.27447" lon="-0.15335">
        <ele>6.39</ele>
        <time>2015-08-01T12:11:29Z</time>
      </trkpt>
      <trkpt lat="49.27472" lon="-0.15423">
        <ele>6.39</ele>
        <time>2015-08-01T12:11:44Z</time>
      </trkpt>
      <trkpt lat="49.27484" lon="-0.15457">
        <ele>6.39</ele>
        <time>2015-08-01T12:11:50Z</time>
      </trkpt>
      <trkpt lat="49.27486" lon="-0.15463">
        <ele>6.39</ele>
        <time>2015-08-01T12:11:51Z</time>
      </trkpt>
      <trkpt lat="49.27513" lon="-0.15541">
        <ele>6.39</ele>
        <time>2015-08-01T12:12:07Z</time>
      </trkpt>
      <trkpt lat="49.27541" lon="-0.15627">
        <ele>6.39</ele>
        <time>2015-08-01T12:12:23Z</time>
      </trkpt>
      <trkpt lat="49.27543" lon="-0.15633">
        <ele>6.39</ele>
        <time>2015-08-01T12:12:24Z</time>
      </trkpt>
      <trkpt lat="49.27572" lon="-0.15708">
        <ele>6.87</ele>
        <time>2015-08-01T12:12:39Z</time>
      </trkpt>
      <trkpt lat="49.27599" lon="-0.15785">
        <ele>6.39</ele>
        <time>2015-08-01T12:12:55Z</time>
      </trkpt>
      <trkpt lat="49.27632" lon="-0.15875">
        <ele>6.39</ele>
        <time>2015-08-01T12:13:12Z</time>
      </trkpt>
      <trkpt lat="49.27665" lon="-0.15968">
        <ele>6.39</ele>
        <time>2015-08-01T12:13:29Z</time>
      </trkpt>
      <trkpt lat="49.27689" lon="-0.16035">
        <ele>6.39</ele>
        <time>2015-08-01T12:13:45Z</time>
      </trkpt>
      <trkpt lat="49.27712" lon="-0.16094">
        <ele>6.39</ele>
        <time>2015-08-01T12:14:00Z</time>
      </trkpt>
      <trkpt lat="49.27735" lon="-0.16161">
        <ele>6.39</ele>
        <time>2015-08-01T12:14:16Z</time>
      </trkpt>
      <trkpt lat="49.27758" lon="-0.16222">
        <ele>6.87</ele>
        <time>2015-08-01T12:14:30Z</time>
      </trkpt>
      <trkpt lat="49.27781" lon="-0.16286">
        <ele>6.39</ele>
        <time>2015-08-01T12:14:44Z</time>
      </trkpt>
      <trkpt lat="49.27805" lon="-0.16356">
        <ele>6.87</ele>
        <time>2015-08-01T12:14:57Z</time>
      </trkpt>
      <trkpt lat="49.27828" lon="-0.16405">
        <ele>6.87</ele>
        <time>2015-08-01T12:15:10Z</time>
      </trkpt>
      <trkpt lat="49.27831" lon="-0.16404">
        <ele>7.35</ele>
        <time>2015-08-01T12:15:11Z</time>
      </trkpt>
      <trkpt lat="49.27876" lon="-0.16389">
        <ele>7.35</ele>
        <time>2015-08-01T12:15:25Z</time>
      </trkpt>
      <trkpt lat="49.27925" lon="-0.16387">
        <ele>7.83</ele>
        <time>2015-08-01T12:15:39Z</time>
      </trkpt>
      <trkpt lat="49.27928" lon="-0.16391">
        <ele>7.83</ele>
        <time>2015-08-01T12:15:40Z</time>
      </trkpt>
      <trkpt lat="49.2793" lon="-0.16395">
        <ele>7.83</ele>
        <time>2015-08-01T12:15:41Z</time>
      </trkpt>
      <trkpt lat="49.27931" lon="-0.164">
        <ele>7.83</ele>
        <time>2015-08-01T12:15:42Z</time>
      </trkpt>
      <trkpt lat="49.2793" lon="-0.16457">
        <ele>6.87</ele>
        <time>2015-08-01T12:15:53Z</time>
      </trkpt>
      <trkpt lat="49.27942" lon="-0.16524">
        <ele>6.39</ele>
        <time>2015-08-01T12:16:06Z</time>
      </trkpt>
      <trkpt lat="49.27945" lon="-0.16577">
        <ele>6.87</ele>
        <time>2015-08-01T12:16:17Z</time>
      </trkpt>
      <trkpt lat="49.27906" lon="-0.16617">
        <ele>6.39</ele>
        <time>2015-08-01T12:16:29Z</time>
      </trkpt>
      <trkpt lat="49.27905" lon="-0.16622">
        <ele>6.39</ele>
        <time>2015-08-01T12:16:30Z</time>
      </trkpt>
      <trkpt lat="49.27906" lon="-0.16628">
        <ele>6.39</ele>
        <time>2015-08-01T12:16:31Z</time>
      </trkpt>
      <trkpt lat="49.27907" lon="-0.16634">
        <ele>6.87</ele>
        <time>2015-08-01T12:16:32Z</time>
      </trkpt>
      <trkpt lat="49.27909" lon="-0.1664">
        <ele>6.87</ele>
        <time>2015-08-01T12:16:33Z</time>
      </trkpt>
      <trkpt lat="49.27914" lon="-0.16656">
        <ele>6.39</ele>
        <time>2015-08-01T12:16:36Z</time>
      </trkpt>
      <trkpt lat="49.27917" lon="-0.16668">
        <ele>6.87</ele>
        <time>2015-08-01T12:16:38Z</time>
      </trkpt>
      <trkpt lat="49.27919" lon="-0.16673">
        <ele>6.39</ele>
        <time>2015-08-01T12:16:39Z</time>
      </trkpt>
      <trkpt lat="49.27921" lon="-0.16678">
        <ele>6.39</ele>
        <time>2015-08-01T12:16:40Z</time>
      </trkpt>
      <trkpt lat="49.27923" lon="-0.16683">
        <ele>6.39</ele>
        <time>2015-08-01T12:16:41Z</time>
      </trkpt>
      <trkpt lat="49.27925" lon="-0.16689">
        <ele>6.39</ele>
        <time>2015-08-01T12:16:42Z</time>
      </trkpt>
      <trkpt lat="49.27943" lon="-0.16756">
        <ele>6.87</ele>
        <time>2015-08-01T12:16:54Z</time>
      </trkpt>
      <trkpt lat="49.27952" lon="-0.16793">
        <ele>6.87</ele>
        <time>2015-08-01T12:17:00Z</time>
      </trkpt>
      <trkpt lat="49.27962" lon="-0.16853">
        <ele>6.87</ele>
        <time>2015-08-01T12:17:09Z</time>
      </trkpt>
      <trkpt lat="49.27965" lon="-0.16881">
        <ele>6.87</ele>
        <time>2015-08-01T12:17:13Z</time>
      </trkpt>
      <trkpt lat="49.27965" lon="-0.16915">
        <ele>6.87</ele>
        <time>2015-08-01T12:17:18Z</time>
      </trkpt>
      <trkpt lat="49.27965" lon="-0.16921">
        <ele>6.39</ele>
        <time>2015-08-01T12:17:19Z</time>
      </trkpt>
      <trkpt lat="49.27958" lon="-0.17014">
        <ele>6.87</ele>
        <time>2015-08-01T12:17:35Z</time>
      </trkpt>
      <trkpt lat="49.27959" lon="-0.1708">
        <ele>6.87</ele>
        <time>2015-08-01T12:17:48Z</time>
      </trkpt>
      <trkpt lat="49.2795" lon="-0.17134">
        <ele>6.39</ele>
        <time>2015-08-01T12:18:02Z</time>
      </trkpt>
      <trkpt lat="49.27937" lon="-0.17201">
        <ele>6.87</ele>
        <time>2015-08-01T12:18:18Z</time>
      </trkpt>
      <trkpt lat="49.27918" lon="-0.17271">
        <ele>6.87</ele>
        <time>2015-08-01T12:18:27Z</time>
      </trkpt>
      <trkpt lat="49.27885" lon="-0.17355">
        <ele>6.87</ele>
        <time>2015-08-01T12:18:40Z</time>
      </trkpt>
      <trkpt lat="49.27873" lon="-0.1741">
        <ele>6.87</ele>
        <time>2015-08-01T12:18:47Z</time>
      </trkpt>
      <trkpt lat="49.27853" lon="-0.17512">
        <ele>7.35</ele>
        <time>2015-08-01T12:19:00Z</time>
      </trkpt>
      <trkpt lat="49.2785" lon="-0.17519">
        <ele>6.87</ele>
        <time>2015-08-01T12:19:01Z</time>
      </trkpt>
      <trkpt lat="49.27847" lon="-0.17526">
        <ele>7.35</ele>
        <time>2015-08-01T12:19:02Z</time>
      </trkpt>
      <trkpt lat="49.27798" lon="-0.17622">
        <ele>6.39</ele>
        <time>2015-08-01T12:19:18Z</time>
      </trkpt>
      <trkpt lat="49.27746" lon="-0.17716">
        <ele>6.87</ele>
        <time>2015-08-01T12:19:34Z</time>
      </trkpt>
      <trkpt lat="49.27744" lon="-0.17723">
        <ele>6.87</ele>
        <time>2015-08-01T12:19:35Z</time>
      </trkpt>
      <trkpt lat="49.27741" lon="-0.17729">
        <ele>6.87</ele>
        <time>2015-08-01T12:19:36Z</time>
      </trkpt>
      <trkpt lat="49.2774" lon="-0.17736">
        <ele>6.87</ele>
        <time>2015-08-01T12:19:37Z</time>
      </trkpt>
      <trkpt lat="49.27739" lon="-0.17743">
        <ele>6.87</ele>
        <time>2015-08-01T12:19:38Z</time>
      </trkpt>
      <trkpt lat="49.2773" lon="-0.17794">
        <ele>6.87</ele>
        <time>2015-08-01T12:19:45Z</time>
      </trkpt>
      <trkpt lat="49.27728" lon="-0.17817">
        <ele>6.87</ele>
        <time>2015-08-01T12:19:48Z</time>
      </trkpt>
      <trkpt lat="49.27733" lon="-0.17938">
        <ele>7.35</ele>
        <time>2015-08-01T12:20:04Z</time>
      </trkpt>
      <trkpt lat="49.27734" lon="-0.17962">
        <ele>6.87</ele>
        <time>2015-08-01T12:20:07Z</time>
      </trkpt>
      <trkpt lat="49.27732" lon="-0.17971">
        <ele>7.35</ele>
        <time>2015-08-01T12:20:08Z</time>
      </trkpt>
      <trkpt lat="49.27731" lon="-0.17978">
        <ele>6.87</ele>
        <time>2015-08-01T12:20:09Z</time>
      </trkpt>
      <trkpt lat="49.27728" lon="-0.17985">
        <ele>6.87</ele>
        <time>2015-08-01T12:20:10Z</time>
      </trkpt>
      <trkpt lat="49.27724" lon="-0.17991">
        <ele>7.35</ele>
        <time>2015-08-01T12:20:11Z</time>
      </trkpt>
      <trkpt lat="49.27719" lon="-0.17995">
        <ele>6.87</ele>
        <time>2015-08-01T12:20:12Z</time>
      </trkpt>
      <trkpt lat="49.27714" lon="-0.17998">
        <ele>6.87</ele>
        <time>2015-08-01T12:20:13Z</time>
      </trkpt>
      <trkpt lat="49.27709" lon="-0.18001">
        <ele>6.87</ele>
        <time>2015-08-01T12:20:14Z</time>
      </trkpt>
      <trkpt lat="49.27619" lon="-0.18057">
        <ele>6.87</ele>
        <time>2015-08-01T12:20:32Z</time>
      </trkpt>
      <trkpt lat="49.27606" lon="-0.18069">
        <ele>6.87</ele>
        <time>2015-08-01T12:20:35Z</time>
      </trkpt>
      <trkpt lat="49.27603" lon="-0.18075">
        <ele>6.87</ele>
        <time>2015-08-01T12:20:36Z</time>
      </trkpt>
      <trkpt lat="49.27601" lon="-0.18082">
        <ele>6.87</ele>
        <time>2015-08-01T12:20:37Z</time>
      </trkpt>
      <trkpt lat="49.27598" lon="-0.18089">
        <ele>6.87</ele>
        <time>2015-08-01T12:20:38Z</time>
      </trkpt>
      <trkpt lat="49.27596" lon="-0.18096">
        <ele>6.87</ele>
        <time>2015-08-01T12:20:39Z</time>
      </trkpt>
      <trkpt lat="49.27563" lon="-0.18195">
        <ele>6.87</ele>
        <time>2015-08-01T12:20:53Z</time>
      </trkpt>
      <trkpt lat="49.27559" lon="-0.182">
        <ele>6.87</ele>
        <time>2015-08-01T12:20:54Z</time>
      </trkpt>
      <trkpt lat="49.27556" lon="-0.18204">
        <ele>6.39</ele>
        <time>2015-08-01T12:20:55Z</time>
      </trkpt>
      <trkpt lat="49.27552" lon="-0.18207">
        <ele>6.39</ele>
        <time>2015-08-01T12:20:56Z</time>
      </trkpt>
      <trkpt lat="49.27548" lon="-0.18209">
        <ele>6.39</ele>
        <time>2015-08-01T12:20:57Z</time>
      </trkpt>
      <trkpt lat="49.27479" lon="-0.18231">
        <ele>6.87</ele>
        <time>2015-08-01T12:21:14Z</time>
      </trkpt>
      <trkpt lat="49.27417" lon="-0.18269">
        <ele>6.87</ele>
        <time>2015-08-01T12:21:30Z</time>
      </trkpt>
      <trkpt lat="49.27414" lon="-0.18272">
        <ele>6.87</ele>
        <time>2015-08-01T12:21:31Z</time>
      </trkpt>
      <trkpt lat="49.274" lon="-0.18284">
        <ele>6.87</ele>
        <time>2015-08-01T12:21:35Z</time>
      </trkpt>
      <trkpt lat="49.27396" lon="-0.18288">
        <ele>6.87</ele>
        <time>2015-08-01T12:21:36Z</time>
      </trkpt>
      <trkpt lat="49.27351" lon="-0.18347">
        <ele>6.87</ele>
        <time>2015-08-01T12:21:52Z</time>
      </trkpt>
      <trkpt lat="49.27339" lon="-0.18359">
        <ele>6.87</ele>
        <time>2015-08-01T12:22:02Z</time>
      </trkpt>
      <trkpt lat="49.27337" lon="-0.18359">
        <ele>6.87</ele>
        <time>2015-08-01T12:22:35Z</time>
      </trkpt>
      <trkpt lat="49.27337" lon="-0.1836">
        <ele>6.87</ele>
        <time>2015-08-01T12:23:03Z</time>
      </trkpt>
      <trkpt lat="49.27337" lon="-0.18361">
        <ele>6.87</ele>
        <time>2015-08-01T12:23:34Z</time>
      </trkpt>
      <trkpt lat="49.27337" lon="-0.18361">
        <ele>11.67</ele>
        <time>2015-08-01T12:23:57Z</time>
      </trkpt>
      <trkpt lat="49.27337" lon="-0.18361">
        <ele>6.87</ele>
        <time>2015-08-01T12:23:58Z</time>
      </trkpt>
      <trkpt lat="49.27337" lon="-0.18361">
        <ele>3.02</ele>
        <time>2015-08-01T12:24:00Z</time>
      </trkpt>
      <trkpt lat="49.27337" lon="-0.18361">
        <ele>11.67</ele>
        <time>2015-08-01T12:24:01Z</time>
      </trkpt>
      <trkpt lat="49.27337" lon="-0.18361">
        <ele>15.52</ele>
        <time>2015-08-01T12:24:02Z</time>
      </trkpt>
      <trkpt lat="49.27337" lon="-0.18361">
        <ele>9.27</ele>
        <time>2015-08-01T12:24:03Z</time>
      </trkpt>
      <trkpt lat="49.27337" lon="-0.18361">
        <ele>6.87</ele>
        <time>2015-08-01T12:24:05Z</time>
      </trkpt>
      <trkpt lat="49.27337" lon="-0.18361">
        <ele>6.87</ele>
        <time>2015-08-01T12:24:15Z</time>
      </trkpt>
      <trkpt lat="49.27321" lon="-0.18385">
        <ele>7.35</ele>
        <time>2015-08-01T12:24:25Z</time>
      </trkpt>
      <trkpt lat="49.27272" lon="-0.18455">
        <ele>7.35</ele>
        <time>2015-08-01T12:24:41Z</time>
      </trkpt>
      <trkpt lat="49.27216" lon="-0.18518">
        <ele>7.83</ele>
        <time>2015-08-01T12:24:56Z</time>
      </trkpt>
      <trkpt lat="49.27206" lon="-0.18529">
        <ele>7.83</ele>
        <time>2015-08-01T12:24:59Z</time>
      </trkpt>
      <trkpt lat="49.27176" lon="-0.18576">
        <ele>7.83</ele>
        <time>2015-08-01T12:25:09Z</time>
      </trkpt>
      <trkpt lat="49.2715" lon="-0.18623">
        <ele>8.79</ele>
        <time>2015-08-01T12:25:18Z</time>
      </trkpt>
      <trkpt lat="49.27144" lon="-0.18642">
        <ele>8.79</ele>
        <time>2015-08-01T12:25:21Z</time>
      </trkpt>
      <trkpt lat="49.27142" lon="-0.18648">
        <ele>9.27</ele>
        <time>2015-08-01T12:25:22Z</time>
      </trkpt>
      <trkpt lat="49.27141" lon="-0.18655">
        <ele>9.27</ele>
        <time>2015-08-01T12:25:23Z</time>
      </trkpt>
      <trkpt lat="49.27133" lon="-0.18697">
        <ele>10.23</ele>
        <time>2015-08-01T12:25:30Z</time>
      </trkpt>
      <trkpt lat="49.27132" lon="-0.18703">
        <ele>9.75</ele>
        <time>2015-08-01T12:25:31Z</time>
      </trkpt>
      <trkpt lat="49.27133" lon="-0.18709">
        <ele>9.75</ele>
        <time>2015-08-01T12:25:32Z</time>
      </trkpt>
      <trkpt lat="49.27134" lon="-0.18781">
        <ele>10.71</ele>
        <time>2015-08-01T12:25:44Z</time>
      </trkpt>
      <trkpt lat="49.27131" lon="-0.188">
        <ele>11.67</ele>
        <time>2015-08-01T12:25:47Z</time>
      </trkpt>
      <trkpt lat="49.2713" lon="-0.18806">
        <ele>11.67</ele>
        <time>2015-08-01T12:25:48Z</time>
      </trkpt>
      <trkpt lat="49.27129" lon="-0.18812">
        <ele>11.67</ele>
        <time>2015-08-01T12:25:49Z</time>
      </trkpt>
      <trkpt lat="49.27128" lon="-0.18819">
        <ele>11.67</ele>
        <time>2015-08-01T12:25:50Z</time>
      </trkpt>
      <trkpt lat="49.27127" lon="-0.18825">
        <ele>11.67</ele>
        <time>2015-08-01T12:25:51Z</time>
      </trkpt>
      <trkpt lat="49.27123" lon="-0.18844">
        <ele>11.67</ele>
        <time>2015-08-01T12:25:54Z</time>
      </trkpt>
      <trkpt lat="49.27123" lon="-0.1885">
        <ele>12.15</ele>
        <time>2015-08-01T12:25:55Z</time>
      </trkpt>
      <trkpt lat="49.27121" lon="-0.18862">
        <ele>12.63</ele>
        <time>2015-08-01T12:25:57Z</time>
      </trkpt>
      <trkpt lat="49.27119" lon="-0.18952">
        <ele>14.08</ele>
        <time>2015-08-01T12:26:12Z</time>
      </trkpt>
      <trkpt lat="49.27128" lon="-0.19033">
        <ele>15.52</ele>
        <time>2015-08-01T12:26:26Z</time>
      </trkpt>
      <trkpt lat="49.27132" lon="-0.19086">
        <ele>16.48</ele>
        <time>2015-08-01T12:26:39Z</time>
      </trkpt>
      <trkpt lat="49.27144" lon="-0.19137">
        <ele>16.48</ele>
        <time>2015-08-01T12:26:53Z</time>
      </trkpt>
      <trkpt lat="49.27156" lon="-0.19194">
        <ele>16.48</ele>
        <time>2015-08-01T12:27:06Z</time>
      </trkpt>
      <trkpt lat="49.27166" lon="-0.19251">
        <ele>16.96</ele>
        <time>2015-08-01T12:27:16Z</time>
      </trkpt>
      <trkpt lat="49.27167" lon="-0.19265">
        <ele>16.96</ele>
        <time>2015-08-01T12:27:18Z</time>
      </trkpt>
      <trkpt lat="49.27167" lon="-0.19272">
        <ele>16.96</ele>
        <time>2015-08-01T12:27:19Z</time>
      </trkpt>
      <trkpt lat="49.27168" lon="-0.19279">
        <ele>17.44</ele>
        <time>2015-08-01T12:27:20Z</time>
      </trkpt>
      <trkpt lat="49.27168" lon="-0.19286">
        <ele>17.44</ele>
        <time>2015-08-01T12:27:21Z</time>
      </trkpt>
      <trkpt lat="49.2717" lon="-0.19293">
        <ele>17.44</ele>
        <time>2015-08-01T12:27:22Z</time>
      </trkpt>
      <trkpt lat="49.27183" lon="-0.19373">
        <ele>17.92</ele>
        <time>2015-08-01T12:27:33Z</time>
      </trkpt>
      <trkpt lat="49.27184" lon="-0.19381">
        <ele>17.92</ele>
        <time>2015-08-01T12:27:34Z</time>
      </trkpt>
      <trkpt lat="49.27186" lon="-0.19396">
        <ele>17.92</ele>
        <time>2015-08-01T12:27:36Z</time>
      </trkpt>
      <trkpt lat="49.27195" lon="-0.19441">
        <ele>18.4</ele>
        <time>2015-08-01T12:27:42Z</time>
      </trkpt>
      <trkpt lat="49.27203" lon="-0.19486">
        <ele>18.88</ele>
        <time>2015-08-01T12:27:48Z</time>
      </trkpt>
      <trkpt lat="49.27205" lon="-0.19492">
        <ele>18.4</ele>
        <time>2015-08-01T12:27:49Z</time>
      </trkpt>
      <trkpt lat="49.27211" lon="-0.19518">
        <ele>18.4</ele>
        <time>2015-08-01T12:27:53Z</time>
      </trkpt>
      <trkpt lat="49.27212" lon="-0.19525">
        <ele>18.88</ele>
        <time>2015-08-01T12:27:54Z</time>
      </trkpt>
      <trkpt lat="49.27224" lon="-0.19583">
        <ele>18.4</ele>
        <time>2015-08-01T12:28:02Z</time>
      </trkpt>
      <trkpt lat="49.27226" lon="-0.1959">
        <ele>18.4</ele>
        <time>2015-08-01T12:28:03Z</time>
      </trkpt>
      <trkpt lat="49.2723" lon="-0.19612">
        <ele>18.4</ele>
        <time>2015-08-01T12:28:06Z</time>
      </trkpt>
      <trkpt lat="49.27231" lon="-0.19619">
        <ele>17.92</ele>
        <time>2015-08-01T12:28:07Z</time>
      </trkpt>
      <trkpt lat="49.27239" lon="-0.19646">
        <ele>17.92</ele>
        <time>2015-08-01T12:28:11Z</time>
      </trkpt>
      <trkpt lat="49.27248" lon="-0.19681">
        <ele>17.44</ele>
        <time>2015-08-01T12:28:16Z</time>
      </trkpt>
      <trkpt lat="49.27291" lon="-0.19779">
        <ele>16.96</ele>
        <time>2015-08-01T12:28:32Z</time>
      </trkpt>
      <trkpt lat="49.27318" lon="-0.19865">
        <ele>16.48</ele>
        <time>2015-08-01T12:28:46Z</time>
      </trkpt>
      <trkpt lat="49.27319" lon="-0.19871">
        <ele>16.48</ele>
        <time>2015-08-01T12:28:47Z</time>
      </trkpt>
      <trkpt lat="49.27321" lon="-0.19878">
        <ele>16.48</ele>
        <time>2015-08-01T12:28:48Z</time>
      </trkpt>
      <trkpt lat="49.27332" lon="-0.19942">
        <ele>15.52</ele>
        <time>2015-08-01T12:29:00Z</time>
      </trkpt>
      <trkpt lat="49.27337" lon="-0.19969">
        <ele>15.04</ele>
        <time>2015-08-01T12:29:05Z</time>
      </trkpt>
      <trkpt lat="49.27342" lon="-0.19979">
        <ele>15.04</ele>
        <time>2015-08-01T12:29:07Z</time>
      </trkpt>
      <trkpt lat="49.27345" lon="-0.19983">
        <ele>15.04</ele>
        <time>2015-08-01T12:29:08Z</time>
      </trkpt>
      <trkpt lat="49.27349" lon="-0.19987">
        <ele>15.04</ele>
        <time>2015-08-01T12:29:09Z</time>
      </trkpt>
      <trkpt lat="49.27353" lon="-0.1999">
        <ele>14.56</ele>
        <time>2015-08-01T12:29:10Z</time>
      </trkpt>
      <trkpt lat="49.27357" lon="-0.19994">
        <ele>14.56</ele>
        <time>2015-08-01T12:29:11Z</time>
      </trkpt>
      <trkpt lat="49.27361" lon="-0.19997">
        <ele>14.56</ele>
        <time>2015-08-01T12:29:12Z</time>
      </trkpt>
      <trkpt lat="49.27436" lon="-0.2005">
        <ele>12.15</ele>
        <time>2015-08-01T12:29:27Z</time>
      </trkpt>
      <trkpt lat="49.27469" lon="-0.20073">
        <ele>11.19</ele>
        <time>2015-08-01T12:29:33Z</time>
      </trkpt>
      <trkpt lat="49.27475" lon="-0.20077">
        <ele>10.71</ele>
        <time>2015-08-01T12:29:34Z</time>
      </trkpt>
      <trkpt lat="49.27544" lon="-0.20127">
        <ele>9.27</ele>
        <time>2015-08-01T12:29:46Z</time>
      </trkpt>
      <trkpt lat="49.27611" lon="-0.20176">
        <ele>8.79</ele>
        <time>2015-08-01T12:29:58Z</time>
      </trkpt>
      <trkpt lat="49.27693" lon="-0.20237">
        <ele>8.31</ele>
        <time>2015-08-01T12:30:15Z</time>
      </trkpt>
      <trkpt lat="49.27712" lon="-0.20247">
        <ele>7.83</ele>
        <time>2015-08-01T12:30:21Z</time>
      </trkpt>
      <trkpt lat="49.27714" lon="-0.20246">
        <ele>7.35</ele>
        <time>2015-08-01T12:30:22Z</time>
      </trkpt>
      <trkpt lat="49.27716" lon="-0.20243">
        <ele>7.83</ele>
        <time>2015-08-01T12:30:23Z</time>
      </trkpt>
      <trkpt lat="49.27717" lon="-0.20239">
        <ele>7.83</ele>
        <time>2015-08-01T12:30:24Z</time>
      </trkpt>
      <trkpt lat="49.27719" lon="-0.20235">
        <ele>7.83</ele>
        <time>2015-08-01T12:30:25Z</time>
      </trkpt>
      <trkpt lat="49.27721" lon="-0.20231">
        <ele>7.83</ele>
        <time>2015-08-01T12:30:26Z</time>
      </trkpt>
      <trkpt lat="49.27724" lon="-0.20228">
        <ele>7.83</ele>
        <time>2015-08-01T12:30:27Z</time>
      </trkpt>
      <trkpt lat="49.27727" lon="-0.20226">
        <ele>7.83</ele>
        <time>2015-08-01T12:30:28Z</time>
      </trkpt>
      <trkpt lat="49.27731" lon="-0.20225">
        <ele>8.31</ele>
        <time>2015-08-01T12:30:29Z</time>
      </trkpt>
      <trkpt lat="49.27733" lon="-0.20228">
        <ele>7.83</ele>
        <time>2015-08-01T12:30:30Z</time>
      </trkpt>
      <trkpt lat="49.27733" lon="-0.20233">
        <ele>7.83</ele>
        <time>2015-08-01T12:30:31Z</time>
      </trkpt>
      <trkpt lat="49.27734" lon="-0.20237">
        <ele>7.83</ele>
        <time>2015-08-01T12:30:32Z</time>
      </trkpt>
      <trkpt lat="49.27735" lon="-0.20241">
        <ele>7.83</ele>
        <time>2015-08-01T12:30:33Z</time>
      </trkpt>
      <trkpt lat="49.27735" lon="-0.20245">
        <ele>7.83</ele>
        <time>2015-08-01T12:30:34Z</time>
      </trkpt>
      <trkpt lat="49.27734" lon="-0.20251">
        <ele>7.83</ele>
        <time>2015-08-01T12:30:35Z</time>
      </trkpt>
      <trkpt lat="49.27733" lon="-0.20256">
        <ele>7.83</ele>
        <time>2015-08-01T12:30:36Z</time>
      </trkpt>
      <trkpt lat="49.27733" lon="-0.20266">
        <ele>7.35</ele>
        <time>2015-08-01T12:30:38Z</time>
      </trkpt>
      <trkpt lat="49.27735" lon="-0.2027">
        <ele>7.83</ele>
        <time>2015-08-01T12:30:39Z</time>
      </trkpt>
      <trkpt lat="49.27738" lon="-0.20272">
        <ele>7.83</ele>
        <time>2015-08-01T12:30:40Z</time>
      </trkpt>
      <trkpt lat="49.27781" lon="-0.20304">
        <ele>8.31</ele>
        <time>2015-08-01T12:30:54Z</time>
      </trkpt>
      <trkpt lat="49.27806" lon="-0.20323">
        <ele>7.83</ele>
        <time>2015-08-01T12:31:06Z</time>
      </trkpt>
      <trkpt lat="49.27836" lon="-0.20341">
        <ele>7.83</ele>
        <time>2015-08-01T12:31:18Z</time>
      </trkpt>
      <trkpt lat="49.27839" lon="-0.20341">
        <ele>8.31</ele>
        <time>2015-08-01T12:31:19Z</time>
      </trkpt>
      <trkpt lat="49.27841" lon="-0.20341">
        <ele>8.31</ele>
        <time>2015-08-01T12:31:20Z</time>
      </trkpt>
      <trkpt lat="49.27844" lon="-0.20342">
        <ele>7.83</ele>
        <time>2015-08-01T12:31:21Z</time>
      </trkpt>
      <trkpt lat="49.27847" lon="-0.20344">
        <ele>8.31</ele>
        <time>2015-08-01T12:31:22Z</time>
      </trkpt>
      <trkpt lat="49.2785" lon="-0.20347">
        <ele>8.31</ele>
        <time>2015-08-01T12:31:23Z</time>
      </trkpt>
      <trkpt lat="49.27853" lon="-0.2035">
        <ele>8.31</ele>
        <time>2015-08-01T12:31:24Z</time>
      </trkpt>
      <trkpt lat="49.27874" lon="-0.20354">
        <ele>8.31</ele>
        <time>2015-08-01T12:31:34Z</time>
      </trkpt>
      <trkpt lat="49.27888" lon="-0.20355">
        <ele>8.79</ele>
        <time>2015-08-01T12:31:48Z</time>
      </trkpt>
      <trkpt lat="49.27918" lon="-0.20363">
        <ele>10.71</ele>
        <time>2015-08-01T12:31:58Z</time>
      </trkpt>
      <trkpt lat="49.27961" lon="-0.20358">
        <ele>11.67</ele>
        <time>2015-08-01T12:32:09Z</time>
      </trkpt>
      <trkpt lat="49.2802" lon="-0.20353">
        <ele>10.71</ele>
        <time>2015-08-01T12:32:24Z</time>
      </trkpt>
      <trkpt lat="49.28064" lon="-0.20347">
        <ele>11.19</ele>
        <time>2015-08-01T12:32:35Z</time>
      </trkpt>
      <trkpt lat="49.28095" lon="-0.2034">
        <ele>10.71</ele>
        <time>2015-08-01T12:32:45Z</time>
      </trkpt>
      <trkpt lat="49.28125" lon="-0.20333">
        <ele>10.71</ele>
        <time>2015-08-01T12:32:53Z</time>
      </trkpt>
      <trkpt lat="49.28129" lon="-0.20333">
        <ele>10.71</ele>
        <time>2015-08-01T12:32:54Z</time>
      </trkpt>
      <trkpt lat="49.28178" lon="-0.20318">
        <ele>9.75</ele>
        <time>2015-08-01T12:33:07Z</time>
      </trkpt>
      <trkpt lat="49.28243" lon="-0.20297">
        <ele>10.23</ele>
        <time>2015-08-01T12:33:22Z</time>
      </trkpt>
      <trkpt lat="49.28322" lon="-0.20272">
        <ele>9.27</ele>
        <time>2015-08-01T12:33:40Z</time>
      </trkpt>
      <trkpt lat="49.28373" lon="-0.20257">
        <ele>8.79</ele>
        <time>2015-08-01T12:33:52Z</time>
      </trkpt>
      <trkpt lat="49.28415" lon="-0.20247">
        <ele>9.27</ele>
        <time>2015-08-01T12:34:04Z</time>
      </trkpt>
      <trkpt lat="49.28451" lon="-0.20229">
        <ele>9.27</ele>
        <time>2015-08-01T12:34:17Z</time>
      </trkpt>
      <trkpt lat="49.28485" lon="-0.20219">
        <ele>10.23</ele>
        <time>2015-08-01T12:34:31Z</time>
      </trkpt>
      <trkpt lat="49.28504" lon="-0.20228">
        <ele>10.23</ele>
        <time>2015-08-01T12:34:41Z</time>
      </trkpt>
      <trkpt lat="49.28505" lon="-0.20229">
        <ele>10.23</ele>
        <time>2015-08-01T12:34:54Z</time>
      </trkpt>
      <trkpt lat="49.28506" lon="-0.20229">
        <ele>10.23</ele>
        <time>2015-08-01T12:34:55Z</time>
      </trkpt>
      <trkpt lat="49.28528" lon="-0.20234">
        <ele>11.19</ele>
        <time>2015-08-01T12:35:06Z</time>
      </trkpt>
      <trkpt lat="49.2854" lon="-0.20235">
        <ele>11.19</ele>
        <time>2015-08-01T12:35:13Z</time>
      </trkpt>
      <trkpt lat="49.28542" lon="-0.20233">
        <ele>10.71</ele>
        <time>2015-08-01T12:35:15Z</time>
      </trkpt>
      <trkpt lat="49.28546" lon="-0.2023">
        <ele>11.19</ele>
        <time>2015-08-01T12:35:25Z</time>
      </trkpt>
      <trkpt lat="49.28549" lon="-0.20227">
        <ele>11.19</ele>
        <time>2015-08-01T12:35:38Z</time>
      </trkpt>
      <trkpt lat="49.28549" lon="-0.20221">
        <ele>11.19</ele>
        <time>2015-08-01T12:35:50Z</time>
      </trkpt>
      <trkpt lat="49.28547" lon="-0.20219">
        <ele>11.67</ele>
        <time>2015-08-01T12:57:27Z</time>
      </trkpt>
      <trkpt lat="49.28546" lon="-0.20218">
        <ele>10.71</ele>
        <time>2015-08-01T12:57:28Z</time>
      </trkpt>
      <trkpt lat="49.28553" lon="-0.20225">
        <ele>10.71</ele>
        <time>2015-08-01T12:57:49Z</time>
      </trkpt>
      <trkpt lat="49.28553" lon="-0.20225">
        <ele>10.71</ele>
        <time>2015-08-01T12:57:51Z</time>
      </trkpt>
      <trkpt lat="49.28559" lon="-0.20251">
        <ele>10.71</ele>
        <time>2015-08-01T12:58:02Z</time>
      </trkpt>
      <trkpt lat="49.28584" lon="-0.20257">
        <ele>11.19</ele>
        <time>2015-08-01T12:58:13Z</time>
      </trkpt>
      <trkpt lat="49.28594" lon="-0.20261">
        <ele>10.71</ele>
        <time>2015-08-01T12:58:17Z</time>
      </trkpt>
      <trkpt lat="49.286" lon="-0.20307">
        <ele>10.71</ele>
        <time>2015-08-01T12:58:29Z</time>
      </trkpt>
      <trkpt lat="49.28594" lon="-0.20351">
        <ele>10.23</ele>
        <time>2015-08-01T12:58:43Z</time>
      </trkpt>
      <trkpt lat="49.2857" lon="-0.20368">
        <ele>10.23</ele>
        <time>2015-08-01T12:58:54Z</time>
      </trkpt>
      <trkpt lat="49.28581" lon="-0.20398">
        <ele>10.23</ele>
        <time>2015-08-01T12:59:04Z</time>
      </trkpt>
      <trkpt lat="49.28592" lon="-0.20429">
        <ele>9.75</ele>
        <time>2015-08-01T12:59:10Z</time>
      </trkpt>
      <trkpt lat="49.28592" lon="-0.20435">
        <ele>10.23</ele>
        <time>2015-08-01T12:59:11Z</time>
      </trkpt>
      <trkpt lat="49.28592" lon="-0.20441">
        <ele>9.75</ele>
        <time>2015-08-01T12:59:12Z</time>
      </trkpt>
      <trkpt lat="49.28592" lon="-0.20448">
        <ele>9.75</ele>
        <time>2015-08-01T12:59:13Z</time>
      </trkpt>
      <trkpt lat="49.28591" lon="-0.20454">
        <ele>10.23</ele>
        <time>2015-08-01T12:59:14Z</time>
      </trkpt>
      <trkpt lat="49.2859" lon="-0.20459">
        <ele>9.75</ele>
        <time>2015-08-01T12:59:15Z</time>
      </trkpt>
      <trkpt lat="49.28575" lon="-0.20519">
        <ele>9.75</ele>
        <time>2015-08-01T12:59:28Z</time>
      </trkpt>
      <trkpt lat="49.28564" lon="-0.20588">
        <ele>9.75</ele>
        <time>2015-08-01T12:59:44Z</time>
      </trkpt>
      <trkpt lat="49.28565" lon="-0.20636">
        <ele>10.23</ele>
        <time>2015-08-01T12:59:54Z</time>
      </trkpt>
      <trkpt lat="49.28553" lon="-0.20688">
        <ele>10.23</ele>
        <time>2015-08-01T13:00:04Z</time>
      </trkpt>
      <trkpt lat="49.28534" lon="-0.20713">
        <ele>9.27</ele>
        <time>2015-08-01T13:00:11Z</time>
      </trkpt>
      <trkpt lat="49.28533" lon="-0.20718">
        <ele>9.27</ele>
        <time>2015-08-01T13:00:12Z</time>
      </trkpt>
      <trkpt lat="49.28533" lon="-0.20723">
        <ele>9.27</ele>
        <time>2015-08-01T13:00:13Z</time>
      </trkpt>
      <trkpt lat="49.28532" lon="-0.20736">
        <ele>9.27</ele>
        <time>2015-08-01T13:00:16Z</time>
      </trkpt>
      <trkpt lat="49.28531" lon="-0.20738">
        <ele>8.79</ele>
        <time>2015-08-01T13:00:17Z</time>
      </trkpt>
      <trkpt lat="49.28528" lon="-0.20739">
        <ele>8.79</ele>
        <time>2015-08-01T13:00:18Z</time>
      </trkpt>
      <trkpt lat="49.28513" lon="-0.20736">
        <ele>8.79</ele>
        <time>2015-08-01T13:00:24Z</time>
      </trkpt>
      <trkpt lat="49.28512" lon="-0.20738">
        <ele>8.31</ele>
        <time>2015-08-01T13:00:25Z</time>
      </trkpt>
      <trkpt lat="49.28512" lon="-0.2074">
        <ele>8.79</ele>
        <time>2015-08-01T13:00:26Z</time>
      </trkpt>
      <trkpt lat="49.28512" lon="-0.20744">
        <ele>8.31</ele>
        <time>2015-08-01T13:00:27Z</time>
      </trkpt>
      <trkpt lat="49.28512" lon="-0.20747">
        <ele>8.79</ele>
        <time>2015-08-01T13:00:28Z</time>
      </trkpt>
      <trkpt lat="49.28511" lon="-0.20752">
        <ele>8.31</ele>
        <time>2015-08-01T13:00:29Z</time>
      </trkpt>
      <trkpt lat="49.2851" lon="-0.20757">
        <ele>8.31</ele>
        <time>2015-08-01T13:00:30Z</time>
      </trkpt>
      <trkpt lat="49.28505" lon="-0.20815">
        <ele>8.31</ele>
        <time>2015-08-01T13:00:40Z</time>
      </trkpt>
      <trkpt lat="49.28504" lon="-0.20821">
        <ele>8.31</ele>
        <time>2015-08-01T13:00:41Z</time>
      </trkpt>
      <trkpt lat="49.28504" lon="-0.20828">
        <ele>8.79</ele>
        <time>2015-08-01T13:00:42Z</time>
      </trkpt>
      <trkpt lat="49.28499" lon="-0.20881">
        <ele>8.31</ele>
        <time>2015-08-01T13:00:51Z</time>
      </trkpt>
      <trkpt lat="49.28491" lon="-0.20947">
        <ele>7.83</ele>
        <time>2015-08-01T13:01:02Z</time>
      </trkpt>
      <trkpt lat="49.2849" lon="-0.20955">
        <ele>8.31</ele>
        <time>2015-08-01T13:01:03Z</time>
      </trkpt>
      <trkpt lat="49.2849" lon="-0.20961">
        <ele>8.31</ele>
        <time>2015-08-01T13:01:04Z</time>
      </trkpt>
      <trkpt lat="49.28483" lon="-0.21034">
        <ele>8.31</ele>
        <time>2015-08-01T13:01:16Z</time>
      </trkpt>
      <trkpt lat="49.28479" lon="-0.21099">
        <ele>8.31</ele>
        <time>2015-08-01T13:01:26Z</time>
      </trkpt>
      <trkpt lat="49.28479" lon="-0.21105">
        <ele>8.31</ele>
        <time>2015-08-01T13:01:27Z</time>
      </trkpt>
      <trkpt lat="49.28478" lon="-0.21112">
        <ele>8.31</ele>
        <time>2015-08-01T13:01:28Z</time>
      </trkpt>
      <trkpt lat="49.28477" lon="-0.21118">
        <ele>8.31</ele>
        <time>2015-08-01T13:01:29Z</time>
      </trkpt>
      <trkpt lat="49.28477" lon="-0.21125">
        <ele>8.31</ele>
        <time>2015-08-01T13:01:30Z</time>
      </trkpt>
      <trkpt lat="49.28476" lon="-0.21132">
        <ele>7.83</ele>
        <time>2015-08-01T13:01:31Z</time>
      </trkpt>
      <trkpt lat="49.28468" lon="-0.21192">
        <ele>7.83</ele>
        <time>2015-08-01T13:01:41Z</time>
      </trkpt>
      <trkpt lat="49.28466" lon="-0.21201">
        <ele>7.83</ele>
        <time>2015-08-01T13:01:44Z</time>
      </trkpt>
      <trkpt lat="49.28467" lon="-0.21203">
        <ele>7.83</ele>
        <time>2015-08-01T13:01:45Z</time>
      </trkpt>
      <trkpt lat="49.28468" lon="-0.21204">
        <ele>8.31</ele>
        <time>2015-08-01T13:01:46Z</time>
      </trkpt>
      <trkpt lat="49.28469" lon="-0.21205">
        <ele>7.83</ele>
        <time>2015-08-01T13:01:47Z</time>
      </trkpt>
      <trkpt lat="49.2847" lon="-0.21206">
        <ele>7.83</ele>
        <time>2015-08-01T13:01:48Z</time>
      </trkpt>
      <trkpt lat="49.28471" lon="-0.21206">
        <ele>7.83</ele>
        <time>2015-08-01T13:01:49Z</time>
      </trkpt>
      <trkpt lat="49.28471" lon="-0.21205">
        <ele>7.83</ele>
        <time>2015-08-01T13:01:50Z</time>
      </trkpt>
      <trkpt lat="49.28471" lon="-0.21204">
        <ele>7.83</ele>
        <time>2015-08-01T13:01:51Z</time>
      </trkpt>
      <trkpt lat="49.28468" lon="-0.21204">
        <ele>7.83</ele>
        <time>2015-08-01T13:01:52Z</time>
      </trkpt>
      <trkpt lat="49.28462" lon="-0.21222">
        <ele>7.83</ele>
        <time>2015-08-01T13:01:57Z</time>
      </trkpt>
      <trkpt lat="49.28457" lon="-0.21249">
        <ele>7.83</ele>
        <time>2015-08-01T13:02:05Z</time>
      </trkpt>
      <trkpt lat="49.28455" lon="-0.21302">
        <ele>8.31</ele>
        <time>2015-08-01T13:02:16Z</time>
      </trkpt>
      <trkpt lat="49.28444" lon="-0.21333">
        <ele>7.35</ele>
        <time>2015-08-01T13:02:24Z</time>
      </trkpt>
      <trkpt lat="49.28442" lon="-0.2133">
        <ele>7.83</ele>
        <time>2015-08-01T13:02:29Z</time>
      </trkpt>
      <trkpt lat="49.28458" lon="-0.21277">
        <ele>8.31</ele>
        <time>2015-08-01T13:02:41Z</time>
      </trkpt>
      <trkpt lat="49.2846" lon="-0.21216">
        <ele>7.83</ele>
        <time>2015-08-01T13:02:53Z</time>
      </trkpt>
      <trkpt lat="49.28464" lon="-0.21209">
        <ele>7.35</ele>
        <time>2015-08-01T13:02:55Z</time>
      </trkpt>
      <trkpt lat="49.28502" lon="-0.21224">
        <ele>8.31</ele>
        <time>2015-08-01T13:03:06Z</time>
      </trkpt>
      <trkpt lat="49.28543" lon="-0.2125">
        <ele>8.31</ele>
        <time>2015-08-01T13:03:19Z</time>
      </trkpt>
      <trkpt lat="49.28571" lon="-0.21249">
        <ele>9.75</ele>
        <time>2015-08-01T13:03:30Z</time>
      </trkpt>
      <trkpt lat="49.28573" lon="-0.2125">
        <ele>9.27</ele>
        <time>2015-08-01T13:03:36Z</time>
      </trkpt>
      <trkpt lat="49.28563" lon="-0.21253">
        <ele>9.27</ele>
        <time>2015-08-01T13:03:47Z</time>
      </trkpt>
      <trkpt lat="49.28558" lon="-0.21253">
        <ele>9.27</ele>
        <time>2015-08-01T13:03:54Z</time>
      </trkpt>
      <trkpt lat="49.28549" lon="-0.21254">
        <ele>8.31</ele>
        <time>2015-08-01T13:04:00Z</time>
      </trkpt>
      <trkpt lat="49.28506" lon="-0.2123">
        <ele>7.83</ele>
        <time>2015-08-01T13:04:13Z</time>
      </trkpt>
      <trkpt lat="49.28496" lon="-0.21226">
        <ele>8.31</ele>
        <time>2015-08-01T13:04:15Z</time>
      </trkpt>
      <trkpt lat="49.28492" lon="-0.21223">
        <ele>7.83</ele>
        <time>2015-08-01T13:04:16Z</time>
      </trkpt>
      <trkpt lat="49.28488" lon="-0.2122">
        <ele>8.31</ele>
        <time>2015-08-01T13:04:17Z</time>
      </trkpt>
      <trkpt lat="49.28464" lon="-0.21211">
        <ele>7.35</ele>
        <time>2015-08-01T13:04:23Z</time>
      </trkpt>
      <trkpt lat="49.28462" lon="-0.21214">
        <ele>7.35</ele>
        <time>2015-08-01T13:04:24Z</time>
      </trkpt>
      <trkpt lat="49.28461" lon="-0.21218">
        <ele>7.35</ele>
        <time>2015-08-01T13:04:25Z</time>
      </trkpt>
      <trkpt lat="49.2846" lon="-0.21223">
        <ele>7.35</ele>
        <time>2015-08-01T13:04:26Z</time>
      </trkpt>
      <trkpt lat="49.28459" lon="-0.21228">
        <ele>7.35</ele>
        <time>2015-08-01T13:04:27Z</time>
      </trkpt>
      <trkpt lat="49.28455" lon="-0.21296">
        <ele>8.31</ele>
        <time>2015-08-01T13:04:39Z</time>
      </trkpt>
      <trkpt lat="49.28442" lon="-0.21335">
        <ele>7.35</ele>
        <time>2015-08-01T13:04:46Z</time>
      </trkpt>
      <trkpt lat="49.2844" lon="-0.21342">
        <ele>7.35</ele>
        <time>2015-08-01T13:04:47Z</time>
      </trkpt>
      <trkpt lat="49.28441" lon="-0.21349">
        <ele>7.83</ele>
        <time>2015-08-01T13:04:48Z</time>
      </trkpt>
      <trkpt lat="49.28442" lon="-0.21363">
        <ele>7.83</ele>
        <time>2015-08-01T13:04:50Z</time>
      </trkpt>
      <trkpt lat="49.28442" lon="-0.2137">
        <ele>7.83</ele>
        <time>2015-08-01T13:04:51Z</time>
      </trkpt>
      <trkpt lat="49.28441" lon="-0.21377">
        <ele>7.83</ele>
        <time>2015-08-01T13:04:52Z</time>
      </trkpt>
      <trkpt lat="49.28419" lon="-0.2149">
        <ele>7.35</ele>
        <time>2015-08-01T13:05:08Z</time>
      </trkpt>
      <trkpt lat="49.28416" lon="-0.21503">
        <ele>7.35</ele>
        <time>2015-08-01T13:05:10Z</time>
      </trkpt>
      <trkpt lat="49.2841" lon="-0.21545">
        <ele>7.83</ele>
        <time>2015-08-01T13:05:16Z</time>
      </trkpt>
      <trkpt lat="49.28409" lon="-0.21552">
        <ele>7.83</ele>
        <time>2015-08-01T13:05:17Z</time>
      </trkpt>
      <trkpt lat="49.28409" lon="-0.21559">
        <ele>8.31</ele>
        <time>2015-08-01T13:05:18Z</time>
      </trkpt>
      <trkpt lat="49.28409" lon="-0.21566">
        <ele>7.35</ele>
        <time>2015-08-01T13:05:19Z</time>
      </trkpt>
      <trkpt lat="49.28409" lon="-0.21573">
        <ele>8.31</ele>
        <time>2015-08-01T13:05:20Z</time>
      </trkpt>
      <trkpt lat="49.28408" lon="-0.2158">
        <ele>8.31</ele>
        <time>2015-08-01T13:05:21Z</time>
      </trkpt>
      <trkpt lat="49.28407" lon="-0.21586">
        <ele>8.31</ele>
        <time>2015-08-01T13:05:22Z</time>
      </trkpt>
      <trkpt lat="49.28403" lon="-0.21599">
        <ele>8.79</ele>
        <time>2015-08-01T13:05:24Z</time>
      </trkpt>
      <trkpt lat="49.28401" lon="-0.21605">
        <ele>8.31</ele>
        <time>2015-08-01T13:05:25Z</time>
      </trkpt>
      <trkpt lat="49.28399" lon="-0.21612">
        <ele>8.31</ele>
        <time>2015-08-01T13:05:26Z</time>
      </trkpt>
      <trkpt lat="49.28397" lon="-0.21618">
        <ele>8.31</ele>
        <time>2015-08-01T13:05:27Z</time>
      </trkpt>
      <trkpt lat="49.28395" lon="-0.21625">
        <ele>8.31</ele>
        <time>2015-08-01T13:05:28Z</time>
      </trkpt>
      <trkpt lat="49.28394" lon="-0.21631">
        <ele>8.79</ele>
        <time>2015-08-01T13:05:29Z</time>
      </trkpt>
      <trkpt lat="49.28393" lon="-0.21638">
        <ele>8.79</ele>
        <time>2015-08-01T13:05:30Z</time>
      </trkpt>
      <trkpt lat="49.28392" lon="-0.21644">
        <ele>8.79</ele>
        <time>2015-08-01T13:05:31Z</time>
      </trkpt>
      <trkpt lat="49.28392" lon="-0.21651">
        <ele>9.27</ele>
        <time>2015-08-01T13:05:32Z</time>
      </trkpt>
      <trkpt lat="49.28391" lon="-0.21658">
        <ele>8.79</ele>
        <time>2015-08-01T13:05:33Z</time>
      </trkpt>
      <trkpt lat="49.28392" lon="-0.21666">
        <ele>8.79</ele>
        <time>2015-08-01T13:05:34Z</time>
      </trkpt>
      <trkpt lat="49.28393" lon="-0.21673">
        <ele>8.79</ele>
        <time>2015-08-01T13:05:35Z</time>
      </trkpt>
      <trkpt lat="49.28394" lon="-0.2168">
        <ele>8.31</ele>
        <time>2015-08-01T13:05:36Z</time>
      </trkpt>
      <trkpt lat="49.28395" lon="-0.21688">
        <ele>8.79</ele>
        <time>2015-08-01T13:05:37Z</time>
      </trkpt>
      <trkpt lat="49.28396" lon="-0.21696">
        <ele>8.31</ele>
        <time>2015-08-01T13:05:38Z</time>
      </trkpt>
      <trkpt lat="49.28396" lon="-0.21704">
        <ele>7.83</ele>
        <time>2015-08-01T13:05:39Z</time>
      </trkpt>
      <trkpt lat="49.28393" lon="-0.21726">
        <ele>8.31</ele>
        <time>2015-08-01T13:05:42Z</time>
      </trkpt>
      <trkpt lat="49.28393" lon="-0.21733">
        <ele>8.79</ele>
        <time>2015-08-01T13:05:43Z</time>
      </trkpt>
      <trkpt lat="49.28396" lon="-0.21753">
        <ele>8.79</ele>
        <time>2015-08-01T13:05:46Z</time>
      </trkpt>
      <trkpt lat="49.28396" lon="-0.21759">
        <ele>8.31</ele>
        <time>2015-08-01T13:05:47Z</time>
      </trkpt>
      <trkpt lat="49.28394" lon="-0.21766">
        <ele>7.83</ele>
        <time>2015-08-01T13:05:48Z</time>
      </trkpt>
      <trkpt lat="49.28392" lon="-0.21774">
        <ele>7.83</ele>
        <time>2015-08-01T13:05:49Z</time>
      </trkpt>
      <trkpt lat="49.28389" lon="-0.2178">
        <ele>7.35</ele>
        <time>2015-08-01T13:05:50Z</time>
      </trkpt>
      <trkpt lat="49.28386" lon="-0.21786">
        <ele>7.83</ele>
        <time>2015-08-01T13:05:51Z</time>
      </trkpt>
      <trkpt lat="49.28383" lon="-0.21793">
        <ele>7.35</ele>
        <time>2015-08-01T13:05:52Z</time>
      </trkpt>
      <trkpt lat="49.2838" lon="-0.218">
        <ele>7.35</ele>
        <time>2015-08-01T13:05:53Z</time>
      </trkpt>
      <trkpt lat="49.28377" lon="-0.21806">
        <ele>7.35</ele>
        <time>2015-08-01T13:05:54Z</time>
      </trkpt>
      <trkpt lat="49.28375" lon="-0.21813">
        <ele>7.35</ele>
        <time>2015-08-01T13:05:55Z</time>
      </trkpt>
      <trkpt lat="49.28374" lon="-0.21821">
        <ele>7.35</ele>
        <time>2015-08-01T13:05:56Z</time>
      </trkpt>
      <trkpt lat="49.28374" lon="-0.21828">
        <ele>7.83</ele>
        <time>2015-08-01T13:05:57Z</time>
      </trkpt>
      <trkpt lat="49.28374" lon="-0.21836">
        <ele>7.35</ele>
        <time>2015-08-01T13:05:58Z</time>
      </trkpt>
      <trkpt lat="49.28373" lon="-0.21865">
        <ele>7.83</ele>
        <time>2015-08-01T13:06:02Z</time>
      </trkpt>
      <trkpt lat="49.28372" lon="-0.21872">
        <ele>7.35</ele>
        <time>2015-08-01T13:06:03Z</time>
      </trkpt>
      <trkpt lat="49.28369" lon="-0.21877">
        <ele>7.83</ele>
        <time>2015-08-01T13:06:04Z</time>
      </trkpt>
      <trkpt lat="49.28367" lon="-0.21882">
        <ele>7.35</ele>
        <time>2015-08-01T13:06:05Z</time>
      </trkpt>
      <trkpt lat="49.28363" lon="-0.21886">
        <ele>7.83</ele>
        <time>2015-08-01T13:06:06Z</time>
      </trkpt>
      <trkpt lat="49.28317" lon="-0.21929">
        <ele>10.23</ele>
        <time>2015-08-01T13:06:20Z</time>
      </trkpt>
      <trkpt lat="49.28302" lon="-0.2196">
        <ele>10.23</ele>
        <time>2015-08-01T13:06:27Z</time>
      </trkpt>
      <trkpt lat="49.28299" lon="-0.21964">
        <ele>9.75</ele>
        <time>2015-08-01T13:06:28Z</time>
      </trkpt>
      <trkpt lat="49.28296" lon="-0.21967">
        <ele>8.79</ele>
        <time>2015-08-01T13:06:29Z</time>
      </trkpt>
      <trkpt lat="49.28293" lon="-0.21969">
        <ele>8.79</ele>
        <time>2015-08-01T13:06:30Z</time>
      </trkpt>
      <trkpt lat="49.2829" lon="-0.2197">
        <ele>8.79</ele>
        <time>2015-08-01T13:06:31Z</time>
      </trkpt>
      <trkpt lat="49.28287" lon="-0.21971">
        <ele>8.31</ele>
        <time>2015-08-01T13:06:32Z</time>
      </trkpt>
      <trkpt lat="49.28283" lon="-0.21971">
        <ele>8.31</ele>
        <time>2015-08-01T13:06:33Z</time>
      </trkpt>
      <trkpt lat="49.28279" lon="-0.21968">
        <ele>8.31</ele>
        <time>2015-08-01T13:06:34Z</time>
      </trkpt>
      <trkpt lat="49.28276" lon="-0.21965">
        <ele>7.83</ele>
        <time>2015-08-01T13:06:35Z</time>
      </trkpt>
      <trkpt lat="49.28272" lon="-0.21961">
        <ele>7.83</ele>
        <time>2015-08-01T13:06:36Z</time>
      </trkpt>
      <trkpt lat="49.28268" lon="-0.21957">
        <ele>7.35</ele>
        <time>2015-08-01T13:06:37Z</time>
      </trkpt>
      <trkpt lat="49.28264" lon="-0.21954">
        <ele>7.35</ele>
        <time>2015-08-01T13:06:38Z</time>
      </trkpt>
      <trkpt lat="49.28259" lon="-0.21954">
        <ele>7.35</ele>
        <time>2015-08-01T13:06:39Z</time>
      </trkpt>
      <trkpt lat="49.28254" lon="-0.21955">
        <ele>6.87</ele>
        <time>2015-08-01T13:06:40Z</time>
      </trkpt>
      <trkpt lat="49.2825" lon="-0.21956">
        <ele>7.35</ele>
        <time>2015-08-01T13:06:41Z</time>
      </trkpt>
      <trkpt lat="49.28236" lon="-0.21959">
        <ele>7.35</ele>
        <time>2015-08-01T13:06:44Z</time>
      </trkpt>
      <trkpt lat="49.28204" lon="-0.21977">
        <ele>6.87</ele>
        <time>2015-08-01T13:06:52Z</time>
      </trkpt>
      <trkpt lat="49.28188" lon="-0.21991">
        <ele>5.42</ele>
        <time>2015-08-01T13:07:01Z</time>
      </trkpt>
      <trkpt lat="49.28188" lon="-0.21993">
        <ele>5.91</ele>
        <time>2015-08-01T13:07:13Z</time>
      </trkpt>
      <trkpt lat="49.28188" lon="-0.21995">
        <ele>5.42</ele>
        <time>2015-08-01T13:07:14Z</time>
      </trkpt>
      <trkpt lat="49.28189" lon="-0.21999">
        <ele>5.91</ele>
        <time>2015-08-01T13:07:16Z</time>
      </trkpt>
      <trkpt lat="49.28191" lon="-0.22001">
        <ele>5.42</ele>
        <time>2015-08-01T13:07:17Z</time>
      </trkpt>
      <trkpt lat="49.28193" lon="-0.22003">
        <ele>5.91</ele>
        <time>2015-08-01T13:07:18Z</time>
      </trkpt>
      <trkpt lat="49.28195" lon="-0.22006">
        <ele>5.91</ele>
        <time>2015-08-01T13:07:19Z</time>
      </trkpt>
      <trkpt lat="49.28197" lon="-0.2201">
        <ele>5.91</ele>
        <time>2015-08-01T13:07:20Z</time>
      </trkpt>
      <trkpt lat="49.28199" lon="-0.22013">
        <ele>5.91</ele>
        <time>2015-08-01T13:07:21Z</time>
      </trkpt>
      <trkpt lat="49.28201" lon="-0.22017">
        <ele>5.91</ele>
        <time>2015-08-01T13:07:22Z</time>
      </trkpt>
      <trkpt lat="49.28203" lon="-0.22021">
        <ele>5.91</ele>
        <time>2015-08-01T13:07:23Z</time>
      </trkpt>
      <trkpt lat="49.28204" lon="-0.22026">
        <ele>5.91</ele>
        <time>2015-08-01T13:07:24Z</time>
      </trkpt>
      <trkpt lat="49.28214" lon="-0.2209">
        <ele>6.87</ele>
        <time>2015-08-01T13:07:38Z</time>
      </trkpt>
      <trkpt lat="49.28204" lon="-0.22153">
        <ele>6.87</ele>
        <time>2015-08-01T13:07:51Z</time>
      </trkpt>
      <trkpt lat="49.28206" lon="-0.22157">
        <ele>6.39</ele>
        <time>2015-08-01T13:07:52Z</time>
      </trkpt>
      <trkpt lat="49.28209" lon="-0.2216">
        <ele>6.39</ele>
        <time>2015-08-01T13:07:53Z</time>
      </trkpt>
      <trkpt lat="49.28242" lon="-0.22207">
        <ele>6.39</ele>
        <time>2015-08-01T13:08:08Z</time>
      </trkpt>
      <trkpt lat="49.28244" lon="-0.22206">
        <ele>6.39</ele>
        <time>2015-08-01T13:08:09Z</time>
      </trkpt>
      <trkpt lat="49.28246" lon="-0.22205">
        <ele>6.39</ele>
        <time>2015-08-01T13:08:10Z</time>
      </trkpt>
      <trkpt lat="49.28248" lon="-0.22204">
        <ele>5.91</ele>
        <time>2015-08-01T13:08:11Z</time>
      </trkpt>
      <trkpt lat="49.28251" lon="-0.22204">
        <ele>6.39</ele>
        <time>2015-08-01T13:08:12Z</time>
      </trkpt>
      <trkpt lat="49.28253" lon="-0.22206">
        <ele>6.39</ele>
        <time>2015-08-01T13:08:13Z</time>
      </trkpt>
      <trkpt lat="49.28254" lon="-0.22208">
        <ele>6.39</ele>
        <time>2015-08-01T13:08:14Z</time>
      </trkpt>
      <trkpt lat="49.28254" lon="-0.2221">
        <ele>6.39</ele>
        <time>2015-08-01T13:08:15Z</time>
      </trkpt>
      <trkpt lat="49.28255" lon="-0.22212">
        <ele>5.42</ele>
        <time>2015-08-01T13:08:16Z</time>
      </trkpt>
      <trkpt lat="49.28256" lon="-0.22215">
        <ele>5.91</ele>
        <time>2015-08-01T13:08:17Z</time>
      </trkpt>
      <trkpt lat="49.28257" lon="-0.22219">
        <ele>5.91</ele>
        <time>2015-08-01T13:08:18Z</time>
      </trkpt>
      <trkpt lat="49.28257" lon="-0.22222">
        <ele>5.91</ele>
        <time>2015-08-01T13:08:19Z</time>
      </trkpt>
      <trkpt lat="49.28257" lon="-0.22226">
        <ele>5.91</ele>
        <time>2015-08-01T13:08:20Z</time>
      </trkpt>
      <trkpt lat="49.28258" lon="-0.22231">
        <ele>5.91</ele>
        <time>2015-08-01T13:08:21Z</time>
      </trkpt>
      <trkpt lat="49.28258" lon="-0.22235">
        <ele>6.39</ele>
        <time>2015-08-01T13:08:22Z</time>
      </trkpt>
      <trkpt lat="49.28279" lon="-0.22278">
        <ele>5.42</ele>
        <time>2015-08-01T13:08:33Z</time>
      </trkpt>
      <trkpt lat="49.28299" lon="-0.223">
        <ele>4.46</ele>
        <time>2015-08-01T13:08:44Z</time>
      </trkpt>
      <trkpt lat="49.28301" lon="-0.22306">
        <ele>4.94</ele>
        <time>2015-08-01T13:08:47Z</time>
      </trkpt>
      <trkpt lat="49.28301" lon="-0.22307">
        <ele>4.46</ele>
        <time>2015-08-01T13:08:59Z</time>
      </trkpt>
      <trkpt lat="49.28302" lon="-0.22308">
        <ele>4.46</ele>
        <time>2015-08-01T13:09:35Z</time>
      </trkpt>
      <trkpt lat="49.28302" lon="-0.22307">
        <ele>4.94</ele>
        <time>2015-08-01T13:10:12Z</time>
      </trkpt>
      <trkpt lat="49.28303" lon="-0.22302">
        <ele>4.94</ele>
        <time>2015-08-01T13:10:28Z</time>
      </trkpt>
      <trkpt lat="49.28302" lon="-0.223">
        <ele>4.94</ele>
        <time>2015-08-01T13:10:29Z</time>
      </trkpt>
      <trkpt lat="49.28296" lon="-0.22294">
        <ele>4.94</ele>
        <time>2015-08-01T13:10:33Z</time>
      </trkpt>
      <trkpt lat="49.28284" lon="-0.22291">
        <ele>5.42</ele>
        <time>2015-08-01T13:10:37Z</time>
      </trkpt>
      <trkpt lat="49.28281" lon="-0.22288">
        <ele>5.42</ele>
        <time>2015-08-01T13:10:38Z</time>
      </trkpt>
      <trkpt lat="49.28279" lon="-0.22284">
        <ele>5.91</ele>
        <time>2015-08-01T13:10:39Z</time>
      </trkpt>
      <trkpt lat="49.28262" lon="-0.22244">
        <ele>6.39</ele>
        <time>2015-08-01T13:10:51Z</time>
      </trkpt>
      <trkpt lat="49.28252" lon="-0.22203">
        <ele>6.87</ele>
        <time>2015-08-01T13:11:02Z</time>
      </trkpt>
      <trkpt lat="49.28229" lon="-0.22161">
        <ele>6.87</ele>
        <time>2015-08-01T13:11:15Z</time>
      </trkpt>
      <trkpt lat="49.28222" lon="-0.22153">
        <ele>6.39</ele>
        <time>2015-08-01T13:11:19Z</time>
      </trkpt>
      <trkpt lat="49.2822" lon="-0.22154">
        <ele>6.39</ele>
        <time>2015-08-01T13:11:20Z</time>
      </trkpt>
      <trkpt lat="49.28217" lon="-0.22157">
        <ele>6.39</ele>
        <time>2015-08-01T13:11:21Z</time>
      </trkpt>
      <trkpt lat="49.28215" lon="-0.2216">
        <ele>6.39</ele>
        <time>2015-08-01T13:11:22Z</time>
      </trkpt>
      <trkpt lat="49.28212" lon="-0.22161">
        <ele>6.39</ele>
        <time>2015-08-01T13:11:23Z</time>
      </trkpt>
      <trkpt lat="49.28209" lon="-0.22159">
        <ele>6.87</ele>
        <time>2015-08-01T13:11:24Z</time>
      </trkpt>
      <trkpt lat="49.28207" lon="-0.22156">
        <ele>6.87</ele>
        <time>2015-08-01T13:11:25Z</time>
      </trkpt>
      <trkpt lat="49.28205" lon="-0.22152">
        <ele>6.87</ele>
        <time>2015-08-01T13:11:26Z</time>
      </trkpt>
      <trkpt lat="49.28203" lon="-0.22148">
        <ele>6.39</ele>
        <time>2015-08-01T13:11:27Z</time>
      </trkpt>
      <trkpt lat="49.282" lon="-0.22145">
        <ele>6.39</ele>
        <time>2015-08-01T13:11:28Z</time>
      </trkpt>
      <trkpt lat="49.28197" lon="-0.22142">
        <ele>6.87</ele>
        <time>2015-08-01T13:11:29Z</time>
      </trkpt>
      <trkpt lat="49.28194" lon="-0.2214">
        <ele>6.39</ele>
        <time>2015-08-01T13:11:30Z</time>
      </trkpt>
      <trkpt lat="49.28183" lon="-0.2213">
        <ele>6.87</ele>
        <time>2015-08-01T13:11:34Z</time>
      </trkpt>
      <trkpt lat="49.28182" lon="-0.22125">
        <ele>6.87</ele>
        <time>2015-08-01T13:11:35Z</time>
      </trkpt>
      <trkpt lat="49.28182" lon="-0.2212">
        <ele>6.87</ele>
        <time>2015-08-01T13:11:36Z</time>
      </trkpt>
      <trkpt lat="49.28183" lon="-0.22115">
        <ele>6.39</ele>
        <time>2015-08-01T13:11:37Z</time>
      </trkpt>
      <trkpt lat="49.28184" lon="-0.22109">
        <ele>6.87</ele>
        <time>2015-08-01T13:11:38Z</time>
      </trkpt>
      <trkpt lat="49.28208" lon="-0.22052">
        <ele>6.87</ele>
        <time>2015-08-01T13:11:51Z</time>
      </trkpt>
      <trkpt lat="49.2821" lon="-0.22042">
        <ele>6.39</ele>
        <time>2015-08-01T13:11:53Z</time>
      </trkpt>
      <trkpt lat="49.28209" lon="-0.22037">
        <ele>6.39</ele>
        <time>2015-08-01T13:11:54Z</time>
      </trkpt>
      <trkpt lat="49.28208" lon="-0.22031">
        <ele>6.39</ele>
        <time>2015-08-01T13:11:55Z</time>
      </trkpt>
      <trkpt lat="49.28205" lon="-0.22026">
        <ele>6.39</ele>
        <time>2015-08-01T13:11:56Z</time>
      </trkpt>
      <trkpt lat="49.28203" lon="-0.22021">
        <ele>6.87</ele>
        <time>2015-08-01T13:11:57Z</time>
      </trkpt>
      <trkpt lat="49.282" lon="-0.22016">
        <ele>6.39</ele>
        <time>2015-08-01T13:11:58Z</time>
      </trkpt>
      <trkpt lat="49.28187" lon="-0.22">
        <ele>5.91</ele>
        <time>2015-08-01T13:12:03Z</time>
      </trkpt>
      <trkpt lat="49.28184" lon="-0.22002">
        <ele>5.42</ele>
        <time>2015-08-01T13:12:04Z</time>
      </trkpt>
      <trkpt lat="49.28182" lon="-0.22006">
        <ele>5.42</ele>
        <time>2015-08-01T13:12:05Z</time>
      </trkpt>
      <trkpt lat="49.28181" lon="-0.22011">
        <ele>5.42</ele>
        <time>2015-08-01T13:12:06Z</time>
      </trkpt>
      <trkpt lat="49.2818" lon="-0.22016">
        <ele>5.42</ele>
        <time>2015-08-01T13:12:07Z</time>
      </trkpt>
      <trkpt lat="49.28179" lon="-0.22022">
        <ele>5.42</ele>
        <time>2015-08-01T13:12:08Z</time>
      </trkpt>
      <trkpt lat="49.28165" lon="-0.22109">
        <ele>6.87</ele>
        <time>2015-08-01T13:12:23Z</time>
      </trkpt>
      <trkpt lat="49.2817" lon="-0.22199">
        <ele>6.87</ele>
        <time>2015-08-01T13:12:38Z</time>
      </trkpt>
      <trkpt lat="49.28175" lon="-0.22247">
        <ele>6.87</ele>
        <time>2015-08-01T13:12:45Z</time>
      </trkpt>
      <trkpt lat="49.28175" lon="-0.22254">
        <ele>7.35</ele>
        <time>2015-08-01T13:12:46Z</time>
      </trkpt>
      <trkpt lat="49.28174" lon="-0.22261">
        <ele>6.87</ele>
        <time>2015-08-01T13:12:47Z</time>
      </trkpt>
      <trkpt lat="49.28172" lon="-0.22268">
        <ele>6.87</ele>
        <time>2015-08-01T13:12:48Z</time>
      </trkpt>
      <trkpt lat="49.2817" lon="-0.22275">
        <ele>6.39</ele>
        <time>2015-08-01T13:12:49Z</time>
      </trkpt>
      <trkpt lat="49.28167" lon="-0.22283">
        <ele>6.39</ele>
        <time>2015-08-01T13:12:50Z</time>
      </trkpt>
      <trkpt lat="49.28163" lon="-0.22289">
        <ele>5.91</ele>
        <time>2015-08-01T13:12:51Z</time>
      </trkpt>
      <trkpt lat="49.28103" lon="-0.22399">
        <ele>6.39</ele>
        <time>2015-08-01T13:13:09Z</time>
      </trkpt>
      <trkpt lat="49.28063" lon="-0.2247">
        <ele>6.39</ele>
        <time>2015-08-01T13:13:23Z</time>
      </trkpt>
      <trkpt lat="49.28057" lon="-0.22495">
        <ele>6.87</ele>
        <time>2015-08-01T13:13:29Z</time>
      </trkpt>
      <trkpt lat="49.28059" lon="-0.22497">
        <ele>7.35</ele>
        <time>2015-08-01T13:13:30Z</time>
      </trkpt>
      <trkpt lat="49.28059" lon="-0.225">
        <ele>7.35</ele>
        <time>2015-08-01T13:13:31Z</time>
      </trkpt>
      <trkpt lat="49.28059" lon="-0.22504">
        <ele>7.35</ele>
        <time>2015-08-01T13:13:32Z</time>
      </trkpt>
      <trkpt lat="49.28059" lon="-0.22507">
        <ele>6.87</ele>
        <time>2015-08-01T13:13:33Z</time>
      </trkpt>
      <trkpt lat="49.28056" lon="-0.22518">
        <ele>6.87</ele>
        <time>2015-08-01T13:13:36Z</time>
      </trkpt>
      <trkpt lat="49.28053" lon="-0.22519">
        <ele>6.87</ele>
        <time>2015-08-01T13:13:37Z</time>
      </trkpt>
      <trkpt lat="49.28051" lon="-0.2252">
        <ele>6.87</ele>
        <time>2015-08-01T13:13:38Z</time>
      </trkpt>
      <trkpt lat="49.28049" lon="-0.2252">
        <ele>6.87</ele>
        <time>2015-08-01T13:13:39Z</time>
      </trkpt>
      <trkpt lat="49.28048" lon="-0.22521">
        <ele>6.39</ele>
        <time>2015-08-01T13:13:40Z</time>
      </trkpt>
      <trkpt lat="49.28046" lon="-0.22519">
        <ele>6.87</ele>
        <time>2015-08-01T13:13:53Z</time>
      </trkpt>
      <trkpt lat="49.28047" lon="-0.22518">
        <ele>6.87</ele>
        <time>2015-08-01T13:14:23Z</time>
      </trkpt>
      <trkpt lat="49.28047" lon="-0.22518">
        <ele>6.87</ele>
        <time>2015-08-01T13:14:52Z</time>
      </trkpt>
      <trkpt lat="49.28046" lon="-0.22518">
        <ele>10.23</ele>
        <time>2015-08-01T13:15:10Z</time>
      </trkpt>
      <trkpt lat="49.28046" lon="-0.22518">
        <ele>7.35</ele>
        <time>2015-08-01T13:15:11Z</time>
      </trkpt>
      <trkpt lat="49.28046" lon="-0.22518">
        <ele>6.87</ele>
        <time>2015-08-01T13:15:18Z</time>
      </trkpt>
      <trkpt lat="49.28045" lon="-0.22518">
        <ele>6.87</ele>
        <time>2015-08-01T13:15:31Z</time>
      </trkpt>
      <trkpt lat="49.28045" lon="-0.22518">
        <ele>7.35</ele>
        <time>2015-08-01T13:15:35Z</time>
      </trkpt>
      <trkpt lat="49.28044" lon="-0.22516">
        <ele>6.87</ele>
        <time>2015-08-01T13:15:36Z</time>
      </trkpt>
      <trkpt lat="49.28043" lon="-0.22514">
        <ele>6.87</ele>
        <time>2015-08-01T13:15:37Z</time>
      </trkpt>
      <trkpt lat="49.28043" lon="-0.22511">
        <ele>6.87</ele>
        <time>2015-08-01T13:15:38Z</time>
      </trkpt>
      <trkpt lat="49.28042" lon="-0.22507">
        <ele>7.35</ele>
        <time>2015-08-01T13:15:39Z</time>
      </trkpt>
      <trkpt lat="49.28042" lon="-0.22503">
        <ele>7.35</ele>
        <time>2015-08-01T13:15:40Z</time>
      </trkpt>
      <trkpt lat="49.28042" lon="-0.22498">
        <ele>7.35</ele>
        <time>2015-08-01T13:15:41Z</time>
      </trkpt>
      <trkpt lat="49.28043" lon="-0.22494">
        <ele>7.35</ele>
        <time>2015-08-01T13:15:42Z</time>
      </trkpt>
      <trkpt lat="49.28044" lon="-0.2249">
        <ele>7.35</ele>
        <time>2015-08-01T13:15:43Z</time>
      </trkpt>
      <trkpt lat="49.28046" lon="-0.22487">
        <ele>7.83</ele>
        <time>2015-08-01T13:15:44Z</time>
      </trkpt>
      <trkpt lat="49.28048" lon="-0.22484">
        <ele>6.87</ele>
        <time>2015-08-01T13:15:45Z</time>
      </trkpt>
      <trkpt lat="49.28073" lon="-0.22445">
        <ele>6.39</ele>
        <time>2015-08-01T13:15:57Z</time>
      </trkpt>
      <trkpt lat="49.281" lon="-0.22396">
        <ele>5.91</ele>
        <time>2015-08-01T13:16:09Z</time>
      </trkpt>
      <trkpt lat="49.2815" lon="-0.22305">
        <ele>5.91</ele>
        <time>2015-08-01T13:16:25Z</time>
      </trkpt>
      <trkpt lat="49.28167" lon="-0.22271">
        <ele>5.91</ele>
        <time>2015-08-01T13:16:31Z</time>
      </trkpt>
      <trkpt lat="49.28169" lon="-0.22265">
        <ele>5.91</ele>
        <time>2015-08-01T13:16:32Z</time>
      </trkpt>
      <trkpt lat="49.28171" lon="-0.22245">
        <ele>6.39</ele>
        <time>2015-08-01T13:16:35Z</time>
      </trkpt>
      <trkpt lat="49.28172" lon="-0.22233">
        <ele>6.87</ele>
        <time>2015-08-01T13:16:37Z</time>
      </trkpt>
      <trkpt lat="49.28161" lon="-0.22149">
        <ele>7.35</ele>
        <time>2015-08-01T13:16:49Z</time>
      </trkpt>
      <trkpt lat="49.28161" lon="-0.22141">
        <ele>7.35</ele>
        <time>2015-08-01T13:16:50Z</time>
      </trkpt>
      <trkpt lat="49.28161" lon="-0.22134">
        <ele>6.87</ele>
        <time>2015-08-01T13:16:51Z</time>
      </trkpt>
      <trkpt lat="49.28161" lon="-0.22127">
        <ele>6.87</ele>
        <time>2015-08-01T13:16:52Z</time>
      </trkpt>
      <trkpt lat="49.28161" lon="-0.2212">
        <ele>6.87</ele>
        <time>2015-08-01T13:16:53Z</time>
      </trkpt>
      <trkpt lat="49.28177" lon="-0.22004">
        <ele>5.91</ele>
        <time>2015-08-01T13:17:09Z</time>
      </trkpt>
      <trkpt lat="49.28177" lon="-0.21992">
        <ele>4.94</ele>
        <time>2015-08-01T13:17:12Z</time>
      </trkpt>
      <trkpt lat="49.28176" lon="-0.21989">
        <ele>5.91</ele>
        <time>2015-08-01T13:17:13Z</time>
      </trkpt>
      <trkpt lat="49.28175" lon="-0.21985">
        <ele>5.42</ele>
        <time>2015-08-01T13:17:14Z</time>
      </trkpt>
      <trkpt lat="49.28174" lon="-0.2198">
        <ele>5.42</ele>
        <time>2015-08-01T13:17:15Z</time>
      </trkpt>
      <trkpt lat="49.28173" lon="-0.21975">
        <ele>5.42</ele>
        <time>2015-08-01T13:17:16Z</time>
      </trkpt>
      <trkpt lat="49.28172" lon="-0.21971">
        <ele>4.94</ele>
        <time>2015-08-01T13:17:17Z</time>
      </trkpt>
      <trkpt lat="49.2817" lon="-0.21967">
        <ele>5.91</ele>
        <time>2015-08-01T13:17:18Z</time>
      </trkpt>
      <trkpt lat="49.28169" lon="-0.21964">
        <ele>5.42</ele>
        <time>2015-08-01T13:17:19Z</time>
      </trkpt>
      <trkpt lat="49.28167" lon="-0.21962">
        <ele>5.42</ele>
        <time>2015-08-01T13:17:20Z</time>
      </trkpt>
      <trkpt lat="49.28166" lon="-0.21961">
        <ele>4.94</ele>
        <time>2015-08-01T13:17:21Z</time>
      </trkpt>
      <trkpt lat="49.28164" lon="-0.21961">
        <ele>5.42</ele>
        <time>2015-08-01T13:17:22Z</time>
      </trkpt>
      <trkpt lat="49.28163" lon="-0.21963">
        <ele>5.42</ele>
        <time>2015-08-01T13:17:23Z</time>
      </trkpt>
      <trkpt lat="49.28161" lon="-0.21965">
        <ele>5.42</ele>
        <time>2015-08-01T13:17:24Z</time>
      </trkpt>
      <trkpt lat="49.2816" lon="-0.21968">
        <ele>5.91</ele>
        <time>2015-08-01T13:17:25Z</time>
      </trkpt>
      <trkpt lat="49.28158" lon="-0.2197">
        <ele>5.42</ele>
        <time>2015-08-01T13:17:26Z</time>
      </trkpt>
      <trkpt lat="49.28142" lon="-0.21993">
        <ele>5.42</ele>
        <time>2015-08-01T13:17:32Z</time>
      </trkpt>
      <trkpt lat="49.28139" lon="-0.21997">
        <ele>5.42</ele>
        <time>2015-08-01T13:17:33Z</time>
      </trkpt>
      <trkpt lat="49.28135" lon="-0.21999">
        <ele>5.42</ele>
        <time>2015-08-01T13:17:34Z</time>
      </trkpt>
      <trkpt lat="49.28131" lon="-0.21998">
        <ele>5.42</ele>
        <time>2015-08-01T13:17:35Z</time>
      </trkpt>
      <trkpt lat="49.28128" lon="-0.21994">
        <ele>5.42</ele>
        <time>2015-08-01T13:17:36Z</time>
      </trkpt>
      <trkpt lat="49.28127" lon="-0.21989">
        <ele>5.42</ele>
        <time>2015-08-01T13:17:37Z</time>
      </trkpt>
      <trkpt lat="49.28126" lon="-0.21982">
        <ele>5.42</ele>
        <time>2015-08-01T13:17:38Z</time>
      </trkpt>
      <trkpt lat="49.28126" lon="-0.21976">
        <ele>4.94</ele>
        <time>2015-08-01T13:17:39Z</time>
      </trkpt>
      <trkpt lat="49.28127" lon="-0.21969">
        <ele>5.42</ele>
        <time>2015-08-01T13:17:40Z</time>
      </trkpt>
      <trkpt lat="49.28128" lon="-0.21963">
        <ele>4.94</ele>
        <time>2015-08-01T13:17:41Z</time>
      </trkpt>
      <trkpt lat="49.2813" lon="-0.21957">
        <ele>4.94</ele>
        <time>2015-08-01T13:17:42Z</time>
      </trkpt>
      <trkpt lat="49.28136" lon="-0.2192">
        <ele>5.42</ele>
        <time>2015-08-01T13:17:52Z</time>
      </trkpt>
      <trkpt lat="49.2812" lon="-0.21888">
        <ele>5.42</ele>
        <time>2015-08-01T13:17:59Z</time>
      </trkpt>
      <trkpt lat="49.281" lon="-0.21855">
        <ele>5.91</ele>
        <time>2015-08-01T13:18:06Z</time>
      </trkpt>
      <trkpt lat="49.2809" lon="-0.21841">
        <ele>5.42</ele>
        <time>2015-08-01T13:18:09Z</time>
      </trkpt>
      <trkpt lat="49.28083" lon="-0.21822">
        <ele>5.42</ele>
        <time>2015-08-01T13:18:12Z</time>
      </trkpt>
      <trkpt lat="49.28069" lon="-0.21796">
        <ele>5.91</ele>
        <time>2015-08-01T13:18:17Z</time>
      </trkpt>
      <trkpt lat="49.28066" lon="-0.21792">
        <ele>5.42</ele>
        <time>2015-08-01T13:18:18Z</time>
      </trkpt>
      <trkpt lat="49.28062" lon="-0.2179">
        <ele>5.42</ele>
        <time>2015-08-01T13:18:19Z</time>
      </trkpt>
      <trkpt lat="49.28054" lon="-0.21784">
        <ele>5.42</ele>
        <time>2015-08-01T13:18:21Z</time>
      </trkpt>
      <trkpt lat="49.28051" lon="-0.2178">
        <ele>4.94</ele>
        <time>2015-08-01T13:18:22Z</time>
      </trkpt>
      <trkpt lat="49.28047" lon="-0.21776">
        <ele>5.42</ele>
        <time>2015-08-01T13:18:23Z</time>
      </trkpt>
      <trkpt lat="49.28044" lon="-0.21771">
        <ele>4.94</ele>
        <time>2015-08-01T13:18:24Z</time>
      </trkpt>
      <trkpt lat="49.2804" lon="-0.21766">
        <ele>5.42</ele>
        <time>2015-08-01T13:18:25Z</time>
      </trkpt>
      <trkpt lat="49.28036" lon="-0.21763">
        <ele>5.42</ele>
        <time>2015-08-01T13:18:26Z</time>
      </trkpt>
      <trkpt lat="49.28032" lon="-0.2176">
        <ele>5.42</ele>
        <time>2015-08-01T13:18:27Z</time>
      </trkpt>
      <trkpt lat="49.28029" lon="-0.21756">
        <ele>5.42</ele>
        <time>2015-08-01T13:18:28Z</time>
      </trkpt>
      <trkpt lat="49.28009" lon="-0.21739">
        <ele>5.42</ele>
        <time>2015-08-01T13:18:33Z</time>
      </trkpt>
      <trkpt lat="49.27951" lon="-0.21695">
        <ele>4.94</ele>
        <time>2015-08-01T13:18:47Z</time>
      </trkpt>
      <trkpt lat="49.27946" lon="-0.21693">
        <ele>5.42</ele>
        <time>2015-08-01T13:18:48Z</time>
      </trkpt>
      <trkpt lat="49.27926" lon="-0.2169">
        <ele>5.42</ele>
        <time>2015-08-01T13:18:52Z</time>
      </trkpt>
      <trkpt lat="49.27921" lon="-0.21688">
        <ele>5.42</ele>
        <time>2015-08-01T13:18:53Z</time>
      </trkpt>
      <trkpt lat="49.27917" lon="-0.21686">
        <ele>5.42</ele>
        <time>2015-08-01T13:18:54Z</time>
      </trkpt>
      <trkpt lat="49.27906" lon="-0.21677">
        <ele>5.42</ele>
        <time>2015-08-01T13:18:57Z</time>
      </trkpt>
      <trkpt lat="49.27898" lon="-0.2167">
        <ele>4.94</ele>
        <time>2015-08-01T13:18:59Z</time>
      </trkpt>
      <trkpt lat="49.27894" lon="-0.21668">
        <ele>4.94</ele>
        <time>2015-08-01T13:19:00Z</time>
      </trkpt>
      <trkpt lat="49.2789" lon="-0.21667">
        <ele>5.42</ele>
        <time>2015-08-01T13:19:01Z</time>
      </trkpt>
      <trkpt lat="49.27886" lon="-0.21665">
        <ele>4.94</ele>
        <time>2015-08-01T13:19:02Z</time>
      </trkpt>
      <trkpt lat="49.27883" lon="-0.21662">
        <ele>5.42</ele>
        <time>2015-08-01T13:19:03Z</time>
      </trkpt>
      <trkpt lat="49.27879" lon="-0.21659">
        <ele>5.42</ele>
        <time>2015-08-01T13:19:04Z</time>
      </trkpt>
      <trkpt lat="49.27874" lon="-0.21655">
        <ele>5.42</ele>
        <time>2015-08-01T13:19:05Z</time>
      </trkpt>
      <trkpt lat="49.27866" lon="-0.21648">
        <ele>4.94</ele>
        <time>2015-08-01T13:19:07Z</time>
      </trkpt>
      <trkpt lat="49.27845" lon="-0.2163">
        <ele>5.42</ele>
        <time>2015-08-01T13:19:12Z</time>
      </trkpt>
      <trkpt lat="49.27841" lon="-0.21627">
        <ele>4.94</ele>
        <time>2015-08-01T13:19:13Z</time>
      </trkpt>
      <trkpt lat="49.27784" lon="-0.21585">
        <ele>5.42</ele>
        <time>2015-08-01T13:19:26Z</time>
      </trkpt>
      <trkpt lat="49.2777" lon="-0.21576">
        <ele>4.94</ele>
        <time>2015-08-01T13:19:29Z</time>
      </trkpt>
      <trkpt lat="49.27714" lon="-0.21557">
        <ele>5.91</ele>
        <time>2015-08-01T13:19:40Z</time>
      </trkpt>
      <trkpt lat="49.27709" lon="-0.21554">
        <ele>5.91</ele>
        <time>2015-08-01T13:19:41Z</time>
      </trkpt>
      <trkpt lat="49.27695" lon="-0.21544">
        <ele>5.42</ele>
        <time>2015-08-01T13:19:44Z</time>
      </trkpt>
      <trkpt lat="49.2769" lon="-0.21542">
        <ele>5.42</ele>
        <time>2015-08-01T13:19:45Z</time>
      </trkpt>
      <trkpt lat="49.27684" lon="-0.21541">
        <ele>5.42</ele>
        <time>2015-08-01T13:19:46Z</time>
      </trkpt>
      <trkpt lat="49.27679" lon="-0.2154">
        <ele>5.42</ele>
        <time>2015-08-01T13:19:47Z</time>
      </trkpt>
      <trkpt lat="49.27673" lon="-0.2154">
        <ele>5.42</ele>
        <time>2015-08-01T13:19:48Z</time>
      </trkpt>
      <trkpt lat="49.27605" lon="-0.21547">
        <ele>4.94</ele>
        <time>2015-08-01T13:20:01Z</time>
      </trkpt>
      <trkpt lat="49.276" lon="-0.21549">
        <ele>5.42</ele>
        <time>2015-08-01T13:20:02Z</time>
      </trkpt>
      <trkpt lat="49.2758" lon="-0.21555">
        <ele>5.42</ele>
        <time>2015-08-01T13:20:06Z</time>
      </trkpt>
      <trkpt lat="49.27575" lon="-0.21555">
        <ele>4.94</ele>
        <time>2015-08-01T13:20:07Z</time>
      </trkpt>
      <trkpt lat="49.27571" lon="-0.21555">
        <ele>4.94</ele>
        <time>2015-08-01T13:20:08Z</time>
      </trkpt>
      <trkpt lat="49.27567" lon="-0.21555">
        <ele>4.94</ele>
        <time>2015-08-01T13:20:09Z</time>
      </trkpt>
      <trkpt lat="49.27562" lon="-0.21555">
        <ele>5.42</ele>
        <time>2015-08-01T13:20:10Z</time>
      </trkpt>
      <trkpt lat="49.27558" lon="-0.21555">
        <ele>5.42</ele>
        <time>2015-08-01T13:20:11Z</time>
      </trkpt>
      <trkpt lat="49.27554" lon="-0.21556">
        <ele>5.91</ele>
        <time>2015-08-01T13:20:12Z</time>
      </trkpt>
      <trkpt lat="49.2755" lon="-0.21557">
        <ele>5.91</ele>
        <time>2015-08-01T13:20:13Z</time>
      </trkpt>
      <trkpt lat="49.27546" lon="-0.2156">
        <ele>5.91</ele>
        <time>2015-08-01T13:20:14Z</time>
      </trkpt>
      <trkpt lat="49.27543" lon="-0.21562">
        <ele>5.42</ele>
        <time>2015-08-01T13:20:15Z</time>
      </trkpt>
      <trkpt lat="49.27527" lon="-0.21565">
        <ele>5.42</ele>
        <time>2015-08-01T13:20:19Z</time>
      </trkpt>
      <trkpt lat="49.27523" lon="-0.21567">
        <ele>5.42</ele>
        <time>2015-08-01T13:20:20Z</time>
      </trkpt>
      <trkpt lat="49.27485" lon="-0.21585">
        <ele>4.94</ele>
        <time>2015-08-01T13:20:29Z</time>
      </trkpt>
      <trkpt lat="49.27482" lon="-0.21584">
        <ele>5.42</ele>
        <time>2015-08-01T13:20:30Z</time>
      </trkpt>
      <trkpt lat="49.27477" lon="-0.21581">
        <ele>4.94</ele>
        <time>2015-08-01T13:20:32Z</time>
      </trkpt>
      <trkpt lat="49.27444" lon="-0.21533">
        <ele>6.87</ele>
        <time>2015-08-01T13:20:45Z</time>
      </trkpt>
      <trkpt lat="49.27421" lon="-0.215">
        <ele>6.39</ele>
        <time>2015-08-01T13:20:53Z</time>
      </trkpt>
      <trkpt lat="49.27407" lon="-0.21484">
        <ele>6.39</ele>
        <time>2015-08-01T13:20:57Z</time>
      </trkpt>
      <trkpt lat="49.27403" lon="-0.21484">
        <ele>5.91</ele>
        <time>2015-08-01T13:20:58Z</time>
      </trkpt>
      <trkpt lat="49.27398" lon="-0.21485">
        <ele>5.91</ele>
        <time>2015-08-01T13:20:59Z</time>
      </trkpt>
      <trkpt lat="49.27391" lon="-0.21493">
        <ele>5.42</ele>
        <time>2015-08-01T13:21:01Z</time>
      </trkpt>
      <trkpt lat="49.27387" lon="-0.21496">
        <ele>5.91</ele>
        <time>2015-08-01T13:21:02Z</time>
      </trkpt>
      <trkpt lat="49.27382" lon="-0.21499">
        <ele>4.94</ele>
        <time>2015-08-01T13:21:03Z</time>
      </trkpt>
      <trkpt lat="49.27377" lon="-0.21502">
        <ele>5.42</ele>
        <time>2015-08-01T13:21:04Z</time>
      </trkpt>
      <trkpt lat="49.27374" lon="-0.21507">
        <ele>5.42</ele>
        <time>2015-08-01T13:21:05Z</time>
      </trkpt>
      <trkpt lat="49.27371" lon="-0.21512">
        <ele>5.42</ele>
        <time>2015-08-01T13:21:06Z</time>
      </trkpt>
      <trkpt lat="49.27368" lon="-0.21517">
        <ele>5.42</ele>
        <time>2015-08-01T13:21:07Z</time>
      </trkpt>
      <trkpt lat="49.2732" lon="-0.21593">
        <ele>5.42</ele>
        <time>2015-08-01T13:21:21Z</time>
      </trkpt>
      <trkpt lat="49.27259" lon="-0.21679">
        <ele>5.42</ele>
        <time>2015-08-01T13:21:39Z</time>
      </trkpt>
      <trkpt lat="49.27195" lon="-0.21769">
        <ele>5.91</ele>
        <time>2015-08-01T13:21:56Z</time>
      </trkpt>
      <trkpt lat="49.27165" lon="-0.21811">
        <ele>4.94</ele>
        <time>2015-08-01T13:22:08Z</time>
      </trkpt>
      <trkpt lat="49.27165" lon="-0.21813">
        <ele>4.94</ele>
        <time>2015-08-01T13:22:27Z</time>
      </trkpt>
      <trkpt lat="49.27166" lon="-0.21813">
        <ele>5.42</ele>
        <time>2015-08-01T13:22:28Z</time>
      </trkpt>
      <trkpt lat="49.27167" lon="-0.21814">
        <ele>4.94</ele>
        <time>2015-08-01T13:22:29Z</time>
      </trkpt>
      <trkpt lat="49.27169" lon="-0.21815">
        <ele>5.42</ele>
        <time>2015-08-01T13:22:30Z</time>
      </trkpt>
      <trkpt lat="49.27171" lon="-0.21816">
        <ele>4.94</ele>
        <time>2015-08-01T13:22:31Z</time>
      </trkpt>
      <trkpt lat="49.27173" lon="-0.21817">
        <ele>5.42</ele>
        <time>2015-08-01T13:22:32Z</time>
      </trkpt>
      <trkpt lat="49.27176" lon="-0.21818">
        <ele>5.42</ele>
        <time>2015-08-01T13:22:33Z</time>
      </trkpt>
      <trkpt lat="49.27178" lon="-0.21821">
        <ele>5.42</ele>
        <time>2015-08-01T13:22:34Z</time>
      </trkpt>
      <trkpt lat="49.2718" lon="-0.21825">
        <ele>5.42</ele>
        <time>2015-08-01T13:22:35Z</time>
      </trkpt>
      <trkpt lat="49.27181" lon="-0.21829">
        <ele>4.94</ele>
        <time>2015-08-01T13:22:36Z</time>
      </trkpt>
      <trkpt lat="49.27201" lon="-0.21869">
        <ele>4.94</ele>
        <time>2015-08-01T13:22:45Z</time>
      </trkpt>
      <trkpt lat="49.27216" lon="-0.2189">
        <ele>5.91</ele>
        <time>2015-08-01T13:22:53Z</time>
      </trkpt>
      <trkpt lat="49.27217" lon="-0.21892">
        <ele>5.91</ele>
        <time>2015-08-01T13:22:54Z</time>
      </trkpt>
      <trkpt lat="49.27237" lon="-0.21936">
        <ele>6.39</ele>
        <time>2015-08-01T13:23:10Z</time>
      </trkpt>
      <trkpt lat="49.27242" lon="-0.21944">
        <ele>6.87</ele>
        <time>2015-08-01T13:23:23Z</time>
      </trkpt>
      <trkpt lat="49.27243" lon="-0.21945">
        <ele>6.87</ele>
        <time>2015-08-01T13:23:53Z</time>
      </trkpt>
      <trkpt lat="49.27243" lon="-0.21946">
        <ele>6.87</ele>
        <time>2015-08-01T13:24:12Z</time>
      </trkpt>
      <trkpt lat="49.27242" lon="-0.21945">
        <ele>6.87</ele>
        <time>2015-08-01T13:24:27Z</time>
      </trkpt>
      <trkpt lat="49.27242" lon="-0.21946">
        <ele>6.39</ele>
        <time>2015-08-01T13:24:31Z</time>
      </trkpt>
      <trkpt lat="49.27241" lon="-0.21944">
        <ele>6.39</ele>
        <time>2015-08-01T13:24:32Z</time>
      </trkpt>
      <trkpt lat="49.2724" lon="-0.21941">
        <ele>6.87</ele>
        <time>2015-08-01T13:24:33Z</time>
      </trkpt>
      <trkpt lat="49.27216" lon="-0.21891">
        <ele>6.39</ele>
        <time>2015-08-01T13:24:46Z</time>
      </trkpt>
      <trkpt lat="49.27209" lon="-0.21881">
        <ele>6.87</ele>
        <time>2015-08-01T13:24:53Z</time>
      </trkpt>
      <trkpt lat="49.27208" lon="-0.21882">
        <ele>5.91</ele>
        <time>2015-08-01T13:24:57Z</time>
      </trkpt>
      <trkpt lat="49.27207" lon="-0.21884">
        <ele>5.42</ele>
        <time>2015-08-01T13:24:58Z</time>
      </trkpt>
      <trkpt lat="49.27173" lon="-0.21922">
        <ele>5.42</ele>
        <time>2015-08-01T13:25:10Z</time>
      </trkpt>
      <trkpt lat="49.27147" lon="-0.21921">
        <ele>5.91</ele>
        <time>2015-08-01T13:25:19Z</time>
      </trkpt>
      <trkpt lat="49.27135" lon="-0.21912">
        <ele>5.91</ele>
        <time>2015-08-01T13:25:24Z</time>
      </trkpt>
      <trkpt lat="49.27133" lon="-0.21912">
        <ele>5.42</ele>
        <time>2015-08-01T13:25:25Z</time>
      </trkpt>
      <trkpt lat="49.27131" lon="-0.21911">
        <ele>4.94</ele>
        <time>2015-08-01T13:25:26Z</time>
      </trkpt>
      <trkpt lat="49.27129" lon="-0.21909">
        <ele>5.42</ele>
        <time>2015-08-01T13:25:27Z</time>
      </trkpt>
      <trkpt lat="49.27126" lon="-0.21907">
        <ele>5.42</ele>
        <time>2015-08-01T13:25:28Z</time>
      </trkpt>
      <trkpt lat="49.27124" lon="-0.21905">
        <ele>5.91</ele>
        <time>2015-08-01T13:25:29Z</time>
      </trkpt>
      <trkpt lat="49.27112" lon="-0.21902">
        <ele>4.94</ele>
        <time>2015-08-01T13:25:34Z</time>
      </trkpt>
      <trkpt lat="49.27109" lon="-0.21899">
        <ele>5.91</ele>
        <time>2015-08-01T13:25:40Z</time>
      </trkpt>
      <trkpt lat="49.27081" lon="-0.21932">
        <ele>5.42</ele>
        <time>2015-08-01T13:25:51Z</time>
      </trkpt>
      <trkpt lat="49.27031" lon="-0.21986">
        <ele>4.94</ele>
        <time>2015-08-01T13:26:07Z</time>
      </trkpt>
      <trkpt lat="49.27027" lon="-0.21989">
        <ele>5.91</ele>
        <time>2015-08-01T13:26:08Z</time>
      </trkpt>
      <trkpt lat="49.26992" lon="-0.2202">
        <ele>5.42</ele>
        <time>2015-08-01T13:26:19Z</time>
      </trkpt>
      <trkpt lat="49.26991" lon="-0.22022">
        <ele>5.42</ele>
        <time>2015-08-01T13:26:20Z</time>
      </trkpt>
      <trkpt lat="49.2699" lon="-0.22025">
        <ele>5.42</ele>
        <time>2015-08-01T13:26:21Z</time>
      </trkpt>
      <trkpt lat="49.26989" lon="-0.22029">
        <ele>5.42</ele>
        <time>2015-08-01T13:26:22Z</time>
      </trkpt>
      <trkpt lat="49.26988" lon="-0.22032">
        <ele>5.91</ele>
        <time>2015-08-01T13:26:23Z</time>
      </trkpt>
      <trkpt lat="49.26986" lon="-0.22035">
        <ele>5.91</ele>
        <time>2015-08-01T13:26:24Z</time>
      </trkpt>
      <trkpt lat="49.26984" lon="-0.22038">
        <ele>5.91</ele>
        <time>2015-08-01T13:26:25Z</time>
      </trkpt>
      <trkpt lat="49.26981" lon="-0.22041">
        <ele>5.91</ele>
        <time>2015-08-01T13:26:26Z</time>
      </trkpt>
      <trkpt lat="49.26979" lon="-0.22045">
        <ele>5.91</ele>
        <time>2015-08-01T13:26:27Z</time>
      </trkpt>
      <trkpt lat="49.26947" lon="-0.22066">
        <ele>6.87</ele>
        <time>2015-08-01T13:26:38Z</time>
      </trkpt>
      <trkpt lat="49.26942" lon="-0.22069">
        <ele>6.87</ele>
        <time>2015-08-01T13:26:40Z</time>
      </trkpt>
      <trkpt lat="49.26939" lon="-0.2207">
        <ele>6.87</ele>
        <time>2015-08-01T13:26:41Z</time>
      </trkpt>
      <trkpt lat="49.26936" lon="-0.2207">
        <ele>6.87</ele>
        <time>2015-08-01T13:26:42Z</time>
      </trkpt>
      <trkpt lat="49.26934" lon="-0.2207">
        <ele>6.87</ele>
        <time>2015-08-01T13:26:43Z</time>
      </trkpt>
      <trkpt lat="49.26932" lon="-0.22071">
        <ele>6.87</ele>
        <time>2015-08-01T13:26:44Z</time>
      </trkpt>
      <trkpt lat="49.2693" lon="-0.22074">
        <ele>6.87</ele>
        <time>2015-08-01T13:26:45Z</time>
      </trkpt>
      <trkpt lat="49.26931" lon="-0.22077">
        <ele>6.87</ele>
        <time>2015-08-01T13:26:46Z</time>
      </trkpt>
      <trkpt lat="49.26932" lon="-0.22079">
        <ele>6.87</ele>
        <time>2015-08-01T13:26:47Z</time>
      </trkpt>
      <trkpt lat="49.2693" lon="-0.22093">
        <ele>7.83</ele>
        <time>2015-08-01T13:26:51Z</time>
      </trkpt>
      <trkpt lat="49.26929" lon="-0.22112">
        <ele>8.31</ele>
        <time>2015-08-01T13:26:57Z</time>
      </trkpt>
      <trkpt lat="49.26935" lon="-0.22122">
        <ele>7.83</ele>
        <time>2015-08-01T13:27:01Z</time>
      </trkpt>
      <trkpt lat="49.26935" lon="-0.22128">
        <ele>7.35</ele>
        <time>2015-08-01T13:27:12Z</time>
      </trkpt>
      <trkpt lat="49.26936" lon="-0.22129">
        <ele>6.87</ele>
        <time>2015-08-01T13:27:25Z</time>
      </trkpt>
      <trkpt lat="49.26939" lon="-0.22138">
        <ele>4.94</ele>
        <time>2015-08-01T13:27:35Z</time>
      </trkpt>
      <trkpt lat="49.2694" lon="-0.22141">
        <ele>3.98</ele>
        <time>2015-08-01T13:27:45Z</time>
      </trkpt>
      <trkpt lat="49.2694" lon="-0.22143">
        <ele>3.98</ele>
        <time>2015-08-01T13:28:01Z</time>
      </trkpt>
      <trkpt lat="49.2694" lon="-0.22143">
        <ele>3.98</ele>
        <time>2015-08-01T13:28:37Z</time>
      </trkpt>
      <trkpt lat="49.2694" lon="-0.22144">
        <ele>4.94</ele>
        <time>2015-08-01T13:28:49Z</time>
      </trkpt>
      <trkpt lat="49.26926" lon="-0.22165">
        <ele>4.46</ele>
        <time>2015-08-01T13:28:58Z</time>
      </trkpt>
      <trkpt lat="49.26917" lon="-0.22173">
        <ele>4.94</ele>
        <time>2015-08-01T13:29:09Z</time>
      </trkpt>
      <trkpt lat="49.26917" lon="-0.22173">
        <ele>4.94</ele>
        <time>2015-08-01T13:29:12Z</time>
      </trkpt>
      <trkpt lat="49.2691" lon="-0.22177">
        <ele>4.94</ele>
        <time>2015-08-01T13:29:18Z</time>
      </trkpt>
      <trkpt lat="49.26889" lon="-0.22199">
        <ele>4.46</ele>
        <time>2015-08-01T13:29:32Z</time>
      </trkpt>
      <trkpt lat="49.26855" lon="-0.22255">
        <ele>4.46</ele>
        <time>2015-08-01T13:29:49Z</time>
      </trkpt>
      <trkpt lat="49.26829" lon="-0.22315">
        <ele>4.46</ele>
        <time>2015-08-01T13:30:02Z</time>
      </trkpt>
      <trkpt lat="49.2682" lon="-0.22363">
        <ele>4.46</ele>
        <time>2015-08-01T13:30:10Z</time>
      </trkpt>
      <trkpt lat="49.26819" lon="-0.22382">
        <ele>4.94</ele>
        <time>2015-08-01T13:30:13Z</time>
      </trkpt>
      <trkpt lat="49.26801" lon="-0.22506">
        <ele>3.98</ele>
        <time>2015-08-01T13:30:31Z</time>
      </trkpt>
      <trkpt lat="49.268" lon="-0.22513">
        <ele>4.94</ele>
        <time>2015-08-01T13:30:32Z</time>
      </trkpt>
      <trkpt lat="49.26777" lon="-0.22593">
        <ele>3.98</ele>
        <time>2015-08-01T13:30:45Z</time>
      </trkpt>
      <trkpt lat="49.26776" lon="-0.22599">
        <ele>4.46</ele>
        <time>2015-08-01T13:30:46Z</time>
      </trkpt>
      <trkpt lat="49.26755" lon="-0.22707">
        <ele>3.98</ele>
        <time>2015-08-01T13:31:04Z</time>
      </trkpt>
      <trkpt lat="49.26731" lon="-0.22784">
        <ele>3.98</ele>
        <time>2015-08-01T13:31:20Z</time>
      </trkpt>
      <trkpt lat="49.26714" lon="-0.22828">
        <ele>3.98</ele>
        <time>2015-08-01T13:31:32Z</time>
      </trkpt>
      <trkpt lat="49.26689" lon="-0.22883">
        <ele>3.98</ele>
        <time>2015-08-01T13:31:46Z</time>
      </trkpt>
      <trkpt lat="49.26656" lon="-0.22923">
        <ele>4.46</ele>
        <time>2015-08-01T13:31:58Z</time>
      </trkpt>
      <trkpt lat="49.26619" lon="-0.2295">
        <ele>4.94</ele>
        <time>2015-08-01T13:32:11Z</time>
      </trkpt>
      <trkpt lat="49.26592" lon="-0.23005">
        <ele>4.46</ele>
        <time>2015-08-01T13:32:24Z</time>
      </trkpt>
      <trkpt lat="49.26589" lon="-0.23009">
        <ele>4.46</ele>
        <time>2015-08-01T13:32:25Z</time>
      </trkpt>
      <trkpt lat="49.26586" lon="-0.23014">
        <ele>4.46</ele>
        <time>2015-08-01T13:32:26Z</time>
      </trkpt>
      <trkpt lat="49.26566" lon="-0.23038">
        <ele>4.46</ele>
        <time>2015-08-01T13:32:32Z</time>
      </trkpt>
      <trkpt lat="49.26555" lon="-0.23055">
        <ele>4.94</ele>
        <time>2015-08-01T13:32:36Z</time>
      </trkpt>
      <trkpt lat="49.26549" lon="-0.23064">
        <ele>4.94</ele>
        <time>2015-08-01T13:32:38Z</time>
      </trkpt>
      <trkpt lat="49.26546" lon="-0.23068">
        <ele>4.94</ele>
        <time>2015-08-01T13:32:39Z</time>
      </trkpt>
      <trkpt lat="49.26501" lon="-0.23088">
        <ele>4.94</ele>
        <time>2015-08-01T13:32:52Z</time>
      </trkpt>
      <trkpt lat="49.26482" lon="-0.23094">
        <ele>4.94</ele>
        <time>2015-08-01T13:32:58Z</time>
      </trkpt>
      <trkpt lat="49.2648" lon="-0.23098">
        <ele>4.46</ele>
        <time>2015-08-01T13:32:59Z</time>
      </trkpt>
      <trkpt lat="49.26479" lon="-0.23103">
        <ele>5.42</ele>
        <time>2015-08-01T13:33:00Z</time>
      </trkpt>
      <trkpt lat="49.26462" lon="-0.23131">
        <ele>4.94</ele>
        <time>2015-08-01T13:33:07Z</time>
      </trkpt>
      <trkpt lat="49.26461" lon="-0.23135">
        <ele>4.94</ele>
        <time>2015-08-01T13:33:08Z</time>
      </trkpt>
      <trkpt lat="49.2646" lon="-0.2314">
        <ele>5.42</ele>
        <time>2015-08-01T13:33:09Z</time>
      </trkpt>
      <trkpt lat="49.2646" lon="-0.23164">
        <ele>5.42</ele>
        <time>2015-08-01T13:33:13Z</time>
      </trkpt>
      <trkpt lat="49.26461" lon="-0.23171">
        <ele>5.42</ele>
        <time>2015-08-01T13:33:14Z</time>
      </trkpt>
      <trkpt lat="49.26461" lon="-0.23177">
        <ele>5.42</ele>
        <time>2015-08-01T13:33:15Z</time>
      </trkpt>
      <trkpt lat="49.26452" lon="-0.23274">
        <ele>4.94</ele>
        <time>2015-08-01T13:33:29Z</time>
      </trkpt>
      <trkpt lat="49.2645" lon="-0.23281">
        <ele>4.46</ele>
        <time>2015-08-01T13:33:30Z</time>
      </trkpt>
      <trkpt lat="49.26449" lon="-0.23289">
        <ele>4.46</ele>
        <time>2015-08-01T13:33:31Z</time>
      </trkpt>
      <trkpt lat="49.26448" lon="-0.23344">
        <ele>4.46</ele>
        <time>2015-08-01T13:33:38Z</time>
      </trkpt>
      <trkpt lat="49.26449" lon="-0.23352">
        <ele>4.46</ele>
        <time>2015-08-01T13:33:39Z</time>
      </trkpt>
      <trkpt lat="49.26462" lon="-0.23462">
        <ele>4.46</ele>
        <time>2015-08-01T13:33:54Z</time>
      </trkpt>
      <trkpt lat="49.26471" lon="-0.23564">
        <ele>4.94</ele>
        <time>2015-08-01T13:34:11Z</time>
      </trkpt>
      <trkpt lat="49.26475" lon="-0.23625">
        <ele>3.98</ele>
        <time>2015-08-01T13:34:24Z</time>
      </trkpt>
      <trkpt lat="49.26486" lon="-0.23731">
        <ele>5.42</ele>
        <time>2015-08-01T13:34:40Z</time>
      </trkpt>
      <trkpt lat="49.26487" lon="-0.23738">
        <ele>4.94</ele>
        <time>2015-08-01T13:34:41Z</time>
      </trkpt>
      <trkpt lat="49.26488" lon="-0.23745">
        <ele>4.94</ele>
        <time>2015-08-01T13:34:42Z</time>
      </trkpt>
      <trkpt lat="49.2649" lon="-0.23767">
        <ele>4.94</ele>
        <time>2015-08-01T13:34:45Z</time>
      </trkpt>
      <trkpt lat="49.26491" lon="-0.23774">
        <ele>4.46</ele>
        <time>2015-08-01T13:34:46Z</time>
      </trkpt>
      <trkpt lat="49.265" lon="-0.23845">
        <ele>4.46</ele>
        <time>2015-08-01T13:35:00Z</time>
      </trkpt>
      <trkpt lat="49.265" lon="-0.23846">
        <ele>4.94</ele>
        <time>2015-08-01T13:35:01Z</time>
      </trkpt>
      <trkpt lat="49.265" lon="-0.23847">
        <ele>4.94</ele>
        <time>2015-08-01T13:35:12Z</time>
      </trkpt>
      <trkpt lat="49.26499" lon="-0.23848">
        <ele>4.94</ele>
        <time>2015-08-01T13:35:36Z</time>
      </trkpt>
      <trkpt lat="49.265" lon="-0.23854">
        <ele>4.46</ele>
        <time>2015-08-01T13:35:48Z</time>
      </trkpt>
      <trkpt lat="49.26501" lon="-0.23854">
        <ele>4.46</ele>
        <time>2015-08-01T13:36:31Z</time>
      </trkpt>
      <trkpt lat="49.26502" lon="-0.23853">
        <ele>3.98</ele>
        <time>2015-08-01T13:37:14Z</time>
      </trkpt>
      <trkpt lat="49.26501" lon="-0.23853">
        <ele>4.94</ele>
        <time>2015-08-01T13:37:59Z</time>
      </trkpt>
      <trkpt lat="49.265" lon="-0.23851">
        <ele>5.42</ele>
        <time>2015-08-01T13:38:44Z</time>
      </trkpt>
      <trkpt lat="49.265" lon="-0.23858">
        <ele>4.94</ele>
        <time>2015-08-01T13:39:01Z</time>
      </trkpt>
      <trkpt lat="49.26501" lon="-0.23862">
        <ele>4.94</ele>
        <time>2015-08-01T13:39:02Z</time>
      </trkpt>
      <trkpt lat="49.26502" lon="-0.23866">
        <ele>4.94</ele>
        <time>2015-08-01T13:39:03Z</time>
      </trkpt>
      <trkpt lat="49.26502" lon="-0.23871">
        <ele>4.94</ele>
        <time>2015-08-01T13:39:04Z</time>
      </trkpt>
      <trkpt lat="49.26503" lon="-0.23875">
        <ele>4.94</ele>
        <time>2015-08-01T13:39:05Z</time>
      </trkpt>
      <trkpt lat="49.26509" lon="-0.23949">
        <ele>4.94</ele>
        <time>2015-08-01T13:39:18Z</time>
      </trkpt>
      <trkpt lat="49.26519" lon="-0.24037">
        <ele>5.42</ele>
        <time>2015-08-01T13:39:33Z</time>
      </trkpt>
      <trkpt lat="49.26522" lon="-0.24068">
        <ele>5.42</ele>
        <time>2015-08-01T13:39:38Z</time>
      </trkpt>
      <trkpt lat="49.26533" lon="-0.24186">
        <ele>5.42</ele>
        <time>2015-08-01T13:39:56Z</time>
      </trkpt>
      <trkpt lat="49.2654" lon="-0.24254">
        <ele>4.94</ele>
        <time>2015-08-01T13:40:10Z</time>
      </trkpt>
      <trkpt lat="49.26544" lon="-0.24264">
        <ele>5.42</ele>
        <time>2015-08-01T13:40:12Z</time>
      </trkpt>
      <trkpt lat="49.26546" lon="-0.2427">
        <ele>5.42</ele>
        <time>2015-08-01T13:40:13Z</time>
      </trkpt>
      <trkpt lat="49.26563" lon="-0.24316">
        <ele>5.91</ele>
        <time>2015-08-01T13:40:21Z</time>
      </trkpt>
      <trkpt lat="49.26588" lon="-0.24379">
        <ele>5.91</ele>
        <time>2015-08-01T13:40:32Z</time>
      </trkpt>
      <trkpt lat="49.2659" lon="-0.24385">
        <ele>4.94</ele>
        <time>2015-08-01T13:40:33Z</time>
      </trkpt>
      <trkpt lat="49.26591" lon="-0.2439">
        <ele>5.91</ele>
        <time>2015-08-01T13:40:34Z</time>
      </trkpt>
      <trkpt lat="49.26592" lon="-0.24395">
        <ele>5.42</ele>
        <time>2015-08-01T13:40:35Z</time>
      </trkpt>
      <trkpt lat="49.26593" lon="-0.244">
        <ele>5.42</ele>
        <time>2015-08-01T13:40:36Z</time>
      </trkpt>
      <trkpt lat="49.26593" lon="-0.24405">
        <ele>5.42</ele>
        <time>2015-08-01T13:40:37Z</time>
      </trkpt>
      <trkpt lat="49.26592" lon="-0.24409">
        <ele>5.91</ele>
        <time>2015-08-01T13:40:38Z</time>
      </trkpt>
      <trkpt lat="49.26591" lon="-0.24413">
        <ele>5.42</ele>
        <time>2015-08-01T13:40:39Z</time>
      </trkpt>
      <trkpt lat="49.26589" lon="-0.24417">
        <ele>5.42</ele>
        <time>2015-08-01T13:40:40Z</time>
      </trkpt>
      <trkpt lat="49.26586" lon="-0.2442">
        <ele>5.42</ele>
        <time>2015-08-01T13:40:41Z</time>
      </trkpt>
      <trkpt lat="49.26583" lon="-0.24424">
        <ele>4.94</ele>
        <time>2015-08-01T13:40:42Z</time>
      </trkpt>
      <trkpt lat="49.2658" lon="-0.24426">
        <ele>5.42</ele>
        <time>2015-08-01T13:40:43Z</time>
      </trkpt>
      <trkpt lat="49.26576" lon="-0.24429">
        <ele>4.94</ele>
        <time>2015-08-01T13:40:44Z</time>
      </trkpt>
      <trkpt lat="49.26573" lon="-0.24432">
        <ele>4.94</ele>
        <time>2015-08-01T13:40:45Z</time>
      </trkpt>
      <trkpt lat="49.26569" lon="-0.24435">
        <ele>4.94</ele>
        <time>2015-08-01T13:40:46Z</time>
      </trkpt>
      <trkpt lat="49.26511" lon="-0.24486">
        <ele>4.94</ele>
        <time>2015-08-01T13:41:01Z</time>
      </trkpt>
      <trkpt lat="49.26441" lon="-0.24544">
        <ele>5.42</ele>
        <time>2015-08-01T13:41:18Z</time>
      </trkpt>
      <trkpt lat="49.26436" lon="-0.24547">
        <ele>5.42</ele>
        <time>2015-08-01T13:41:19Z</time>
      </trkpt>
      <trkpt lat="49.26344" lon="-0.24628">
        <ele>5.42</ele>
        <time>2015-08-01T13:41:40Z</time>
      </trkpt>
      <trkpt lat="49.26271" lon="-0.24689">
        <ele>5.42</ele>
        <time>2015-08-01T13:41:57Z</time>
      </trkpt>
      <trkpt lat="49.26199" lon="-0.2475">
        <ele>5.91</ele>
        <time>2015-08-01T13:42:13Z</time>
      </trkpt>
      <trkpt lat="49.26128" lon="-0.24811">
        <ele>5.91</ele>
        <time>2015-08-01T13:42:29Z</time>
      </trkpt>
      <trkpt lat="49.26053" lon="-0.24876">
        <ele>5.91</ele>
        <time>2015-08-01T13:42:48Z</time>
      </trkpt>
      <trkpt lat="49.26005" lon="-0.24917">
        <ele>5.42</ele>
        <time>2015-08-01T13:43:05Z</time>
      </trkpt>
      <trkpt lat="49.25987" lon="-0.24934">
        <ele>5.42</ele>
        <time>2015-08-01T13:43:20Z</time>
      </trkpt>
      <trkpt lat="49.25987" lon="-0.24935">
        <ele>5.42</ele>
        <time>2015-08-01T13:43:44Z</time>
      </trkpt>
      <trkpt lat="49.25986" lon="-0.24935">
        <ele>5.42</ele>
        <time>2015-08-01T13:44:03Z</time>
      </trkpt>
      <trkpt lat="49.25983" lon="-0.24935">
        <ele>5.91</ele>
        <time>2015-08-01T13:44:25Z</time>
      </trkpt>
      <trkpt lat="49.25953" lon="-0.24963">
        <ele>5.91</ele>
        <time>2015-08-01T13:44:35Z</time>
      </trkpt>
      <trkpt lat="49.25911" lon="-0.24998">
        <ele>5.91</ele>
        <time>2015-08-01T13:44:46Z</time>
      </trkpt>
      <trkpt lat="49.25847" lon="-0.25053">
        <ele>5.42</ele>
        <time>2015-08-01T13:45:01Z</time>
      </trkpt>
      <trkpt lat="49.25767" lon="-0.2512">
        <ele>6.39</ele>
        <time>2015-08-01T13:45:20Z</time>
      </trkpt>
      <trkpt lat="49.25758" lon="-0.25127">
        <ele>5.42</ele>
        <time>2015-08-01T13:45:22Z</time>
      </trkpt>
      <trkpt lat="49.25688" lon="-0.25186">
        <ele>6.39</ele>
        <time>2015-08-01T13:45:38Z</time>
      </trkpt>
      <trkpt lat="49.2568" lon="-0.25193">
        <ele>5.91</ele>
        <time>2015-08-01T13:45:40Z</time>
      </trkpt>
      <trkpt lat="49.25675" lon="-0.25197">
        <ele>5.91</ele>
        <time>2015-08-01T13:45:41Z</time>
      </trkpt>
      <trkpt lat="49.25615" lon="-0.2525">
        <ele>5.91</ele>
        <time>2015-08-01T13:45:55Z</time>
      </trkpt>
      <trkpt lat="49.25555" lon="-0.25299">
        <ele>6.39</ele>
        <time>2015-08-01T13:46:08Z</time>
      </trkpt>
      <trkpt lat="49.2555" lon="-0.25302">
        <ele>5.91</ele>
        <time>2015-08-01T13:46:09Z</time>
      </trkpt>
      <trkpt lat="49.2552" lon="-0.25329">
        <ele>5.91</ele>
        <time>2015-08-01T13:46:16Z</time>
      </trkpt>
      <trkpt lat="49.25487" lon="-0.25358">
        <ele>6.39</ele>
        <time>2015-08-01T13:46:24Z</time>
      </trkpt>
      <trkpt lat="49.25483" lon="-0.25361">
        <ele>5.91</ele>
        <time>2015-08-01T13:46:25Z</time>
      </trkpt>
      <trkpt lat="49.25479" lon="-0.25364">
        <ele>6.39</ele>
        <time>2015-08-01T13:46:26Z</time>
      </trkpt>
      <trkpt lat="49.25419" lon="-0.25415">
        <ele>6.39</ele>
        <time>2015-08-01T13:46:41Z</time>
      </trkpt>
      <trkpt lat="49.25411" lon="-0.25422">
        <ele>6.39</ele>
        <time>2015-08-01T13:46:43Z</time>
      </trkpt>
      <trkpt lat="49.25407" lon="-0.25425">
        <ele>6.39</ele>
        <time>2015-08-01T13:46:44Z</time>
      </trkpt>
      <trkpt lat="49.25359" lon="-0.25464">
        <ele>6.39</ele>
        <time>2015-08-01T13:46:57Z</time>
      </trkpt>
      <trkpt lat="49.25355" lon="-0.25468">
        <ele>6.39</ele>
        <time>2015-08-01T13:46:58Z</time>
      </trkpt>
      <trkpt lat="49.25352" lon="-0.25472">
        <ele>6.87</ele>
        <time>2015-08-01T13:46:59Z</time>
      </trkpt>
      <trkpt lat="49.2534" lon="-0.25483">
        <ele>6.87</ele>
        <time>2015-08-01T13:47:02Z</time>
      </trkpt>
      <trkpt lat="49.25336" lon="-0.25487">
        <ele>6.39</ele>
        <time>2015-08-01T13:47:03Z</time>
      </trkpt>
      <trkpt lat="49.25312" lon="-0.25507">
        <ele>5.91</ele>
        <time>2015-08-01T13:47:09Z</time>
      </trkpt>
      <trkpt lat="49.25308" lon="-0.25512">
        <ele>6.39</ele>
        <time>2015-08-01T13:47:10Z</time>
      </trkpt>
      <trkpt lat="49.25278" lon="-0.25536">
        <ele>6.39</ele>
        <time>2015-08-01T13:47:16Z</time>
      </trkpt>
      <trkpt lat="49.25232" lon="-0.25574">
        <ele>6.39</ele>
        <time>2015-08-01T13:47:26Z</time>
      </trkpt>
      <trkpt lat="49.25227" lon="-0.25578">
        <ele>5.91</ele>
        <time>2015-08-01T13:47:27Z</time>
      </trkpt>
      <trkpt lat="49.25218" lon="-0.25586">
        <ele>6.39</ele>
        <time>2015-08-01T13:47:29Z</time>
      </trkpt>
      <trkpt lat="49.25204" lon="-0.25597">
        <ele>5.91</ele>
        <time>2015-08-01T13:47:32Z</time>
      </trkpt>
      <trkpt lat="49.25199" lon="-0.25602">
        <ele>6.39</ele>
        <time>2015-08-01T13:47:33Z</time>
      </trkpt>
      <trkpt lat="49.25151" lon="-0.25643">
        <ele>6.39</ele>
        <time>2015-08-01T13:47:44Z</time>
      </trkpt>
      <trkpt lat="49.25098" lon="-0.25689">
        <ele>5.91</ele>
        <time>2015-08-01T13:47:56Z</time>
      </trkpt>
      <trkpt lat="49.25039" lon="-0.2574">
        <ele>6.39</ele>
        <time>2015-08-01T13:48:09Z</time>
      </trkpt>
      <trkpt lat="49.24978" lon="-0.25793">
        <ele>5.91</ele>
        <time>2015-08-01T13:48:22Z</time>
      </trkpt>
      <trkpt lat="49.24908" lon="-0.25852">
        <ele>5.91</ele>
        <time>2015-08-01T13:48:37Z</time>
      </trkpt>
      <trkpt lat="49.24829" lon="-0.25917">
        <ele>6.39</ele>
        <time>2015-08-01T13:48:53Z</time>
      </trkpt>
      <trkpt lat="49.24785" lon="-0.25954">
        <ele>5.91</ele>
        <time>2015-08-01T13:49:02Z</time>
      </trkpt>
      <trkpt lat="49.24779" lon="-0.25958">
        <ele>6.39</ele>
        <time>2015-08-01T13:49:03Z</time>
      </trkpt>
      <trkpt lat="49.24689" lon="-0.26034">
        <ele>5.91</ele>
        <time>2015-08-01T13:49:20Z</time>
      </trkpt>
      <trkpt lat="49.24678" lon="-0.26043">
        <ele>5.91</ele>
        <time>2015-08-01T13:49:22Z</time>
      </trkpt>
      <trkpt lat="49.2464" lon="-0.26078">
        <ele>6.39</ele>
        <time>2015-08-01T13:49:30Z</time>
      </trkpt>
      <trkpt lat="49.24636" lon="-0.26082">
        <ele>6.39</ele>
        <time>2015-08-01T13:49:31Z</time>
      </trkpt>
      <trkpt lat="49.2455" lon="-0.26154">
        <ele>6.39</ele>
        <time>2015-08-01T13:49:48Z</time>
      </trkpt>
      <trkpt lat="49.24545" lon="-0.26158">
        <ele>6.39</ele>
        <time>2015-08-01T13:49:49Z</time>
      </trkpt>
      <trkpt lat="49.24461" lon="-0.26229">
        <ele>6.39</ele>
        <time>2015-08-01T13:50:06Z</time>
      </trkpt>
      <trkpt lat="49.244" lon="-0.26279">
        <ele>5.91</ele>
        <time>2015-08-01T13:50:18Z</time>
      </trkpt>
      <trkpt lat="49.2433" lon="-0.26338">
        <ele>5.91</ele>
        <time>2015-08-01T13:50:32Z</time>
      </trkpt>
      <trkpt lat="49.24269" lon="-0.26389">
        <ele>6.39</ele>
        <time>2015-08-01T13:50:44Z</time>
      </trkpt>
      <trkpt lat="49.24201" lon="-0.26447">
        <ele>6.39</ele>
        <time>2015-08-01T13:50:57Z</time>
      </trkpt>
      <trkpt lat="49.24138" lon="-0.26502">
        <ele>5.91</ele>
        <time>2015-08-01T13:51:10Z</time>
      </trkpt>
      <trkpt lat="49.24073" lon="-0.26554">
        <ele>5.91</ele>
        <time>2015-08-01T13:51:26Z</time>
      </trkpt>
      <trkpt lat="49.24062" lon="-0.26562">
        <ele>6.39</ele>
        <time>2015-08-01T13:51:30Z</time>
      </trkpt>
      <trkpt lat="49.24061" lon="-0.26564">
        <ele>6.87</ele>
        <time>2015-08-01T13:51:31Z</time>
      </trkpt>
      <trkpt lat="49.2406" lon="-0.26568">
        <ele>7.35</ele>
        <time>2015-08-01T13:51:42Z</time>
      </trkpt>
      <trkpt lat="49.24061" lon="-0.26568">
        <ele>7.35</ele>
        <time>2015-08-01T13:52:22Z</time>
      </trkpt>
      <trkpt lat="49.24061" lon="-0.26567">
        <ele>7.35</ele>
        <time>2015-08-01T13:52:59Z</time>
      </trkpt>
      <trkpt lat="49.24057" lon="-0.2657">
        <ele>7.35</ele>
        <time>2015-08-01T13:53:18Z</time>
      </trkpt>
      <trkpt lat="49.24031" lon="-0.26597">
        <ele>7.83</ele>
        <time>2015-08-01T13:53:30Z</time>
      </trkpt>
      <trkpt lat="49.2402" lon="-0.26609">
        <ele>8.79</ele>
        <time>2015-08-01T13:53:42Z</time>
      </trkpt>
      <trkpt lat="49.24018" lon="-0.26611">
        <ele>9.27</ele>
        <time>2015-08-01T13:54:01Z</time>
      </trkpt>
      <trkpt lat="49.24026" lon="-0.26653">
        <ele>10.71</ele>
        <time>2015-08-01T13:54:10Z</time>
      </trkpt>
      <trkpt lat="49.24048" lon="-0.26737">
        <ele>9.27</ele>
        <time>2015-08-01T13:54:23Z</time>
      </trkpt>
      <trkpt lat="49.2405" lon="-0.26744">
        <ele>9.27</ele>
        <time>2015-08-01T13:54:24Z</time>
      </trkpt>
      <trkpt lat="49.24052" lon="-0.26751">
        <ele>8.79</ele>
        <time>2015-08-01T13:54:25Z</time>
      </trkpt>
      <trkpt lat="49.24054" lon="-0.26758">
        <ele>8.79</ele>
        <time>2015-08-01T13:54:26Z</time>
      </trkpt>
      <trkpt lat="49.24056" lon="-0.26765">
        <ele>9.27</ele>
        <time>2015-08-01T13:54:27Z</time>
      </trkpt>
      <trkpt lat="49.24083" lon="-0.26878">
        <ele>7.83</ele>
        <time>2015-08-01T13:54:43Z</time>
      </trkpt>
      <trkpt lat="49.24086" lon="-0.2689">
        <ele>7.83</ele>
        <time>2015-08-01T13:54:45Z</time>
      </trkpt>
      <trkpt lat="49.24089" lon="-0.26895">
        <ele>7.83</ele>
        <time>2015-08-01T13:54:46Z</time>
      </trkpt>
      <trkpt lat="49.24093" lon="-0.26898">
        <ele>7.83</ele>
        <time>2015-08-01T13:54:47Z</time>
      </trkpt>
      <trkpt lat="49.24099" lon="-0.26905">
        <ele>7.35</ele>
        <time>2015-08-01T13:54:50Z</time>
      </trkpt>
      <trkpt lat="49.24099" lon="-0.26908">
        <ele>7.35</ele>
        <time>2015-08-01T13:54:51Z</time>
      </trkpt>
      <trkpt lat="49.24102" lon="-0.26928">
        <ele>7.35</ele>
        <time>2015-08-01T13:54:55Z</time>
      </trkpt>
      <trkpt lat="49.24101" lon="-0.26933">
        <ele>7.35</ele>
        <time>2015-08-01T13:54:56Z</time>
      </trkpt>
      <trkpt lat="49.241" lon="-0.26939">
        <ele>7.35</ele>
        <time>2015-08-01T13:54:57Z</time>
      </trkpt>
      <trkpt lat="49.24099" lon="-0.26946">
        <ele>7.83</ele>
        <time>2015-08-01T13:54:58Z</time>
      </trkpt>
      <trkpt lat="49.241" lon="-0.26953">
        <ele>7.83</ele>
        <time>2015-08-01T13:54:59Z</time>
      </trkpt>
      <trkpt lat="49.24102" lon="-0.2696">
        <ele>7.83</ele>
        <time>2015-08-01T13:55:00Z</time>
      </trkpt>
      <trkpt lat="49.24105" lon="-0.26974">
        <ele>7.83</ele>
        <time>2015-08-01T13:55:02Z</time>
      </trkpt>
      <trkpt lat="49.24106" lon="-0.26982">
        <ele>7.35</ele>
        <time>2015-08-01T13:55:03Z</time>
      </trkpt>
      <trkpt lat="49.2414" lon="-0.27128">
        <ele>5.91</ele>
        <time>2015-08-01T13:55:23Z</time>
      </trkpt>
      <trkpt lat="49.24155" lon="-0.27187">
        <ele>6.87</ele>
        <time>2015-08-01T13:55:31Z</time>
      </trkpt>
      <trkpt lat="49.24162" lon="-0.27209">
        <ele>6.87</ele>
        <time>2015-08-01T13:55:34Z</time>
      </trkpt>
      <trkpt lat="49.24165" lon="-0.27215">
        <ele>6.87</ele>
        <time>2015-08-01T13:55:35Z</time>
      </trkpt>
      <trkpt lat="49.24182" lon="-0.2725">
        <ele>6.87</ele>
        <time>2015-08-01T13:55:42Z</time>
      </trkpt>
      <trkpt lat="49.24184" lon="-0.27252">
        <ele>6.87</ele>
        <time>2015-08-01T13:55:43Z</time>
      </trkpt>
      <trkpt lat="49.24186" lon="-0.27254">
        <ele>6.87</ele>
        <time>2015-08-01T13:55:44Z</time>
      </trkpt>
      <trkpt lat="49.24187" lon="-0.27257">
        <ele>6.87</ele>
        <time>2015-08-01T13:55:45Z</time>
      </trkpt>
      <trkpt lat="49.24189" lon="-0.2726">
        <ele>7.35</ele>
        <time>2015-08-01T13:55:46Z</time>
      </trkpt>
      <trkpt lat="49.242" lon="-0.27303">
        <ele>6.87</ele>
        <time>2015-08-01T13:55:55Z</time>
      </trkpt>
      <trkpt lat="49.24226" lon="-0.27355">
        <ele>7.83</ele>
        <time>2015-08-01T13:56:09Z</time>
      </trkpt>
      <trkpt lat="49.2423" lon="-0.27366">
        <ele>7.83</ele>
        <time>2015-08-01T13:56:19Z</time>
      </trkpt>
      <trkpt lat="49.24232" lon="-0.27375">
        <ele>7.83</ele>
        <time>2015-08-01T13:56:46Z</time>
      </trkpt>
      <trkpt lat="49.24233" lon="-0.27377">
        <ele>7.83</ele>
        <time>2015-08-01T13:56:47Z</time>
      </trkpt>
      <trkpt lat="49.24235" lon="-0.2738">
        <ele>7.83</ele>
        <time>2015-08-01T13:56:48Z</time>
      </trkpt>
      <trkpt lat="49.24235" lon="-0.27384">
        <ele>7.83</ele>
        <time>2015-08-01T13:56:49Z</time>
      </trkpt>
      <trkpt lat="49.2424" lon="-0.27402">
        <ele>7.83</ele>
        <time>2015-08-01T13:56:54Z</time>
      </trkpt>
      <trkpt lat="49.24239" lon="-0.27405">
        <ele>8.31</ele>
        <time>2015-08-01T13:56:55Z</time>
      </trkpt>
      <trkpt lat="49.2424" lon="-0.27409">
        <ele>7.83</ele>
        <time>2015-08-01T13:56:56Z</time>
      </trkpt>
      <trkpt lat="49.2424" lon="-0.27412">
        <ele>7.83</ele>
        <time>2015-08-01T13:56:57Z</time>
      </trkpt>
      <trkpt lat="49.24242" lon="-0.27416">
        <ele>7.83</ele>
        <time>2015-08-01T13:56:58Z</time>
      </trkpt>
      <trkpt lat="49.2426" lon="-0.27473">
        <ele>8.31</ele>
        <time>2015-08-01T13:57:15Z</time>
      </trkpt>
      <trkpt lat="49.24265" lon="-0.27496">
        <ele>8.31</ele>
        <time>2015-08-01T13:57:25Z</time>
      </trkpt>
      <trkpt lat="49.24265" lon="-0.27497">
        <ele>7.83</ele>
        <time>2015-08-01T13:57:26Z</time>
      </trkpt>
      <trkpt lat="49.24264" lon="-0.27498">
        <ele>8.31</ele>
        <time>2015-08-01T13:57:27Z</time>
      </trkpt>
      <trkpt lat="49.24264" lon="-0.27494">
        <ele>8.31</ele>
        <time>2015-08-01T13:57:37Z</time>
      </trkpt>
      <trkpt lat="49.24264" lon="-0.27494">
        <ele>8.31</ele>
        <time>2015-08-01T13:57:58Z</time>
      </trkpt>
      <trkpt lat="49.24264" lon="-0.27494">
        <ele>8.31</ele>
        <time>2015-08-01T13:58:27Z</time>
      </trkpt>
      <trkpt lat="49.24264" lon="-0.27494">
        <ele>8.79</ele>
        <time>2015-08-01T13:58:50Z</time>
      </trkpt>
      <trkpt lat="49.24264" lon="-0.27494">
        <ele>8.31</ele>
        <time>2015-08-01T13:59:23Z</time>
      </trkpt>
      <trkpt lat="49.24264" lon="-0.27494">
        <ele>8.31</ele>
        <time>2015-08-01T13:59:39Z</time>
      </trkpt>
      <trkpt lat="49.24264" lon="-0.27492">
        <ele>8.31</ele>
        <time>2015-08-01T13:59:40Z</time>
      </trkpt>
      <trkpt lat="49.24264" lon="-0.27489">
        <ele>8.31</ele>
        <time>2015-08-01T13:59:41Z</time>
      </trkpt>
      <trkpt lat="49.24264" lon="-0.27486">
        <ele>7.83</ele>
        <time>2015-08-01T13:59:42Z</time>
      </trkpt>
      <trkpt lat="49.24264" lon="-0.27484">
        <ele>8.31</ele>
        <time>2015-08-01T13:59:43Z</time>
      </trkpt>
      <trkpt lat="49.24259" lon="-0.27481">
        <ele>8.31</ele>
        <time>2015-08-01T13:59:50Z</time>
      </trkpt>
      <trkpt lat="49.24259" lon="-0.27483">
        <ele>7.83</ele>
        <time>2015-08-01T13:59:51Z</time>
      </trkpt>
      <trkpt lat="49.24259" lon="-0.27485">
        <ele>8.31</ele>
        <time>2015-08-01T13:59:52Z</time>
      </trkpt>
      <trkpt lat="49.24257" lon="-0.27486">
        <ele>7.83</ele>
        <time>2015-08-01T13:59:53Z</time>
      </trkpt>
      <trkpt lat="49.24254" lon="-0.27485">
        <ele>7.83</ele>
        <time>2015-08-01T13:59:54Z</time>
      </trkpt>
      <trkpt lat="49.24252" lon="-0.27483">
        <ele>7.83</ele>
        <time>2015-08-01T13:59:55Z</time>
      </trkpt>
      <trkpt lat="49.24251" lon="-0.2748">
        <ele>8.31</ele>
        <time>2015-08-01T13:59:56Z</time>
      </trkpt>
      <trkpt lat="49.24249" lon="-0.27476">
        <ele>8.31</ele>
        <time>2015-08-01T13:59:57Z</time>
      </trkpt>
      <trkpt lat="49.24248" lon="-0.27472">
        <ele>8.31</ele>
        <time>2015-08-01T13:59:58Z</time>
      </trkpt>
      <trkpt lat="49.24248" lon="-0.27468">
        <ele>8.79</ele>
        <time>2015-08-01T13:59:59Z</time>
      </trkpt>
      <trkpt lat="49.24247" lon="-0.27464">
        <ele>8.31</ele>
        <time>2015-08-01T14:00:00Z</time>
      </trkpt>
      <trkpt lat="49.24232" lon="-0.27418">
        <ele>8.79</ele>
        <time>2015-08-01T14:00:11Z</time>
      </trkpt>
      <trkpt lat="49.24229" lon="-0.27416">
        <ele>8.31</ele>
        <time>2015-08-01T14:00:12Z</time>
      </trkpt>
      <trkpt lat="49.24228" lon="-0.27413">
        <ele>8.79</ele>
        <time>2015-08-01T14:00:13Z</time>
      </trkpt>
      <trkpt lat="49.24206" lon="-0.27355">
        <ele>8.79</ele>
        <time>2015-08-01T14:00:26Z</time>
      </trkpt>
      <trkpt lat="49.24174" lon="-0.27277">
        <ele>6.87</ele>
        <time>2015-08-01T14:00:42Z</time>
      </trkpt>
      <trkpt lat="49.24165" lon="-0.27246">
        <ele>7.35</ele>
        <time>2015-08-01T14:00:53Z</time>
      </trkpt>
      <trkpt lat="49.24165" lon="-0.27246">
        <ele>7.35</ele>
        <time>2015-08-01T14:01:12Z</time>
      </trkpt>
      <trkpt lat="49.24165" lon="-0.27245">
        <ele>6.87</ele>
        <time>2015-08-01T14:01:22Z</time>
      </trkpt>
      <trkpt lat="49.24165" lon="-0.27246">
        <ele>6.87</ele>
        <time>2015-08-01T14:01:23Z</time>
      </trkpt>
      <trkpt lat="49.24166" lon="-0.27248">
        <ele>6.87</ele>
        <time>2015-08-01T14:01:24Z</time>
      </trkpt>
      <trkpt lat="49.24167" lon="-0.2725">
        <ele>6.87</ele>
        <time>2015-08-01T14:01:25Z</time>
      </trkpt>
      <trkpt lat="49.24167" lon="-0.27252">
        <ele>7.35</ele>
        <time>2015-08-01T14:01:26Z</time>
      </trkpt>
      <trkpt lat="49.24168" lon="-0.27254">
        <ele>6.87</ele>
        <time>2015-08-01T14:01:27Z</time>
      </trkpt>
      <trkpt lat="49.24169" lon="-0.27257">
        <ele>6.87</ele>
        <time>2015-08-01T14:01:28Z</time>
      </trkpt>
      <trkpt lat="49.2418" lon="-0.27291">
        <ele>7.35</ele>
        <time>2015-08-01T14:01:38Z</time>
      </trkpt>
      <trkpt lat="49.2419" lon="-0.27312">
        <ele>7.83</ele>
        <time>2015-08-01T14:01:46Z</time>
      </trkpt>
      <trkpt lat="49.24189" lon="-0.27313">
        <ele>7.35</ele>
        <time>2015-08-01T14:01:47Z</time>
      </trkpt>
      <trkpt lat="49.24188" lon="-0.27313">
        <ele>7.83</ele>
        <time>2015-08-01T14:01:48Z</time>
      </trkpt>
      <trkpt lat="49.24187" lon="-0.27312">
        <ele>7.35</ele>
        <time>2015-08-01T14:01:49Z</time>
      </trkpt>
      <trkpt lat="49.24187" lon="-0.27311">
        <ele>7.83</ele>
        <time>2015-08-01T14:01:50Z</time>
      </trkpt>
      <trkpt lat="49.24187" lon="-0.27308">
        <ele>7.35</ele>
        <time>2015-08-01T14:02:02Z</time>
      </trkpt>
      <trkpt lat="49.24186" lon="-0.27306">
        <ele>7.83</ele>
        <time>2015-08-01T14:02:07Z</time>
      </trkpt>
      <trkpt lat="49.24185" lon="-0.27305">
        <ele>7.35</ele>
        <time>2015-08-01T14:02:08Z</time>
      </trkpt>
      <trkpt lat="49.24172" lon="-0.27263">
        <ele>7.35</ele>
        <time>2015-08-01T14:02:18Z</time>
      </trkpt>
      <trkpt lat="49.24154" lon="-0.27216">
        <ele>7.35</ele>
        <time>2015-08-01T14:02:26Z</time>
      </trkpt>
      <trkpt lat="49.24152" lon="-0.2721">
        <ele>7.35</ele>
        <time>2015-08-01T14:02:27Z</time>
      </trkpt>
      <trkpt lat="49.2415" lon="-0.27203">
        <ele>6.87</ele>
        <time>2015-08-01T14:02:28Z</time>
      </trkpt>
      <trkpt lat="49.24148" lon="-0.27196">
        <ele>7.35</ele>
        <time>2015-08-01T14:02:29Z</time>
      </trkpt>
      <trkpt lat="49.24146" lon="-0.2719">
        <ele>6.87</ele>
        <time>2015-08-01T14:02:30Z</time>
      </trkpt>
      <trkpt lat="49.24115" lon="-0.27064">
        <ele>6.87</ele>
        <time>2015-08-01T14:02:49Z</time>
      </trkpt>
      <trkpt lat="49.24092" lon="-0.26965">
        <ele>7.35</ele>
        <time>2015-08-01T14:03:04Z</time>
      </trkpt>
      <trkpt lat="49.2409" lon="-0.26959">
        <ele>7.35</ele>
        <time>2015-08-01T14:03:05Z</time>
      </trkpt>
      <trkpt lat="49.24085" lon="-0.26949">
        <ele>7.35</ele>
        <time>2015-08-01T14:03:07Z</time>
      </trkpt>
      <trkpt lat="49.24081" lon="-0.26945">
        <ele>7.35</ele>
        <time>2015-08-01T14:03:08Z</time>
      </trkpt>
      <trkpt lat="49.24075" lon="-0.2694">
        <ele>7.35</ele>
        <time>2015-08-01T14:03:10Z</time>
      </trkpt>
      <trkpt lat="49.24073" lon="-0.26936">
        <ele>7.35</ele>
        <time>2015-08-01T14:03:11Z</time>
      </trkpt>
      <trkpt lat="49.24072" lon="-0.26931">
        <ele>7.35</ele>
        <time>2015-08-01T14:03:12Z</time>
      </trkpt>
      <trkpt lat="49.24072" lon="-0.26927">
        <ele>7.35</ele>
        <time>2015-08-01T14:03:13Z</time>
      </trkpt>
      <trkpt lat="49.24071" lon="-0.26922">
        <ele>7.35</ele>
        <time>2015-08-01T14:03:14Z</time>
      </trkpt>
      <trkpt lat="49.24071" lon="-0.26917">
        <ele>7.35</ele>
        <time>2015-08-01T14:03:15Z</time>
      </trkpt>
      <trkpt lat="49.24072" lon="-0.26912">
        <ele>7.83</ele>
        <time>2015-08-01T14:03:16Z</time>
      </trkpt>
      <trkpt lat="49.24073" lon="-0.26906">
        <ele>7.35</ele>
        <time>2015-08-01T14:03:17Z</time>
      </trkpt>
      <trkpt lat="49.24074" lon="-0.269">
        <ele>7.35</ele>
        <time>2015-08-01T14:03:18Z</time>
      </trkpt>
      <trkpt lat="49.24073" lon="-0.26894">
        <ele>7.83</ele>
        <time>2015-08-01T14:03:19Z</time>
      </trkpt>
      <trkpt lat="49.24072" lon="-0.26888">
        <ele>7.83</ele>
        <time>2015-08-01T14:03:20Z</time>
      </trkpt>
      <trkpt lat="49.24045" lon="-0.26766">
        <ele>8.79</ele>
        <time>2015-08-01T14:03:39Z</time>
      </trkpt>
      <trkpt lat="49.24031" lon="-0.26698">
        <ele>9.27</ele>
        <time>2015-08-01T14:03:51Z</time>
      </trkpt>
      <trkpt lat="49.2401" lon="-0.26616">
        <ele>9.27</ele>
        <time>2015-08-01T14:04:05Z</time>
      </trkpt>
      <trkpt lat="49.24005" lon="-0.26612">
        <ele>8.79</ele>
        <time>2015-08-01T14:04:08Z</time>
      </trkpt>
      <trkpt lat="49.24006" lon="-0.2661">
        <ele>8.79</ele>
        <time>2015-08-01T14:04:22Z</time>
      </trkpt>
      <trkpt lat="49.24006" lon="-0.26609">
        <ele>8.79</ele>
        <time>2015-08-01T14:04:51Z</time>
      </trkpt>
      <trkpt lat="49.24005" lon="-0.26609">
        <ele>8.79</ele>
        <time>2015-08-01T14:05:10Z</time>
      </trkpt>
      <trkpt lat="49.24005" lon="-0.26609">
        <ele>8.79</ele>
        <time>2015-08-01T14:05:47Z</time>
      </trkpt>
      <trkpt lat="49.24005" lon="-0.26608">
        <ele>8.79</ele>
        <time>2015-08-01T14:06:19Z</time>
      </trkpt>
      <trkpt lat="49.24006" lon="-0.26607">
        <ele>8.79</ele>
        <time>2015-08-01T14:06:44Z</time>
      </trkpt>
      <trkpt lat="49.24007" lon="-0.26605">
        <ele>8.79</ele>
        <time>2015-08-01T14:06:45Z</time>
      </trkpt>
      <trkpt lat="49.24008" lon="-0.26602">
        <ele>8.79</ele>
        <time>2015-08-01T14:06:56Z</time>
      </trkpt>
      <trkpt lat="49.24008" lon="-0.266">
        <ele>8.31</ele>
        <time>2015-08-01T14:07:04Z</time>
      </trkpt>
      <trkpt lat="49.24007" lon="-0.26597">
        <ele>8.79</ele>
        <time>2015-08-01T14:07:05Z</time>
      </trkpt>
      <trkpt lat="49.24007" lon="-0.26595">
        <ele>8.79</ele>
        <time>2015-08-01T14:07:06Z</time>
      </trkpt>
      <trkpt lat="49.24006" lon="-0.26592">
        <ele>8.79</ele>
        <time>2015-08-01T14:07:07Z</time>
      </trkpt>
      <trkpt lat="49.24005" lon="-0.26588">
        <ele>8.79</ele>
        <time>2015-08-01T14:07:08Z</time>
      </trkpt>
      <trkpt lat="49.24004" lon="-0.26583">
        <ele>8.31</ele>
        <time>2015-08-01T14:07:09Z</time>
      </trkpt>
      <trkpt lat="49.24003" lon="-0.26577">
        <ele>8.79</ele>
        <time>2015-08-01T14:07:10Z</time>
      </trkpt>
      <trkpt lat="49.23998" lon="-0.26555">
        <ele>9.27</ele>
        <time>2015-08-01T14:07:14Z</time>
      </trkpt>
      <trkpt lat="49.23993" lon="-0.26528">
        <ele>9.27</ele>
        <time>2015-08-01T14:07:18Z</time>
      </trkpt>
      <trkpt lat="49.23989" lon="-0.26516">
        <ele>8.79</ele>
        <time>2015-08-01T14:07:20Z</time>
      </trkpt>
      <trkpt lat="49.23969" lon="-0.26439">
        <ele>9.27</ele>
        <time>2015-08-01T14:07:32Z</time>
      </trkpt>
      <trkpt lat="49.23967" lon="-0.26434">
        <ele>9.27</ele>
        <time>2015-08-01T14:07:33Z</time>
      </trkpt>
      <trkpt lat="49.23961" lon="-0.26423">
        <ele>9.27</ele>
        <time>2015-08-01T14:07:35Z</time>
      </trkpt>
      <trkpt lat="49.23958" lon="-0.26419">
        <ele>9.27</ele>
        <time>2015-08-01T14:07:36Z</time>
      </trkpt>
      <trkpt lat="49.23955" lon="-0.26415">
        <ele>8.79</ele>
        <time>2015-08-01T14:07:37Z</time>
      </trkpt>
      <trkpt lat="49.23952" lon="-0.26412">
        <ele>9.75</ele>
        <time>2015-08-01T14:07:38Z</time>
      </trkpt>
      <trkpt lat="49.23948" lon="-0.2641">
        <ele>9.27</ele>
        <time>2015-08-01T14:07:39Z</time>
      </trkpt>
      <trkpt lat="49.23943" lon="-0.2641">
        <ele>9.27</ele>
        <time>2015-08-01T14:07:40Z</time>
      </trkpt>
      <trkpt lat="49.23939" lon="-0.2641">
        <ele>9.27</ele>
        <time>2015-08-01T14:07:41Z</time>
      </trkpt>
      <trkpt lat="49.23935" lon="-0.2641">
        <ele>8.79</ele>
        <time>2015-08-01T14:07:42Z</time>
      </trkpt>
      <trkpt lat="49.2393" lon="-0.26408">
        <ele>9.27</ele>
        <time>2015-08-01T14:07:43Z</time>
      </trkpt>
      <trkpt lat="49.23926" lon="-0.26406">
        <ele>9.27</ele>
        <time>2015-08-01T14:07:44Z</time>
      </trkpt>
      <trkpt lat="49.23922" lon="-0.26402">
        <ele>9.27</ele>
        <time>2015-08-01T14:07:45Z</time>
      </trkpt>
      <trkpt lat="49.23919" lon="-0.26398">
        <ele>9.27</ele>
        <time>2015-08-01T14:07:46Z</time>
      </trkpt>
      <trkpt lat="49.23916" lon="-0.26393">
        <ele>8.79</ele>
        <time>2015-08-01T14:07:47Z</time>
      </trkpt>
      <trkpt lat="49.23914" lon="-0.26387">
        <ele>9.27</ele>
        <time>2015-08-01T14:07:48Z</time>
      </trkpt>
      <trkpt lat="49.23912" lon="-0.26381">
        <ele>8.79</ele>
        <time>2015-08-01T14:07:49Z</time>
      </trkpt>
      <trkpt lat="49.23911" lon="-0.26374">
        <ele>8.79</ele>
        <time>2015-08-01T14:07:50Z</time>
      </trkpt>
      <trkpt lat="49.23906" lon="-0.26355">
        <ele>8.79</ele>
        <time>2015-08-01T14:07:53Z</time>
      </trkpt>
      <trkpt lat="49.23904" lon="-0.2635">
        <ele>8.79</ele>
        <time>2015-08-01T14:07:54Z</time>
      </trkpt>
      <trkpt lat="49.23901" lon="-0.26345">
        <ele>8.79</ele>
        <time>2015-08-01T14:07:55Z</time>
      </trkpt>
      <trkpt lat="49.23896" lon="-0.26335">
        <ele>8.79</ele>
        <time>2015-08-01T14:07:57Z</time>
      </trkpt>
      <trkpt lat="49.23894" lon="-0.26329">
        <ele>9.27</ele>
        <time>2015-08-01T14:07:58Z</time>
      </trkpt>
      <trkpt lat="49.2389" lon="-0.26315">
        <ele>9.27</ele>
        <time>2015-08-01T14:08:01Z</time>
      </trkpt>
      <trkpt lat="49.23889" lon="-0.26311">
        <ele>9.27</ele>
        <time>2015-08-01T14:08:12Z</time>
      </trkpt>
      <trkpt lat="49.2389" lon="-0.26311">
        <ele>8.79</ele>
        <time>2015-08-01T14:08:37Z</time>
      </trkpt>
      <trkpt lat="49.23891" lon="-0.26311">
        <ele>9.27</ele>
        <time>2015-08-01T14:09:02Z</time>
      </trkpt>
      <trkpt lat="49.2389" lon="-0.2631">
        <ele>8.79</ele>
        <time>2015-08-01T14:09:25Z</time>
      </trkpt>
      <trkpt lat="49.23891" lon="-0.2631">
        <ele>8.79</ele>
        <time>2015-08-01T14:09:57Z</time>
      </trkpt>
      <trkpt lat="49.23891" lon="-0.2631">
        <ele>8.79</ele>
        <time>2015-08-01T14:10:18Z</time>
      </trkpt>
      <trkpt lat="49.23891" lon="-0.26308">
        <ele>9.27</ele>
        <time>2015-08-01T14:10:42Z</time>
      </trkpt>
      <trkpt lat="49.23891" lon="-0.26308">
        <ele>9.27</ele>
        <time>2015-08-01T14:10:44Z</time>
      </trkpt>
      <trkpt lat="49.23892" lon="-0.26306">
        <ele>9.27</ele>
        <time>2015-08-01T14:10:45Z</time>
      </trkpt>
      <trkpt lat="49.23892" lon="-0.26303">
        <ele>8.79</ele>
        <time>2015-08-01T14:10:46Z</time>
      </trkpt>
      <trkpt lat="49.23892" lon="-0.26301">
        <ele>9.27</ele>
        <time>2015-08-01T14:10:47Z</time>
      </trkpt>
      <trkpt lat="49.23892" lon="-0.26298">
        <ele>8.31</ele>
        <time>2015-08-01T14:10:48Z</time>
      </trkpt>
      <trkpt lat="49.23895" lon="-0.26239">
        <ele>9.75</ele>
        <time>2015-08-01T14:11:00Z</time>
      </trkpt>
      <trkpt lat="49.23868" lon="-0.26191">
        <ele>12.15</ele>
        <time>2015-08-01T14:11:12Z</time>
      </trkpt>
      <trkpt lat="49.23825" lon="-0.26158">
        <ele>13.6</ele>
        <time>2015-08-01T14:11:27Z</time>
      </trkpt>
      <trkpt lat="49.23774" lon="-0.26094">
        <ele>16</ele>
        <time>2015-08-01T14:11:46Z</time>
      </trkpt>
      <trkpt lat="49.23736" lon="-0.2603">
        <ele>17.92</ele>
        <time>2015-08-01T14:12:02Z</time>
      </trkpt>
      <trkpt lat="49.2368" lon="-0.25973">
        <ele>18.4</ele>
        <time>2015-08-01T14:12:20Z</time>
      </trkpt>
      <trkpt lat="49.23607" lon="-0.25918">
        <ele>15.52</ele>
        <time>2015-08-01T14:12:35Z</time>
      </trkpt>
      <trkpt lat="49.23514" lon="-0.2585">
        <ele>13.6</ele>
        <time>2015-08-01T14:12:50Z</time>
      </trkpt>
      <trkpt lat="49.23508" lon="-0.25845">
        <ele>13.6</ele>
        <time>2015-08-01T14:12:51Z</time>
      </trkpt>
      <trkpt lat="49.23503" lon="-0.25839">
        <ele>13.6</ele>
        <time>2015-08-01T14:12:52Z</time>
      </trkpt>
      <trkpt lat="49.23434" lon="-0.25768">
        <ele>16.96</ele>
        <time>2015-08-01T14:13:07Z</time>
      </trkpt>
      <trkpt lat="49.23339" lon="-0.25672">
        <ele>17.44</ele>
        <time>2015-08-01T14:13:30Z</time>
      </trkpt>
      <trkpt lat="49.23315" lon="-0.25648">
        <ele>17.44</ele>
        <time>2015-08-01T14:13:36Z</time>
      </trkpt>
      <trkpt lat="49.23307" lon="-0.25643">
        <ele>17.44</ele>
        <time>2015-08-01T14:13:38Z</time>
      </trkpt>
      <trkpt lat="49.23304" lon="-0.25639">
        <ele>16.96</ele>
        <time>2015-08-01T14:13:39Z</time>
      </trkpt>
      <trkpt lat="49.233" lon="-0.25635">
        <ele>16.96</ele>
        <time>2015-08-01T14:13:40Z</time>
      </trkpt>
      <trkpt lat="49.23297" lon="-0.2563">
        <ele>17.44</ele>
        <time>2015-08-01T14:13:41Z</time>
      </trkpt>
      <trkpt lat="49.23293" lon="-0.25626">
        <ele>16.96</ele>
        <time>2015-08-01T14:13:42Z</time>
      </trkpt>
      <trkpt lat="49.23249" lon="-0.25581">
        <ele>16</ele>
        <time>2015-08-01T14:13:53Z</time>
      </trkpt>
      <trkpt lat="49.23245" lon="-0.25579">
        <ele>16</ele>
        <time>2015-08-01T14:13:54Z</time>
      </trkpt>
      <trkpt lat="49.23241" lon="-0.25575">
        <ele>16</ele>
        <time>2015-08-01T14:13:55Z</time>
      </trkpt>
      <trkpt lat="49.23237" lon="-0.25571">
        <ele>16.48</ele>
        <time>2015-08-01T14:13:56Z</time>
      </trkpt>
      <trkpt lat="49.23234" lon="-0.25566">
        <ele>16</ele>
        <time>2015-08-01T14:13:57Z</time>
      </trkpt>
      <trkpt lat="49.2323" lon="-0.25561">
        <ele>15.52</ele>
        <time>2015-08-01T14:13:58Z</time>
      </trkpt>
      <trkpt lat="49.23226" lon="-0.25558">
        <ele>16</ele>
        <time>2015-08-01T14:13:59Z</time>
      </trkpt>
      <trkpt lat="49.23222" lon="-0.25554">
        <ele>15.52</ele>
        <time>2015-08-01T14:14:00Z</time>
      </trkpt>
      <trkpt lat="49.23218" lon="-0.2555">
        <ele>15.52</ele>
        <time>2015-08-01T14:14:01Z</time>
      </trkpt>
      <trkpt lat="49.23216" lon="-0.25546">
        <ele>15.52</ele>
        <time>2015-08-01T14:14:02Z</time>
      </trkpt>
      <trkpt lat="49.23213" lon="-0.25542">
        <ele>15.52</ele>
        <time>2015-08-01T14:14:03Z</time>
      </trkpt>
      <trkpt lat="49.23211" lon="-0.2554">
        <ele>15.52</ele>
        <time>2015-08-01T14:14:04Z</time>
      </trkpt>
      <trkpt lat="49.23209" lon="-0.25538">
        <ele>15.04</ele>
        <time>2015-08-01T14:14:05Z</time>
      </trkpt>
      <trkpt lat="49.2318" lon="-0.25504">
        <ele>15.04</ele>
        <time>2015-08-01T14:14:16Z</time>
      </trkpt>
      <trkpt lat="49.2317" lon="-0.25495">
        <ele>15.04</ele>
        <time>2015-08-01T14:14:19Z</time>
      </trkpt>
      <trkpt lat="49.23167" lon="-0.25493">
        <ele>15.04</ele>
        <time>2015-08-01T14:14:20Z</time>
      </trkpt>
      <trkpt lat="49.23163" lon="-0.25491">
        <ele>15.04</ele>
        <time>2015-08-01T14:14:21Z</time>
      </trkpt>
      <trkpt lat="49.23118" lon="-0.25434">
        <ele>13.6</ele>
        <time>2015-08-01T14:14:38Z</time>
      </trkpt>
      <trkpt lat="49.23094" lon="-0.25382">
        <ele>12.63</ele>
        <time>2015-08-01T14:14:52Z</time>
      </trkpt>
      <trkpt lat="49.23068" lon="-0.25267">
        <ele>11.19</ele>
        <time>2015-08-01T14:15:08Z</time>
      </trkpt>
      <trkpt lat="49.23031" lon="-0.25142">
        <ele>10.71</ele>
        <time>2015-08-01T14:15:26Z</time>
      </trkpt>
      <trkpt lat="49.22975" lon="-0.25027">
        <ele>10.71</ele>
        <time>2015-08-01T14:15:44Z</time>
      </trkpt>
      <trkpt lat="49.22962" lon="-0.25002">
        <ele>11.19</ele>
        <time>2015-08-01T14:15:48Z</time>
      </trkpt>
      <trkpt lat="49.22959" lon="-0.24996">
        <ele>10.71</ele>
        <time>2015-08-01T14:15:49Z</time>
      </trkpt>
      <trkpt lat="49.22956" lon="-0.24989">
        <ele>10.71</ele>
        <time>2015-08-01T14:15:50Z</time>
      </trkpt>
      <trkpt lat="49.22952" lon="-0.24983">
        <ele>11.19</ele>
        <time>2015-08-01T14:15:51Z</time>
      </trkpt>
      <trkpt lat="49.22949" lon="-0.24976">
        <ele>10.71</ele>
        <time>2015-08-01T14:15:52Z</time>
      </trkpt>
      <trkpt lat="49.22946" lon="-0.2497">
        <ele>10.71</ele>
        <time>2015-08-01T14:15:53Z</time>
      </trkpt>
      <trkpt lat="49.22942" lon="-0.24964">
        <ele>10.71</ele>
        <time>2015-08-01T14:15:54Z</time>
      </trkpt>
      <trkpt lat="49.2294" lon="-0.24958">
        <ele>10.23</ele>
        <time>2015-08-01T14:15:55Z</time>
      </trkpt>
      <trkpt lat="49.22938" lon="-0.24951">
        <ele>11.19</ele>
        <time>2015-08-01T14:15:56Z</time>
      </trkpt>
      <trkpt lat="49.22936" lon="-0.24945">
        <ele>10.71</ele>
        <time>2015-08-01T14:15:57Z</time>
      </trkpt>
      <trkpt lat="49.22935" lon="-0.24938">
        <ele>10.71</ele>
        <time>2015-08-01T14:15:58Z</time>
      </trkpt>
      <trkpt lat="49.22933" lon="-0.24931">
        <ele>10.71</ele>
        <time>2015-08-01T14:15:59Z</time>
      </trkpt>
      <trkpt lat="49.22932" lon="-0.24924">
        <ele>11.19</ele>
        <time>2015-08-01T14:16:00Z</time>
      </trkpt>
      <trkpt lat="49.2291" lon="-0.24793">
        <ele>11.19</ele>
        <time>2015-08-01T14:16:17Z</time>
      </trkpt>
      <trkpt lat="49.22896" lon="-0.24694">
        <ele>10.71</ele>
        <time>2015-08-01T14:16:30Z</time>
      </trkpt>
      <trkpt lat="49.22886" lon="-0.24583">
        <ele>10.71</ele>
        <time>2015-08-01T14:16:44Z</time>
      </trkpt>
      <trkpt lat="49.22868" lon="-0.24458">
        <ele>11.67</ele>
        <time>2015-08-01T14:17:02Z</time>
      </trkpt>
      <trkpt lat="49.22851" lon="-0.24347">
        <ele>13.6</ele>
        <time>2015-08-01T14:17:21Z</time>
      </trkpt>
      <trkpt lat="49.22852" lon="-0.24346">
        <ele>13.6</ele>
        <time>2015-08-01T14:17:22Z</time>
      </trkpt>
      <trkpt lat="49.22854" lon="-0.24347">
        <ele>13.12</ele>
        <time>2015-08-01T14:17:23Z</time>
      </trkpt>
      <trkpt lat="49.22855" lon="-0.2435">
        <ele>13.12</ele>
        <time>2015-08-01T14:17:24Z</time>
      </trkpt>
      <trkpt lat="49.22856" lon="-0.24354">
        <ele>12.63</ele>
        <time>2015-08-01T14:17:25Z</time>
      </trkpt>
      <trkpt lat="49.22856" lon="-0.24358">
        <ele>13.12</ele>
        <time>2015-08-01T14:17:26Z</time>
      </trkpt>
      <trkpt lat="49.22857" lon="-0.24364">
        <ele>13.12</ele>
        <time>2015-08-01T14:17:27Z</time>
      </trkpt>
      <trkpt lat="49.22865" lon="-0.24408">
        <ele>12.15</ele>
        <time>2015-08-01T14:17:34Z</time>
      </trkpt>
      <trkpt lat="49.22864" lon="-0.24425">
        <ele>12.15</ele>
        <time>2015-08-01T14:17:37Z</time>
      </trkpt>
      <trkpt lat="49.22861" lon="-0.24431">
        <ele>12.15</ele>
        <time>2015-08-01T14:17:38Z</time>
      </trkpt>
      <trkpt lat="49.22858" lon="-0.24435">
        <ele>12.15</ele>
        <time>2015-08-01T14:17:39Z</time>
      </trkpt>
      <trkpt lat="49.22854" lon="-0.24439">
        <ele>11.67</ele>
        <time>2015-08-01T14:17:40Z</time>
      </trkpt>
      <trkpt lat="49.22849" lon="-0.24441">
        <ele>11.67</ele>
        <time>2015-08-01T14:17:41Z</time>
      </trkpt>
      <trkpt lat="49.22844" lon="-0.24443">
        <ele>11.67</ele>
        <time>2015-08-01T14:17:42Z</time>
      </trkpt>
      <trkpt lat="49.22839" lon="-0.24445">
        <ele>11.67</ele>
        <time>2015-08-01T14:17:43Z</time>
      </trkpt>
      <trkpt lat="49.22834" lon="-0.24447">
        <ele>11.67</ele>
        <time>2015-08-01T14:17:44Z</time>
      </trkpt>
      <trkpt lat="49.22829" lon="-0.2445">
        <ele>11.19</ele>
        <time>2015-08-01T14:17:45Z</time>
      </trkpt>
      <trkpt lat="49.22825" lon="-0.24454">
        <ele>11.67</ele>
        <time>2015-08-01T14:17:46Z</time>
      </trkpt>
      <trkpt lat="49.22821" lon="-0.24458">
        <ele>11.67</ele>
        <time>2015-08-01T14:17:47Z</time>
      </trkpt>
      <trkpt lat="49.22817" lon="-0.24462">
        <ele>11.19</ele>
        <time>2015-08-01T14:17:48Z</time>
      </trkpt>
      <trkpt lat="49.22741" lon="-0.24528">
        <ele>12.15</ele>
        <time>2015-08-01T14:18:05Z</time>
      </trkpt>
      <trkpt lat="49.22697" lon="-0.24552">
        <ele>12.63</ele>
        <time>2015-08-01T14:18:14Z</time>
      </trkpt>
      <trkpt lat="49.22661" lon="-0.24578">
        <ele>13.12</ele>
        <time>2015-08-01T14:18:22Z</time>
      </trkpt>
      <trkpt lat="49.22643" lon="-0.24585">
        <ele>13.12</ele>
        <time>2015-08-01T14:18:26Z</time>
      </trkpt>
      <trkpt lat="49.2262" lon="-0.24586">
        <ele>13.6</ele>
        <time>2015-08-01T14:18:31Z</time>
      </trkpt>
      <trkpt lat="49.2261" lon="-0.24587">
        <ele>13.6</ele>
        <time>2015-08-01T14:18:33Z</time>
      </trkpt>
      <trkpt lat="49.22596" lon="-0.24589">
        <ele>14.08</ele>
        <time>2015-08-01T14:18:36Z</time>
      </trkpt>
      <trkpt lat="49.22511" lon="-0.24584">
        <ele>14.08</ele>
        <time>2015-08-01T14:18:54Z</time>
      </trkpt>
      <trkpt lat="49.22442" lon="-0.24531">
        <ele>15.04</ele>
        <time>2015-08-01T14:19:09Z</time>
      </trkpt>
      <trkpt lat="49.22424" lon="-0.24518">
        <ele>15.04</ele>
        <time>2015-08-01T14:19:13Z</time>
      </trkpt>
      <trkpt lat="49.22346" lon="-0.2449">
        <ele>15.52</ele>
        <time>2015-08-01T14:19:29Z</time>
      </trkpt>
      <trkpt lat="49.22247" lon="-0.24486">
        <ele>15.52</ele>
        <time>2015-08-01T14:19:48Z</time>
      </trkpt>
      <trkpt lat="49.22242" lon="-0.24487">
        <ele>15.52</ele>
        <time>2015-08-01T14:19:49Z</time>
      </trkpt>
      <trkpt lat="49.22172" lon="-0.24508">
        <ele>15.52</ele>
        <time>2015-08-01T14:20:03Z</time>
      </trkpt>
      <trkpt lat="49.22126" lon="-0.2451">
        <ele>14.56</ele>
        <time>2015-08-01T14:20:12Z</time>
      </trkpt>
      <trkpt lat="49.22094" lon="-0.24511">
        <ele>15.52</ele>
        <time>2015-08-01T14:20:19Z</time>
      </trkpt>
      <trkpt lat="49.22089" lon="-0.24509">
        <ele>15.52</ele>
        <time>2015-08-01T14:20:20Z</time>
      </trkpt>
      <trkpt lat="49.2208" lon="-0.24505">
        <ele>15.04</ele>
        <time>2015-08-01T14:20:22Z</time>
      </trkpt>
      <trkpt lat="49.22075" lon="-0.24501">
        <ele>15.04</ele>
        <time>2015-08-01T14:20:23Z</time>
      </trkpt>
      <trkpt lat="49.22061" lon="-0.24482">
        <ele>15.52</ele>
        <time>2015-08-01T14:20:27Z</time>
      </trkpt>
      <trkpt lat="49.22032" lon="-0.24423">
        <ele>16</ele>
        <time>2015-08-01T14:20:37Z</time>
      </trkpt>
      <trkpt lat="49.22026" lon="-0.24413">
        <ele>16</ele>
        <time>2015-08-01T14:20:39Z</time>
      </trkpt>
      <trkpt lat="49.22011" lon="-0.24383">
        <ele>16</ele>
        <time>2015-08-01T14:20:45Z</time>
      </trkpt>
      <trkpt lat="49.22008" lon="-0.2438">
        <ele>15.52</ele>
        <time>2015-08-01T14:20:46Z</time>
      </trkpt>
      <trkpt lat="49.22004" lon="-0.24377">
        <ele>16</ele>
        <time>2015-08-01T14:20:47Z</time>
      </trkpt>
      <trkpt lat="49.22" lon="-0.24376">
        <ele>15.52</ele>
        <time>2015-08-01T14:20:48Z</time>
      </trkpt>
      <trkpt lat="49.21997" lon="-0.24376">
        <ele>15.52</ele>
        <time>2015-08-01T14:20:49Z</time>
      </trkpt>
      <trkpt lat="49.21993" lon="-0.24379">
        <ele>15.04</ele>
        <time>2015-08-01T14:20:50Z</time>
      </trkpt>
      <trkpt lat="49.2199" lon="-0.24383">
        <ele>15.52</ele>
        <time>2015-08-01T14:20:51Z</time>
      </trkpt>
      <trkpt lat="49.21988" lon="-0.24389">
        <ele>15.04</ele>
        <time>2015-08-01T14:20:52Z</time>
      </trkpt>
      <trkpt lat="49.21986" lon="-0.24396">
        <ele>15.04</ele>
        <time>2015-08-01T14:20:53Z</time>
      </trkpt>
      <trkpt lat="49.21984" lon="-0.24402">
        <ele>15.04</ele>
        <time>2015-08-01T14:20:54Z</time>
      </trkpt>
      <trkpt lat="49.21982" lon="-0.24409">
        <ele>14.56</ele>
        <time>2015-08-01T14:20:55Z</time>
      </trkpt>
      <trkpt lat="49.21979" lon="-0.24416">
        <ele>15.04</ele>
        <time>2015-08-01T14:20:56Z</time>
      </trkpt>
      <trkpt lat="49.21977" lon="-0.24424">
        <ele>14.56</ele>
        <time>2015-08-01T14:20:57Z</time>
      </trkpt>
      <trkpt lat="49.21958" lon="-0.24483">
        <ele>15.04</ele>
        <time>2015-08-01T14:21:08Z</time>
      </trkpt>
      <trkpt lat="49.21943" lon="-0.24534">
        <ele>15.04</ele>
        <time>2015-08-01T14:21:21Z</time>
      </trkpt>
      <trkpt lat="49.21923" lon="-0.2459">
        <ele>15.04</ele>
        <time>2015-08-01T14:21:32Z</time>
      </trkpt>
      <trkpt lat="49.21901" lon="-0.24639">
        <ele>15.52</ele>
        <time>2015-08-01T14:21:41Z</time>
      </trkpt>
      <trkpt lat="49.21892" lon="-0.24654">
        <ele>15.52</ele>
        <time>2015-08-01T14:21:44Z</time>
      </trkpt>
      <trkpt lat="49.21857" lon="-0.247">
        <ele>16</ele>
        <time>2015-08-01T14:21:58Z</time>
      </trkpt>
      <trkpt lat="49.21856" lon="-0.24701">
        <ele>4.94</ele>
        <time>2015-08-01T14:22:07Z</time>
      </trkpt>
      <trkpt lat="49.21856" lon="-0.24701">
        <ele>17.44</ele>
        <time>2015-08-01T14:22:08Z</time>
      </trkpt>
      <trkpt lat="49.21856" lon="-0.24701">
        <ele>16</ele>
        <time>2015-08-01T14:22:11Z</time>
      </trkpt>
      <trkpt lat="49.21856" lon="-0.24701">
        <ele>10.71</ele>
        <time>2015-08-01T14:22:12Z</time>
      </trkpt>
      <trkpt lat="49.21856" lon="-0.24701">
        <ele>22.25</ele>
        <time>2015-08-01T14:22:13Z</time>
      </trkpt>
      <trkpt lat="49.21856" lon="-0.24701">
        <ele>10.23</ele>
        <time>2015-08-01T14:22:14Z</time>
      </trkpt>
      <trkpt lat="49.21856" lon="-0.24701">
        <ele>20.81</ele>
        <time>2015-08-01T14:22:15Z</time>
      </trkpt>
      <trkpt lat="49.21856" lon="-0.24701">
        <ele>16</ele>
        <time>2015-08-01T14:22:16Z</time>
      </trkpt>
      <trkpt lat="49.21856" lon="-0.24701">
        <ele>22.25</ele>
        <time>2015-08-01T14:22:17Z</time>
      </trkpt>
      <trkpt lat="49.21856" lon="-0.24701">
        <ele>16.96</ele>
        <time>2015-08-01T14:22:18Z</time>
      </trkpt>
      <trkpt lat="49.21856" lon="-0.24701">
        <ele>16</ele>
        <time>2015-08-01T14:22:20Z</time>
      </trkpt>
      <trkpt lat="49.21857" lon="-0.24701">
        <ele>16</ele>
        <time>2015-08-01T14:22:34Z</time>
      </trkpt>
      <trkpt lat="49.21855" lon="-0.24701">
        <ele>15.52</ele>
        <time>2015-08-01T14:22:35Z</time>
      </trkpt>
      <trkpt lat="49.21854" lon="-0.24701">
        <ele>16</ele>
        <time>2015-08-01T14:22:36Z</time>
      </trkpt>
      <trkpt lat="49.21852" lon="-0.24698">
        <ele>16</ele>
        <time>2015-08-01T14:22:37Z</time>
      </trkpt>
      <trkpt lat="49.2185" lon="-0.24695">
        <ele>16</ele>
        <time>2015-08-01T14:22:38Z</time>
      </trkpt>
      <trkpt lat="49.21847" lon="-0.2469">
        <ele>15.52</ele>
        <time>2015-08-01T14:22:39Z</time>
      </trkpt>
      <trkpt lat="49.21845" lon="-0.24685">
        <ele>16</ele>
        <time>2015-08-01T14:22:40Z</time>
      </trkpt>
      <trkpt lat="49.21841" lon="-0.24681">
        <ele>16</ele>
        <time>2015-08-01T14:22:41Z</time>
      </trkpt>
      <trkpt lat="49.21837" lon="-0.24677">
        <ele>16</ele>
        <time>2015-08-01T14:22:42Z</time>
      </trkpt>
      <trkpt lat="49.21834" lon="-0.24673">
        <ele>16.48</ele>
        <time>2015-08-01T14:22:43Z</time>
      </trkpt>
      <trkpt lat="49.21793" lon="-0.24639">
        <ele>16.96</ele>
        <time>2015-08-01T14:22:54Z</time>
      </trkpt>
      <trkpt lat="49.21767" lon="-0.24616">
        <ele>16.48</ele>
        <time>2015-08-01T14:23:01Z</time>
      </trkpt>
      <trkpt lat="49.2176" lon="-0.24609">
        <ele>16.48</ele>
        <time>2015-08-01T14:23:03Z</time>
      </trkpt>
      <trkpt lat="49.21718" lon="-0.2458">
        <ele>16.96</ele>
        <time>2015-08-01T14:23:16Z</time>
      </trkpt>
      <trkpt lat="49.21716" lon="-0.24581">
        <ele>17.44</ele>
        <time>2015-08-01T14:23:26Z</time>
      </trkpt>
      <trkpt lat="49.21715" lon="-0.24579">
        <ele>16.96</ele>
        <time>2015-08-01T14:23:29Z</time>
      </trkpt>
      <trkpt lat="49.21713" lon="-0.24577">
        <ele>16.96</ele>
        <time>2015-08-01T14:23:30Z</time>
      </trkpt>
      <trkpt lat="49.21711" lon="-0.24574">
        <ele>16.96</ele>
        <time>2015-08-01T14:23:31Z</time>
      </trkpt>
      <trkpt lat="49.21709" lon="-0.24573">
        <ele>17.92</ele>
        <time>2015-08-01T14:23:32Z</time>
      </trkpt>
      <trkpt lat="49.21706" lon="-0.24571">
        <ele>17.44</ele>
        <time>2015-08-01T14:23:33Z</time>
      </trkpt>
      <trkpt lat="49.2169" lon="-0.24561">
        <ele>18.88</ele>
        <time>2015-08-01T14:23:38Z</time>
      </trkpt>
      <trkpt lat="49.21653" lon="-0.24541">
        <ele>21.77</ele>
        <time>2015-08-01T14:23:51Z</time>
      </trkpt>
      <trkpt lat="49.21608" lon="-0.24518">
        <ele>23.21</ele>
        <time>2015-08-01T14:24:08Z</time>
      </trkpt>
      <trkpt lat="49.21539" lon="-0.24485">
        <ele>21.77</ele>
        <time>2015-08-01T14:24:26Z</time>
      </trkpt>
      <trkpt lat="49.2146" lon="-0.24431">
        <ele>19.84</ele>
        <time>2015-08-01T14:24:39Z</time>
      </trkpt>
      <trkpt lat="49.21371" lon="-0.24378">
        <ele>19.36</ele>
        <time>2015-08-01T14:24:52Z</time>
      </trkpt>
      <trkpt lat="49.21274" lon="-0.24375">
        <ele>21.77</ele>
        <time>2015-08-01T14:25:06Z</time>
      </trkpt>
      <trkpt lat="49.21256" lon="-0.24377">
        <ele>22.25</ele>
        <time>2015-08-01T14:25:09Z</time>
      </trkpt>
      <trkpt lat="49.21206" lon="-0.24372">
        <ele>23.21</ele>
        <time>2015-08-01T14:25:20Z</time>
      </trkpt>
      <trkpt lat="49.21202" lon="-0.24371">
        <ele>23.21</ele>
        <time>2015-08-01T14:25:21Z</time>
      </trkpt>
      <trkpt lat="49.21144" lon="-0.2436">
        <ele>23.69</ele>
        <time>2015-08-01T14:25:35Z</time>
      </trkpt>
      <trkpt lat="49.21141" lon="-0.24358">
        <ele>23.69</ele>
        <time>2015-08-01T14:25:36Z</time>
      </trkpt>
      <trkpt lat="49.21137" lon="-0.24355">
        <ele>23.69</ele>
        <time>2015-08-01T14:25:37Z</time>
      </trkpt>
      <trkpt lat="49.21134" lon="-0.2435">
        <ele>23.69</ele>
        <time>2015-08-01T14:25:38Z</time>
      </trkpt>
      <trkpt lat="49.21121" lon="-0.24329">
        <ele>22.25</ele>
        <time>2015-08-01T14:25:42Z</time>
      </trkpt>
      <trkpt lat="49.21119" lon="-0.24322">
        <ele>22.73</ele>
        <time>2015-08-01T14:25:43Z</time>
      </trkpt>
      <trkpt lat="49.21106" lon="-0.24275">
        <ele>21.77</ele>
        <time>2015-08-01T14:25:53Z</time>
      </trkpt>
      <trkpt lat="49.21106" lon="-0.24276">
        <ele>16</ele>
        <time>2015-08-01T14:25:58Z</time>
      </trkpt>
      <trkpt lat="49.21105" lon="-0.24276">
        <ele>34.26</ele>
        <time>2015-08-01T14:25:59Z</time>
      </trkpt>
      <trkpt lat="49.21105" lon="-0.24276">
        <ele>22.25</ele>
        <time>2015-08-01T14:26:00Z</time>
      </trkpt>
      <trkpt lat="49.21106" lon="-0.24273">
        <ele>21.29</ele>
        <time>2015-08-01T14:26:19Z</time>
      </trkpt>
      <trkpt lat="49.21105" lon="-0.2427">
        <ele>21.29</ele>
        <time>2015-08-01T14:26:20Z</time>
      </trkpt>
      <trkpt lat="49.21104" lon="-0.24255">
        <ele>21.29</ele>
        <time>2015-08-01T14:26:23Z</time>
      </trkpt>
      <trkpt lat="49.21102" lon="-0.24249">
        <ele>20.81</ele>
        <time>2015-08-01T14:26:24Z</time>
      </trkpt>
      <trkpt lat="49.21099" lon="-0.24236">
        <ele>21.29</ele>
        <time>2015-08-01T14:26:26Z</time>
      </trkpt>
      <trkpt lat="49.21097" lon="-0.24229">
        <ele>21.29</ele>
        <time>2015-08-01T14:26:27Z</time>
      </trkpt>
      <trkpt lat="49.21076" lon="-0.24161">
        <ele>20.81</ele>
        <time>2015-08-01T14:26:37Z</time>
      </trkpt>
      <trkpt lat="49.21075" lon="-0.24155">
        <ele>21.29</ele>
        <time>2015-08-01T14:26:38Z</time>
      </trkpt>
      <trkpt lat="49.21073" lon="-0.24148">
        <ele>21.29</ele>
        <time>2015-08-01T14:26:39Z</time>
      </trkpt>
      <trkpt lat="49.21072" lon="-0.24141">
        <ele>21.29</ele>
        <time>2015-08-01T14:26:40Z</time>
      </trkpt>
      <trkpt lat="49.21071" lon="-0.24133">
        <ele>20.81</ele>
        <time>2015-08-01T14:26:41Z</time>
      </trkpt>
      <trkpt lat="49.21069" lon="-0.24086">
        <ele>21.29</ele>
        <time>2015-08-01T14:26:47Z</time>
      </trkpt>
      <trkpt lat="49.21072" lon="-0.2399">
        <ele>20.32</ele>
        <time>2015-08-01T14:27:00Z</time>
      </trkpt>
      <trkpt lat="49.21076" lon="-0.23867">
        <ele>21.77</ele>
        <time>2015-08-01T14:27:15Z</time>
      </trkpt>
      <trkpt lat="49.21075" lon="-0.23849">
        <ele>21.77</ele>
        <time>2015-08-01T14:27:18Z</time>
      </trkpt>
      <trkpt lat="49.21072" lon="-0.23845">
        <ele>21.29</ele>
        <time>2015-08-01T14:27:19Z</time>
      </trkpt>
      <trkpt lat="49.21068" lon="-0.23844">
        <ele>21.77</ele>
        <time>2015-08-01T14:27:20Z</time>
      </trkpt>
      <trkpt lat="49.21064" lon="-0.23845">
        <ele>22.25</ele>
        <time>2015-08-01T14:27:21Z</time>
      </trkpt>
      <trkpt lat="49.2106" lon="-0.23846">
        <ele>22.25</ele>
        <time>2015-08-01T14:27:22Z</time>
      </trkpt>
      <trkpt lat="49.21055" lon="-0.23847">
        <ele>22.25</ele>
        <time>2015-08-01T14:27:23Z</time>
      </trkpt>
      <trkpt lat="49.21051" lon="-0.23848">
        <ele>22.25</ele>
        <time>2015-08-01T14:27:24Z</time>
      </trkpt>
      <trkpt lat="49.21046" lon="-0.23848">
        <ele>22.73</ele>
        <time>2015-08-01T14:27:25Z</time>
      </trkpt>
      <trkpt lat="49.21032" lon="-0.23849">
        <ele>22.73</ele>
        <time>2015-08-01T14:27:28Z</time>
      </trkpt>
      <trkpt lat="49.20957" lon="-0.23859">
        <ele>25.13</ele>
        <time>2015-08-01T14:27:45Z</time>
      </trkpt>
      <trkpt lat="49.20871" lon="-0.23868">
        <ele>27.05</ele>
        <time>2015-08-01T14:28:04Z</time>
      </trkpt>
      <trkpt lat="49.20797" lon="-0.23879">
        <ele>27.53</ele>
        <time>2015-08-01T14:28:20Z</time>
      </trkpt>
      <trkpt lat="49.20793" lon="-0.2388">
        <ele>27.53</ele>
        <time>2015-08-01T14:28:21Z</time>
      </trkpt>
      <trkpt lat="49.20728" lon="-0.23887">
        <ele>27.53</ele>
        <time>2015-08-01T14:28:35Z</time>
      </trkpt>
      <trkpt lat="49.20687" lon="-0.23892">
        <ele>28.02</ele>
        <time>2015-08-01T14:28:44Z</time>
      </trkpt>
      <trkpt lat="49.20682" lon="-0.23892">
        <ele>28.02</ele>
        <time>2015-08-01T14:28:45Z</time>
      </trkpt>
      <trkpt lat="49.20598" lon="-0.23903">
        <ele>28.98</ele>
        <time>2015-08-01T14:29:04Z</time>
      </trkpt>
      <trkpt lat="49.20551" lon="-0.23909">
        <ele>29.94</ele>
        <time>2015-08-01T14:29:18Z</time>
      </trkpt>
      <trkpt lat="49.20503" lon="-0.23914">
        <ele>29.94</ele>
        <time>2015-08-01T14:29:34Z</time>
      </trkpt>
      <trkpt lat="49.20445" lon="-0.2392">
        <ele>30.9</ele>
        <time>2015-08-01T14:29:50Z</time>
      </trkpt>
      <trkpt lat="49.20401" lon="-0.23925">
        <ele>31.86</ele>
        <time>2015-08-01T14:30:01Z</time>
      </trkpt>
      <trkpt lat="49.20397" lon="-0.23927">
        <ele>32.34</ele>
        <time>2015-08-01T14:30:02Z</time>
      </trkpt>
      <trkpt lat="49.20394" lon="-0.23927">
        <ele>32.34</ele>
        <time>2015-08-01T14:30:03Z</time>
      </trkpt>
      <trkpt lat="49.2032" lon="-0.23935">
        <ele>33.78</ele>
        <time>2015-08-01T14:30:21Z</time>
      </trkpt>
      <trkpt lat="49.20251" lon="-0.23942">
        <ele>35.23</ele>
        <time>2015-08-01T14:30:39Z</time>
      </trkpt>
      <trkpt lat="49.20205" lon="-0.23947">
        <ele>35.71</ele>
        <time>2015-08-01T14:30:53Z</time>
      </trkpt>
      <trkpt lat="49.20145" lon="-0.23954">
        <ele>36.19</ele>
        <time>2015-08-01T14:31:09Z</time>
      </trkpt>
      <trkpt lat="49.20083" lon="-0.23962">
        <ele>36.19</ele>
        <time>2015-08-01T14:31:27Z</time>
      </trkpt>
      <trkpt lat="49.20013" lon="-0.2397">
        <ele>36.67</ele>
        <time>2015-08-01T14:31:45Z</time>
      </trkpt>
      <trkpt lat="49.19951" lon="-0.23977">
        <ele>37.15</ele>
        <time>2015-08-01T14:32:00Z</time>
      </trkpt>
      <trkpt lat="49.19893" lon="-0.23982">
        <ele>37.63</ele>
        <time>2015-08-01T14:32:14Z</time>
      </trkpt>
      <trkpt lat="49.19889" lon="-0.23983">
        <ele>37.63</ele>
        <time>2015-08-01T14:32:15Z</time>
      </trkpt>
      <trkpt lat="49.19815" lon="-0.23986">
        <ele>37.63</ele>
        <time>2015-08-01T14:32:32Z</time>
      </trkpt>
      <trkpt lat="49.19741" lon="-0.23967">
        <ele>37.15</ele>
        <time>2015-08-01T14:32:48Z</time>
      </trkpt>
      <trkpt lat="49.19685" lon="-0.2395">
        <ele>37.63</ele>
        <time>2015-08-01T14:33:00Z</time>
      </trkpt>
      <trkpt lat="49.1968" lon="-0.23949">
        <ele>37.15</ele>
        <time>2015-08-01T14:33:01Z</time>
      </trkpt>
      <trkpt lat="49.19617" lon="-0.23943">
        <ele>36.67</ele>
        <time>2015-08-01T14:33:14Z</time>
      </trkpt>
      <trkpt lat="49.19613" lon="-0.23943">
        <ele>36.67</ele>
        <time>2015-08-01T14:33:15Z</time>
      </trkpt>
      <trkpt lat="49.19608" lon="-0.23944">
        <ele>36.67</ele>
        <time>2015-08-01T14:33:16Z</time>
      </trkpt>
      <trkpt lat="49.19535" lon="-0.23954">
        <ele>35.71</ele>
        <time>2015-08-01T14:33:31Z</time>
      </trkpt>
      <trkpt lat="49.19499" lon="-0.23961">
        <ele>35.71</ele>
        <time>2015-08-01T14:33:38Z</time>
      </trkpt>
      <trkpt lat="49.19428" lon="-0.23976">
        <ele>35.23</ele>
        <time>2015-08-01T14:33:52Z</time>
      </trkpt>
      <trkpt lat="49.19354" lon="-0.24005">
        <ele>34.26</ele>
        <time>2015-08-01T14:34:07Z</time>
      </trkpt>
      <trkpt lat="49.19258" lon="-0.24041">
        <ele>34.26</ele>
        <time>2015-08-01T14:34:26Z</time>
      </trkpt>
      <trkpt lat="49.19169" lon="-0.24076">
        <ele>33.78</ele>
        <time>2015-08-01T14:34:43Z</time>
      </trkpt>
      <trkpt lat="49.19072" lon="-0.24113">
        <ele>33.3</ele>
        <time>2015-08-01T14:35:00Z</time>
      </trkpt>
      <trkpt lat="49.18994" lon="-0.24121">
        <ele>32.82</ele>
        <time>2015-08-01T14:35:13Z</time>
      </trkpt>
      <trkpt lat="49.18991" lon="-0.24118">
        <ele>33.3</ele>
        <time>2015-08-01T14:35:14Z</time>
      </trkpt>
      <trkpt lat="49.18989" lon="-0.24113">
        <ele>33.3</ele>
        <time>2015-08-01T14:35:15Z</time>
      </trkpt>
      <trkpt lat="49.18988" lon="-0.24107">
        <ele>33.3</ele>
        <time>2015-08-01T14:35:16Z</time>
      </trkpt>
      <trkpt lat="49.18989" lon="-0.24101">
        <ele>33.3</ele>
        <time>2015-08-01T14:35:17Z</time>
      </trkpt>
      <trkpt lat="49.1899" lon="-0.24095">
        <ele>33.3</ele>
        <time>2015-08-01T14:35:18Z</time>
      </trkpt>
      <trkpt lat="49.18991" lon="-0.24089">
        <ele>33.78</ele>
        <time>2015-08-01T14:35:19Z</time>
      </trkpt>
      <trkpt lat="49.19001" lon="-0.24027">
        <ele>33.3</ele>
        <time>2015-08-01T14:35:29Z</time>
      </trkpt>
      <trkpt lat="49.19002" lon="-0.2402">
        <ele>33.78</ele>
        <time>2015-08-01T14:35:30Z</time>
      </trkpt>
      <trkpt lat="49.19007" lon="-0.23983">
        <ele>33.3</ele>
        <time>2015-08-01T14:35:36Z</time>
      </trkpt>
      <trkpt lat="49.19008" lon="-0.23977">
        <ele>33.3</ele>
        <time>2015-08-01T14:35:37Z</time>
      </trkpt>
      <trkpt lat="49.19011" lon="-0.23953">
        <ele>33.3</ele>
        <time>2015-08-01T14:35:41Z</time>
      </trkpt>
      <trkpt lat="49.19012" lon="-0.23947">
        <ele>33.3</ele>
        <time>2015-08-01T14:35:42Z</time>
      </trkpt>
      <trkpt lat="49.19018" lon="-0.23902">
        <ele>32.82</ele>
        <time>2015-08-01T14:35:49Z</time>
      </trkpt>
      <trkpt lat="49.1902" lon="-0.23889">
        <ele>32.34</ele>
        <time>2015-08-01T14:35:51Z</time>
      </trkpt>
      <trkpt lat="49.1902" lon="-0.23882">
        <ele>32.82</ele>
        <time>2015-08-01T14:35:52Z</time>
      </trkpt>
      <trkpt lat="49.19028" lon="-0.23767">
        <ele>31.38</ele>
        <time>2015-08-01T14:36:09Z</time>
      </trkpt>
      <trkpt lat="49.19032" lon="-0.23648">
        <ele>30.42</ele>
        <time>2015-08-01T14:36:26Z</time>
      </trkpt>
      <trkpt lat="49.19032" lon="-0.23642">
        <ele>29.94</ele>
        <time>2015-08-01T14:36:27Z</time>
      </trkpt>
      <trkpt lat="49.19032" lon="-0.23635">
        <ele>30.42</ele>
        <time>2015-08-01T14:36:28Z</time>
      </trkpt>
      <trkpt lat="49.19032" lon="-0.23556">
        <ele>29.94</ele>
        <time>2015-08-01T14:36:42Z</time>
      </trkpt>
      <trkpt lat="49.19032" lon="-0.23505">
        <ele>29.94</ele>
        <time>2015-08-01T14:36:54Z</time>
      </trkpt>
      <trkpt lat="49.19032" lon="-0.23494">
        <ele>29.94</ele>
        <time>2015-08-01T14:36:56Z</time>
      </trkpt>
      <trkpt lat="49.19032" lon="-0.23487">
        <ele>29.94</ele>
        <time>2015-08-01T14:36:57Z</time>
      </trkpt>
      <trkpt lat="49.19032" lon="-0.23481">
        <ele>29.94</ele>
        <time>2015-08-01T14:36:58Z</time>
      </trkpt>
      <trkpt lat="49.19032" lon="-0.23475">
        <ele>29.94</ele>
        <time>2015-08-01T14:36:59Z</time>
      </trkpt>
      <trkpt lat="49.19031" lon="-0.2347">
        <ele>29.94</ele>
        <time>2015-08-01T14:37:00Z</time>
      </trkpt>
      <trkpt lat="49.19026" lon="-0.23349">
        <ele>29.94</ele>
        <time>2015-08-01T14:37:19Z</time>
      </trkpt>
      <trkpt lat="49.19019" lon="-0.23263">
        <ele>29.46</ele>
        <time>2015-08-01T14:37:32Z</time>
      </trkpt>
      <trkpt lat="49.19013" lon="-0.23197">
        <ele>28.98</ele>
        <time>2015-08-01T14:37:43Z</time>
      </trkpt>
      <trkpt lat="49.19012" lon="-0.23184">
        <ele>28.98</ele>
        <time>2015-08-01T14:37:45Z</time>
      </trkpt>
      <trkpt lat="49.19001" lon="-0.23068">
        <ele>28.98</ele>
        <time>2015-08-01T14:38:03Z</time>
      </trkpt>
      <trkpt lat="49.18986" lon="-0.22966">
        <ele>28.02</ele>
        <time>2015-08-01T14:38:19Z</time>
      </trkpt>
      <trkpt lat="49.18963" lon="-0.22864">
        <ele>27.53</ele>
        <time>2015-08-01T14:38:35Z</time>
      </trkpt>
      <trkpt lat="49.18951" lon="-0.2281">
        <ele>26.57</ele>
        <time>2015-08-01T14:38:43Z</time>
      </trkpt>
      <trkpt lat="49.18929" lon="-0.22721">
        <ele>23.21</ele>
        <time>2015-08-01T14:38:54Z</time>
      </trkpt>
      <trkpt lat="49.18914" lon="-0.22647">
        <ele>21.29</ele>
        <time>2015-08-01T14:39:05Z</time>
      </trkpt>
      <trkpt lat="49.18908" lon="-0.22619">
        <ele>20.32</ele>
        <time>2015-08-01T14:39:12Z</time>
      </trkpt>
      <trkpt lat="49.189" lon="-0.22593">
        <ele>18.88</ele>
        <time>2015-08-01T14:39:19Z</time>
      </trkpt>
      <trkpt lat="49.18897" lon="-0.22589">
        <ele>18.4</ele>
        <time>2015-08-01T14:39:20Z</time>
      </trkpt>
      <trkpt lat="49.18851" lon="-0.22562">
        <ele>17.92</ele>
        <time>2015-08-01T14:39:31Z</time>
      </trkpt>
      <trkpt lat="49.18847" lon="-0.22559">
        <ele>17.92</ele>
        <time>2015-08-01T14:39:32Z</time>
      </trkpt>
      <trkpt lat="49.18844" lon="-0.22555">
        <ele>18.4</ele>
        <time>2015-08-01T14:39:33Z</time>
      </trkpt>
      <trkpt lat="49.18842" lon="-0.22549">
        <ele>17.92</ele>
        <time>2015-08-01T14:39:34Z</time>
      </trkpt>
      <trkpt lat="49.18841" lon="-0.22542">
        <ele>17.92</ele>
        <time>2015-08-01T14:39:35Z</time>
      </trkpt>
      <trkpt lat="49.1884" lon="-0.22535">
        <ele>17.92</ele>
        <time>2015-08-01T14:39:36Z</time>
      </trkpt>
      <trkpt lat="49.1884" lon="-0.22527">
        <ele>17.44</ele>
        <time>2015-08-01T14:39:37Z</time>
      </trkpt>
      <trkpt lat="49.18841" lon="-0.22478">
        <ele>16.96</ele>
        <time>2015-08-01T14:39:44Z</time>
      </trkpt>
      <trkpt lat="49.18842" lon="-0.22465">
        <ele>16.96</ele>
        <time>2015-08-01T14:39:46Z</time>
      </trkpt>
      <trkpt lat="49.18849" lon="-0.2244">
        <ele>16.48</ele>
        <time>2015-08-01T14:39:50Z</time>
      </trkpt>
      <trkpt lat="49.18851" lon="-0.22435">
        <ele>16.48</ele>
        <time>2015-08-01T14:39:51Z</time>
      </trkpt>
      <trkpt lat="49.18855" lon="-0.22432">
        <ele>16.48</ele>
        <time>2015-08-01T14:39:52Z</time>
      </trkpt>
      <trkpt lat="49.18858" lon="-0.22433">
        <ele>16.48</ele>
        <time>2015-08-01T14:39:53Z</time>
      </trkpt>
      <trkpt lat="49.18869" lon="-0.22437">
        <ele>16.48</ele>
        <time>2015-08-01T14:40:00Z</time>
      </trkpt>
      <trkpt lat="49.18872" lon="-0.22435">
        <ele>16.48</ele>
        <time>2015-08-01T14:40:22Z</time>
      </trkpt>
      <trkpt lat="49.18873" lon="-0.22436">
        <ele>16.48</ele>
        <time>2015-08-01T14:40:37Z</time>
      </trkpt>
      <trkpt lat="49.18873" lon="-0.22436">
        <ele>16</ele>
        <time>2015-08-01T14:40:43Z</time>
      </trkpt>
      <trkpt lat="49.18874" lon="-0.22441">
        <ele>16</ele>
        <time>2015-08-01T14:42:11Z</time>
      </trkpt>
      <trkpt lat="49.18873" lon="-0.22445">
        <ele>16.48</ele>
        <time>2015-08-01T14:42:12Z</time>
      </trkpt>
      <trkpt lat="49.18879" lon="-0.22439">
        <ele>17.44</ele>
        <time>2015-08-01T14:42:40Z</time>
      </trkpt>
      <trkpt lat="49.1888" lon="-0.22439">
        <ele>14.56</ele>
        <time>2015-08-01T14:42:42Z</time>
      </trkpt>
      <trkpt lat="49.18879" lon="-0.2244">
        <ele>17.92</ele>
        <time>2015-08-01T14:42:52Z</time>
      </trkpt>
      <trkpt lat="49.18879" lon="-0.22439">
        <ele>13.6</ele>
        <time>2015-08-01T14:43:09Z</time>
      </trkpt>
      <trkpt lat="49.18878" lon="-0.22439">
        <ele>16.96</ele>
        <time>2015-08-01T14:43:22Z</time>
      </trkpt>
      <trkpt lat="49.18878" lon="-0.22435">
        <ele>16.96</ele>
        <time>2015-08-01T14:43:45Z</time>
      </trkpt>
      <trkpt lat="49.18866" lon="-0.22433">
        <ele>16</ele>
        <time>2015-08-01T14:45:28Z</time>
      </trkpt>
      <trkpt lat="49.18869" lon="-0.22432">
        <ele>16.48</ele>
        <time>2015-08-01T14:45:29Z</time>
      </trkpt>
    </trkseg>
  </trk>
</gpx>